<?xml version="1.0" encoding="UTF-8" standalone="no" ?>
<gpx xmlns="http://www.topografix.com/GPX/1/1" xmlns:xsi="http://www.w3.org/2001/XMLSchema-instance" xsi:schemaLocation="http://www.topografix.com/GPX/1/1 http://www.topografix.com/GPX/1/1/gpx.xsd" version="1.1" creator="VisuGPX - https://www.visugpx.com">
  <metadata>
    <name>Rocheplane aulp du seuil</name>
    <desc><![CDATA[Départ et arrivée de Saint Hilaire du Touvet. Boucle Rocheplane, Bellefond Aulp du Seuil.]]></desc>
  </metadata>
  <trk>
    <name><![CDATA[2011-11-15T12:00:15Z]]></name>
    <trkseg>
      <trkpt lat="45.31456" lon="5.88631">
        <ele>992.8</ele>
        <time>2011-11-15T12:00:15Z</time>
      </trkpt>
      <trkpt lat="45.3146" lon="5.88635">
        <ele>991.6</ele>
        <time>2011-11-15T12:00:19Z</time>
      </trkpt>
      <trkpt lat="45.31466" lon="5.88637">
        <ele>990.8</ele>
        <time>2011-11-15T12:00:23Z</time>
      </trkpt>
      <trkpt lat="45.31462" lon="5.88634">
        <ele>990.2</ele>
        <time>2011-11-15T12:00:26Z</time>
      </trkpt>
      <trkpt lat="45.31461" lon="5.88632">
        <ele>990</ele>
        <time>2011-11-15T12:00:27Z</time>
      </trkpt>
      <trkpt lat="45.31448" lon="5.88625">
        <ele>985.4</ele>
        <time>2011-11-15T12:00:58Z</time>
      </trkpt>
      <trkpt lat="45.31449" lon="5.88626">
        <ele>985.2</ele>
        <time>2011-11-15T12:00:59Z</time>
      </trkpt>
      <trkpt lat="45.31461" lon="5.88634">
        <ele>984.4</ele>
        <time>2011-11-15T12:01:05Z</time>
      </trkpt>
      <trkpt lat="45.31465" lon="5.88636">
        <ele>984</ele>
        <time>2011-11-15T12:01:07Z</time>
      </trkpt>
      <trkpt lat="45.31471" lon="5.88637">
        <ele>983.6</ele>
        <time>2011-11-15T12:01:10Z</time>
      </trkpt>
      <trkpt lat="45.31484" lon="5.88638">
        <ele>983</ele>
        <time>2011-11-15T12:01:15Z</time>
      </trkpt>
      <trkpt lat="45.31502" lon="5.88642">
        <ele>982.2</ele>
        <time>2011-11-15T12:01:23Z</time>
      </trkpt>
      <trkpt lat="45.31516" lon="5.88649">
        <ele>981.8</ele>
        <time>2011-11-15T12:01:29Z</time>
      </trkpt>
      <trkpt lat="45.31521" lon="5.88653">
        <ele>981.6</ele>
        <time>2011-11-15T12:01:31Z</time>
      </trkpt>
      <trkpt lat="45.31527" lon="5.88656">
        <ele>981.4</ele>
        <time>2011-11-15T12:01:34Z</time>
      </trkpt>
      <trkpt lat="45.31541" lon="5.88653">
        <ele>981</ele>
        <time>2011-11-15T12:01:40Z</time>
      </trkpt>
      <trkpt lat="45.31555" lon="5.88658">
        <ele>980.6</ele>
        <time>2011-11-15T12:01:46Z</time>
      </trkpt>
      <trkpt lat="45.31557" lon="5.8866">
        <ele>980.4</ele>
        <time>2011-11-15T12:01:47Z</time>
      </trkpt>
      <trkpt lat="45.31563" lon="5.88662">
        <ele>980.2</ele>
        <time>2011-11-15T12:01:50Z</time>
      </trkpt>
      <trkpt lat="45.31574" lon="5.88661">
        <ele>979.8</ele>
        <time>2011-11-15T12:01:54Z</time>
      </trkpt>
      <trkpt lat="45.3158" lon="5.88661">
        <ele>979.8</ele>
        <time>2011-11-15T12:01:56Z</time>
      </trkpt>
      <trkpt lat="45.31595" lon="5.88663">
        <ele>979.2</ele>
        <time>2011-11-15T12:02:01Z</time>
      </trkpt>
      <trkpt lat="45.31598" lon="5.88664">
        <ele>979.2</ele>
        <time>2011-11-15T12:02:02Z</time>
      </trkpt>
      <trkpt lat="45.31613" lon="5.88672">
        <ele>978.6</ele>
        <time>2011-11-15T12:02:08Z</time>
      </trkpt>
      <trkpt lat="45.31627" lon="5.8868">
        <ele>978</ele>
        <time>2011-11-15T12:02:14Z</time>
      </trkpt>
      <trkpt lat="45.31629" lon="5.88679">
        <ele>978</ele>
        <time>2011-11-15T12:02:15Z</time>
      </trkpt>
      <trkpt lat="45.31631" lon="5.88678">
        <ele>978</ele>
        <time>2011-11-15T12:02:16Z</time>
      </trkpt>
      <trkpt lat="45.31633" lon="5.88675">
        <ele>977.8</ele>
        <time>2011-11-15T12:02:18Z</time>
      </trkpt>
      <trkpt lat="45.31637" lon="5.88665">
        <ele>977.4</ele>
        <time>2011-11-15T12:02:23Z</time>
      </trkpt>
      <trkpt lat="45.31643" lon="5.88658">
        <ele>977</ele>
        <time>2011-11-15T12:02:27Z</time>
      </trkpt>
      <trkpt lat="45.31645" lon="5.88655">
        <ele>976.8</ele>
        <time>2011-11-15T12:02:29Z</time>
      </trkpt>
      <trkpt lat="45.31651" lon="5.88651">
        <ele>976.6</ele>
        <time>2011-11-15T12:02:33Z</time>
      </trkpt>
      <trkpt lat="45.31653" lon="5.88649">
        <ele>976.6</ele>
        <time>2011-11-15T12:02:35Z</time>
      </trkpt>
      <trkpt lat="45.31658" lon="5.88642">
        <ele>976.4</ele>
        <time>2011-11-15T12:02:40Z</time>
      </trkpt>
      <trkpt lat="45.3166" lon="5.88639">
        <ele>976.6</ele>
        <time>2011-11-15T12:02:42Z</time>
      </trkpt>
      <trkpt lat="45.31668" lon="5.88633">
        <ele>976.8</ele>
        <time>2011-11-15T12:02:48Z</time>
      </trkpt>
      <trkpt lat="45.31675" lon="5.88629">
        <ele>977.2</ele>
        <time>2011-11-15T12:02:53Z</time>
      </trkpt>
      <trkpt lat="45.31679" lon="5.88626">
        <ele>977.8</ele>
        <time>2011-11-15T12:02:56Z</time>
      </trkpt>
      <trkpt lat="45.31689" lon="5.88618">
        <ele>978.2</ele>
        <time>2011-11-15T12:03:00Z</time>
      </trkpt>
      <trkpt lat="45.31691" lon="5.88617">
        <ele>978.4</ele>
        <time>2011-11-15T12:03:01Z</time>
      </trkpt>
      <trkpt lat="45.31695" lon="5.88611">
        <ele>978.8</ele>
        <time>2011-11-15T12:03:03Z</time>
      </trkpt>
      <trkpt lat="45.31702" lon="5.88601">
        <ele>979.2</ele>
        <time>2011-11-15T12:03:07Z</time>
      </trkpt>
      <trkpt lat="45.31705" lon="5.88601">
        <ele>979.2</ele>
        <time>2011-11-15T12:03:08Z</time>
      </trkpt>
      <trkpt lat="45.31711" lon="5.88597">
        <ele>979.4</ele>
        <time>2011-11-15T12:03:12Z</time>
      </trkpt>
      <trkpt lat="45.31712" lon="5.88596">
        <ele>979.4</ele>
        <time>2011-11-15T12:03:13Z</time>
      </trkpt>
      <trkpt lat="45.31714" lon="5.88596">
        <ele>979.4</ele>
        <time>2011-11-15T12:03:15Z</time>
      </trkpt>
      <trkpt lat="45.31717" lon="5.88594">
        <ele>979.6</ele>
        <time>2011-11-15T12:03:17Z</time>
      </trkpt>
      <trkpt lat="45.31719" lon="5.88595">
        <ele>979.8</ele>
        <time>2011-11-15T12:03:19Z</time>
      </trkpt>
      <trkpt lat="45.3172" lon="5.88594">
        <ele>979.8</ele>
        <time>2011-11-15T12:03:20Z</time>
      </trkpt>
      <trkpt lat="45.31723" lon="5.88593">
        <ele>980</ele>
        <time>2011-11-15T12:03:22Z</time>
      </trkpt>
      <trkpt lat="45.31726" lon="5.88591">
        <ele>980.4</ele>
        <time>2011-11-15T12:03:26Z</time>
      </trkpt>
      <trkpt lat="45.31722" lon="5.88602">
        <ele>994.2</ele>
        <time>2011-11-15T12:03:52Z</time>
      </trkpt>
      <trkpt lat="45.31725" lon="5.88604">
        <ele>996.4</ele>
        <time>2011-11-15T12:03:56Z</time>
      </trkpt>
      <trkpt lat="45.31726" lon="5.88602">
        <ele>996.8</ele>
        <time>2011-11-15T12:03:57Z</time>
      </trkpt>
      <trkpt lat="45.31731" lon="5.88602">
        <ele>998.4</ele>
        <time>2011-11-15T12:04:01Z</time>
      </trkpt>
      <trkpt lat="45.31733" lon="5.886">
        <ele>998.4</ele>
        <time>2011-11-15T12:04:02Z</time>
      </trkpt>
      <trkpt lat="45.31736" lon="5.88595">
        <ele>999</ele>
        <time>2011-11-15T12:04:06Z</time>
      </trkpt>
      <trkpt lat="45.31738" lon="5.88589">
        <ele>999.4</ele>
        <time>2011-11-15T12:04:09Z</time>
      </trkpt>
      <trkpt lat="45.31742" lon="5.88582">
        <ele>999</ele>
        <time>2011-11-15T12:04:14Z</time>
      </trkpt>
      <trkpt lat="45.31743" lon="5.88582">
        <ele>999</ele>
        <time>2011-11-15T12:04:15Z</time>
      </trkpt>
      <trkpt lat="45.31743" lon="5.88581">
        <ele>999</ele>
        <time>2011-11-15T12:04:16Z</time>
      </trkpt>
      <trkpt lat="45.31743" lon="5.88578">
        <ele>999</ele>
        <time>2011-11-15T12:04:18Z</time>
      </trkpt>
      <trkpt lat="45.31745" lon="5.88573">
        <ele>999</ele>
        <time>2011-11-15T12:04:22Z</time>
      </trkpt>
      <trkpt lat="45.31746" lon="5.8857">
        <ele>999</ele>
        <time>2011-11-15T12:04:26Z</time>
      </trkpt>
      <trkpt lat="45.31751" lon="5.88555">
        <ele>998.8</ele>
        <time>2011-11-15T12:04:36Z</time>
      </trkpt>
      <trkpt lat="45.31755" lon="5.88545">
        <ele>998.8</ele>
        <time>2011-11-15T12:04:42Z</time>
      </trkpt>
      <trkpt lat="45.31756" lon="5.88542">
        <ele>998.8</ele>
        <time>2011-11-15T12:04:44Z</time>
      </trkpt>
      <trkpt lat="45.31756" lon="5.88541">
        <ele>999</ele>
        <time>2011-11-15T12:04:45Z</time>
      </trkpt>
      <trkpt lat="45.31757" lon="5.88537">
        <ele>999.6</ele>
        <time>2011-11-15T12:04:49Z</time>
      </trkpt>
      <trkpt lat="45.3176" lon="5.88532">
        <ele>1000.4</ele>
        <time>2011-11-15T12:04:52Z</time>
      </trkpt>
      <trkpt lat="45.31761" lon="5.8853">
        <ele>1000.4</ele>
        <time>2011-11-15T12:04:53Z</time>
      </trkpt>
      <trkpt lat="45.31762" lon="5.88527">
        <ele>1000.6</ele>
        <time>2011-11-15T12:04:54Z</time>
      </trkpt>
      <trkpt lat="45.31763" lon="5.88525">
        <ele>1001</ele>
        <time>2011-11-15T12:04:55Z</time>
      </trkpt>
      <trkpt lat="45.31765" lon="5.88517">
        <ele>1001.8</ele>
        <time>2011-11-15T12:04:59Z</time>
      </trkpt>
      <trkpt lat="45.3177" lon="5.88511">
        <ele>1003.2</ele>
        <time>2011-11-15T12:05:04Z</time>
      </trkpt>
      <trkpt lat="45.31772" lon="5.88509">
        <ele>1003.8</ele>
        <time>2011-11-15T12:05:06Z</time>
      </trkpt>
      <trkpt lat="45.31774" lon="5.88506">
        <ele>1004.2</ele>
        <time>2011-11-15T12:05:08Z</time>
      </trkpt>
      <trkpt lat="45.31776" lon="5.88503">
        <ele>1005</ele>
        <time>2011-11-15T12:05:11Z</time>
      </trkpt>
      <trkpt lat="45.31779" lon="5.88502">
        <ele>1005.6</ele>
        <time>2011-11-15T12:05:13Z</time>
      </trkpt>
      <trkpt lat="45.31783" lon="5.885">
        <ele>1006.6</ele>
        <time>2011-11-15T12:05:17Z</time>
      </trkpt>
      <trkpt lat="45.31786" lon="5.88496">
        <ele>1007.6</ele>
        <time>2011-11-15T12:05:20Z</time>
      </trkpt>
      <trkpt lat="45.31787" lon="5.88496">
        <ele>1008</ele>
        <time>2011-11-15T12:05:21Z</time>
      </trkpt>
      <trkpt lat="45.31788" lon="5.88495">
        <ele>1008.2</ele>
        <time>2011-11-15T12:05:22Z</time>
      </trkpt>
      <trkpt lat="45.3179" lon="5.88494">
        <ele>1009.6</ele>
        <time>2011-11-15T12:05:26Z</time>
      </trkpt>
      <trkpt lat="45.31791" lon="5.88492">
        <ele>1010.4</ele>
        <time>2011-11-15T12:05:28Z</time>
      </trkpt>
      <trkpt lat="45.31793" lon="5.8849">
        <ele>1011.6</ele>
        <time>2011-11-15T12:05:31Z</time>
      </trkpt>
      <trkpt lat="45.31795" lon="5.88489">
        <ele>1012.2</ele>
        <time>2011-11-15T12:05:33Z</time>
      </trkpt>
      <trkpt lat="45.31798" lon="5.88486">
        <ele>1012.8</ele>
        <time>2011-11-15T12:05:36Z</time>
      </trkpt>
      <trkpt lat="45.31798" lon="5.88484">
        <ele>1013</ele>
        <time>2011-11-15T12:05:37Z</time>
      </trkpt>
      <trkpt lat="45.31801" lon="5.88479">
        <ele>1014.2</ele>
        <time>2011-11-15T12:05:41Z</time>
      </trkpt>
      <trkpt lat="45.31803" lon="5.88477">
        <ele>1014.8</ele>
        <time>2011-11-15T12:05:43Z</time>
      </trkpt>
      <trkpt lat="45.31809" lon="5.88473">
        <ele>1016.6</ele>
        <time>2011-11-15T12:05:49Z</time>
      </trkpt>
      <trkpt lat="45.31812" lon="5.88473">
        <ele>1017.4</ele>
        <time>2011-11-15T12:05:52Z</time>
      </trkpt>
      <trkpt lat="45.31816" lon="5.88471">
        <ele>1018</ele>
        <time>2011-11-15T12:05:55Z</time>
      </trkpt>
      <trkpt lat="45.31817" lon="5.8847">
        <ele>1018</ele>
        <time>2011-11-15T12:05:56Z</time>
      </trkpt>
      <trkpt lat="45.31818" lon="5.88468">
        <ele>1018.2</ele>
        <time>2011-11-15T12:05:57Z</time>
      </trkpt>
      <trkpt lat="45.31821" lon="5.88463">
        <ele>1018.6</ele>
        <time>2011-11-15T12:06:01Z</time>
      </trkpt>
      <trkpt lat="45.31826" lon="5.88458">
        <ele>1019.2</ele>
        <time>2011-11-15T12:06:07Z</time>
      </trkpt>
      <trkpt lat="45.31827" lon="5.88456">
        <ele>1019.4</ele>
        <time>2011-11-15T12:06:08Z</time>
      </trkpt>
      <trkpt lat="45.3183" lon="5.8845">
        <ele>1020</ele>
        <time>2011-11-15T12:06:12Z</time>
      </trkpt>
      <trkpt lat="45.3183" lon="5.88448">
        <ele>1020.2</ele>
        <time>2011-11-15T12:06:13Z</time>
      </trkpt>
      <trkpt lat="45.31831" lon="5.88444">
        <ele>1020.6</ele>
        <time>2011-11-15T12:06:15Z</time>
      </trkpt>
      <trkpt lat="45.31832" lon="5.88438">
        <ele>1022.2</ele>
        <time>2011-11-15T12:06:20Z</time>
      </trkpt>
      <trkpt lat="45.31833" lon="5.88436">
        <ele>1023</ele>
        <time>2011-11-15T12:06:23Z</time>
      </trkpt>
      <trkpt lat="45.31834" lon="5.88433">
        <ele>1024</ele>
        <time>2011-11-15T12:06:25Z</time>
      </trkpt>
      <trkpt lat="45.31836" lon="5.88429">
        <ele>1025.2</ele>
        <time>2011-11-15T12:06:28Z</time>
      </trkpt>
      <trkpt lat="45.3184" lon="5.88427">
        <ele>1026.4</ele>
        <time>2011-11-15T12:06:32Z</time>
      </trkpt>
      <trkpt lat="45.31841" lon="5.88426">
        <ele>1026.8</ele>
        <time>2011-11-15T12:06:33Z</time>
      </trkpt>
      <trkpt lat="45.31845" lon="5.88423">
        <ele>1028</ele>
        <time>2011-11-15T12:06:37Z</time>
      </trkpt>
      <trkpt lat="45.31854" lon="5.88424">
        <ele>1029.2</ele>
        <time>2011-11-15T12:06:43Z</time>
      </trkpt>
      <trkpt lat="45.31856" lon="5.88423">
        <ele>1029.4</ele>
        <time>2011-11-15T12:06:44Z</time>
      </trkpt>
      <trkpt lat="45.31859" lon="5.8842">
        <ele>1030</ele>
        <time>2011-11-15T12:06:47Z</time>
      </trkpt>
      <trkpt lat="45.31861" lon="5.8842">
        <ele>1030.6</ele>
        <time>2011-11-15T12:06:49Z</time>
      </trkpt>
      <trkpt lat="45.31865" lon="5.88414">
        <ele>1032</ele>
        <time>2011-11-15T12:06:54Z</time>
      </trkpt>
      <trkpt lat="45.31866" lon="5.88412">
        <ele>1032.6</ele>
        <time>2011-11-15T12:06:57Z</time>
      </trkpt>
      <trkpt lat="45.31871" lon="5.88406">
        <ele>1034</ele>
        <time>2011-11-15T12:07:03Z</time>
      </trkpt>
      <trkpt lat="45.31873" lon="5.88401">
        <ele>1034.8</ele>
        <time>2011-11-15T12:07:07Z</time>
      </trkpt>
      <trkpt lat="45.31875" lon="5.88399">
        <ele>1035.2</ele>
        <time>2011-11-15T12:07:10Z</time>
      </trkpt>
      <trkpt lat="45.31875" lon="5.88397">
        <ele>1035.4</ele>
        <time>2011-11-15T12:07:11Z</time>
      </trkpt>
      <trkpt lat="45.31878" lon="5.8839">
        <ele>1036.4</ele>
        <time>2011-11-15T12:07:16Z</time>
      </trkpt>
      <trkpt lat="45.31878" lon="5.88389">
        <ele>1036.6</ele>
        <time>2011-11-15T12:07:17Z</time>
      </trkpt>
      <trkpt lat="45.31879" lon="5.88387">
        <ele>1036.8</ele>
        <time>2011-11-15T12:07:19Z</time>
      </trkpt>
      <trkpt lat="45.3188" lon="5.88383">
        <ele>1037.8</ele>
        <time>2011-11-15T12:07:23Z</time>
      </trkpt>
      <trkpt lat="45.31883" lon="5.8838">
        <ele>1038.8</ele>
        <time>2011-11-15T12:07:27Z</time>
      </trkpt>
      <trkpt lat="45.31888" lon="5.88378">
        <ele>1039.4</ele>
        <time>2011-11-15T12:07:31Z</time>
      </trkpt>
      <trkpt lat="45.31895" lon="5.88375">
        <ele>1039.8</ele>
        <time>2011-11-15T12:07:36Z</time>
      </trkpt>
      <trkpt lat="45.319" lon="5.8837">
        <ele>1040.8</ele>
        <time>2011-11-15T12:07:42Z</time>
      </trkpt>
      <trkpt lat="45.31901" lon="5.88369">
        <ele>1041</ele>
        <time>2011-11-15T12:07:43Z</time>
      </trkpt>
      <trkpt lat="45.31903" lon="5.88363">
        <ele>1042.2</ele>
        <time>2011-11-15T12:07:49Z</time>
      </trkpt>
      <trkpt lat="45.31906" lon="5.8836">
        <ele>1042.4</ele>
        <time>2011-11-15T12:07:54Z</time>
      </trkpt>
      <trkpt lat="45.31907" lon="5.88359">
        <ele>1042.4</ele>
        <time>2011-11-15T12:07:55Z</time>
      </trkpt>
      <trkpt lat="45.31909" lon="5.88355">
        <ele>1042.4</ele>
        <time>2011-11-15T12:07:59Z</time>
      </trkpt>
      <trkpt lat="45.31912" lon="5.88352">
        <ele>1042.4</ele>
        <time>2011-11-15T12:08:02Z</time>
      </trkpt>
      <trkpt lat="45.31913" lon="5.8835">
        <ele>1043</ele>
        <time>2011-11-15T12:08:04Z</time>
      </trkpt>
      <trkpt lat="45.31913" lon="5.88349">
        <ele>1043</ele>
        <time>2011-11-15T12:08:05Z</time>
      </trkpt>
      <trkpt lat="45.31914" lon="5.88348">
        <ele>1043.2</ele>
        <time>2011-11-15T12:08:06Z</time>
      </trkpt>
      <trkpt lat="45.31916" lon="5.88349">
        <ele>1043.2</ele>
        <time>2011-11-15T12:08:09Z</time>
      </trkpt>
      <trkpt lat="45.3192" lon="5.88344">
        <ele>1043</ele>
        <time>2011-11-15T12:08:13Z</time>
      </trkpt>
      <trkpt lat="45.3192" lon="5.88339">
        <ele>1043.4</ele>
        <time>2011-11-15T12:08:16Z</time>
      </trkpt>
      <trkpt lat="45.31925" lon="5.88333">
        <ele>1043.8</ele>
        <time>2011-11-15T12:08:21Z</time>
      </trkpt>
      <trkpt lat="45.31926" lon="5.88331">
        <ele>1043.8</ele>
        <time>2011-11-15T12:08:23Z</time>
      </trkpt>
      <trkpt lat="45.31928" lon="5.88328">
        <ele>1044</ele>
        <time>2011-11-15T12:08:26Z</time>
      </trkpt>
      <trkpt lat="45.31931" lon="5.88326">
        <ele>1044.4</ele>
        <time>2011-11-15T12:08:28Z</time>
      </trkpt>
      <trkpt lat="45.31931" lon="5.88326">
        <ele>1044.6</ele>
        <time>2011-11-15T12:08:29Z</time>
      </trkpt>
      <trkpt lat="45.31933" lon="5.88324">
        <ele>1045</ele>
        <time>2011-11-15T12:08:32Z</time>
      </trkpt>
      <trkpt lat="45.31937" lon="5.88321">
        <ele>1045.2</ele>
        <time>2011-11-15T12:08:35Z</time>
      </trkpt>
      <trkpt lat="45.31939" lon="5.88317">
        <ele>1046</ele>
        <time>2011-11-15T12:08:38Z</time>
      </trkpt>
      <trkpt lat="45.31941" lon="5.88315">
        <ele>1046.2</ele>
        <time>2011-11-15T12:08:40Z</time>
      </trkpt>
      <trkpt lat="45.31943" lon="5.88315">
        <ele>1046.4</ele>
        <time>2011-11-15T12:08:41Z</time>
      </trkpt>
      <trkpt lat="45.31944" lon="5.88314">
        <ele>1046.4</ele>
        <time>2011-11-15T12:08:42Z</time>
      </trkpt>
      <trkpt lat="45.31947" lon="5.88313">
        <ele>1047.4</ele>
        <time>2011-11-15T12:08:46Z</time>
      </trkpt>
      <trkpt lat="45.31952" lon="5.8831">
        <ele>1048</ele>
        <time>2011-11-15T12:08:50Z</time>
      </trkpt>
      <trkpt lat="45.31954" lon="5.88309">
        <ele>1048.4</ele>
        <time>2011-11-15T12:08:52Z</time>
      </trkpt>
      <trkpt lat="45.31957" lon="5.88303">
        <ele>1049</ele>
        <time>2011-11-15T12:08:56Z</time>
      </trkpt>
      <trkpt lat="45.31957" lon="5.88302">
        <ele>1049.2</ele>
        <time>2011-11-15T12:08:57Z</time>
      </trkpt>
      <trkpt lat="45.31962" lon="5.88298">
        <ele>1050.2</ele>
        <time>2011-11-15T12:09:02Z</time>
      </trkpt>
      <trkpt lat="45.31968" lon="5.88292">
        <ele>1051</ele>
        <time>2011-11-15T12:09:08Z</time>
      </trkpt>
      <trkpt lat="45.31971" lon="5.88291">
        <ele>1051.6</ele>
        <time>2011-11-15T12:09:11Z</time>
      </trkpt>
      <trkpt lat="45.31973" lon="5.88292">
        <ele>1052</ele>
        <time>2011-11-15T12:09:13Z</time>
      </trkpt>
      <trkpt lat="45.31974" lon="5.88293">
        <ele>1052.4</ele>
        <time>2011-11-15T12:09:14Z</time>
      </trkpt>
      <trkpt lat="45.3198" lon="5.88295">
        <ele>1053.2</ele>
        <time>2011-11-15T12:09:17Z</time>
      </trkpt>
      <trkpt lat="45.31985" lon="5.88294">
        <ele>1053.6</ele>
        <time>2011-11-15T12:09:19Z</time>
      </trkpt>
      <trkpt lat="45.31992" lon="5.88292">
        <ele>1054.2</ele>
        <time>2011-11-15T12:09:22Z</time>
      </trkpt>
      <trkpt lat="45.32003" lon="5.88283">
        <ele>1055</ele>
        <time>2011-11-15T12:09:27Z</time>
      </trkpt>
      <trkpt lat="45.32008" lon="5.88278">
        <ele>1055.4</ele>
        <time>2011-11-15T12:09:30Z</time>
      </trkpt>
      <trkpt lat="45.3201" lon="5.88273">
        <ele>1055.8</ele>
        <time>2011-11-15T12:09:32Z</time>
      </trkpt>
      <trkpt lat="45.32014" lon="5.88271">
        <ele>1056.2</ele>
        <time>2011-11-15T12:09:34Z</time>
      </trkpt>
      <trkpt lat="45.32019" lon="5.8826">
        <ele>1058</ele>
        <time>2011-11-15T12:09:39Z</time>
      </trkpt>
      <trkpt lat="45.3202" lon="5.88258">
        <ele>1058</ele>
        <time>2011-11-15T12:09:40Z</time>
      </trkpt>
      <trkpt lat="45.32024" lon="5.88249">
        <ele>1059.2</ele>
        <time>2011-11-15T12:09:44Z</time>
      </trkpt>
      <trkpt lat="45.32031" lon="5.88242">
        <ele>1060.4</ele>
        <time>2011-11-15T12:09:49Z</time>
      </trkpt>
      <trkpt lat="45.32033" lon="5.88242">
        <ele>1060.8</ele>
        <time>2011-11-15T12:09:51Z</time>
      </trkpt>
      <trkpt lat="45.32034" lon="5.88242">
        <ele>1061</ele>
        <time>2011-11-15T12:09:52Z</time>
      </trkpt>
      <trkpt lat="45.32035" lon="5.88242">
        <ele>1061.4</ele>
        <time>2011-11-15T12:09:53Z</time>
      </trkpt>
      <trkpt lat="45.3204" lon="5.88244">
        <ele>1062.4</ele>
        <time>2011-11-15T12:09:58Z</time>
      </trkpt>
      <trkpt lat="45.32041" lon="5.88246">
        <ele>1062.6</ele>
        <time>2011-11-15T12:09:59Z</time>
      </trkpt>
      <trkpt lat="45.32047" lon="5.88252">
        <ele>1063.8</ele>
        <time>2011-11-15T12:10:04Z</time>
      </trkpt>
      <trkpt lat="45.32047" lon="5.88254">
        <ele>1064</ele>
        <time>2011-11-15T12:10:05Z</time>
      </trkpt>
      <trkpt lat="45.32049" lon="5.88257">
        <ele>1064.6</ele>
        <time>2011-11-15T12:10:07Z</time>
      </trkpt>
      <trkpt lat="45.32051" lon="5.8826">
        <ele>1065.2</ele>
        <time>2011-11-15T12:10:10Z</time>
      </trkpt>
      <trkpt lat="45.32053" lon="5.8826">
        <ele>1065.2</ele>
        <time>2011-11-15T12:10:11Z</time>
      </trkpt>
      <trkpt lat="45.32055" lon="5.88262">
        <ele>1065.8</ele>
        <time>2011-11-15T12:10:14Z</time>
      </trkpt>
      <trkpt lat="45.32056" lon="5.88265">
        <ele>1066.6</ele>
        <time>2011-11-15T12:10:17Z</time>
      </trkpt>
      <trkpt lat="45.32058" lon="5.88267">
        <ele>1066.6</ele>
        <time>2011-11-15T12:10:19Z</time>
      </trkpt>
      <trkpt lat="45.3206" lon="5.88266">
        <ele>1067.2</ele>
        <time>2011-11-15T12:10:21Z</time>
      </trkpt>
      <trkpt lat="45.32061" lon="5.88266">
        <ele>1067.4</ele>
        <time>2011-11-15T12:10:22Z</time>
      </trkpt>
      <trkpt lat="45.32064" lon="5.88265">
        <ele>1068.6</ele>
        <time>2011-11-15T12:10:26Z</time>
      </trkpt>
      <trkpt lat="45.32065" lon="5.88264">
        <ele>1068.8</ele>
        <time>2011-11-15T12:10:27Z</time>
      </trkpt>
      <trkpt lat="45.32069" lon="5.88256">
        <ele>1069.4</ele>
        <time>2011-11-15T12:10:34Z</time>
      </trkpt>
      <trkpt lat="45.3207" lon="5.88254">
        <ele>1069.6</ele>
        <time>2011-11-15T12:10:36Z</time>
      </trkpt>
      <trkpt lat="45.32072" lon="5.88251">
        <ele>1070</ele>
        <time>2011-11-15T12:10:39Z</time>
      </trkpt>
      <trkpt lat="45.32073" lon="5.88249">
        <ele>1070.2</ele>
        <time>2011-11-15T12:10:41Z</time>
      </trkpt>
      <trkpt lat="45.32075" lon="5.88246">
        <ele>1070.8</ele>
        <time>2011-11-15T12:10:44Z</time>
      </trkpt>
      <trkpt lat="45.32075" lon="5.88245">
        <ele>1071</ele>
        <time>2011-11-15T12:10:45Z</time>
      </trkpt>
      <trkpt lat="45.32077" lon="5.88243">
        <ele>1071.2</ele>
        <time>2011-11-15T12:10:46Z</time>
      </trkpt>
      <trkpt lat="45.32079" lon="5.88238">
        <ele>1072.4</ele>
        <time>2011-11-15T12:10:51Z</time>
      </trkpt>
      <trkpt lat="45.32083" lon="5.88228">
        <ele>1074.8</ele>
        <time>2011-11-15T12:10:59Z</time>
      </trkpt>
      <trkpt lat="45.32088" lon="5.88224">
        <ele>1076.4</ele>
        <time>2011-11-15T12:11:04Z</time>
      </trkpt>
      <trkpt lat="45.3209" lon="5.88219">
        <ele>1077.6</ele>
        <time>2011-11-15T12:11:08Z</time>
      </trkpt>
      <trkpt lat="45.32094" lon="5.88211">
        <ele>1079.6</ele>
        <time>2011-11-15T12:11:15Z</time>
      </trkpt>
      <trkpt lat="45.32101" lon="5.88206">
        <ele>1082.2</ele>
        <time>2011-11-15T12:11:23Z</time>
      </trkpt>
      <trkpt lat="45.32102" lon="5.88204">
        <ele>1082.8</ele>
        <time>2011-11-15T12:11:25Z</time>
      </trkpt>
      <trkpt lat="45.32104" lon="5.882">
        <ele>1083.2</ele>
        <time>2011-11-15T12:11:27Z</time>
      </trkpt>
      <trkpt lat="45.32107" lon="5.88196">
        <ele>1084</ele>
        <time>2011-11-15T12:11:30Z</time>
      </trkpt>
      <trkpt lat="45.32109" lon="5.88193">
        <ele>1084.8</ele>
        <time>2011-11-15T12:11:33Z</time>
      </trkpt>
      <trkpt lat="45.32113" lon="5.88187">
        <ele>1086.4</ele>
        <time>2011-11-15T12:11:39Z</time>
      </trkpt>
      <trkpt lat="45.32113" lon="5.88187">
        <ele>1086.8</ele>
        <time>2011-11-15T12:11:41Z</time>
      </trkpt>
      <trkpt lat="45.32115" lon="5.88183">
        <ele>1087.6</ele>
        <time>2011-11-15T12:11:44Z</time>
      </trkpt>
      <trkpt lat="45.32115" lon="5.88183">
        <ele>1088</ele>
        <time>2011-11-15T12:11:45Z</time>
      </trkpt>
      <trkpt lat="45.32115" lon="5.88179">
        <ele>1089.2</ele>
        <time>2011-11-15T12:11:48Z</time>
      </trkpt>
      <trkpt lat="45.32115" lon="5.88179">
        <ele>1089.4</ele>
        <time>2011-11-15T12:11:49Z</time>
      </trkpt>
      <trkpt lat="45.32115" lon="5.88173">
        <ele>1091.4</ele>
        <time>2011-11-15T12:11:54Z</time>
      </trkpt>
      <trkpt lat="45.32115" lon="5.88171">
        <ele>1091.6</ele>
        <time>2011-11-15T12:11:55Z</time>
      </trkpt>
      <trkpt lat="45.32116" lon="5.88163">
        <ele>1092.8</ele>
        <time>2011-11-15T12:12:00Z</time>
      </trkpt>
      <trkpt lat="45.32117" lon="5.88162">
        <ele>1093.4</ele>
        <time>2011-11-15T12:12:02Z</time>
      </trkpt>
      <trkpt lat="45.3212" lon="5.88158">
        <ele>1094.8</ele>
        <time>2011-11-15T12:12:06Z</time>
      </trkpt>
      <trkpt lat="45.3212" lon="5.88158">
        <ele>1095.2</ele>
        <time>2011-11-15T12:12:07Z</time>
      </trkpt>
      <trkpt lat="45.32122" lon="5.88155">
        <ele>1096</ele>
        <time>2011-11-15T12:12:12Z</time>
      </trkpt>
      <trkpt lat="45.32123" lon="5.8815">
        <ele>1097.4</ele>
        <time>2011-11-15T12:12:17Z</time>
      </trkpt>
      <trkpt lat="45.32127" lon="5.88146">
        <ele>1099</ele>
        <time>2011-11-15T12:12:24Z</time>
      </trkpt>
      <trkpt lat="45.32129" lon="5.88141">
        <ele>1100.4</ele>
        <time>2011-11-15T12:12:29Z</time>
      </trkpt>
      <trkpt lat="45.32129" lon="5.8814">
        <ele>1100.8</ele>
        <time>2011-11-15T12:12:30Z</time>
      </trkpt>
      <trkpt lat="45.32133" lon="5.88137">
        <ele>1103.6</ele>
        <time>2011-11-15T12:12:38Z</time>
      </trkpt>
      <trkpt lat="45.32138" lon="5.88136">
        <ele>1105.6</ele>
        <time>2011-11-15T12:12:43Z</time>
      </trkpt>
      <trkpt lat="45.32142" lon="5.88134">
        <ele>1107.4</ele>
        <time>2011-11-15T12:12:48Z</time>
      </trkpt>
      <trkpt lat="45.32142" lon="5.88135">
        <ele>1108.4</ele>
        <time>2011-11-15T12:12:50Z</time>
      </trkpt>
      <trkpt lat="45.32144" lon="5.88136">
        <ele>1109.2</ele>
        <time>2011-11-15T12:12:52Z</time>
      </trkpt>
      <trkpt lat="45.32146" lon="5.88135">
        <ele>1110</ele>
        <time>2011-11-15T12:12:54Z</time>
      </trkpt>
      <trkpt lat="45.32147" lon="5.88133">
        <ele>1110.8</ele>
        <time>2011-11-15T12:12:56Z</time>
      </trkpt>
      <trkpt lat="45.32148" lon="5.88133">
        <ele>1111</ele>
        <time>2011-11-15T12:12:57Z</time>
      </trkpt>
      <trkpt lat="45.3215" lon="5.88132">
        <ele>1111.6</ele>
        <time>2011-11-15T12:12:59Z</time>
      </trkpt>
      <trkpt lat="45.32152" lon="5.88132">
        <ele>1112.4</ele>
        <time>2011-11-15T12:13:01Z</time>
      </trkpt>
      <trkpt lat="45.32153" lon="5.88131">
        <ele>1113</ele>
        <time>2011-11-15T12:13:03Z</time>
      </trkpt>
      <trkpt lat="45.32156" lon="5.88132">
        <ele>1114.4</ele>
        <time>2011-11-15T12:13:06Z</time>
      </trkpt>
      <trkpt lat="45.32158" lon="5.88132">
        <ele>1115.6</ele>
        <time>2011-11-15T12:13:09Z</time>
      </trkpt>
      <trkpt lat="45.3216" lon="5.88133">
        <ele>1116.4</ele>
        <time>2011-11-15T12:13:11Z</time>
      </trkpt>
      <trkpt lat="45.32161" lon="5.88134">
        <ele>1117</ele>
        <time>2011-11-15T12:13:13Z</time>
      </trkpt>
      <trkpt lat="45.32165" lon="5.88135">
        <ele>1118.6</ele>
        <time>2011-11-15T12:13:17Z</time>
      </trkpt>
      <trkpt lat="45.32167" lon="5.88136">
        <ele>1119.4</ele>
        <time>2011-11-15T12:13:19Z</time>
      </trkpt>
      <trkpt lat="45.32169" lon="5.88135">
        <ele>1120</ele>
        <time>2011-11-15T12:13:21Z</time>
      </trkpt>
      <trkpt lat="45.32172" lon="5.88136">
        <ele>1120.6</ele>
        <time>2011-11-15T12:13:24Z</time>
      </trkpt>
      <trkpt lat="45.32173" lon="5.88136">
        <ele>1120.8</ele>
        <time>2011-11-15T12:13:25Z</time>
      </trkpt>
      <trkpt lat="45.32176" lon="5.88135">
        <ele>1121.4</ele>
        <time>2011-11-15T12:13:27Z</time>
      </trkpt>
      <trkpt lat="45.32181" lon="5.88136">
        <ele>1122.2</ele>
        <time>2011-11-15T12:13:32Z</time>
      </trkpt>
      <trkpt lat="45.32183" lon="5.88135">
        <ele>1122.4</ele>
        <time>2011-11-15T12:13:34Z</time>
      </trkpt>
      <trkpt lat="45.32185" lon="5.88135">
        <ele>1122.8</ele>
        <time>2011-11-15T12:13:36Z</time>
      </trkpt>
      <trkpt lat="45.32186" lon="5.88135">
        <ele>1123</ele>
        <time>2011-11-15T12:13:37Z</time>
      </trkpt>
      <trkpt lat="45.3219" lon="5.88134">
        <ele>1123.6</ele>
        <time>2011-11-15T12:13:41Z</time>
      </trkpt>
      <trkpt lat="45.32192" lon="5.88132">
        <ele>1124.2</ele>
        <time>2011-11-15T12:13:45Z</time>
      </trkpt>
      <trkpt lat="45.32193" lon="5.88132">
        <ele>1124.6</ele>
        <time>2011-11-15T12:13:46Z</time>
      </trkpt>
      <trkpt lat="45.32199" lon="5.8813">
        <ele>1126.2</ele>
        <time>2011-11-15T12:13:52Z</time>
      </trkpt>
      <trkpt lat="45.32202" lon="5.88128">
        <ele>1126.8</ele>
        <time>2011-11-15T12:13:55Z</time>
      </trkpt>
      <trkpt lat="45.32203" lon="5.88127">
        <ele>1127.2</ele>
        <time>2011-11-15T12:13:57Z</time>
      </trkpt>
      <trkpt lat="45.32207" lon="5.88126">
        <ele>1128.2</ele>
        <time>2011-11-15T12:14:01Z</time>
      </trkpt>
      <trkpt lat="45.32208" lon="5.88124">
        <ele>1128.6</ele>
        <time>2011-11-15T12:14:03Z</time>
      </trkpt>
      <trkpt lat="45.32213" lon="5.88119">
        <ele>1130.8</ele>
        <time>2011-11-15T12:14:10Z</time>
      </trkpt>
      <trkpt lat="45.32219" lon="5.88117">
        <ele>1133.2</ele>
        <time>2011-11-15T12:14:16Z</time>
      </trkpt>
      <trkpt lat="45.32222" lon="5.88117">
        <ele>1133.4</ele>
        <time>2011-11-15T12:14:18Z</time>
      </trkpt>
      <trkpt lat="45.32223" lon="5.88118">
        <ele>1133.8</ele>
        <time>2011-11-15T12:14:19Z</time>
      </trkpt>
      <trkpt lat="45.3223" lon="5.88121">
        <ele>1134.8</ele>
        <time>2011-11-15T12:14:22Z</time>
      </trkpt>
      <trkpt lat="45.32234" lon="5.88124">
        <ele>1135.4</ele>
        <time>2011-11-15T12:14:24Z</time>
      </trkpt>
      <trkpt lat="45.32236" lon="5.88125">
        <ele>1135.6</ele>
        <time>2011-11-15T12:14:25Z</time>
      </trkpt>
      <trkpt lat="45.32239" lon="5.88127">
        <ele>1136.2</ele>
        <time>2011-11-15T12:14:27Z</time>
      </trkpt>
      <trkpt lat="45.32244" lon="5.8813">
        <ele>1137.4</ele>
        <time>2011-11-15T12:14:30Z</time>
      </trkpt>
      <trkpt lat="45.32247" lon="5.88133">
        <ele>1138.4</ele>
        <time>2011-11-15T12:14:32Z</time>
      </trkpt>
      <trkpt lat="45.32254" lon="5.88135">
        <ele>1140.6</ele>
        <time>2011-11-15T12:14:36Z</time>
      </trkpt>
      <trkpt lat="45.32256" lon="5.88137">
        <ele>1141</ele>
        <time>2011-11-15T12:14:37Z</time>
      </trkpt>
      <trkpt lat="45.32266" lon="5.88147">
        <ele>1143.8</ele>
        <time>2011-11-15T12:14:43Z</time>
      </trkpt>
      <trkpt lat="45.3227" lon="5.88152">
        <ele>1145</ele>
        <time>2011-11-15T12:14:46Z</time>
      </trkpt>
      <trkpt lat="45.32273" lon="5.88157">
        <ele>1145.8</ele>
        <time>2011-11-15T12:14:48Z</time>
      </trkpt>
      <trkpt lat="45.32276" lon="5.8816">
        <ele>1146.8</ele>
        <time>2011-11-15T12:14:50Z</time>
      </trkpt>
      <trkpt lat="45.32283" lon="5.88167">
        <ele>1148.8</ele>
        <time>2011-11-15T12:14:54Z</time>
      </trkpt>
      <trkpt lat="45.32284" lon="5.88169">
        <ele>1149.6</ele>
        <time>2011-11-15T12:14:56Z</time>
      </trkpt>
      <trkpt lat="45.32286" lon="5.88175">
        <ele>1151.2</ele>
        <time>2011-11-15T12:15:00Z</time>
      </trkpt>
      <trkpt lat="45.32288" lon="5.88186">
        <ele>1153.2</ele>
        <time>2011-11-15T12:15:05Z</time>
      </trkpt>
      <trkpt lat="45.32292" lon="5.88192">
        <ele>1154</ele>
        <time>2011-11-15T12:15:09Z</time>
      </trkpt>
      <trkpt lat="45.32293" lon="5.88195">
        <ele>1154.6</ele>
        <time>2011-11-15T12:15:11Z</time>
      </trkpt>
      <trkpt lat="45.32296" lon="5.88202">
        <ele>1155.8</ele>
        <time>2011-11-15T12:15:15Z</time>
      </trkpt>
      <trkpt lat="45.32296" lon="5.88204">
        <ele>1156</ele>
        <time>2011-11-15T12:15:16Z</time>
      </trkpt>
      <trkpt lat="45.32297" lon="5.8821">
        <ele>1157</ele>
        <time>2011-11-15T12:15:20Z</time>
      </trkpt>
      <trkpt lat="45.32299" lon="5.88217">
        <ele>1158.2</ele>
        <time>2011-11-15T12:15:24Z</time>
      </trkpt>
      <trkpt lat="45.32299" lon="5.88218">
        <ele>1158.6</ele>
        <time>2011-11-15T12:15:25Z</time>
      </trkpt>
      <trkpt lat="45.32298" lon="5.8822">
        <ele>1159.4</ele>
        <time>2011-11-15T12:15:27Z</time>
      </trkpt>
      <trkpt lat="45.32299" lon="5.88224">
        <ele>1160</ele>
        <time>2011-11-15T12:15:29Z</time>
      </trkpt>
      <trkpt lat="45.32297" lon="5.88232">
        <ele>1162</ele>
        <time>2011-11-15T12:15:33Z</time>
      </trkpt>
      <trkpt lat="45.32298" lon="5.88234">
        <ele>1162.2</ele>
        <time>2011-11-15T12:15:34Z</time>
      </trkpt>
      <trkpt lat="45.32298" lon="5.88237">
        <ele>1162.6</ele>
        <time>2011-11-15T12:15:35Z</time>
      </trkpt>
      <trkpt lat="45.32297" lon="5.88243">
        <ele>1163</ele>
        <time>2011-11-15T12:15:36Z</time>
      </trkpt>
      <trkpt lat="45.32297" lon="5.88246">
        <ele>1163.4</ele>
        <time>2011-11-15T12:15:37Z</time>
      </trkpt>
      <trkpt lat="45.32294" lon="5.88269">
        <ele>1166.6</ele>
        <time>2011-11-15T12:15:44Z</time>
      </trkpt>
      <trkpt lat="45.32293" lon="5.88275">
        <ele>1167.6</ele>
        <time>2011-11-15T12:15:46Z</time>
      </trkpt>
      <trkpt lat="45.32291" lon="5.88281">
        <ele>1169.4</ele>
        <time>2011-11-15T12:15:49Z</time>
      </trkpt>
      <trkpt lat="45.32292" lon="5.88286">
        <ele>1170.8</ele>
        <time>2011-11-15T12:15:52Z</time>
      </trkpt>
      <trkpt lat="45.32291" lon="5.88287">
        <ele>1171.2</ele>
        <time>2011-11-15T12:15:53Z</time>
      </trkpt>
      <trkpt lat="45.32289" lon="5.88292">
        <ele>1173</ele>
        <time>2011-11-15T12:15:56Z</time>
      </trkpt>
      <trkpt lat="45.32289" lon="5.88293">
        <ele>1173.6</ele>
        <time>2011-11-15T12:15:57Z</time>
      </trkpt>
      <trkpt lat="45.32288" lon="5.88294">
        <ele>1174.4</ele>
        <time>2011-11-15T12:15:58Z</time>
      </trkpt>
      <trkpt lat="45.32288" lon="5.88299">
        <ele>1176.6</ele>
        <time>2011-11-15T12:16:02Z</time>
      </trkpt>
      <trkpt lat="45.3229" lon="5.88303">
        <ele>1176.6</ele>
        <time>2011-11-15T12:16:03Z</time>
      </trkpt>
      <trkpt lat="45.32296" lon="5.88317">
        <ele>1178.4</ele>
        <time>2011-11-15T12:16:09Z</time>
      </trkpt>
      <trkpt lat="45.32297" lon="5.88319">
        <ele>1178.6</ele>
        <time>2011-11-15T12:16:10Z</time>
      </trkpt>
      <trkpt lat="45.32298" lon="5.88332">
        <ele>1179.8</ele>
        <time>2011-11-15T12:16:15Z</time>
      </trkpt>
      <trkpt lat="45.32299" lon="5.88334">
        <ele>1180.2</ele>
        <time>2011-11-15T12:16:16Z</time>
      </trkpt>
      <trkpt lat="45.32297" lon="5.88344">
        <ele>1181.6</ele>
        <time>2011-11-15T12:16:22Z</time>
      </trkpt>
      <trkpt lat="45.32296" lon="5.88359">
        <ele>1183.6</ele>
        <time>2011-11-15T12:16:28Z</time>
      </trkpt>
      <trkpt lat="45.32297" lon="5.88368">
        <ele>1184.8</ele>
        <time>2011-11-15T12:16:32Z</time>
      </trkpt>
      <trkpt lat="45.32296" lon="5.88371">
        <ele>1185</ele>
        <time>2011-11-15T12:16:33Z</time>
      </trkpt>
      <trkpt lat="45.32295" lon="5.88378">
        <ele>1187</ele>
        <time>2011-11-15T12:16:37Z</time>
      </trkpt>
      <trkpt lat="45.32293" lon="5.8839">
        <ele>1189</ele>
        <time>2011-11-15T12:16:42Z</time>
      </trkpt>
      <trkpt lat="45.32292" lon="5.88395">
        <ele>1189.6</ele>
        <time>2011-11-15T12:16:44Z</time>
      </trkpt>
      <trkpt lat="45.32293" lon="5.88397">
        <ele>1189.8</ele>
        <time>2011-11-15T12:16:45Z</time>
      </trkpt>
      <trkpt lat="45.32294" lon="5.88399">
        <ele>1190.2</ele>
        <time>2011-11-15T12:16:46Z</time>
      </trkpt>
      <trkpt lat="45.32295" lon="5.88402">
        <ele>1190.4</ele>
        <time>2011-11-15T12:16:48Z</time>
      </trkpt>
      <trkpt lat="45.32294" lon="5.88407">
        <ele>1191</ele>
        <time>2011-11-15T12:16:50Z</time>
      </trkpt>
      <trkpt lat="45.32293" lon="5.88415">
        <ele>1192</ele>
        <time>2011-11-15T12:16:54Z</time>
      </trkpt>
      <trkpt lat="45.32294" lon="5.88417">
        <ele>1192</ele>
        <time>2011-11-15T12:16:55Z</time>
      </trkpt>
      <trkpt lat="45.32296" lon="5.88422">
        <ele>1192.2</ele>
        <time>2011-11-15T12:16:58Z</time>
      </trkpt>
      <trkpt lat="45.32297" lon="5.88424">
        <ele>1192.4</ele>
        <time>2011-11-15T12:16:59Z</time>
      </trkpt>
      <trkpt lat="45.32298" lon="5.88428">
        <ele>1192.8</ele>
        <time>2011-11-15T12:17:02Z</time>
      </trkpt>
      <trkpt lat="45.32303" lon="5.88436">
        <ele>1193.6</ele>
        <time>2011-11-15T12:17:09Z</time>
      </trkpt>
      <trkpt lat="45.32306" lon="5.88439">
        <ele>1194.2</ele>
        <time>2011-11-15T12:17:14Z</time>
      </trkpt>
      <trkpt lat="45.32308" lon="5.88441">
        <ele>1194.2</ele>
        <time>2011-11-15T12:17:16Z</time>
      </trkpt>
      <trkpt lat="45.3231" lon="5.88444">
        <ele>1194.4</ele>
        <time>2011-11-15T12:17:18Z</time>
      </trkpt>
      <trkpt lat="45.32312" lon="5.88448">
        <ele>1194.4</ele>
        <time>2011-11-15T12:17:20Z</time>
      </trkpt>
      <trkpt lat="45.32315" lon="5.88451">
        <ele>1194.6</ele>
        <time>2011-11-15T12:17:22Z</time>
      </trkpt>
      <trkpt lat="45.32324" lon="5.88453">
        <ele>1195</ele>
        <time>2011-11-15T12:17:27Z</time>
      </trkpt>
      <trkpt lat="45.32326" lon="5.88452">
        <ele>1195.2</ele>
        <time>2011-11-15T12:17:28Z</time>
      </trkpt>
      <trkpt lat="45.32328" lon="5.88452">
        <ele>1195.4</ele>
        <time>2011-11-15T12:17:29Z</time>
      </trkpt>
      <trkpt lat="45.32331" lon="5.88453">
        <ele>1195.6</ele>
        <time>2011-11-15T12:17:30Z</time>
      </trkpt>
      <trkpt lat="45.32334" lon="5.88454">
        <ele>1196.2</ele>
        <time>2011-11-15T12:17:32Z</time>
      </trkpt>
      <trkpt lat="45.3234" lon="5.88452">
        <ele>1196.6</ele>
        <time>2011-11-15T12:17:35Z</time>
      </trkpt>
      <trkpt lat="45.32346" lon="5.88451">
        <ele>1197.2</ele>
        <time>2011-11-15T12:17:38Z</time>
      </trkpt>
      <trkpt lat="45.32357" lon="5.88449">
        <ele>1198.2</ele>
        <time>2011-11-15T12:17:43Z</time>
      </trkpt>
      <trkpt lat="45.32364" lon="5.8845">
        <ele>1199.2</ele>
        <time>2011-11-15T12:17:47Z</time>
      </trkpt>
      <trkpt lat="45.32368" lon="5.88449">
        <ele>1199.6</ele>
        <time>2011-11-15T12:17:49Z</time>
      </trkpt>
      <trkpt lat="45.32371" lon="5.88448">
        <ele>1200</ele>
        <time>2011-11-15T12:17:51Z</time>
      </trkpt>
      <trkpt lat="45.32374" lon="5.88446">
        <ele>1200.6</ele>
        <time>2011-11-15T12:17:54Z</time>
      </trkpt>
      <trkpt lat="45.32377" lon="5.88442">
        <ele>1201.4</ele>
        <time>2011-11-15T12:17:57Z</time>
      </trkpt>
      <trkpt lat="45.3238" lon="5.8844">
        <ele>1201.6</ele>
        <time>2011-11-15T12:18:00Z</time>
      </trkpt>
      <trkpt lat="45.32382" lon="5.88438">
        <ele>1201.4</ele>
        <time>2011-11-15T12:18:02Z</time>
      </trkpt>
      <trkpt lat="45.32389" lon="5.88437">
        <ele>1201.8</ele>
        <time>2011-11-15T12:18:08Z</time>
      </trkpt>
      <trkpt lat="45.3239" lon="5.88437">
        <ele>1202</ele>
        <time>2011-11-15T12:18:09Z</time>
      </trkpt>
      <trkpt lat="45.32394" lon="5.88438">
        <ele>1202.6</ele>
        <time>2011-11-15T12:18:13Z</time>
      </trkpt>
      <trkpt lat="45.32395" lon="5.88438">
        <ele>1202.6</ele>
        <time>2011-11-15T12:18:14Z</time>
      </trkpt>
      <trkpt lat="45.32398" lon="5.88437">
        <ele>1203.2</ele>
        <time>2011-11-15T12:18:17Z</time>
      </trkpt>
      <trkpt lat="45.324" lon="5.88437">
        <ele>1203.4</ele>
        <time>2011-11-15T12:18:19Z</time>
      </trkpt>
      <trkpt lat="45.32402" lon="5.88437">
        <ele>1203.6</ele>
        <time>2011-11-15T12:18:20Z</time>
      </trkpt>
      <trkpt lat="45.32404" lon="5.88437">
        <ele>1203.6</ele>
        <time>2011-11-15T12:18:21Z</time>
      </trkpt>
      <trkpt lat="45.32408" lon="5.88439">
        <ele>1204.8</ele>
        <time>2011-11-15T12:18:25Z</time>
      </trkpt>
      <trkpt lat="45.32409" lon="5.88439">
        <ele>1205.6</ele>
        <time>2011-11-15T12:18:27Z</time>
      </trkpt>
      <trkpt lat="45.32412" lon="5.8844">
        <ele>1206.6</ele>
        <time>2011-11-15T12:18:30Z</time>
      </trkpt>
      <trkpt lat="45.32416" lon="5.88441">
        <ele>1207.6</ele>
        <time>2011-11-15T12:18:33Z</time>
      </trkpt>
      <trkpt lat="45.3242" lon="5.88441">
        <ele>1208.2</ele>
        <time>2011-11-15T12:18:35Z</time>
      </trkpt>
      <trkpt lat="45.32426" lon="5.88436">
        <ele>1209.2</ele>
        <time>2011-11-15T12:18:40Z</time>
      </trkpt>
      <trkpt lat="45.32427" lon="5.88436">
        <ele>1209.6</ele>
        <time>2011-11-15T12:18:41Z</time>
      </trkpt>
      <trkpt lat="45.3243" lon="5.88436">
        <ele>1210</ele>
        <time>2011-11-15T12:18:43Z</time>
      </trkpt>
      <trkpt lat="45.32433" lon="5.88436">
        <ele>1210.6</ele>
        <time>2011-11-15T12:18:45Z</time>
      </trkpt>
      <trkpt lat="45.32439" lon="5.88433">
        <ele>1211.2</ele>
        <time>2011-11-15T12:18:50Z</time>
      </trkpt>
      <trkpt lat="45.32442" lon="5.88431">
        <ele>1211.6</ele>
        <time>2011-11-15T12:18:52Z</time>
      </trkpt>
      <trkpt lat="45.32449" lon="5.88429">
        <ele>1213</ele>
        <time>2011-11-15T12:18:57Z</time>
      </trkpt>
      <trkpt lat="45.32452" lon="5.88428">
        <ele>1213.8</ele>
        <time>2011-11-15T12:19:00Z</time>
      </trkpt>
      <trkpt lat="45.32454" lon="5.88431">
        <ele>1215.2</ele>
        <time>2011-11-15T12:19:03Z</time>
      </trkpt>
      <trkpt lat="45.32456" lon="5.88433">
        <ele>1216.8</ele>
        <time>2011-11-15T12:19:06Z</time>
      </trkpt>
      <trkpt lat="45.3246" lon="5.88429">
        <ele>1218.2</ele>
        <time>2011-11-15T12:19:10Z</time>
      </trkpt>
      <trkpt lat="45.3247" lon="5.88423">
        <ele>1220.6</ele>
        <time>2011-11-15T12:19:17Z</time>
      </trkpt>
      <trkpt lat="45.32472" lon="5.88419">
        <ele>1221.4</ele>
        <time>2011-11-15T12:19:20Z</time>
      </trkpt>
      <trkpt lat="45.32475" lon="5.88416">
        <ele>1222.8</ele>
        <time>2011-11-15T12:19:24Z</time>
      </trkpt>
      <trkpt lat="45.32476" lon="5.88415">
        <ele>1223.2</ele>
        <time>2011-11-15T12:19:25Z</time>
      </trkpt>
      <trkpt lat="45.32477" lon="5.88412">
        <ele>1223.8</ele>
        <time>2011-11-15T12:19:27Z</time>
      </trkpt>
      <trkpt lat="45.32478" lon="5.88403">
        <ele>1225.2</ele>
        <time>2011-11-15T12:19:32Z</time>
      </trkpt>
      <trkpt lat="45.32478" lon="5.88401">
        <ele>1226.2</ele>
        <time>2011-11-15T12:19:36Z</time>
      </trkpt>
      <trkpt lat="45.32479" lon="5.88399">
        <ele>1226.4</ele>
        <time>2011-11-15T12:19:37Z</time>
      </trkpt>
      <trkpt lat="45.32478" lon="5.88395">
        <ele>1226.8</ele>
        <time>2011-11-15T12:19:39Z</time>
      </trkpt>
      <trkpt lat="45.32479" lon="5.88391">
        <ele>1227.8</ele>
        <time>2011-11-15T12:19:43Z</time>
      </trkpt>
      <trkpt lat="45.32478" lon="5.88382">
        <ele>1229.2</ele>
        <time>2011-11-15T12:19:49Z</time>
      </trkpt>
      <trkpt lat="45.32479" lon="5.8838">
        <ele>1229.4</ele>
        <time>2011-11-15T12:19:50Z</time>
      </trkpt>
      <trkpt lat="45.32479" lon="5.88379">
        <ele>1229.8</ele>
        <time>2011-11-15T12:19:51Z</time>
      </trkpt>
      <trkpt lat="45.32479" lon="5.88375">
        <ele>1230.2</ele>
        <time>2011-11-15T12:19:53Z</time>
      </trkpt>
      <trkpt lat="45.32479" lon="5.88372">
        <ele>1231</ele>
        <time>2011-11-15T12:19:55Z</time>
      </trkpt>
      <trkpt lat="45.32478" lon="5.88369">
        <ele>1231.6</ele>
        <time>2011-11-15T12:19:57Z</time>
      </trkpt>
      <trkpt lat="45.32478" lon="5.88367">
        <ele>1231.8</ele>
        <time>2011-11-15T12:19:58Z</time>
      </trkpt>
      <trkpt lat="45.32478" lon="5.88366">
        <ele>1232.2</ele>
        <time>2011-11-15T12:19:59Z</time>
      </trkpt>
      <trkpt lat="45.32477" lon="5.88357">
        <ele>1234.2</ele>
        <time>2011-11-15T12:20:05Z</time>
      </trkpt>
      <trkpt lat="45.32477" lon="5.88356">
        <ele>1234.4</ele>
        <time>2011-11-15T12:20:06Z</time>
      </trkpt>
      <trkpt lat="45.32478" lon="5.88353">
        <ele>1236</ele>
        <time>2011-11-15T12:20:11Z</time>
      </trkpt>
      <trkpt lat="45.32481" lon="5.88345">
        <ele>1239.4</ele>
        <time>2011-11-15T12:20:19Z</time>
      </trkpt>
      <trkpt lat="45.32481" lon="5.88344">
        <ele>1239.8</ele>
        <time>2011-11-15T12:20:20Z</time>
      </trkpt>
      <trkpt lat="45.32479" lon="5.88343">
        <ele>1241.4</ele>
        <time>2011-11-15T12:20:24Z</time>
      </trkpt>
      <trkpt lat="45.32478" lon="5.88342">
        <ele>1242.2</ele>
        <time>2011-11-15T12:20:26Z</time>
      </trkpt>
      <trkpt lat="45.32479" lon="5.88338">
        <ele>1243.4</ele>
        <time>2011-11-15T12:20:30Z</time>
      </trkpt>
      <trkpt lat="45.32477" lon="5.88331">
        <ele>1246</ele>
        <time>2011-11-15T12:20:38Z</time>
      </trkpt>
      <trkpt lat="45.32476" lon="5.88324">
        <ele>1248.2</ele>
        <time>2011-11-15T12:20:44Z</time>
      </trkpt>
      <trkpt lat="45.32476" lon="5.88322">
        <ele>1248.8</ele>
        <time>2011-11-15T12:20:46Z</time>
      </trkpt>
      <trkpt lat="45.32476" lon="5.88318">
        <ele>1250.4</ele>
        <time>2011-11-15T12:20:51Z</time>
      </trkpt>
      <trkpt lat="45.32476" lon="5.88316">
        <ele>1251.6</ele>
        <time>2011-11-15T12:20:55Z</time>
      </trkpt>
      <trkpt lat="45.32476" lon="5.88313">
        <ele>1252.4</ele>
        <time>2011-11-15T12:20:58Z</time>
      </trkpt>
      <trkpt lat="45.32475" lon="5.88308">
        <ele>1254.4</ele>
        <time>2011-11-15T12:21:03Z</time>
      </trkpt>
      <trkpt lat="45.32476" lon="5.88306">
        <ele>1254.8</ele>
        <time>2011-11-15T12:21:05Z</time>
      </trkpt>
      <trkpt lat="45.32477" lon="5.88301">
        <ele>1255.8</ele>
        <time>2011-11-15T12:21:08Z</time>
      </trkpt>
      <trkpt lat="45.32477" lon="5.88295">
        <ele>1257.2</ele>
        <time>2011-11-15T12:21:13Z</time>
      </trkpt>
      <trkpt lat="45.32477" lon="5.8829">
        <ele>1258.6</ele>
        <time>2011-11-15T12:21:17Z</time>
      </trkpt>
      <trkpt lat="45.32477" lon="5.88289">
        <ele>1259</ele>
        <time>2011-11-15T12:21:18Z</time>
      </trkpt>
      <trkpt lat="45.32479" lon="5.88282">
        <ele>1261.2</ele>
        <time>2011-11-15T12:21:24Z</time>
      </trkpt>
      <trkpt lat="45.32482" lon="5.88271">
        <ele>1265.4</ele>
        <time>2011-11-15T12:21:34Z</time>
      </trkpt>
      <trkpt lat="45.32485" lon="5.88267">
        <ele>1266.6</ele>
        <time>2011-11-15T12:21:37Z</time>
      </trkpt>
      <trkpt lat="45.32489" lon="5.88262">
        <ele>1267.8</ele>
        <time>2011-11-15T12:21:40Z</time>
      </trkpt>
      <trkpt lat="45.32497" lon="5.88249">
        <ele>1269.8</ele>
        <time>2011-11-15T12:21:46Z</time>
      </trkpt>
      <trkpt lat="45.32504" lon="5.88236">
        <ele>1271.4</ele>
        <time>2011-11-15T12:21:51Z</time>
      </trkpt>
      <trkpt lat="45.32509" lon="5.88227">
        <ele>1272.6</ele>
        <time>2011-11-15T12:21:55Z</time>
      </trkpt>
      <trkpt lat="45.32511" lon="5.88221">
        <ele>1273.2</ele>
        <time>2011-11-15T12:21:57Z</time>
      </trkpt>
      <trkpt lat="45.32515" lon="5.88203">
        <ele>1274.6</ele>
        <time>2011-11-15T12:22:03Z</time>
      </trkpt>
      <trkpt lat="45.32516" lon="5.882">
        <ele>1274.8</ele>
        <time>2011-11-15T12:22:04Z</time>
      </trkpt>
      <trkpt lat="45.32521" lon="5.88188">
        <ele>1275.4</ele>
        <time>2011-11-15T12:22:08Z</time>
      </trkpt>
      <trkpt lat="45.32525" lon="5.88177">
        <ele>1275.8</ele>
        <time>2011-11-15T12:22:12Z</time>
      </trkpt>
      <trkpt lat="45.32529" lon="5.88173">
        <ele>1276</ele>
        <time>2011-11-15T12:22:14Z</time>
      </trkpt>
      <trkpt lat="45.32536" lon="5.88159">
        <ele>1276.2</ele>
        <time>2011-11-15T12:22:19Z</time>
      </trkpt>
      <trkpt lat="45.32537" lon="5.88156">
        <ele>1276.4</ele>
        <time>2011-11-15T12:22:20Z</time>
      </trkpt>
      <trkpt lat="45.32544" lon="5.88145">
        <ele>1276.2</ele>
        <time>2011-11-15T12:22:24Z</time>
      </trkpt>
      <trkpt lat="45.32546" lon="5.88135">
        <ele>1276</ele>
        <time>2011-11-15T12:22:27Z</time>
      </trkpt>
      <trkpt lat="45.32547" lon="5.88129">
        <ele>1276</ele>
        <time>2011-11-15T12:22:29Z</time>
      </trkpt>
      <trkpt lat="45.32548" lon="5.88123">
        <ele>1276</ele>
        <time>2011-11-15T12:22:34Z</time>
      </trkpt>
      <trkpt lat="45.32546" lon="5.88121">
        <ele>1276.2</ele>
        <time>2011-11-15T12:22:36Z</time>
      </trkpt>
      <trkpt lat="45.32546" lon="5.88115">
        <ele>1276.6</ele>
        <time>2011-11-15T12:22:39Z</time>
      </trkpt>
      <trkpt lat="45.32544" lon="5.8811">
        <ele>1277.2</ele>
        <time>2011-11-15T12:22:42Z</time>
      </trkpt>
      <trkpt lat="45.32545" lon="5.88106">
        <ele>1277.8</ele>
        <time>2011-11-15T12:22:44Z</time>
      </trkpt>
      <trkpt lat="45.32545" lon="5.88102">
        <ele>1278</ele>
        <time>2011-11-15T12:22:46Z</time>
      </trkpt>
      <trkpt lat="45.32545" lon="5.88096">
        <ele>1279.8</ele>
        <time>2011-11-15T12:22:52Z</time>
      </trkpt>
      <trkpt lat="45.32547" lon="5.88094">
        <ele>1280.4</ele>
        <time>2011-11-15T12:22:54Z</time>
      </trkpt>
      <trkpt lat="45.32548" lon="5.88093">
        <ele>1281.2</ele>
        <time>2011-11-15T12:22:56Z</time>
      </trkpt>
      <trkpt lat="45.32547" lon="5.88091">
        <ele>1282</ele>
        <time>2011-11-15T12:22:58Z</time>
      </trkpt>
      <trkpt lat="45.32547" lon="5.88088">
        <ele>1282.4</ele>
        <time>2011-11-15T12:22:59Z</time>
      </trkpt>
      <trkpt lat="45.32547" lon="5.88087">
        <ele>1282.8</ele>
        <time>2011-11-15T12:23:00Z</time>
      </trkpt>
      <trkpt lat="45.32547" lon="5.88085">
        <ele>1283.4</ele>
        <time>2011-11-15T12:23:02Z</time>
      </trkpt>
      <trkpt lat="45.32547" lon="5.88084">
        <ele>1283.6</ele>
        <time>2011-11-15T12:23:03Z</time>
      </trkpt>
      <trkpt lat="45.32549" lon="5.88082">
        <ele>1284</ele>
        <time>2011-11-15T12:23:05Z</time>
      </trkpt>
      <trkpt lat="45.3255" lon="5.88081">
        <ele>1284.2</ele>
        <time>2011-11-15T12:23:06Z</time>
      </trkpt>
      <trkpt lat="45.32553" lon="5.88081">
        <ele>1284.8</ele>
        <time>2011-11-15T12:23:09Z</time>
      </trkpt>
      <trkpt lat="45.32555" lon="5.88079">
        <ele>1285.6</ele>
        <time>2011-11-15T12:23:12Z</time>
      </trkpt>
      <trkpt lat="45.32556" lon="5.88078">
        <ele>1286</ele>
        <time>2011-11-15T12:23:13Z</time>
      </trkpt>
      <trkpt lat="45.32562" lon="5.88075">
        <ele>1290.6</ele>
        <time>2011-11-15T12:23:25Z</time>
      </trkpt>
      <trkpt lat="45.32563" lon="5.88076">
        <ele>1291</ele>
        <time>2011-11-15T12:23:26Z</time>
      </trkpt>
      <trkpt lat="45.32564" lon="5.88078">
        <ele>1291.6</ele>
        <time>2011-11-15T12:23:28Z</time>
      </trkpt>
      <trkpt lat="45.32568" lon="5.88079">
        <ele>1293.6</ele>
        <time>2011-11-15T12:23:32Z</time>
      </trkpt>
      <trkpt lat="45.3257" lon="5.88079">
        <ele>1294.8</ele>
        <time>2011-11-15T12:23:34Z</time>
      </trkpt>
      <trkpt lat="45.32573" lon="5.88077">
        <ele>1296.6</ele>
        <time>2011-11-15T12:23:39Z</time>
      </trkpt>
      <trkpt lat="45.32574" lon="5.88075">
        <ele>1297.2</ele>
        <time>2011-11-15T12:23:40Z</time>
      </trkpt>
      <trkpt lat="45.32575" lon="5.8807">
        <ele>1298.8</ele>
        <time>2011-11-15T12:23:44Z</time>
      </trkpt>
      <trkpt lat="45.32576" lon="5.8807">
        <ele>1299.4</ele>
        <time>2011-11-15T12:23:46Z</time>
      </trkpt>
      <trkpt lat="45.32575" lon="5.88068">
        <ele>1301.4</ele>
        <time>2011-11-15T12:23:52Z</time>
      </trkpt>
      <trkpt lat="45.32575" lon="5.88069">
        <ele>1301.6</ele>
        <time>2011-11-15T12:23:53Z</time>
      </trkpt>
      <trkpt lat="45.32576" lon="5.88064">
        <ele>1303.6</ele>
        <time>2011-11-15T12:24:02Z</time>
      </trkpt>
      <trkpt lat="45.32576" lon="5.88062">
        <ele>1304</ele>
        <time>2011-11-15T12:24:05Z</time>
      </trkpt>
      <trkpt lat="45.32578" lon="5.88058">
        <ele>1305</ele>
        <time>2011-11-15T12:24:09Z</time>
      </trkpt>
      <trkpt lat="45.32585" lon="5.88048">
        <ele>1307.2</ele>
        <time>2011-11-15T12:24:18Z</time>
      </trkpt>
      <trkpt lat="45.3259" lon="5.88046">
        <ele>1308.6</ele>
        <time>2011-11-15T12:24:23Z</time>
      </trkpt>
      <trkpt lat="45.32592" lon="5.88043">
        <ele>1311.2</ele>
        <time>2011-11-15T12:24:33Z</time>
      </trkpt>
      <trkpt lat="45.32593" lon="5.8804">
        <ele>1312.6</ele>
        <time>2011-11-15T12:24:38Z</time>
      </trkpt>
      <trkpt lat="45.32595" lon="5.88044">
        <ele>1313.6</ele>
        <time>2011-11-15T12:24:42Z</time>
      </trkpt>
      <trkpt lat="45.32602" lon="5.88048">
        <ele>1316.8</ele>
        <time>2011-11-15T12:24:49Z</time>
      </trkpt>
      <trkpt lat="45.32602" lon="5.88047">
        <ele>1319</ele>
        <time>2011-11-15T12:24:57Z</time>
      </trkpt>
      <trkpt lat="45.326" lon="5.88044">
        <ele>1319.8</ele>
        <time>2011-11-15T12:25:00Z</time>
      </trkpt>
      <trkpt lat="45.32602" lon="5.88038">
        <ele>1320.4</ele>
        <time>2011-11-15T12:25:04Z</time>
      </trkpt>
      <trkpt lat="45.32604" lon="5.88035">
        <ele>1321</ele>
        <time>2011-11-15T12:25:07Z</time>
      </trkpt>
      <trkpt lat="45.32606" lon="5.88027">
        <ele>1322.2</ele>
        <time>2011-11-15T12:25:17Z</time>
      </trkpt>
      <trkpt lat="45.32609" lon="5.88025">
        <ele>1322.8</ele>
        <time>2011-11-15T12:25:20Z</time>
      </trkpt>
      <trkpt lat="45.32613" lon="5.88023">
        <ele>1323.4</ele>
        <time>2011-11-15T12:25:23Z</time>
      </trkpt>
      <trkpt lat="45.32616" lon="5.88023">
        <ele>1324</ele>
        <time>2011-11-15T12:25:26Z</time>
      </trkpt>
      <trkpt lat="45.32617" lon="5.88024">
        <ele>1324.6</ele>
        <time>2011-11-15T12:25:30Z</time>
      </trkpt>
      <trkpt lat="45.32617" lon="5.88022">
        <ele>1325.2</ele>
        <time>2011-11-15T12:25:34Z</time>
      </trkpt>
      <trkpt lat="45.32618" lon="5.88012">
        <ele>1325.4</ele>
        <time>2011-11-15T12:25:38Z</time>
      </trkpt>
      <trkpt lat="45.32611" lon="5.88">
        <ele>1328.8</ele>
        <time>2011-11-15T12:25:59Z</time>
      </trkpt>
      <trkpt lat="45.32602" lon="5.87998">
        <ele>1330.8</ele>
        <time>2011-11-15T12:26:10Z</time>
      </trkpt>
      <trkpt lat="45.32601" lon="5.87998">
        <ele>1330.6</ele>
        <time>2011-11-15T12:26:11Z</time>
      </trkpt>
      <trkpt lat="45.32599" lon="5.87994">
        <ele>1330.8</ele>
        <time>2011-11-15T12:26:14Z</time>
      </trkpt>
      <trkpt lat="45.32598" lon="5.87984">
        <ele>1331.4</ele>
        <time>2011-11-15T12:26:19Z</time>
      </trkpt>
      <trkpt lat="45.32596" lon="5.87981">
        <ele>1332.6</ele>
        <time>2011-11-15T12:26:24Z</time>
      </trkpt>
      <trkpt lat="45.32598" lon="5.87976">
        <ele>1334.4</ele>
        <time>2011-11-15T12:26:29Z</time>
      </trkpt>
      <trkpt lat="45.32598" lon="5.87973">
        <ele>1334.6</ele>
        <time>2011-11-15T12:26:30Z</time>
      </trkpt>
      <trkpt lat="45.32595" lon="5.8797">
        <ele>1336</ele>
        <time>2011-11-15T12:26:33Z</time>
      </trkpt>
      <trkpt lat="45.32592" lon="5.87972">
        <ele>1337</ele>
        <time>2011-11-15T12:26:35Z</time>
      </trkpt>
      <trkpt lat="45.32592" lon="5.87972">
        <ele>1337.4</ele>
        <time>2011-11-15T12:26:36Z</time>
      </trkpt>
      <trkpt lat="45.32592" lon="5.87967">
        <ele>1338.8</ele>
        <time>2011-11-15T12:26:39Z</time>
      </trkpt>
      <trkpt lat="45.32596" lon="5.87959">
        <ele>1340.4</ele>
        <time>2011-11-15T12:26:43Z</time>
      </trkpt>
      <trkpt lat="45.32597" lon="5.87954">
        <ele>1341.6</ele>
        <time>2011-11-15T12:26:46Z</time>
      </trkpt>
      <trkpt lat="45.32599" lon="5.87951">
        <ele>1342.6</ele>
        <time>2011-11-15T12:26:49Z</time>
      </trkpt>
      <trkpt lat="45.32597" lon="5.87949">
        <ele>1344.4</ele>
        <time>2011-11-15T12:26:55Z</time>
      </trkpt>
      <trkpt lat="45.32596" lon="5.87948">
        <ele>1345.2</ele>
        <time>2011-11-15T12:26:57Z</time>
      </trkpt>
      <trkpt lat="45.32594" lon="5.87946">
        <ele>1346</ele>
        <time>2011-11-15T12:26:59Z</time>
      </trkpt>
      <trkpt lat="45.32593" lon="5.87941">
        <ele>1347.8</ele>
        <time>2011-11-15T12:27:03Z</time>
      </trkpt>
      <trkpt lat="45.32594" lon="5.87931">
        <ele>1349.6</ele>
        <time>2011-11-15T12:27:08Z</time>
      </trkpt>
      <trkpt lat="45.32595" lon="5.87928">
        <ele>1350</ele>
        <time>2011-11-15T12:27:10Z</time>
      </trkpt>
      <trkpt lat="45.32596" lon="5.87918">
        <ele>1351</ele>
        <time>2011-11-15T12:27:15Z</time>
      </trkpt>
      <trkpt lat="45.32596" lon="5.87911">
        <ele>1352.4</ele>
        <time>2011-11-15T12:27:19Z</time>
      </trkpt>
      <trkpt lat="45.32594" lon="5.87907">
        <ele>1354.2</ele>
        <time>2011-11-15T12:27:23Z</time>
      </trkpt>
      <trkpt lat="45.32595" lon="5.87903">
        <ele>1355</ele>
        <time>2011-11-15T12:27:25Z</time>
      </trkpt>
      <trkpt lat="45.32595" lon="5.87899">
        <ele>1355.6</ele>
        <time>2011-11-15T12:27:27Z</time>
      </trkpt>
      <trkpt lat="45.32595" lon="5.87897">
        <ele>1356</ele>
        <time>2011-11-15T12:27:28Z</time>
      </trkpt>
      <trkpt lat="45.32595" lon="5.87894">
        <ele>1357.6</ele>
        <time>2011-11-15T12:27:32Z</time>
      </trkpt>
      <trkpt lat="45.32594" lon="5.87884">
        <ele>1361.4</ele>
        <time>2011-11-15T12:27:43Z</time>
      </trkpt>
      <trkpt lat="45.32594" lon="5.87878">
        <ele>1362.8</ele>
        <time>2011-11-15T12:27:46Z</time>
      </trkpt>
      <trkpt lat="45.32594" lon="5.87876">
        <ele>1363.2</ele>
        <time>2011-11-15T12:27:47Z</time>
      </trkpt>
      <trkpt lat="45.32599" lon="5.87862">
        <ele>1368</ele>
        <time>2011-11-15T12:28:02Z</time>
      </trkpt>
      <trkpt lat="45.32599" lon="5.87857">
        <ele>1369.2</ele>
        <time>2011-11-15T12:28:04Z</time>
      </trkpt>
      <trkpt lat="45.32602" lon="5.87854">
        <ele>1369.8</ele>
        <time>2011-11-15T12:28:06Z</time>
      </trkpt>
      <trkpt lat="45.32603" lon="5.87852">
        <ele>1370.4</ele>
        <time>2011-11-15T12:28:08Z</time>
      </trkpt>
      <trkpt lat="45.32604" lon="5.8785">
        <ele>1371.2</ele>
        <time>2011-11-15T12:28:11Z</time>
      </trkpt>
      <trkpt lat="45.32606" lon="5.87844">
        <ele>1372.8</ele>
        <time>2011-11-15T12:28:15Z</time>
      </trkpt>
      <trkpt lat="45.32609" lon="5.87838">
        <ele>1376.8</ele>
        <time>2011-11-15T12:28:28Z</time>
      </trkpt>
      <trkpt lat="45.32613" lon="5.87836">
        <ele>1377.2</ele>
        <time>2011-11-15T12:28:32Z</time>
      </trkpt>
      <trkpt lat="45.32618" lon="5.87826">
        <ele>1380.2</ele>
        <time>2011-11-15T12:28:45Z</time>
      </trkpt>
      <trkpt lat="45.32618" lon="5.87822">
        <ele>1385.6</ele>
        <time>2011-11-15T12:28:54Z</time>
      </trkpt>
      <trkpt lat="45.32618" lon="5.87819">
        <ele>1388.4</ele>
        <time>2011-11-15T12:28:58Z</time>
      </trkpt>
      <trkpt lat="45.32619" lon="5.87814">
        <ele>1390.8</ele>
        <time>2011-11-15T12:29:02Z</time>
      </trkpt>
      <trkpt lat="45.32621" lon="5.87814">
        <ele>1391.2</ele>
        <time>2011-11-15T12:29:03Z</time>
      </trkpt>
      <trkpt lat="45.32625" lon="5.87812">
        <ele>1394.2</ele>
        <time>2011-11-15T12:29:10Z</time>
      </trkpt>
      <trkpt lat="45.32626" lon="5.87812">
        <ele>1394.4</ele>
        <time>2011-11-15T12:29:11Z</time>
      </trkpt>
      <trkpt lat="45.32626" lon="5.87808">
        <ele>1396.8</ele>
        <time>2011-11-15T12:29:16Z</time>
      </trkpt>
      <trkpt lat="45.32628" lon="5.87809">
        <ele>1397.4</ele>
        <time>2011-11-15T12:29:18Z</time>
      </trkpt>
      <trkpt lat="45.32633" lon="5.87815">
        <ele>1398.6</ele>
        <time>2011-11-15T12:29:22Z</time>
      </trkpt>
      <trkpt lat="45.32635" lon="5.87817">
        <ele>1399.2</ele>
        <time>2011-11-15T12:29:23Z</time>
      </trkpt>
      <trkpt lat="45.32636" lon="5.87823">
        <ele>1401</ele>
        <time>2011-11-15T12:29:28Z</time>
      </trkpt>
      <trkpt lat="45.32637" lon="5.87824">
        <ele>1401.4</ele>
        <time>2011-11-15T12:29:29Z</time>
      </trkpt>
      <trkpt lat="45.32639" lon="5.87825">
        <ele>1402.6</ele>
        <time>2011-11-15T12:29:31Z</time>
      </trkpt>
      <trkpt lat="45.32644" lon="5.87829">
        <ele>1405.2</ele>
        <time>2011-11-15T12:29:42Z</time>
      </trkpt>
      <trkpt lat="45.32644" lon="5.8783">
        <ele>1405.4</ele>
        <time>2011-11-15T12:29:43Z</time>
      </trkpt>
      <trkpt lat="45.32646" lon="5.87834">
        <ele>1406.2</ele>
        <time>2011-11-15T12:29:47Z</time>
      </trkpt>
      <trkpt lat="45.32652" lon="5.8784">
        <ele>1406.8</ele>
        <time>2011-11-15T12:29:57Z</time>
      </trkpt>
      <trkpt lat="45.32653" lon="5.87843">
        <ele>1407.2</ele>
        <time>2011-11-15T12:29:59Z</time>
      </trkpt>
      <trkpt lat="45.32653" lon="5.87845">
        <ele>1407.6</ele>
        <time>2011-11-15T12:30:01Z</time>
      </trkpt>
      <trkpt lat="45.32654" lon="5.87846">
        <ele>1407.8</ele>
        <time>2011-11-15T12:30:02Z</time>
      </trkpt>
      <trkpt lat="45.32654" lon="5.87847">
        <ele>1408</ele>
        <time>2011-11-15T12:30:03Z</time>
      </trkpt>
      <trkpt lat="45.32656" lon="5.87852">
        <ele>1408.8</ele>
        <time>2011-11-15T12:30:07Z</time>
      </trkpt>
      <trkpt lat="45.32656" lon="5.87853">
        <ele>1409.2</ele>
        <time>2011-11-15T12:30:08Z</time>
      </trkpt>
      <trkpt lat="45.32657" lon="5.87855">
        <ele>1410.4</ele>
        <time>2011-11-15T12:30:12Z</time>
      </trkpt>
      <trkpt lat="45.32658" lon="5.87857">
        <ele>1411.4</ele>
        <time>2011-11-15T12:30:16Z</time>
      </trkpt>
      <trkpt lat="45.32657" lon="5.87859">
        <ele>1413.6</ele>
        <time>2011-11-15T12:30:23Z</time>
      </trkpt>
      <trkpt lat="45.32661" lon="5.87863">
        <ele>1416.4</ele>
        <time>2011-11-15T12:30:30Z</time>
      </trkpt>
      <trkpt lat="45.32662" lon="5.87862">
        <ele>1416.8</ele>
        <time>2011-11-15T12:30:31Z</time>
      </trkpt>
      <trkpt lat="45.32663" lon="5.87859">
        <ele>1418</ele>
        <time>2011-11-15T12:30:34Z</time>
      </trkpt>
      <trkpt lat="45.32664" lon="5.87856">
        <ele>1418.2</ele>
        <time>2011-11-15T12:30:35Z</time>
      </trkpt>
      <trkpt lat="45.32664" lon="5.87851">
        <ele>1419.6</ele>
        <time>2011-11-15T12:30:39Z</time>
      </trkpt>
      <trkpt lat="45.32665" lon="5.87847">
        <ele>1420</ele>
        <time>2011-11-15T12:30:43Z</time>
      </trkpt>
      <trkpt lat="45.32666" lon="5.87845">
        <ele>1421.2</ele>
        <time>2011-11-15T12:30:46Z</time>
      </trkpt>
      <trkpt lat="45.32666" lon="5.87837">
        <ele>1423.8</ele>
        <time>2011-11-15T12:30:52Z</time>
      </trkpt>
      <trkpt lat="45.32668" lon="5.87833">
        <ele>1424.6</ele>
        <time>2011-11-15T12:30:55Z</time>
      </trkpt>
      <trkpt lat="45.32669" lon="5.8783">
        <ele>1425.6</ele>
        <time>2011-11-15T12:30:57Z</time>
      </trkpt>
      <trkpt lat="45.32671" lon="5.87826">
        <ele>1426.4</ele>
        <time>2011-11-15T12:31:00Z</time>
      </trkpt>
      <trkpt lat="45.32671" lon="5.87823">
        <ele>1427</ele>
        <time>2011-11-15T12:31:02Z</time>
      </trkpt>
      <trkpt lat="45.32673" lon="5.87821">
        <ele>1427.6</ele>
        <time>2011-11-15T12:31:05Z</time>
      </trkpt>
      <trkpt lat="45.32672" lon="5.87819">
        <ele>1428.8</ele>
        <time>2011-11-15T12:31:09Z</time>
      </trkpt>
      <trkpt lat="45.32674" lon="5.87818">
        <ele>1430.2</ele>
        <time>2011-11-15T12:31:15Z</time>
      </trkpt>
      <trkpt lat="45.32676" lon="5.87816">
        <ele>1431.2</ele>
        <time>2011-11-15T12:31:18Z</time>
      </trkpt>
      <trkpt lat="45.32678" lon="5.87821">
        <ele>1432</ele>
        <time>2011-11-15T12:31:23Z</time>
      </trkpt>
      <trkpt lat="45.32679" lon="5.87823">
        <ele>1432.2</ele>
        <time>2011-11-15T12:31:24Z</time>
      </trkpt>
      <trkpt lat="45.3268" lon="5.87828">
        <ele>1433</ele>
        <time>2011-11-15T12:31:28Z</time>
      </trkpt>
      <trkpt lat="45.3268" lon="5.87832">
        <ele>1433.8</ele>
        <time>2011-11-15T12:31:30Z</time>
      </trkpt>
      <trkpt lat="45.32689" lon="5.87836">
        <ele>1437.4</ele>
        <time>2011-11-15T12:31:47Z</time>
      </trkpt>
      <trkpt lat="45.32691" lon="5.87833">
        <ele>1438</ele>
        <time>2011-11-15T12:31:49Z</time>
      </trkpt>
      <trkpt lat="45.32692" lon="5.87831">
        <ele>1438.4</ele>
        <time>2011-11-15T12:31:51Z</time>
      </trkpt>
      <trkpt lat="45.32698" lon="5.87816">
        <ele>1443</ele>
        <time>2011-11-15T12:32:04Z</time>
      </trkpt>
      <trkpt lat="45.32699" lon="5.87816">
        <ele>1445</ele>
        <time>2011-11-15T12:32:10Z</time>
      </trkpt>
      <trkpt lat="45.32699" lon="5.87817">
        <ele>1445.2</ele>
        <time>2011-11-15T12:32:11Z</time>
      </trkpt>
      <trkpt lat="45.327" lon="5.87819">
        <ele>1445.6</ele>
        <time>2011-11-15T12:32:12Z</time>
      </trkpt>
      <trkpt lat="45.32704" lon="5.87826">
        <ele>1447.8</ele>
        <time>2011-11-15T12:32:17Z</time>
      </trkpt>
      <trkpt lat="45.32707" lon="5.87836">
        <ele>1451.2</ele>
        <time>2011-11-15T12:32:24Z</time>
      </trkpt>
      <trkpt lat="45.32707" lon="5.87839">
        <ele>1452.4</ele>
        <time>2011-11-15T12:32:27Z</time>
      </trkpt>
      <trkpt lat="45.32709" lon="5.87841">
        <ele>1454.2</ele>
        <time>2011-11-15T12:32:31Z</time>
      </trkpt>
      <trkpt lat="45.32714" lon="5.87839">
        <ele>1456.4</ele>
        <time>2011-11-15T12:32:37Z</time>
      </trkpt>
      <trkpt lat="45.32715" lon="5.87835">
        <ele>1457.4</ele>
        <time>2011-11-15T12:32:41Z</time>
      </trkpt>
      <trkpt lat="45.32714" lon="5.87827">
        <ele>1459</ele>
        <time>2011-11-15T12:32:51Z</time>
      </trkpt>
      <trkpt lat="45.32718" lon="5.87831">
        <ele>1460.4</ele>
        <time>2011-11-15T12:32:57Z</time>
      </trkpt>
      <trkpt lat="45.32721" lon="5.87835">
        <ele>1461.6</ele>
        <time>2011-11-15T12:33:02Z</time>
      </trkpt>
      <trkpt lat="45.32721" lon="5.87835">
        <ele>1461.8</ele>
        <time>2011-11-15T12:33:03Z</time>
      </trkpt>
      <trkpt lat="45.32721" lon="5.87833">
        <ele>1462.8</ele>
        <time>2011-11-15T12:33:07Z</time>
      </trkpt>
      <trkpt lat="45.32722" lon="5.8783">
        <ele>1463.4</ele>
        <time>2011-11-15T12:33:09Z</time>
      </trkpt>
      <trkpt lat="45.32724" lon="5.87827">
        <ele>1464.2</ele>
        <time>2011-11-15T12:33:12Z</time>
      </trkpt>
      <trkpt lat="45.32724" lon="5.87826">
        <ele>1464.4</ele>
        <time>2011-11-15T12:33:13Z</time>
      </trkpt>
      <trkpt lat="45.32726" lon="5.87822">
        <ele>1465.2</ele>
        <time>2011-11-15T12:33:16Z</time>
      </trkpt>
      <trkpt lat="45.32728" lon="5.87821">
        <ele>1465.4</ele>
        <time>2011-11-15T12:33:17Z</time>
      </trkpt>
      <trkpt lat="45.32729" lon="5.87819">
        <ele>1467.2</ele>
        <time>2011-11-15T12:33:22Z</time>
      </trkpt>
      <trkpt lat="45.3273" lon="5.8782">
        <ele>1467.6</ele>
        <time>2011-11-15T12:33:23Z</time>
      </trkpt>
      <trkpt lat="45.3273" lon="5.87821">
        <ele>1468.4</ele>
        <time>2011-11-15T12:33:26Z</time>
      </trkpt>
      <trkpt lat="45.32731" lon="5.87819">
        <ele>1468.6</ele>
        <time>2011-11-15T12:33:27Z</time>
      </trkpt>
      <trkpt lat="45.32732" lon="5.87813">
        <ele>1470</ele>
        <time>2011-11-15T12:33:31Z</time>
      </trkpt>
      <trkpt lat="45.32734" lon="5.87806">
        <ele>1472.8</ele>
        <time>2011-11-15T12:33:39Z</time>
      </trkpt>
      <trkpt lat="45.32737" lon="5.87802">
        <ele>1474</ele>
        <time>2011-11-15T12:33:42Z</time>
      </trkpt>
      <trkpt lat="45.32739" lon="5.87797">
        <ele>1475.6</ele>
        <time>2011-11-15T12:33:47Z</time>
      </trkpt>
      <trkpt lat="45.3274" lon="5.87795">
        <ele>1475.8</ele>
        <time>2011-11-15T12:33:48Z</time>
      </trkpt>
      <trkpt lat="45.3274" lon="5.87796">
        <ele>1478.4</ele>
        <time>2011-11-15T12:33:57Z</time>
      </trkpt>
      <trkpt lat="45.32738" lon="5.87795">
        <ele>1479.4</ele>
        <time>2011-11-15T12:33:59Z</time>
      </trkpt>
      <trkpt lat="45.32738" lon="5.87794">
        <ele>1479.6</ele>
        <time>2011-11-15T12:34:00Z</time>
      </trkpt>
      <trkpt lat="45.3274" lon="5.87774">
        <ele>1483.4</ele>
        <time>2011-11-15T12:34:13Z</time>
      </trkpt>
      <trkpt lat="45.3274" lon="5.87771">
        <ele>1484.2</ele>
        <time>2011-11-15T12:34:15Z</time>
      </trkpt>
      <trkpt lat="45.32738" lon="5.87766">
        <ele>1485.8</ele>
        <time>2011-11-15T12:34:19Z</time>
      </trkpt>
      <trkpt lat="45.3274" lon="5.87753">
        <ele>1489</ele>
        <time>2011-11-15T12:34:27Z</time>
      </trkpt>
      <trkpt lat="45.32742" lon="5.87749">
        <ele>1490.2</ele>
        <time>2011-11-15T12:34:31Z</time>
      </trkpt>
      <trkpt lat="45.32744" lon="5.87745">
        <ele>1491.2</ele>
        <time>2011-11-15T12:34:35Z</time>
      </trkpt>
      <trkpt lat="45.32741" lon="5.87739">
        <ele>1492</ele>
        <time>2011-11-15T12:34:40Z</time>
      </trkpt>
      <trkpt lat="45.32741" lon="5.87733">
        <ele>1493</ele>
        <time>2011-11-15T12:34:44Z</time>
      </trkpt>
      <trkpt lat="45.32741" lon="5.87728">
        <ele>1493.8</ele>
        <time>2011-11-15T12:34:48Z</time>
      </trkpt>
      <trkpt lat="45.32742" lon="5.87722">
        <ele>1495</ele>
        <time>2011-11-15T12:34:52Z</time>
      </trkpt>
      <trkpt lat="45.32743" lon="5.87721">
        <ele>1495.2</ele>
        <time>2011-11-15T12:34:53Z</time>
      </trkpt>
      <trkpt lat="45.32743" lon="5.87715">
        <ele>1496.6</ele>
        <time>2011-11-15T12:34:57Z</time>
      </trkpt>
      <trkpt lat="45.32743" lon="5.87714">
        <ele>1497</ele>
        <time>2011-11-15T12:34:58Z</time>
      </trkpt>
      <trkpt lat="45.32741" lon="5.8771">
        <ele>1497.8</ele>
        <time>2011-11-15T12:35:02Z</time>
      </trkpt>
      <trkpt lat="45.3274" lon="5.87708">
        <ele>1498</ele>
        <time>2011-11-15T12:35:03Z</time>
      </trkpt>
      <trkpt lat="45.3274" lon="5.87698">
        <ele>1498.6</ele>
        <time>2011-11-15T12:35:06Z</time>
      </trkpt>
      <trkpt lat="45.32739" lon="5.87694">
        <ele>1499</ele>
        <time>2011-11-15T12:35:07Z</time>
      </trkpt>
      <trkpt lat="45.3274" lon="5.87691">
        <ele>1499</ele>
        <time>2011-11-15T12:35:08Z</time>
      </trkpt>
      <trkpt lat="45.32741" lon="5.8768">
        <ele>1500</ele>
        <time>2011-11-15T12:35:12Z</time>
      </trkpt>
      <trkpt lat="45.32742" lon="5.87679">
        <ele>1500.2</ele>
        <time>2011-11-15T12:35:13Z</time>
      </trkpt>
      <trkpt lat="45.32743" lon="5.87675">
        <ele>1501.2</ele>
        <time>2011-11-15T12:35:17Z</time>
      </trkpt>
      <trkpt lat="45.32745" lon="5.87672">
        <ele>1501.4</ele>
        <time>2011-11-15T12:35:20Z</time>
      </trkpt>
      <trkpt lat="45.32748" lon="5.87664">
        <ele>1502.2</ele>
        <time>2011-11-15T12:35:26Z</time>
      </trkpt>
      <trkpt lat="45.32748" lon="5.87648">
        <ele>1504</ele>
        <time>2011-11-15T12:35:37Z</time>
      </trkpt>
      <trkpt lat="45.32747" lon="5.87646">
        <ele>1504.2</ele>
        <time>2011-11-15T12:35:39Z</time>
      </trkpt>
      <trkpt lat="45.32746" lon="5.87644">
        <ele>1504.4</ele>
        <time>2011-11-15T12:35:40Z</time>
      </trkpt>
      <trkpt lat="45.32746" lon="5.8764">
        <ele>1504.4</ele>
        <time>2011-11-15T12:35:41Z</time>
      </trkpt>
      <trkpt lat="45.32746" lon="5.87634">
        <ele>1505</ele>
        <time>2011-11-15T12:35:44Z</time>
      </trkpt>
      <trkpt lat="45.32747" lon="5.87631">
        <ele>1505.4</ele>
        <time>2011-11-15T12:35:45Z</time>
      </trkpt>
      <trkpt lat="45.3275" lon="5.87618">
        <ele>1507.2</ele>
        <time>2011-11-15T12:35:53Z</time>
      </trkpt>
      <trkpt lat="45.32748" lon="5.87614">
        <ele>1509</ele>
        <time>2011-11-15T12:35:58Z</time>
      </trkpt>
      <trkpt lat="45.32748" lon="5.87613">
        <ele>1509.6</ele>
        <time>2011-11-15T12:35:59Z</time>
      </trkpt>
      <trkpt lat="45.32746" lon="5.87601">
        <ele>1511.4</ele>
        <time>2011-11-15T12:36:06Z</time>
      </trkpt>
      <trkpt lat="45.32744" lon="5.87592">
        <ele>1513.2</ele>
        <time>2011-11-15T12:36:17Z</time>
      </trkpt>
      <trkpt lat="45.32743" lon="5.8759">
        <ele>1513.4</ele>
        <time>2011-11-15T12:36:19Z</time>
      </trkpt>
      <trkpt lat="45.3274" lon="5.87586">
        <ele>1513.8</ele>
        <time>2011-11-15T12:36:23Z</time>
      </trkpt>
      <trkpt lat="45.3274" lon="5.87582">
        <ele>1514.4</ele>
        <time>2011-11-15T12:36:28Z</time>
      </trkpt>
      <trkpt lat="45.32742" lon="5.87582">
        <ele>1514.8</ele>
        <time>2011-11-15T12:36:29Z</time>
      </trkpt>
      <trkpt lat="45.32745" lon="5.87581">
        <ele>1517.4</ele>
        <time>2011-11-15T12:36:37Z</time>
      </trkpt>
      <trkpt lat="45.32746" lon="5.87582">
        <ele>1519.4</ele>
        <time>2011-11-15T12:36:42Z</time>
      </trkpt>
      <trkpt lat="45.32746" lon="5.87574">
        <ele>1521.8</ele>
        <time>2011-11-15T12:36:51Z</time>
      </trkpt>
      <trkpt lat="45.32749" lon="5.8757">
        <ele>1522.6</ele>
        <time>2011-11-15T12:36:56Z</time>
      </trkpt>
      <trkpt lat="45.32752" lon="5.87572">
        <ele>1523.8</ele>
        <time>2011-11-15T12:37:01Z</time>
      </trkpt>
      <trkpt lat="45.32756" lon="5.87575">
        <ele>1524.4</ele>
        <time>2011-11-15T12:37:05Z</time>
      </trkpt>
      <trkpt lat="45.32758" lon="5.87575">
        <ele>1525.2</ele>
        <time>2011-11-15T12:37:09Z</time>
      </trkpt>
      <trkpt lat="45.32758" lon="5.87573">
        <ele>1525.6</ele>
        <time>2011-11-15T12:37:10Z</time>
      </trkpt>
      <trkpt lat="45.32757" lon="5.87568">
        <ele>1527.2</ele>
        <time>2011-11-15T12:37:15Z</time>
      </trkpt>
      <trkpt lat="45.32757" lon="5.87567">
        <ele>1528.2</ele>
        <time>2011-11-15T12:37:17Z</time>
      </trkpt>
      <trkpt lat="45.32756" lon="5.87565">
        <ele>1529.2</ele>
        <time>2011-11-15T12:37:19Z</time>
      </trkpt>
      <trkpt lat="45.32756" lon="5.87564">
        <ele>1529.4</ele>
        <time>2011-11-15T12:37:20Z</time>
      </trkpt>
      <trkpt lat="45.32755" lon="5.8756">
        <ele>1530</ele>
        <time>2011-11-15T12:37:22Z</time>
      </trkpt>
      <trkpt lat="45.32757" lon="5.8756">
        <ele>1530.8</ele>
        <time>2011-11-15T12:37:24Z</time>
      </trkpt>
      <trkpt lat="45.32758" lon="5.87555">
        <ele>1532.6</ele>
        <time>2011-11-15T12:37:30Z</time>
      </trkpt>
      <trkpt lat="45.32758" lon="5.87553">
        <ele>1533</ele>
        <time>2011-11-15T12:37:32Z</time>
      </trkpt>
      <trkpt lat="45.32761" lon="5.87549">
        <ele>1534</ele>
        <time>2011-11-15T12:37:36Z</time>
      </trkpt>
      <trkpt lat="45.32762" lon="5.87545">
        <ele>1535</ele>
        <time>2011-11-15T12:37:39Z</time>
      </trkpt>
      <trkpt lat="45.32761" lon="5.87543">
        <ele>1535.4</ele>
        <time>2011-11-15T12:37:40Z</time>
      </trkpt>
      <trkpt lat="45.32761" lon="5.87539">
        <ele>1536.4</ele>
        <time>2011-11-15T12:37:42Z</time>
      </trkpt>
      <trkpt lat="45.32761" lon="5.87536">
        <ele>1537.8</ele>
        <time>2011-11-15T12:37:45Z</time>
      </trkpt>
      <trkpt lat="45.32762" lon="5.87535">
        <ele>1539</ele>
        <time>2011-11-15T12:37:48Z</time>
      </trkpt>
      <trkpt lat="45.32764" lon="5.87534">
        <ele>1539.8</ele>
        <time>2011-11-15T12:37:50Z</time>
      </trkpt>
      <trkpt lat="45.32765" lon="5.87533">
        <ele>1540.8</ele>
        <time>2011-11-15T12:37:53Z</time>
      </trkpt>
      <trkpt lat="45.32766" lon="5.87536">
        <ele>1542</ele>
        <time>2011-11-15T12:37:57Z</time>
      </trkpt>
      <trkpt lat="45.32768" lon="5.87537">
        <ele>1542.6</ele>
        <time>2011-11-15T12:37:59Z</time>
      </trkpt>
      <trkpt lat="45.32768" lon="5.87538">
        <ele>1543</ele>
        <time>2011-11-15T12:38:01Z</time>
      </trkpt>
      <trkpt lat="45.32769" lon="5.87538">
        <ele>1543.2</ele>
        <time>2011-11-15T12:38:02Z</time>
      </trkpt>
      <trkpt lat="45.32772" lon="5.87536">
        <ele>1545.6</ele>
        <time>2011-11-15T12:38:09Z</time>
      </trkpt>
      <trkpt lat="45.32774" lon="5.87529">
        <ele>1547.6</ele>
        <time>2011-11-15T12:38:17Z</time>
      </trkpt>
      <trkpt lat="45.32773" lon="5.87523">
        <ele>1549</ele>
        <time>2011-11-15T12:38:22Z</time>
      </trkpt>
      <trkpt lat="45.32771" lon="5.87519">
        <ele>1550.4</ele>
        <time>2011-11-15T12:38:27Z</time>
      </trkpt>
      <trkpt lat="45.3277" lon="5.87517">
        <ele>1551.4</ele>
        <time>2011-11-15T12:38:29Z</time>
      </trkpt>
      <trkpt lat="45.32771" lon="5.87513">
        <ele>1552.8</ele>
        <time>2011-11-15T12:38:33Z</time>
      </trkpt>
      <trkpt lat="45.32771" lon="5.87512">
        <ele>1553.2</ele>
        <time>2011-11-15T12:38:34Z</time>
      </trkpt>
      <trkpt lat="45.32771" lon="5.87509">
        <ele>1554.6</ele>
        <time>2011-11-15T12:38:38Z</time>
      </trkpt>
      <trkpt lat="45.32773" lon="5.87498">
        <ele>1558.8</ele>
        <time>2011-11-15T12:38:50Z</time>
      </trkpt>
      <trkpt lat="45.32773" lon="5.87496">
        <ele>1559.4</ele>
        <time>2011-11-15T12:38:52Z</time>
      </trkpt>
      <trkpt lat="45.32772" lon="5.87491">
        <ele>1561</ele>
        <time>2011-11-15T12:38:57Z</time>
      </trkpt>
      <trkpt lat="45.32772" lon="5.8749">
        <ele>1561.4</ele>
        <time>2011-11-15T12:38:58Z</time>
      </trkpt>
      <trkpt lat="45.32771" lon="5.87486">
        <ele>1562.2</ele>
        <time>2011-11-15T12:39:01Z</time>
      </trkpt>
      <trkpt lat="45.32771" lon="5.87483">
        <ele>1562.6</ele>
        <time>2011-11-15T12:39:02Z</time>
      </trkpt>
      <trkpt lat="45.32769" lon="5.87474">
        <ele>1563.6</ele>
        <time>2011-11-15T12:39:06Z</time>
      </trkpt>
      <trkpt lat="45.32767" lon="5.8747">
        <ele>1564</ele>
        <time>2011-11-15T12:39:08Z</time>
      </trkpt>
      <trkpt lat="45.32766" lon="5.87468">
        <ele>1564.4</ele>
        <time>2011-11-15T12:39:09Z</time>
      </trkpt>
      <trkpt lat="45.32766" lon="5.87466">
        <ele>1564.6</ele>
        <time>2011-11-15T12:39:10Z</time>
      </trkpt>
      <trkpt lat="45.32767" lon="5.87461">
        <ele>1565.2</ele>
        <time>2011-11-15T12:39:14Z</time>
      </trkpt>
      <trkpt lat="45.32767" lon="5.8746">
        <ele>1565.2</ele>
        <time>2011-11-15T12:39:15Z</time>
      </trkpt>
      <trkpt lat="45.32765" lon="5.87449">
        <ele>1566.2</ele>
        <time>2011-11-15T12:39:20Z</time>
      </trkpt>
      <trkpt lat="45.32765" lon="5.87443">
        <ele>1567.2</ele>
        <time>2011-11-15T12:39:24Z</time>
      </trkpt>
      <trkpt lat="45.32765" lon="5.87441">
        <ele>1567.4</ele>
        <time>2011-11-15T12:39:25Z</time>
      </trkpt>
      <trkpt lat="45.32766" lon="5.87437">
        <ele>1568.4</ele>
        <time>2011-11-15T12:39:29Z</time>
      </trkpt>
      <trkpt lat="45.32765" lon="5.87435">
        <ele>1569</ele>
        <time>2011-11-15T12:39:31Z</time>
      </trkpt>
      <trkpt lat="45.32762" lon="5.87431">
        <ele>1570.4</ele>
        <time>2011-11-15T12:39:36Z</time>
      </trkpt>
      <trkpt lat="45.32762" lon="5.87429">
        <ele>1570.8</ele>
        <time>2011-11-15T12:39:38Z</time>
      </trkpt>
      <trkpt lat="45.32759" lon="5.87427">
        <ele>1571.4</ele>
        <time>2011-11-15T12:39:40Z</time>
      </trkpt>
      <trkpt lat="45.32755" lon="5.87426">
        <ele>1571.8</ele>
        <time>2011-11-15T12:39:42Z</time>
      </trkpt>
      <trkpt lat="45.32752" lon="5.87423">
        <ele>1572.4</ele>
        <time>2011-11-15T12:39:44Z</time>
      </trkpt>
      <trkpt lat="45.32751" lon="5.87418">
        <ele>1572.8</ele>
        <time>2011-11-15T12:39:46Z</time>
      </trkpt>
      <trkpt lat="45.32753" lon="5.87415">
        <ele>1574</ele>
        <time>2011-11-15T12:39:51Z</time>
      </trkpt>
      <trkpt lat="45.32752" lon="5.87415">
        <ele>1576.6</ele>
        <time>2011-11-15T12:40:00Z</time>
      </trkpt>
      <trkpt lat="45.32752" lon="5.87415">
        <ele>1580.8</ele>
        <time>2011-11-15T12:40:26Z</time>
      </trkpt>
      <trkpt lat="45.32756" lon="5.87414">
        <ele>1581.6</ele>
        <time>2011-11-15T12:40:32Z</time>
      </trkpt>
      <trkpt lat="45.32756" lon="5.87413">
        <ele>1581.6</ele>
        <time>2011-11-15T12:40:33Z</time>
      </trkpt>
      <trkpt lat="45.32756" lon="5.87409">
        <ele>1582</ele>
        <time>2011-11-15T12:40:37Z</time>
      </trkpt>
      <trkpt lat="45.32759" lon="5.87407">
        <ele>1582.6</ele>
        <time>2011-11-15T12:40:42Z</time>
      </trkpt>
      <trkpt lat="45.32762" lon="5.87402">
        <ele>1583.4</ele>
        <time>2011-11-15T12:40:48Z</time>
      </trkpt>
      <trkpt lat="45.32764" lon="5.87399">
        <ele>1584</ele>
        <time>2011-11-15T12:40:52Z</time>
      </trkpt>
      <trkpt lat="45.32764" lon="5.87394">
        <ele>1585.2</ele>
        <time>2011-11-15T12:40:57Z</time>
      </trkpt>
      <trkpt lat="45.32765" lon="5.87392">
        <ele>1585.6</ele>
        <time>2011-11-15T12:40:58Z</time>
      </trkpt>
      <trkpt lat="45.32764" lon="5.87388">
        <ele>1586.6</ele>
        <time>2011-11-15T12:41:01Z</time>
      </trkpt>
      <trkpt lat="45.32765" lon="5.87387">
        <ele>1586.8</ele>
        <time>2011-11-15T12:41:02Z</time>
      </trkpt>
      <trkpt lat="45.32766" lon="5.87386">
        <ele>1587.6</ele>
        <time>2011-11-15T12:41:05Z</time>
      </trkpt>
      <trkpt lat="45.32769" lon="5.87387">
        <ele>1589.2</ele>
        <time>2011-11-15T12:41:10Z</time>
      </trkpt>
      <trkpt lat="45.32769" lon="5.87381">
        <ele>1590.8</ele>
        <time>2011-11-15T12:41:16Z</time>
      </trkpt>
      <trkpt lat="45.32769" lon="5.87375">
        <ele>1592.8</ele>
        <time>2011-11-15T12:41:22Z</time>
      </trkpt>
      <trkpt lat="45.32768" lon="5.87373">
        <ele>1593.8</ele>
        <time>2011-11-15T12:41:25Z</time>
      </trkpt>
      <trkpt lat="45.3277" lon="5.87372">
        <ele>1595.4</ele>
        <time>2011-11-15T12:41:30Z</time>
      </trkpt>
      <trkpt lat="45.32772" lon="5.87371">
        <ele>1596.6</ele>
        <time>2011-11-15T12:41:36Z</time>
      </trkpt>
      <trkpt lat="45.32773" lon="5.8737">
        <ele>1597.2</ele>
        <time>2011-11-15T12:41:38Z</time>
      </trkpt>
      <trkpt lat="45.32774" lon="5.8737">
        <ele>1597.4</ele>
        <time>2011-11-15T12:41:40Z</time>
      </trkpt>
      <trkpt lat="45.32777" lon="5.8737">
        <ele>1598.8</ele>
        <time>2011-11-15T12:41:46Z</time>
      </trkpt>
      <trkpt lat="45.32781" lon="5.87373">
        <ele>1601.4</ele>
        <time>2011-11-15T12:41:56Z</time>
      </trkpt>
      <trkpt lat="45.32782" lon="5.87373">
        <ele>1602</ele>
        <time>2011-11-15T12:41:58Z</time>
      </trkpt>
      <trkpt lat="45.32782" lon="5.87369">
        <ele>1603.6</ele>
        <time>2011-11-15T12:42:02Z</time>
      </trkpt>
      <trkpt lat="45.32784" lon="5.87368">
        <ele>1605</ele>
        <time>2011-11-15T12:42:06Z</time>
      </trkpt>
      <trkpt lat="45.32787" lon="5.8737">
        <ele>1607</ele>
        <time>2011-11-15T12:42:12Z</time>
      </trkpt>
      <trkpt lat="45.3279" lon="5.87361">
        <ele>1610.6</ele>
        <time>2011-11-15T12:42:24Z</time>
      </trkpt>
      <trkpt lat="45.32791" lon="5.87358">
        <ele>1610.8</ele>
        <time>2011-11-15T12:42:26Z</time>
      </trkpt>
      <trkpt lat="45.32791" lon="5.87357">
        <ele>1611.2</ele>
        <time>2011-11-15T12:42:27Z</time>
      </trkpt>
      <trkpt lat="45.32792" lon="5.87357">
        <ele>1611.4</ele>
        <time>2011-11-15T12:42:28Z</time>
      </trkpt>
      <trkpt lat="45.3279" lon="5.8735">
        <ele>1612.6</ele>
        <time>2011-11-15T12:42:34Z</time>
      </trkpt>
      <trkpt lat="45.3279" lon="5.87349">
        <ele>1613</ele>
        <time>2011-11-15T12:42:35Z</time>
      </trkpt>
      <trkpt lat="45.32791" lon="5.87345">
        <ele>1613.6</ele>
        <time>2011-11-15T12:42:39Z</time>
      </trkpt>
      <trkpt lat="45.32793" lon="5.8734">
        <ele>1613.8</ele>
        <time>2011-11-15T12:42:43Z</time>
      </trkpt>
      <trkpt lat="45.32794" lon="5.87341">
        <ele>1614.2</ele>
        <time>2011-11-15T12:42:45Z</time>
      </trkpt>
      <trkpt lat="45.32796" lon="5.87339">
        <ele>1614.8</ele>
        <time>2011-11-15T12:42:50Z</time>
      </trkpt>
      <trkpt lat="45.32797" lon="5.87338">
        <ele>1615.2</ele>
        <time>2011-11-15T12:42:52Z</time>
      </trkpt>
      <trkpt lat="45.32798" lon="5.87334">
        <ele>1616.4</ele>
        <time>2011-11-15T12:42:58Z</time>
      </trkpt>
      <trkpt lat="45.328" lon="5.87333">
        <ele>1618.2</ele>
        <time>2011-11-15T12:43:04Z</time>
      </trkpt>
      <trkpt lat="45.32801" lon="5.87331">
        <ele>1619.4</ele>
        <time>2011-11-15T12:43:07Z</time>
      </trkpt>
      <trkpt lat="45.32801" lon="5.87328">
        <ele>1620.4</ele>
        <time>2011-11-15T12:43:11Z</time>
      </trkpt>
      <trkpt lat="45.32802" lon="5.87323">
        <ele>1621.6</ele>
        <time>2011-11-15T12:43:15Z</time>
      </trkpt>
      <trkpt lat="45.328" lon="5.87317">
        <ele>1624</ele>
        <time>2011-11-15T12:43:21Z</time>
      </trkpt>
      <trkpt lat="45.32799" lon="5.87313">
        <ele>1625.8</ele>
        <time>2011-11-15T12:43:25Z</time>
      </trkpt>
      <trkpt lat="45.32797" lon="5.8731">
        <ele>1627.6</ele>
        <time>2011-11-15T12:43:29Z</time>
      </trkpt>
      <trkpt lat="45.32797" lon="5.87306">
        <ele>1629.2</ele>
        <time>2011-11-15T12:43:33Z</time>
      </trkpt>
      <trkpt lat="45.32793" lon="5.87297">
        <ele>1632.2</ele>
        <time>2011-11-15T12:43:40Z</time>
      </trkpt>
      <trkpt lat="45.32792" lon="5.87295">
        <ele>1632.8</ele>
        <time>2011-11-15T12:43:42Z</time>
      </trkpt>
      <trkpt lat="45.32792" lon="5.87295">
        <ele>1633.2</ele>
        <time>2011-11-15T12:43:43Z</time>
      </trkpt>
      <trkpt lat="45.32792" lon="5.87292">
        <ele>1634</ele>
        <time>2011-11-15T12:43:46Z</time>
      </trkpt>
      <trkpt lat="45.32791" lon="5.87288">
        <ele>1635.8</ele>
        <time>2011-11-15T12:43:52Z</time>
      </trkpt>
      <trkpt lat="45.32791" lon="5.87285">
        <ele>1637.2</ele>
        <time>2011-11-15T12:43:57Z</time>
      </trkpt>
      <trkpt lat="45.3279" lon="5.87284">
        <ele>1637.6</ele>
        <time>2011-11-15T12:43:58Z</time>
      </trkpt>
      <trkpt lat="45.32788" lon="5.87277">
        <ele>1640.4</ele>
        <time>2011-11-15T12:44:05Z</time>
      </trkpt>
      <trkpt lat="45.32787" lon="5.87276">
        <ele>1640.8</ele>
        <time>2011-11-15T12:44:06Z</time>
      </trkpt>
      <trkpt lat="45.32788" lon="5.87271">
        <ele>1642.4</ele>
        <time>2011-11-15T12:44:10Z</time>
      </trkpt>
      <trkpt lat="45.32788" lon="5.87269">
        <ele>1642.6</ele>
        <time>2011-11-15T12:44:11Z</time>
      </trkpt>
      <trkpt lat="45.32788" lon="5.87262">
        <ele>1644.8</ele>
        <time>2011-11-15T12:44:17Z</time>
      </trkpt>
      <trkpt lat="45.32788" lon="5.87257">
        <ele>1648</ele>
        <time>2011-11-15T12:44:28Z</time>
      </trkpt>
      <trkpt lat="45.32793" lon="5.87257">
        <ele>1649.2</ele>
        <time>2011-11-15T12:44:34Z</time>
      </trkpt>
      <trkpt lat="45.32796" lon="5.87258">
        <ele>1650.2</ele>
        <time>2011-11-15T12:44:40Z</time>
      </trkpt>
      <trkpt lat="45.32798" lon="5.87258">
        <ele>1650.6</ele>
        <time>2011-11-15T12:44:42Z</time>
      </trkpt>
      <trkpt lat="45.32799" lon="5.87259">
        <ele>1651</ele>
        <time>2011-11-15T12:44:45Z</time>
      </trkpt>
      <trkpt lat="45.32803" lon="5.87263">
        <ele>1651.6</ele>
        <time>2011-11-15T12:44:49Z</time>
      </trkpt>
      <trkpt lat="45.3281" lon="5.8727">
        <ele>1652.6</ele>
        <time>2011-11-15T12:44:55Z</time>
      </trkpt>
      <trkpt lat="45.32812" lon="5.87272">
        <ele>1652.8</ele>
        <time>2011-11-15T12:44:56Z</time>
      </trkpt>
      <trkpt lat="45.32816" lon="5.87279">
        <ele>1653.4</ele>
        <time>2011-11-15T12:44:59Z</time>
      </trkpt>
      <trkpt lat="45.3282" lon="5.87286">
        <ele>1654</ele>
        <time>2011-11-15T12:45:03Z</time>
      </trkpt>
      <trkpt lat="45.32824" lon="5.87293">
        <ele>1654.6</ele>
        <time>2011-11-15T12:45:08Z</time>
      </trkpt>
      <trkpt lat="45.3283" lon="5.87301">
        <ele>1655.2</ele>
        <time>2011-11-15T12:45:14Z</time>
      </trkpt>
      <trkpt lat="45.32833" lon="5.87308">
        <ele>1656</ele>
        <time>2011-11-15T12:45:21Z</time>
      </trkpt>
      <trkpt lat="45.32837" lon="5.87312">
        <ele>1657.2</ele>
        <time>2011-11-15T12:45:26Z</time>
      </trkpt>
      <trkpt lat="45.32842" lon="5.87315">
        <ele>1658</ele>
        <time>2011-11-15T12:45:32Z</time>
      </trkpt>
      <trkpt lat="45.32845" lon="5.87316">
        <ele>1658.6</ele>
        <time>2011-11-15T12:45:36Z</time>
      </trkpt>
      <trkpt lat="45.32852" lon="5.8732">
        <ele>1659.4</ele>
        <time>2011-11-15T12:45:43Z</time>
      </trkpt>
      <trkpt lat="45.32853" lon="5.87321">
        <ele>1659.4</ele>
        <time>2011-11-15T12:45:44Z</time>
      </trkpt>
      <trkpt lat="45.32854" lon="5.87321">
        <ele>1659.4</ele>
        <time>2011-11-15T12:45:45Z</time>
      </trkpt>
      <trkpt lat="45.32856" lon="5.87322">
        <ele>1659.4</ele>
        <time>2011-11-15T12:45:47Z</time>
      </trkpt>
      <trkpt lat="45.32859" lon="5.87324">
        <ele>1660</ele>
        <time>2011-11-15T12:45:52Z</time>
      </trkpt>
      <trkpt lat="45.32866" lon="5.87327">
        <ele>1662</ele>
        <time>2011-11-15T12:45:58Z</time>
      </trkpt>
      <trkpt lat="45.32866" lon="5.87325">
        <ele>1662.4</ele>
        <time>2011-11-15T12:46:00Z</time>
      </trkpt>
      <trkpt lat="45.32868" lon="5.87324">
        <ele>1664</ele>
        <time>2011-11-15T12:46:04Z</time>
      </trkpt>
      <trkpt lat="45.32871" lon="5.87328">
        <ele>1666.2</ele>
        <time>2011-11-15T12:46:10Z</time>
      </trkpt>
      <trkpt lat="45.32873" lon="5.87333">
        <ele>1668.2</ele>
        <time>2011-11-15T12:46:16Z</time>
      </trkpt>
      <trkpt lat="45.32876" lon="5.87333">
        <ele>1669.4</ele>
        <time>2011-11-15T12:46:19Z</time>
      </trkpt>
      <trkpt lat="45.32878" lon="5.87334">
        <ele>1670.2</ele>
        <time>2011-11-15T12:46:21Z</time>
      </trkpt>
      <trkpt lat="45.3288" lon="5.87335">
        <ele>1670.8</ele>
        <time>2011-11-15T12:46:23Z</time>
      </trkpt>
      <trkpt lat="45.32883" lon="5.87336">
        <ele>1672.4</ele>
        <time>2011-11-15T12:46:28Z</time>
      </trkpt>
      <trkpt lat="45.32884" lon="5.87337">
        <ele>1673</ele>
        <time>2011-11-15T12:46:30Z</time>
      </trkpt>
      <trkpt lat="45.32886" lon="5.87338">
        <ele>1674</ele>
        <time>2011-11-15T12:46:33Z</time>
      </trkpt>
      <trkpt lat="45.32886" lon="5.87339">
        <ele>1674.4</ele>
        <time>2011-11-15T12:46:34Z</time>
      </trkpt>
      <trkpt lat="45.32888" lon="5.87342">
        <ele>1675.6</ele>
        <time>2011-11-15T12:46:38Z</time>
      </trkpt>
      <trkpt lat="45.32895" lon="5.87344">
        <ele>1679</ele>
        <time>2011-11-15T12:46:48Z</time>
      </trkpt>
      <trkpt lat="45.32897" lon="5.87345">
        <ele>1679.8</ele>
        <time>2011-11-15T12:46:51Z</time>
      </trkpt>
      <trkpt lat="45.32898" lon="5.87345">
        <ele>1680.6</ele>
        <time>2011-11-15T12:46:53Z</time>
      </trkpt>
      <trkpt lat="45.32898" lon="5.87344">
        <ele>1681.2</ele>
        <time>2011-11-15T12:46:55Z</time>
      </trkpt>
      <trkpt lat="45.32899" lon="5.87341">
        <ele>1682.4</ele>
        <time>2011-11-15T12:46:59Z</time>
      </trkpt>
      <trkpt lat="45.32903" lon="5.87336">
        <ele>1684</ele>
        <time>2011-11-15T12:47:07Z</time>
      </trkpt>
      <trkpt lat="45.32902" lon="5.87335">
        <ele>1684.4</ele>
        <time>2011-11-15T12:47:08Z</time>
      </trkpt>
      <trkpt lat="45.32901" lon="5.87332">
        <ele>1685.2</ele>
        <time>2011-11-15T12:47:10Z</time>
      </trkpt>
      <trkpt lat="45.32901" lon="5.87332">
        <ele>1685.6</ele>
        <time>2011-11-15T12:47:11Z</time>
      </trkpt>
      <trkpt lat="45.32904" lon="5.87332">
        <ele>1688.4</ele>
        <time>2011-11-15T12:47:19Z</time>
      </trkpt>
      <trkpt lat="45.32907" lon="5.87327">
        <ele>1691.2</ele>
        <time>2011-11-15T12:47:27Z</time>
      </trkpt>
      <trkpt lat="45.32908" lon="5.8732">
        <ele>1694.2</ele>
        <time>2011-11-15T12:47:34Z</time>
      </trkpt>
      <trkpt lat="45.32908" lon="5.87315">
        <ele>1695.6</ele>
        <time>2011-11-15T12:47:38Z</time>
      </trkpt>
      <trkpt lat="45.32907" lon="5.87312">
        <ele>1697</ele>
        <time>2011-11-15T12:47:42Z</time>
      </trkpt>
      <trkpt lat="45.32908" lon="5.87312">
        <ele>1698.6</ele>
        <time>2011-11-15T12:47:46Z</time>
      </trkpt>
      <trkpt lat="45.3291" lon="5.87315">
        <ele>1699.6</ele>
        <time>2011-11-15T12:47:49Z</time>
      </trkpt>
      <trkpt lat="45.32912" lon="5.87316">
        <ele>1700</ele>
        <time>2011-11-15T12:47:50Z</time>
      </trkpt>
      <trkpt lat="45.32916" lon="5.87321">
        <ele>1701.4</ele>
        <time>2011-11-15T12:47:54Z</time>
      </trkpt>
      <trkpt lat="45.32917" lon="5.87322">
        <ele>1701.8</ele>
        <time>2011-11-15T12:47:55Z</time>
      </trkpt>
      <trkpt lat="45.32917" lon="5.87323">
        <ele>1702</ele>
        <time>2011-11-15T12:47:56Z</time>
      </trkpt>
      <trkpt lat="45.32917" lon="5.87326">
        <ele>1702.6</ele>
        <time>2011-11-15T12:47:58Z</time>
      </trkpt>
      <trkpt lat="45.32919" lon="5.87329">
        <ele>1704</ele>
        <time>2011-11-15T12:48:02Z</time>
      </trkpt>
      <trkpt lat="45.32921" lon="5.87332">
        <ele>1705.8</ele>
        <time>2011-11-15T12:48:07Z</time>
      </trkpt>
      <trkpt lat="45.32924" lon="5.87333">
        <ele>1707.2</ele>
        <time>2011-11-15T12:48:10Z</time>
      </trkpt>
      <trkpt lat="45.32925" lon="5.87334">
        <ele>1708</ele>
        <time>2011-11-15T12:48:12Z</time>
      </trkpt>
      <trkpt lat="45.32929" lon="5.87339">
        <ele>1711</ele>
        <time>2011-11-15T12:48:19Z</time>
      </trkpt>
      <trkpt lat="45.3293" lon="5.87339">
        <ele>1711.6</ele>
        <time>2011-11-15T12:48:20Z</time>
      </trkpt>
      <trkpt lat="45.32934" lon="5.8734">
        <ele>1715.6</ele>
        <time>2011-11-15T12:48:29Z</time>
      </trkpt>
      <trkpt lat="45.32937" lon="5.87337">
        <ele>1717.6</ele>
        <time>2011-11-15T12:48:35Z</time>
      </trkpt>
      <trkpt lat="45.32936" lon="5.87333">
        <ele>1718.8</ele>
        <time>2011-11-15T12:48:39Z</time>
      </trkpt>
      <trkpt lat="45.32935" lon="5.87328">
        <ele>1720</ele>
        <time>2011-11-15T12:48:44Z</time>
      </trkpt>
      <trkpt lat="45.32938" lon="5.87326">
        <ele>1721.2</ele>
        <time>2011-11-15T12:48:49Z</time>
      </trkpt>
      <trkpt lat="45.3294" lon="5.87326">
        <ele>1723.2</ele>
        <time>2011-11-15T12:48:56Z</time>
      </trkpt>
      <trkpt lat="45.32941" lon="5.87327">
        <ele>1724.2</ele>
        <time>2011-11-15T12:48:58Z</time>
      </trkpt>
      <trkpt lat="45.32942" lon="5.87328">
        <ele>1724.8</ele>
        <time>2011-11-15T12:49:00Z</time>
      </trkpt>
      <trkpt lat="45.32943" lon="5.87328">
        <ele>1725.2</ele>
        <time>2011-11-15T12:49:01Z</time>
      </trkpt>
      <trkpt lat="45.32946" lon="5.87327">
        <ele>1726.4</ele>
        <time>2011-11-15T12:49:05Z</time>
      </trkpt>
      <trkpt lat="45.32948" lon="5.87316">
        <ele>1729</ele>
        <time>2011-11-15T12:49:18Z</time>
      </trkpt>
      <trkpt lat="45.32948" lon="5.87313">
        <ele>1730.2</ele>
        <time>2011-11-15T12:49:24Z</time>
      </trkpt>
      <trkpt lat="45.32948" lon="5.87312">
        <ele>1731.4</ele>
        <time>2011-11-15T12:49:31Z</time>
      </trkpt>
      <trkpt lat="45.32948" lon="5.87312">
        <ele>1732.6</ele>
        <time>2011-11-15T12:49:36Z</time>
      </trkpt>
      <trkpt lat="45.32953" lon="5.87309">
        <ele>1733.6</ele>
        <time>2011-11-15T12:49:41Z</time>
      </trkpt>
      <trkpt lat="45.32954" lon="5.87309">
        <ele>1734.6</ele>
        <time>2011-11-15T12:49:45Z</time>
      </trkpt>
      <trkpt lat="45.32955" lon="5.87309">
        <ele>1734.8</ele>
        <time>2011-11-15T12:49:46Z</time>
      </trkpt>
      <trkpt lat="45.32953" lon="5.87312">
        <ele>1736</ele>
        <time>2011-11-15T12:50:04Z</time>
      </trkpt>
      <trkpt lat="45.32956" lon="5.8731">
        <ele>1735.8</ele>
        <time>2011-11-15T12:50:05Z</time>
      </trkpt>
      <trkpt lat="45.3296" lon="5.87307">
        <ele>1735.8</ele>
        <time>2011-11-15T12:50:07Z</time>
      </trkpt>
      <trkpt lat="45.32962" lon="5.87304">
        <ele>1735.6</ele>
        <time>2011-11-15T12:50:11Z</time>
      </trkpt>
      <trkpt lat="45.3296" lon="5.87306">
        <ele>1735.6</ele>
        <time>2011-11-15T12:50:12Z</time>
      </trkpt>
      <trkpt lat="45.32955" lon="5.87304">
        <ele>1736.4</ele>
        <time>2011-11-15T12:50:14Z</time>
      </trkpt>
      <trkpt lat="45.32952" lon="5.87304">
        <ele>1737.2</ele>
        <time>2011-11-15T12:50:16Z</time>
      </trkpt>
      <trkpt lat="45.32947" lon="5.87306">
        <ele>1738.4</ele>
        <time>2011-11-15T12:50:19Z</time>
      </trkpt>
      <trkpt lat="45.32947" lon="5.87305">
        <ele>1738.8</ele>
        <time>2011-11-15T12:50:20Z</time>
      </trkpt>
      <trkpt lat="45.32947" lon="5.87302">
        <ele>1739</ele>
        <time>2011-11-15T12:50:21Z</time>
      </trkpt>
      <trkpt lat="45.32945" lon="5.87299">
        <ele>1740.2</ele>
        <time>2011-11-15T12:50:24Z</time>
      </trkpt>
      <trkpt lat="45.32944" lon="5.87294">
        <ele>1741.6</ele>
        <time>2011-11-15T12:50:27Z</time>
      </trkpt>
      <trkpt lat="45.3294" lon="5.87293">
        <ele>1744.2</ele>
        <time>2011-11-15T12:50:33Z</time>
      </trkpt>
      <trkpt lat="45.32939" lon="5.87293">
        <ele>1744.8</ele>
        <time>2011-11-15T12:50:34Z</time>
      </trkpt>
      <trkpt lat="45.32935" lon="5.87291">
        <ele>1748</ele>
        <time>2011-11-15T12:50:40Z</time>
      </trkpt>
      <trkpt lat="45.32934" lon="5.87289">
        <ele>1749</ele>
        <time>2011-11-15T12:50:42Z</time>
      </trkpt>
      <trkpt lat="45.3293" lon="5.87288">
        <ele>1752.6</ele>
        <time>2011-11-15T12:50:49Z</time>
      </trkpt>
      <trkpt lat="45.3293" lon="5.87282">
        <ele>1755.4</ele>
        <time>2011-11-15T12:50:54Z</time>
      </trkpt>
      <trkpt lat="45.32931" lon="5.87278">
        <ele>1756.8</ele>
        <time>2011-11-15T12:50:57Z</time>
      </trkpt>
      <trkpt lat="45.3293" lon="5.87277">
        <ele>1757.6</ele>
        <time>2011-11-15T12:50:59Z</time>
      </trkpt>
      <trkpt lat="45.32931" lon="5.87274">
        <ele>1759.2</ele>
        <time>2011-11-15T12:51:05Z</time>
      </trkpt>
      <trkpt lat="45.32931" lon="5.8727">
        <ele>1761.2</ele>
        <time>2011-11-15T12:51:13Z</time>
      </trkpt>
      <trkpt lat="45.3293" lon="5.87268">
        <ele>1762.8</ele>
        <time>2011-11-15T12:51:18Z</time>
      </trkpt>
      <trkpt lat="45.3293" lon="5.87264">
        <ele>1765</ele>
        <time>2011-11-15T12:51:24Z</time>
      </trkpt>
      <trkpt lat="45.32931" lon="5.87259">
        <ele>1768.6</ele>
        <time>2011-11-15T12:51:34Z</time>
      </trkpt>
      <trkpt lat="45.3293" lon="5.87256">
        <ele>1770.4</ele>
        <time>2011-11-15T12:51:40Z</time>
      </trkpt>
      <trkpt lat="45.32933" lon="5.87255">
        <ele>1772</ele>
        <time>2011-11-15T12:51:46Z</time>
      </trkpt>
      <trkpt lat="45.32934" lon="5.87251">
        <ele>1773.6</ele>
        <time>2011-11-15T12:51:52Z</time>
      </trkpt>
      <trkpt lat="45.32939" lon="5.8725">
        <ele>1774.6</ele>
        <time>2011-11-15T12:51:57Z</time>
      </trkpt>
      <trkpt lat="45.32941" lon="5.87248">
        <ele>1776</ele>
        <time>2011-11-15T12:52:02Z</time>
      </trkpt>
      <trkpt lat="45.3294" lon="5.87245">
        <ele>1777.2</ele>
        <time>2011-11-15T12:52:07Z</time>
      </trkpt>
      <trkpt lat="45.32937" lon="5.87242">
        <ele>1778.2</ele>
        <time>2011-11-15T12:52:13Z</time>
      </trkpt>
      <trkpt lat="45.32936" lon="5.87242">
        <ele>1778.4</ele>
        <time>2011-11-15T12:52:14Z</time>
      </trkpt>
      <trkpt lat="45.32935" lon="5.8724">
        <ele>1779</ele>
        <time>2011-11-15T12:52:18Z</time>
      </trkpt>
      <trkpt lat="45.32934" lon="5.87239">
        <ele>1779.4</ele>
        <time>2011-11-15T12:52:22Z</time>
      </trkpt>
      <trkpt lat="45.32933" lon="5.87237">
        <ele>1780</ele>
        <time>2011-11-15T12:52:26Z</time>
      </trkpt>
      <trkpt lat="45.32932" lon="5.87233">
        <ele>1781</ele>
        <time>2011-11-15T12:52:32Z</time>
      </trkpt>
      <trkpt lat="45.32931" lon="5.8723">
        <ele>1781.6</ele>
        <time>2011-11-15T12:52:36Z</time>
      </trkpt>
      <trkpt lat="45.32934" lon="5.87228">
        <ele>1783.6</ele>
        <time>2011-11-15T12:52:44Z</time>
      </trkpt>
      <trkpt lat="45.32932" lon="5.87225">
        <ele>1786.4</ele>
        <time>2011-11-15T12:52:55Z</time>
      </trkpt>
      <trkpt lat="45.32932" lon="5.87225">
        <ele>1787.2</ele>
        <time>2011-11-15T12:52:58Z</time>
      </trkpt>
      <trkpt lat="45.32931" lon="5.87224">
        <ele>1788.4</ele>
        <time>2011-11-15T12:53:01Z</time>
      </trkpt>
      <trkpt lat="45.32927" lon="5.87223">
        <ele>1789.4</ele>
        <time>2011-11-15T12:53:05Z</time>
      </trkpt>
      <trkpt lat="45.32924" lon="5.87222">
        <ele>1790.6</ele>
        <time>2011-11-15T12:53:09Z</time>
      </trkpt>
      <trkpt lat="45.32921" lon="5.87221">
        <ele>1791.8</ele>
        <time>2011-11-15T12:53:13Z</time>
      </trkpt>
      <trkpt lat="45.3292" lon="5.87221">
        <ele>1792</ele>
        <time>2011-11-15T12:53:14Z</time>
      </trkpt>
      <trkpt lat="45.3292" lon="5.87221">
        <ele>1792.8</ele>
        <time>2011-11-15T12:53:18Z</time>
      </trkpt>
      <trkpt lat="45.32918" lon="5.87221">
        <ele>1793.8</ele>
        <time>2011-11-15T12:53:22Z</time>
      </trkpt>
      <trkpt lat="45.32916" lon="5.87221">
        <ele>1794.4</ele>
        <time>2011-11-15T12:53:24Z</time>
      </trkpt>
      <trkpt lat="45.3291" lon="5.87219">
        <ele>1795.4</ele>
        <time>2011-11-15T12:53:29Z</time>
      </trkpt>
      <trkpt lat="45.32909" lon="5.87219">
        <ele>1795.4</ele>
        <time>2011-11-15T12:53:30Z</time>
      </trkpt>
      <trkpt lat="45.32904" lon="5.87217">
        <ele>1796.6</ele>
        <time>2011-11-15T12:53:35Z</time>
      </trkpt>
      <trkpt lat="45.32902" lon="5.87215">
        <ele>1797.8</ele>
        <time>2011-11-15T12:53:41Z</time>
      </trkpt>
      <trkpt lat="45.32903" lon="5.87213">
        <ele>1798.6</ele>
        <time>2011-11-15T12:53:46Z</time>
      </trkpt>
      <trkpt lat="45.32904" lon="5.87212">
        <ele>1799</ele>
        <time>2011-11-15T12:53:48Z</time>
      </trkpt>
      <trkpt lat="45.32905" lon="5.87211">
        <ele>1799</ele>
        <time>2011-11-15T12:53:49Z</time>
      </trkpt>
      <trkpt lat="45.32906" lon="5.8721">
        <ele>1799.8</ele>
        <time>2011-11-15T12:53:53Z</time>
      </trkpt>
      <trkpt lat="45.32908" lon="5.87209">
        <ele>1800</ele>
        <time>2011-11-15T12:53:55Z</time>
      </trkpt>
      <trkpt lat="45.3291" lon="5.87207">
        <ele>1800.8</ele>
        <time>2011-11-15T12:53:59Z</time>
      </trkpt>
      <trkpt lat="45.32912" lon="5.87206">
        <ele>1802</ele>
        <time>2011-11-15T12:54:04Z</time>
      </trkpt>
      <trkpt lat="45.32909" lon="5.87207">
        <ele>1805.6</ele>
        <time>2011-11-15T12:54:17Z</time>
      </trkpt>
      <trkpt lat="45.32908" lon="5.87207">
        <ele>1805.8</ele>
        <time>2011-11-15T12:54:18Z</time>
      </trkpt>
      <trkpt lat="45.32903" lon="5.87205">
        <ele>1806.6</ele>
        <time>2011-11-15T12:54:22Z</time>
      </trkpt>
      <trkpt lat="45.329" lon="5.87202">
        <ele>1807.4</ele>
        <time>2011-11-15T12:54:25Z</time>
      </trkpt>
      <trkpt lat="45.32896" lon="5.87202">
        <ele>1808</ele>
        <time>2011-11-15T12:54:28Z</time>
      </trkpt>
      <trkpt lat="45.32895" lon="5.872">
        <ele>1808.4</ele>
        <time>2011-11-15T12:54:32Z</time>
      </trkpt>
      <trkpt lat="45.32895" lon="5.87195">
        <ele>1809</ele>
        <time>2011-11-15T12:54:41Z</time>
      </trkpt>
      <trkpt lat="45.32897" lon="5.87195">
        <ele>1809.4</ele>
        <time>2011-11-15T12:54:43Z</time>
      </trkpt>
      <trkpt lat="45.32897" lon="5.87194">
        <ele>1809.8</ele>
        <time>2011-11-15T12:54:46Z</time>
      </trkpt>
      <trkpt lat="45.32898" lon="5.87192">
        <ele>1813</ele>
        <time>2011-11-15T12:55:03Z</time>
      </trkpt>
      <trkpt lat="45.32901" lon="5.8719">
        <ele>1814</ele>
        <time>2011-11-15T12:55:08Z</time>
      </trkpt>
      <trkpt lat="45.32907" lon="5.8719">
        <ele>1815.6</ele>
        <time>2011-11-15T12:55:14Z</time>
      </trkpt>
      <trkpt lat="45.32909" lon="5.87189">
        <ele>1816</ele>
        <time>2011-11-15T12:55:16Z</time>
      </trkpt>
      <trkpt lat="45.32911" lon="5.87189">
        <ele>1816.4</ele>
        <time>2011-11-15T12:55:18Z</time>
      </trkpt>
      <trkpt lat="45.32913" lon="5.87189">
        <ele>1817</ele>
        <time>2011-11-15T12:55:21Z</time>
      </trkpt>
      <trkpt lat="45.32914" lon="5.87189">
        <ele>1817.6</ele>
        <time>2011-11-15T12:55:23Z</time>
      </trkpt>
      <trkpt lat="45.32914" lon="5.87188">
        <ele>1818</ele>
        <time>2011-11-15T12:55:24Z</time>
      </trkpt>
      <trkpt lat="45.32915" lon="5.87186">
        <ele>1818.6</ele>
        <time>2011-11-15T12:55:27Z</time>
      </trkpt>
      <trkpt lat="45.32919" lon="5.87185">
        <ele>1819.6</ele>
        <time>2011-11-15T12:55:31Z</time>
      </trkpt>
      <trkpt lat="45.32923" lon="5.87182">
        <ele>1821.4</ele>
        <time>2011-11-15T12:55:37Z</time>
      </trkpt>
      <trkpt lat="45.32923" lon="5.87181">
        <ele>1821.6</ele>
        <time>2011-11-15T12:55:38Z</time>
      </trkpt>
      <trkpt lat="45.32925" lon="5.87179">
        <ele>1822.4</ele>
        <time>2011-11-15T12:55:41Z</time>
      </trkpt>
      <trkpt lat="45.32928" lon="5.87179">
        <ele>1824.2</ele>
        <time>2011-11-15T12:55:47Z</time>
      </trkpt>
      <trkpt lat="45.32929" lon="5.87181">
        <ele>1824.6</ele>
        <time>2011-11-15T12:55:48Z</time>
      </trkpt>
      <trkpt lat="45.32931" lon="5.87181">
        <ele>1825.2</ele>
        <time>2011-11-15T12:55:50Z</time>
      </trkpt>
      <trkpt lat="45.32933" lon="5.8718">
        <ele>1825.8</ele>
        <time>2011-11-15T12:55:52Z</time>
      </trkpt>
      <trkpt lat="45.32936" lon="5.87177">
        <ele>1827.2</ele>
        <time>2011-11-15T12:55:56Z</time>
      </trkpt>
      <trkpt lat="45.32938" lon="5.87177">
        <ele>1828</ele>
        <time>2011-11-15T12:55:59Z</time>
      </trkpt>
      <trkpt lat="45.32939" lon="5.87176">
        <ele>1828.2</ele>
        <time>2011-11-15T12:56:00Z</time>
      </trkpt>
      <trkpt lat="45.32939" lon="5.87171">
        <ele>1829.4</ele>
        <time>2011-11-15T12:56:05Z</time>
      </trkpt>
      <trkpt lat="45.32937" lon="5.87167">
        <ele>1830.4</ele>
        <time>2011-11-15T12:56:09Z</time>
      </trkpt>
      <trkpt lat="45.32937" lon="5.87166">
        <ele>1831.2</ele>
        <time>2011-11-15T12:56:13Z</time>
      </trkpt>
      <trkpt lat="45.32939" lon="5.87165">
        <ele>1832.4</ele>
        <time>2011-11-15T12:56:18Z</time>
      </trkpt>
      <trkpt lat="45.3294" lon="5.87165">
        <ele>1832.8</ele>
        <time>2011-11-15T12:56:20Z</time>
      </trkpt>
      <trkpt lat="45.32944" lon="5.87166">
        <ele>1834.4</ele>
        <time>2011-11-15T12:56:26Z</time>
      </trkpt>
      <trkpt lat="45.32947" lon="5.8717">
        <ele>1835.4</ele>
        <time>2011-11-15T12:56:31Z</time>
      </trkpt>
      <trkpt lat="45.32947" lon="5.87174">
        <ele>1835.8</ele>
        <time>2011-11-15T12:56:33Z</time>
      </trkpt>
      <trkpt lat="45.32948" lon="5.87179">
        <ele>1836.4</ele>
        <time>2011-11-15T12:56:36Z</time>
      </trkpt>
      <trkpt lat="45.3295" lon="5.87182">
        <ele>1837</ele>
        <time>2011-11-15T12:56:39Z</time>
      </trkpt>
      <trkpt lat="45.32955" lon="5.87187">
        <ele>1838</ele>
        <time>2011-11-15T12:56:43Z</time>
      </trkpt>
      <trkpt lat="45.32961" lon="5.87191">
        <ele>1839.8</ele>
        <time>2011-11-15T12:56:48Z</time>
      </trkpt>
      <trkpt lat="45.32967" lon="5.87188">
        <ele>1840.6</ele>
        <time>2011-11-15T12:56:51Z</time>
      </trkpt>
      <trkpt lat="45.3297" lon="5.87185">
        <ele>1840.8</ele>
        <time>2011-11-15T12:56:52Z</time>
      </trkpt>
      <trkpt lat="45.32969" lon="5.87188">
        <ele>1841.2</ele>
        <time>2011-11-15T12:56:53Z</time>
      </trkpt>
      <trkpt lat="45.32968" lon="5.87194">
        <ele>1842</ele>
        <time>2011-11-15T12:56:56Z</time>
      </trkpt>
      <trkpt lat="45.3297" lon="5.87194">
        <ele>1842.4</ele>
        <time>2011-11-15T12:56:58Z</time>
      </trkpt>
      <trkpt lat="45.32971" lon="5.87195">
        <ele>1842.8</ele>
        <time>2011-11-15T12:56:59Z</time>
      </trkpt>
      <trkpt lat="45.32972" lon="5.87202">
        <ele>1844.6</ele>
        <time>2011-11-15T12:57:05Z</time>
      </trkpt>
      <trkpt lat="45.32972" lon="5.8721">
        <ele>1846.2</ele>
        <time>2011-11-15T12:57:10Z</time>
      </trkpt>
      <trkpt lat="45.32972" lon="5.87212">
        <ele>1847</ele>
        <time>2011-11-15T12:57:12Z</time>
      </trkpt>
      <trkpt lat="45.32972" lon="5.87218">
        <ele>1848.6</ele>
        <time>2011-11-15T12:57:17Z</time>
      </trkpt>
      <trkpt lat="45.32973" lon="5.8722">
        <ele>1849.2</ele>
        <time>2011-11-15T12:57:19Z</time>
      </trkpt>
      <trkpt lat="45.32976" lon="5.87223">
        <ele>1849.8</ele>
        <time>2011-11-15T12:57:21Z</time>
      </trkpt>
      <trkpt lat="45.3298" lon="5.87226">
        <ele>1850.4</ele>
        <time>2011-11-15T12:57:23Z</time>
      </trkpt>
      <trkpt lat="45.32982" lon="5.87226">
        <ele>1850.6</ele>
        <time>2011-11-15T12:57:24Z</time>
      </trkpt>
      <trkpt lat="45.32983" lon="5.87226">
        <ele>1850.8</ele>
        <time>2011-11-15T12:57:25Z</time>
      </trkpt>
      <trkpt lat="45.32986" lon="5.87227">
        <ele>1851.2</ele>
        <time>2011-11-15T12:57:26Z</time>
      </trkpt>
      <trkpt lat="45.32992" lon="5.87228">
        <ele>1852</ele>
        <time>2011-11-15T12:57:31Z</time>
      </trkpt>
      <trkpt lat="45.32995" lon="5.87227">
        <ele>1852</ele>
        <time>2011-11-15T12:57:35Z</time>
      </trkpt>
      <trkpt lat="45.32997" lon="5.87225">
        <ele>1852</ele>
        <time>2011-11-15T12:57:37Z</time>
      </trkpt>
      <trkpt lat="45.33002" lon="5.87227">
        <ele>1851.8</ele>
        <time>2011-11-15T12:57:41Z</time>
      </trkpt>
      <trkpt lat="45.33002" lon="5.87227">
        <ele>1851.8</ele>
        <time>2011-11-15T12:57:42Z</time>
      </trkpt>
      <trkpt lat="45.33007" lon="5.87234">
        <ele>1851.6</ele>
        <time>2011-11-15T12:57:47Z</time>
      </trkpt>
      <trkpt lat="45.33009" lon="5.87235">
        <ele>1851.6</ele>
        <time>2011-11-15T12:57:48Z</time>
      </trkpt>
      <trkpt lat="45.33014" lon="5.87239">
        <ele>1851.4</ele>
        <time>2011-11-15T12:57:52Z</time>
      </trkpt>
      <trkpt lat="45.33016" lon="5.87241">
        <ele>1851.4</ele>
        <time>2011-11-15T12:57:57Z</time>
      </trkpt>
      <trkpt lat="45.33019" lon="5.87245">
        <ele>1851.2</ele>
        <time>2011-11-15T12:57:59Z</time>
      </trkpt>
      <trkpt lat="45.33026" lon="5.87252">
        <ele>1851.2</ele>
        <time>2011-11-15T12:58:03Z</time>
      </trkpt>
      <trkpt lat="45.33027" lon="5.87252">
        <ele>1851.2</ele>
        <time>2011-11-15T12:58:04Z</time>
      </trkpt>
      <trkpt lat="45.3303" lon="5.87254">
        <ele>1851</ele>
        <time>2011-11-15T12:58:06Z</time>
      </trkpt>
      <trkpt lat="45.33034" lon="5.87257">
        <ele>1850.8</ele>
        <time>2011-11-15T12:58:09Z</time>
      </trkpt>
      <trkpt lat="45.33035" lon="5.87257">
        <ele>1850.8</ele>
        <time>2011-11-15T12:58:10Z</time>
      </trkpt>
      <trkpt lat="45.3304" lon="5.87253">
        <ele>1850.4</ele>
        <time>2011-11-15T12:58:14Z</time>
      </trkpt>
      <trkpt lat="45.33041" lon="5.87252">
        <ele>1850.4</ele>
        <time>2011-11-15T12:58:15Z</time>
      </trkpt>
      <trkpt lat="45.33046" lon="5.87247">
        <ele>1849.8</ele>
        <time>2011-11-15T12:58:19Z</time>
      </trkpt>
      <trkpt lat="45.33047" lon="5.87245">
        <ele>1849.8</ele>
        <time>2011-11-15T12:58:20Z</time>
      </trkpt>
      <trkpt lat="45.33051" lon="5.87241">
        <ele>1849.4</ele>
        <time>2011-11-15T12:58:23Z</time>
      </trkpt>
      <trkpt lat="45.33055" lon="5.87237">
        <ele>1848.6</ele>
        <time>2011-11-15T12:58:27Z</time>
      </trkpt>
      <trkpt lat="45.33062" lon="5.87236">
        <ele>1847.8</ele>
        <time>2011-11-15T12:58:32Z</time>
      </trkpt>
      <trkpt lat="45.33063" lon="5.87236">
        <ele>1847.6</ele>
        <time>2011-11-15T12:58:33Z</time>
      </trkpt>
      <trkpt lat="45.33066" lon="5.87235">
        <ele>1847.2</ele>
        <time>2011-11-15T12:58:35Z</time>
      </trkpt>
      <trkpt lat="45.33071" lon="5.87234">
        <ele>1846.6</ele>
        <time>2011-11-15T12:58:38Z</time>
      </trkpt>
      <trkpt lat="45.33076" lon="5.87239">
        <ele>1845.8</ele>
        <time>2011-11-15T12:58:42Z</time>
      </trkpt>
      <trkpt lat="45.33078" lon="5.87241">
        <ele>1845.6</ele>
        <time>2011-11-15T12:58:43Z</time>
      </trkpt>
      <trkpt lat="45.33083" lon="5.87239">
        <ele>1844.4</ele>
        <time>2011-11-15T12:58:48Z</time>
      </trkpt>
      <trkpt lat="45.33084" lon="5.87238">
        <ele>1844.2</ele>
        <time>2011-11-15T12:58:49Z</time>
      </trkpt>
      <trkpt lat="45.3309" lon="5.87233">
        <ele>1843.2</ele>
        <time>2011-11-15T12:58:53Z</time>
      </trkpt>
      <trkpt lat="45.3309" lon="5.87227">
        <ele>1842.4</ele>
        <time>2011-11-15T12:58:56Z</time>
      </trkpt>
      <trkpt lat="45.3309" lon="5.87222">
        <ele>1841.8</ele>
        <time>2011-11-15T12:58:58Z</time>
      </trkpt>
      <trkpt lat="45.33092" lon="5.87218">
        <ele>1841.2</ele>
        <time>2011-11-15T12:59:00Z</time>
      </trkpt>
      <trkpt lat="45.33096" lon="5.87211">
        <ele>1840</ele>
        <time>2011-11-15T12:59:04Z</time>
      </trkpt>
      <trkpt lat="45.331" lon="5.87206">
        <ele>1838.8</ele>
        <time>2011-11-15T12:59:08Z</time>
      </trkpt>
      <trkpt lat="45.33102" lon="5.87206">
        <ele>1838.4</ele>
        <time>2011-11-15T12:59:09Z</time>
      </trkpt>
      <trkpt lat="45.33109" lon="5.87203">
        <ele>1836.8</ele>
        <time>2011-11-15T12:59:14Z</time>
      </trkpt>
      <trkpt lat="45.33111" lon="5.87202">
        <ele>1836.6</ele>
        <time>2011-11-15T12:59:15Z</time>
      </trkpt>
      <trkpt lat="45.33117" lon="5.87199">
        <ele>1835.6</ele>
        <time>2011-11-15T12:59:18Z</time>
      </trkpt>
      <trkpt lat="45.33122" lon="5.87198">
        <ele>1834.6</ele>
        <time>2011-11-15T12:59:21Z</time>
      </trkpt>
      <trkpt lat="45.33127" lon="5.872">
        <ele>1833.6</ele>
        <time>2011-11-15T12:59:24Z</time>
      </trkpt>
      <trkpt lat="45.33129" lon="5.87201">
        <ele>1833</ele>
        <time>2011-11-15T12:59:26Z</time>
      </trkpt>
      <trkpt lat="45.33131" lon="5.872">
        <ele>1831.4</ele>
        <time>2011-11-15T12:59:31Z</time>
      </trkpt>
      <trkpt lat="45.33129" lon="5.87203">
        <ele>1829.8</ele>
        <time>2011-11-15T12:59:36Z</time>
      </trkpt>
      <trkpt lat="45.33128" lon="5.87203">
        <ele>1829.6</ele>
        <time>2011-11-15T12:59:37Z</time>
      </trkpt>
      <trkpt lat="45.3312" lon="5.87197">
        <ele>1828.4</ele>
        <time>2011-11-15T12:59:41Z</time>
      </trkpt>
      <trkpt lat="45.33119" lon="5.87196">
        <ele>1828</ele>
        <time>2011-11-15T12:59:42Z</time>
      </trkpt>
      <trkpt lat="45.33116" lon="5.87191">
        <ele>1826.4</ele>
        <time>2011-11-15T12:59:47Z</time>
      </trkpt>
      <trkpt lat="45.33115" lon="5.87189">
        <ele>1825.8</ele>
        <time>2011-11-15T12:59:49Z</time>
      </trkpt>
      <trkpt lat="45.33116" lon="5.87185">
        <ele>1825.2</ele>
        <time>2011-11-15T12:59:51Z</time>
      </trkpt>
      <trkpt lat="45.33121" lon="5.87177">
        <ele>1823.6</ele>
        <time>2011-11-15T12:59:56Z</time>
      </trkpt>
      <trkpt lat="45.33122" lon="5.87175">
        <ele>1823.2</ele>
        <time>2011-11-15T12:59:57Z</time>
      </trkpt>
      <trkpt lat="45.33123" lon="5.87173">
        <ele>1822.6</ele>
        <time>2011-11-15T12:59:59Z</time>
      </trkpt>
      <trkpt lat="45.33122" lon="5.87168">
        <ele>1821.6</ele>
        <time>2011-11-15T13:00:02Z</time>
      </trkpt>
      <trkpt lat="45.3312" lon="5.87166">
        <ele>1821.2</ele>
        <time>2011-11-15T13:00:03Z</time>
      </trkpt>
      <trkpt lat="45.33116" lon="5.8716">
        <ele>1820.2</ele>
        <time>2011-11-15T13:00:06Z</time>
      </trkpt>
      <trkpt lat="45.33111" lon="5.87149">
        <ele>1818.8</ele>
        <time>2011-11-15T13:00:10Z</time>
      </trkpt>
      <trkpt lat="45.33109" lon="5.87146">
        <ele>1818.4</ele>
        <time>2011-11-15T13:00:11Z</time>
      </trkpt>
      <trkpt lat="45.33105" lon="5.87141">
        <ele>1817.2</ele>
        <time>2011-11-15T13:00:15Z</time>
      </trkpt>
      <trkpt lat="45.33104" lon="5.8714">
        <ele>1816.8</ele>
        <time>2011-11-15T13:00:16Z</time>
      </trkpt>
      <trkpt lat="45.33101" lon="5.87132">
        <ele>1815.2</ele>
        <time>2011-11-15T13:00:21Z</time>
      </trkpt>
      <trkpt lat="45.331" lon="5.87127">
        <ele>1814</ele>
        <time>2011-11-15T13:00:24Z</time>
      </trkpt>
      <trkpt lat="45.331" lon="5.87121">
        <ele>1813</ele>
        <time>2011-11-15T13:00:27Z</time>
      </trkpt>
      <trkpt lat="45.331" lon="5.87119">
        <ele>1812.6</ele>
        <time>2011-11-15T13:00:28Z</time>
      </trkpt>
      <trkpt lat="45.33096" lon="5.87106">
        <ele>1810.4</ele>
        <time>2011-11-15T13:00:34Z</time>
      </trkpt>
      <trkpt lat="45.33095" lon="5.87101">
        <ele>1809.4</ele>
        <time>2011-11-15T13:00:37Z</time>
      </trkpt>
      <trkpt lat="45.33095" lon="5.87099">
        <ele>1808.6</ele>
        <time>2011-11-15T13:00:39Z</time>
      </trkpt>
      <trkpt lat="45.33097" lon="5.87098">
        <ele>1807.6</ele>
        <time>2011-11-15T13:00:42Z</time>
      </trkpt>
      <trkpt lat="45.33098" lon="5.87097">
        <ele>1806.8</ele>
        <time>2011-11-15T13:00:44Z</time>
      </trkpt>
      <trkpt lat="45.33101" lon="5.87092">
        <ele>1805</ele>
        <time>2011-11-15T13:00:49Z</time>
      </trkpt>
      <trkpt lat="45.33103" lon="5.87088">
        <ele>1803.8</ele>
        <time>2011-11-15T13:00:52Z</time>
      </trkpt>
      <trkpt lat="45.33105" lon="5.87089">
        <ele>1803</ele>
        <time>2011-11-15T13:00:54Z</time>
      </trkpt>
      <trkpt lat="45.33111" lon="5.87088">
        <ele>1801.4</ele>
        <time>2011-11-15T13:00:58Z</time>
      </trkpt>
      <trkpt lat="45.33116" lon="5.87084">
        <ele>1799.4</ele>
        <time>2011-11-15T13:01:03Z</time>
      </trkpt>
      <trkpt lat="45.33117" lon="5.87079">
        <ele>1798</ele>
        <time>2011-11-15T13:01:06Z</time>
      </trkpt>
      <trkpt lat="45.33119" lon="5.87076">
        <ele>1797.2</ele>
        <time>2011-11-15T13:01:08Z</time>
      </trkpt>
      <trkpt lat="45.3312" lon="5.87073">
        <ele>1796.4</ele>
        <time>2011-11-15T13:01:10Z</time>
      </trkpt>
      <trkpt lat="45.33122" lon="5.87071">
        <ele>1795.6</ele>
        <time>2011-11-15T13:01:12Z</time>
      </trkpt>
      <trkpt lat="45.33125" lon="5.8707">
        <ele>1794.2</ele>
        <time>2011-11-15T13:01:15Z</time>
      </trkpt>
      <trkpt lat="45.33126" lon="5.87065">
        <ele>1793</ele>
        <time>2011-11-15T13:01:18Z</time>
      </trkpt>
      <trkpt lat="45.33126" lon="5.87061">
        <ele>1792</ele>
        <time>2011-11-15T13:01:20Z</time>
      </trkpt>
      <trkpt lat="45.33127" lon="5.87057">
        <ele>1791.2</ele>
        <time>2011-11-15T13:01:22Z</time>
      </trkpt>
      <trkpt lat="45.33126" lon="5.87055">
        <ele>1790.8</ele>
        <time>2011-11-15T13:01:23Z</time>
      </trkpt>
      <trkpt lat="45.33126" lon="5.87053">
        <ele>1790</ele>
        <time>2011-11-15T13:01:25Z</time>
      </trkpt>
      <trkpt lat="45.33125" lon="5.87052">
        <ele>1789.6</ele>
        <time>2011-11-15T13:01:26Z</time>
      </trkpt>
      <trkpt lat="45.33126" lon="5.87046">
        <ele>1788</ele>
        <time>2011-11-15T13:01:30Z</time>
      </trkpt>
      <trkpt lat="45.33129" lon="5.87038">
        <ele>1785.8</ele>
        <time>2011-11-15T13:01:36Z</time>
      </trkpt>
      <trkpt lat="45.3313" lon="5.87037">
        <ele>1785.4</ele>
        <time>2011-11-15T13:01:37Z</time>
      </trkpt>
      <trkpt lat="45.33133" lon="5.87034">
        <ele>1784</ele>
        <time>2011-11-15T13:01:41Z</time>
      </trkpt>
      <trkpt lat="45.33133" lon="5.87034">
        <ele>1783.2</ele>
        <time>2011-11-15T13:01:43Z</time>
      </trkpt>
      <trkpt lat="45.33136" lon="5.8703">
        <ele>1781.4</ele>
        <time>2011-11-15T13:01:48Z</time>
      </trkpt>
      <trkpt lat="45.33138" lon="5.87024">
        <ele>1779.8</ele>
        <time>2011-11-15T13:01:52Z</time>
      </trkpt>
      <trkpt lat="45.33138" lon="5.87022">
        <ele>1779.4</ele>
        <time>2011-11-15T13:01:53Z</time>
      </trkpt>
      <trkpt lat="45.33143" lon="5.87021">
        <ele>1778.2</ele>
        <time>2011-11-15T13:01:56Z</time>
      </trkpt>
      <trkpt lat="45.33144" lon="5.87021">
        <ele>1777.8</ele>
        <time>2011-11-15T13:01:57Z</time>
      </trkpt>
      <trkpt lat="45.33145" lon="5.8702">
        <ele>1777.4</ele>
        <time>2011-11-15T13:01:58Z</time>
      </trkpt>
      <trkpt lat="45.3315" lon="5.87018">
        <ele>1776</ele>
        <time>2011-11-15T13:02:02Z</time>
      </trkpt>
      <trkpt lat="45.33156" lon="5.87016">
        <ele>1773.6</ele>
        <time>2011-11-15T13:02:08Z</time>
      </trkpt>
      <trkpt lat="45.33157" lon="5.87015">
        <ele>1773.2</ele>
        <time>2011-11-15T13:02:09Z</time>
      </trkpt>
      <trkpt lat="45.33162" lon="5.87014">
        <ele>1771.6</ele>
        <time>2011-11-15T13:02:13Z</time>
      </trkpt>
      <trkpt lat="45.33162" lon="5.87015">
        <ele>1771.4</ele>
        <time>2011-11-15T13:02:14Z</time>
      </trkpt>
      <trkpt lat="45.3317" lon="5.87019">
        <ele>1769.8</ele>
        <time>2011-11-15T13:02:18Z</time>
      </trkpt>
      <trkpt lat="45.33178" lon="5.87023">
        <ele>1768</ele>
        <time>2011-11-15T13:02:23Z</time>
      </trkpt>
      <trkpt lat="45.3318" lon="5.87023">
        <ele>1767.8</ele>
        <time>2011-11-15T13:02:24Z</time>
      </trkpt>
      <trkpt lat="45.33186" lon="5.87024">
        <ele>1766.8</ele>
        <time>2011-11-15T13:02:27Z</time>
      </trkpt>
      <trkpt lat="45.33196" lon="5.87028">
        <ele>1765</ele>
        <time>2011-11-15T13:02:32Z</time>
      </trkpt>
      <trkpt lat="45.33199" lon="5.87029">
        <ele>1764.6</ele>
        <time>2011-11-15T13:02:33Z</time>
      </trkpt>
      <trkpt lat="45.33208" lon="5.87033">
        <ele>1763.4</ele>
        <time>2011-11-15T13:02:37Z</time>
      </trkpt>
      <trkpt lat="45.33211" lon="5.87033">
        <ele>1762.6</ele>
        <time>2011-11-15T13:02:39Z</time>
      </trkpt>
      <trkpt lat="45.33214" lon="5.87031">
        <ele>1762</ele>
        <time>2011-11-15T13:02:41Z</time>
      </trkpt>
      <trkpt lat="45.33218" lon="5.87028">
        <ele>1760.8</ele>
        <time>2011-11-15T13:02:44Z</time>
      </trkpt>
      <trkpt lat="45.3322" lon="5.87024">
        <ele>1760</ele>
        <time>2011-11-15T13:02:46Z</time>
      </trkpt>
      <trkpt lat="45.33225" lon="5.87023">
        <ele>1758.6</ele>
        <time>2011-11-15T13:02:50Z</time>
      </trkpt>
      <trkpt lat="45.33234" lon="5.87026">
        <ele>1756.6</ele>
        <time>2011-11-15T13:02:55Z</time>
      </trkpt>
      <trkpt lat="45.33236" lon="5.87032">
        <ele>1755.4</ele>
        <time>2011-11-15T13:02:58Z</time>
      </trkpt>
      <trkpt lat="45.33239" lon="5.87039">
        <ele>1754.2</ele>
        <time>2011-11-15T13:03:01Z</time>
      </trkpt>
      <trkpt lat="45.33244" lon="5.87046">
        <ele>1752.8</ele>
        <time>2011-11-15T13:03:05Z</time>
      </trkpt>
      <trkpt lat="45.33246" lon="5.87047">
        <ele>1752.4</ele>
        <time>2011-11-15T13:03:06Z</time>
      </trkpt>
      <trkpt lat="45.3325" lon="5.87058">
        <ele>1750.6</ele>
        <time>2011-11-15T13:03:11Z</time>
      </trkpt>
      <trkpt lat="45.33252" lon="5.87062">
        <ele>1749.8</ele>
        <time>2011-11-15T13:03:13Z</time>
      </trkpt>
      <trkpt lat="45.33255" lon="5.87064">
        <ele>1749.2</ele>
        <time>2011-11-15T13:03:15Z</time>
      </trkpt>
      <trkpt lat="45.33257" lon="5.87065">
        <ele>1748.8</ele>
        <time>2011-11-15T13:03:16Z</time>
      </trkpt>
      <trkpt lat="45.3326" lon="5.87073">
        <ele>1747.6</ele>
        <time>2011-11-15T13:03:20Z</time>
      </trkpt>
      <trkpt lat="45.33259" lon="5.87082">
        <ele>1746.6</ele>
        <time>2011-11-15T13:03:24Z</time>
      </trkpt>
      <trkpt lat="45.3326" lon="5.87085">
        <ele>1746.4</ele>
        <time>2011-11-15T13:03:25Z</time>
      </trkpt>
      <trkpt lat="45.33264" lon="5.87095">
        <ele>1745.6</ele>
        <time>2011-11-15T13:03:28Z</time>
      </trkpt>
      <trkpt lat="45.3327" lon="5.87102">
        <ele>1744.6</ele>
        <time>2011-11-15T13:03:32Z</time>
      </trkpt>
      <trkpt lat="45.33272" lon="5.87105">
        <ele>1744.2</ele>
        <time>2011-11-15T13:03:34Z</time>
      </trkpt>
      <trkpt lat="45.33274" lon="5.87107">
        <ele>1743.8</ele>
        <time>2011-11-15T13:03:36Z</time>
      </trkpt>
      <trkpt lat="45.33278" lon="5.87115">
        <ele>1743.2</ele>
        <time>2011-11-15T13:03:40Z</time>
      </trkpt>
      <trkpt lat="45.33279" lon="5.87117">
        <ele>1743</ele>
        <time>2011-11-15T13:03:41Z</time>
      </trkpt>
      <trkpt lat="45.33281" lon="5.87125">
        <ele>1742.2</ele>
        <time>2011-11-15T13:03:45Z</time>
      </trkpt>
      <trkpt lat="45.33282" lon="5.87127">
        <ele>1742.2</ele>
        <time>2011-11-15T13:03:46Z</time>
      </trkpt>
      <trkpt lat="45.33288" lon="5.87134">
        <ele>1741.6</ele>
        <time>2011-11-15T13:03:50Z</time>
      </trkpt>
      <trkpt lat="45.33289" lon="5.87136">
        <ele>1741.6</ele>
        <time>2011-11-15T13:03:51Z</time>
      </trkpt>
      <trkpt lat="45.33292" lon="5.87143">
        <ele>1741</ele>
        <time>2011-11-15T13:03:56Z</time>
      </trkpt>
      <trkpt lat="45.33293" lon="5.87144">
        <ele>1741</ele>
        <time>2011-11-15T13:03:57Z</time>
      </trkpt>
      <trkpt lat="45.33295" lon="5.87148">
        <ele>1740.8</ele>
        <time>2011-11-15T13:03:59Z</time>
      </trkpt>
      <trkpt lat="45.33297" lon="5.87152">
        <ele>1740.6</ele>
        <time>2011-11-15T13:04:01Z</time>
      </trkpt>
      <trkpt lat="45.33298" lon="5.87153">
        <ele>1740.6</ele>
        <time>2011-11-15T13:04:02Z</time>
      </trkpt>
      <trkpt lat="45.33301" lon="5.87156">
        <ele>1740.4</ele>
        <time>2011-11-15T13:04:05Z</time>
      </trkpt>
      <trkpt lat="45.33301" lon="5.87158">
        <ele>1740.4</ele>
        <time>2011-11-15T13:04:06Z</time>
      </trkpt>
      <trkpt lat="45.33304" lon="5.87165">
        <ele>1740.2</ele>
        <time>2011-11-15T13:04:09Z</time>
      </trkpt>
      <trkpt lat="45.33306" lon="5.87169">
        <ele>1740.2</ele>
        <time>2011-11-15T13:04:11Z</time>
      </trkpt>
      <trkpt lat="45.33311" lon="5.87175">
        <ele>1740</ele>
        <time>2011-11-15T13:04:15Z</time>
      </trkpt>
      <trkpt lat="45.33316" lon="5.8718">
        <ele>1739.8</ele>
        <time>2011-11-15T13:04:19Z</time>
      </trkpt>
      <trkpt lat="45.33318" lon="5.87181">
        <ele>1739.6</ele>
        <time>2011-11-15T13:04:20Z</time>
      </trkpt>
      <trkpt lat="45.33324" lon="5.87189">
        <ele>1739.4</ele>
        <time>2011-11-15T13:04:24Z</time>
      </trkpt>
      <trkpt lat="45.3333" lon="5.87198">
        <ele>1739.2</ele>
        <time>2011-11-15T13:04:29Z</time>
      </trkpt>
      <trkpt lat="45.33332" lon="5.872">
        <ele>1739.2</ele>
        <time>2011-11-15T13:04:30Z</time>
      </trkpt>
      <trkpt lat="45.33335" lon="5.87202">
        <ele>1739</ele>
        <time>2011-11-15T13:04:32Z</time>
      </trkpt>
      <trkpt lat="45.3334" lon="5.87204">
        <ele>1739</ele>
        <time>2011-11-15T13:04:34Z</time>
      </trkpt>
      <trkpt lat="45.33349" lon="5.8721">
        <ele>1738.8</ele>
        <time>2011-11-15T13:04:38Z</time>
      </trkpt>
      <trkpt lat="45.33351" lon="5.87212">
        <ele>1738.8</ele>
        <time>2011-11-15T13:04:39Z</time>
      </trkpt>
      <trkpt lat="45.33359" lon="5.87217">
        <ele>1738.8</ele>
        <time>2011-11-15T13:04:43Z</time>
      </trkpt>
      <trkpt lat="45.33366" lon="5.87217">
        <ele>1738.6</ele>
        <time>2011-11-15T13:04:46Z</time>
      </trkpt>
      <trkpt lat="45.33368" lon="5.87217">
        <ele>1738.6</ele>
        <time>2011-11-15T13:04:47Z</time>
      </trkpt>
      <trkpt lat="45.3338" lon="5.87219">
        <ele>1738.6</ele>
        <time>2011-11-15T13:04:52Z</time>
      </trkpt>
      <trkpt lat="45.33386" lon="5.8722">
        <ele>1738.4</ele>
        <time>2011-11-15T13:04:57Z</time>
      </trkpt>
      <trkpt lat="45.33391" lon="5.87225">
        <ele>1738.4</ele>
        <time>2011-11-15T13:05:02Z</time>
      </trkpt>
      <trkpt lat="45.33394" lon="5.87227">
        <ele>1738.2</ele>
        <time>2011-11-15T13:05:07Z</time>
      </trkpt>
      <trkpt lat="45.334" lon="5.87228">
        <ele>1738</ele>
        <time>2011-11-15T13:05:11Z</time>
      </trkpt>
      <trkpt lat="45.33402" lon="5.87226">
        <ele>1738</ele>
        <time>2011-11-15T13:05:12Z</time>
      </trkpt>
      <trkpt lat="45.33404" lon="5.87224">
        <ele>1737.8</ele>
        <time>2011-11-15T13:05:13Z</time>
      </trkpt>
      <trkpt lat="45.33407" lon="5.8722">
        <ele>1737.8</ele>
        <time>2011-11-15T13:05:16Z</time>
      </trkpt>
      <trkpt lat="45.33409" lon="5.87218">
        <ele>1737.6</ele>
        <time>2011-11-15T13:05:18Z</time>
      </trkpt>
      <trkpt lat="45.33413" lon="5.87215">
        <ele>1737.4</ele>
        <time>2011-11-15T13:05:21Z</time>
      </trkpt>
      <trkpt lat="45.33418" lon="5.87213">
        <ele>1737</ele>
        <time>2011-11-15T13:05:26Z</time>
      </trkpt>
      <trkpt lat="45.33419" lon="5.87212">
        <ele>1736.8</ele>
        <time>2011-11-15T13:05:27Z</time>
      </trkpt>
      <trkpt lat="45.33421" lon="5.87211">
        <ele>1736.8</ele>
        <time>2011-11-15T13:05:28Z</time>
      </trkpt>
      <trkpt lat="45.33426" lon="5.8721">
        <ele>1736.4</ele>
        <time>2011-11-15T13:05:31Z</time>
      </trkpt>
      <trkpt lat="45.33432" lon="5.87211">
        <ele>1735.8</ele>
        <time>2011-11-15T13:05:36Z</time>
      </trkpt>
      <trkpt lat="45.33436" lon="5.87209">
        <ele>1735.4</ele>
        <time>2011-11-15T13:05:40Z</time>
      </trkpt>
      <trkpt lat="45.33437" lon="5.87208">
        <ele>1735.2</ele>
        <time>2011-11-15T13:05:41Z</time>
      </trkpt>
      <trkpt lat="45.33439" lon="5.87206">
        <ele>1734.6</ele>
        <time>2011-11-15T13:05:45Z</time>
      </trkpt>
      <trkpt lat="45.33442" lon="5.87205">
        <ele>1734.4</ele>
        <time>2011-11-15T13:05:47Z</time>
      </trkpt>
      <trkpt lat="45.33445" lon="5.87205">
        <ele>1734</ele>
        <time>2011-11-15T13:05:50Z</time>
      </trkpt>
      <trkpt lat="45.33449" lon="5.87204">
        <ele>1733.6</ele>
        <time>2011-11-15T13:05:53Z</time>
      </trkpt>
      <trkpt lat="45.3345" lon="5.87205">
        <ele>1733.4</ele>
        <time>2011-11-15T13:05:54Z</time>
      </trkpt>
      <trkpt lat="45.33454" lon="5.87206">
        <ele>1733</ele>
        <time>2011-11-15T13:05:57Z</time>
      </trkpt>
      <trkpt lat="45.33455" lon="5.87205">
        <ele>1732.8</ele>
        <time>2011-11-15T13:05:59Z</time>
      </trkpt>
      <trkpt lat="45.33457" lon="5.87205">
        <ele>1732.6</ele>
        <time>2011-11-15T13:06:01Z</time>
      </trkpt>
      <trkpt lat="45.3346" lon="5.87209">
        <ele>1732</ele>
        <time>2011-11-15T13:06:06Z</time>
      </trkpt>
      <trkpt lat="45.33461" lon="5.8721">
        <ele>1731.8</ele>
        <time>2011-11-15T13:06:08Z</time>
      </trkpt>
      <trkpt lat="45.33467" lon="5.87212">
        <ele>1731</ele>
        <time>2011-11-15T13:06:13Z</time>
      </trkpt>
      <trkpt lat="45.3347" lon="5.87211">
        <ele>1730.6</ele>
        <time>2011-11-15T13:06:17Z</time>
      </trkpt>
      <trkpt lat="45.33472" lon="5.87212">
        <ele>1730.4</ele>
        <time>2011-11-15T13:06:18Z</time>
      </trkpt>
      <trkpt lat="45.33478" lon="5.87218">
        <ele>1730</ele>
        <time>2011-11-15T13:06:22Z</time>
      </trkpt>
      <trkpt lat="45.33481" lon="5.87219">
        <ele>1729.8</ele>
        <time>2011-11-15T13:06:23Z</time>
      </trkpt>
      <trkpt lat="45.33485" lon="5.87221">
        <ele>1729.4</ele>
        <time>2011-11-15T13:06:26Z</time>
      </trkpt>
      <trkpt lat="45.33487" lon="5.8722">
        <ele>1729.4</ele>
        <time>2011-11-15T13:06:27Z</time>
      </trkpt>
      <trkpt lat="45.33492" lon="5.87217">
        <ele>1728.8</ele>
        <time>2011-11-15T13:06:31Z</time>
      </trkpt>
      <trkpt lat="45.33494" lon="5.87217">
        <ele>1728.8</ele>
        <time>2011-11-15T13:06:32Z</time>
      </trkpt>
      <trkpt lat="45.33496" lon="5.87217">
        <ele>1728.4</ele>
        <time>2011-11-15T13:06:34Z</time>
      </trkpt>
      <trkpt lat="45.33499" lon="5.8722">
        <ele>1728</ele>
        <time>2011-11-15T13:06:37Z</time>
      </trkpt>
      <trkpt lat="45.33503" lon="5.87225">
        <ele>1727.6</ele>
        <time>2011-11-15T13:06:40Z</time>
      </trkpt>
      <trkpt lat="45.33505" lon="5.87226">
        <ele>1727.4</ele>
        <time>2011-11-15T13:06:41Z</time>
      </trkpt>
      <trkpt lat="45.33506" lon="5.87228">
        <ele>1727.2</ele>
        <time>2011-11-15T13:06:42Z</time>
      </trkpt>
      <trkpt lat="45.33513" lon="5.87234">
        <ele>1726.8</ele>
        <time>2011-11-15T13:06:46Z</time>
      </trkpt>
      <trkpt lat="45.33519" lon="5.87238">
        <ele>1726.2</ele>
        <time>2011-11-15T13:06:50Z</time>
      </trkpt>
      <trkpt lat="45.33524" lon="5.87238">
        <ele>1725.8</ele>
        <time>2011-11-15T13:06:55Z</time>
      </trkpt>
      <trkpt lat="45.33525" lon="5.87238">
        <ele>1725.6</ele>
        <time>2011-11-15T13:06:56Z</time>
      </trkpt>
      <trkpt lat="45.33528" lon="5.87237">
        <ele>1725</ele>
        <time>2011-11-15T13:07:01Z</time>
      </trkpt>
      <trkpt lat="45.33532" lon="5.87236">
        <ele>1724.6</ele>
        <time>2011-11-15T13:07:06Z</time>
      </trkpt>
      <trkpt lat="45.33534" lon="5.87236">
        <ele>1724.2</ele>
        <time>2011-11-15T13:07:09Z</time>
      </trkpt>
      <trkpt lat="45.33536" lon="5.87236">
        <ele>1724</ele>
        <time>2011-11-15T13:07:11Z</time>
      </trkpt>
      <trkpt lat="45.33537" lon="5.87237">
        <ele>1724</ele>
        <time>2011-11-15T13:07:12Z</time>
      </trkpt>
      <trkpt lat="45.33542" lon="5.87241">
        <ele>1723.6</ele>
        <time>2011-11-15T13:07:16Z</time>
      </trkpt>
      <trkpt lat="45.33543" lon="5.87242">
        <ele>1723.4</ele>
        <time>2011-11-15T13:07:17Z</time>
      </trkpt>
      <trkpt lat="45.33547" lon="5.87244">
        <ele>1723.2</ele>
        <time>2011-11-15T13:07:20Z</time>
      </trkpt>
      <trkpt lat="45.33548" lon="5.87245">
        <ele>1723</ele>
        <time>2011-11-15T13:07:21Z</time>
      </trkpt>
      <trkpt lat="45.33552" lon="5.87251">
        <ele>1722.6</ele>
        <time>2011-11-15T13:07:24Z</time>
      </trkpt>
      <trkpt lat="45.33554" lon="5.87252">
        <ele>1722.6</ele>
        <time>2011-11-15T13:07:25Z</time>
      </trkpt>
      <trkpt lat="45.33558" lon="5.87252">
        <ele>1722.2</ele>
        <time>2011-11-15T13:07:28Z</time>
      </trkpt>
      <trkpt lat="45.33559" lon="5.8725">
        <ele>1722.2</ele>
        <time>2011-11-15T13:07:29Z</time>
      </trkpt>
      <trkpt lat="45.33561" lon="5.87249">
        <ele>1721.8</ele>
        <time>2011-11-15T13:07:31Z</time>
      </trkpt>
      <trkpt lat="45.33563" lon="5.87249">
        <ele>1721.6</ele>
        <time>2011-11-15T13:07:33Z</time>
      </trkpt>
      <trkpt lat="45.3357" lon="5.8725">
        <ele>1721.2</ele>
        <time>2011-11-15T13:07:37Z</time>
      </trkpt>
      <trkpt lat="45.33582" lon="5.87257">
        <ele>1720.4</ele>
        <time>2011-11-15T13:07:43Z</time>
      </trkpt>
      <trkpt lat="45.33584" lon="5.87257">
        <ele>1720.4</ele>
        <time>2011-11-15T13:07:44Z</time>
      </trkpt>
      <trkpt lat="45.33589" lon="5.87256">
        <ele>1720.2</ele>
        <time>2011-11-15T13:07:47Z</time>
      </trkpt>
      <trkpt lat="45.33592" lon="5.87254">
        <ele>1719.8</ele>
        <time>2011-11-15T13:07:51Z</time>
      </trkpt>
      <trkpt lat="45.33598" lon="5.87254">
        <ele>1719.2</ele>
        <time>2011-11-15T13:07:56Z</time>
      </trkpt>
      <trkpt lat="45.336" lon="5.87254">
        <ele>1719</ele>
        <time>2011-11-15T13:07:57Z</time>
      </trkpt>
      <trkpt lat="45.33604" lon="5.8725">
        <ele>1718.8</ele>
        <time>2011-11-15T13:08:00Z</time>
      </trkpt>
      <trkpt lat="45.33606" lon="5.87249">
        <ele>1718.6</ele>
        <time>2011-11-15T13:08:01Z</time>
      </trkpt>
      <trkpt lat="45.33611" lon="5.87247">
        <ele>1718.2</ele>
        <time>2011-11-15T13:08:04Z</time>
      </trkpt>
      <trkpt lat="45.33617" lon="5.87243">
        <ele>1717.6</ele>
        <time>2011-11-15T13:08:09Z</time>
      </trkpt>
      <trkpt lat="45.33619" lon="5.87243">
        <ele>1717.4</ele>
        <time>2011-11-15T13:08:10Z</time>
      </trkpt>
      <trkpt lat="45.33625" lon="5.87242">
        <ele>1717.2</ele>
        <time>2011-11-15T13:08:13Z</time>
      </trkpt>
      <trkpt lat="45.33638" lon="5.87248">
        <ele>1716.4</ele>
        <time>2011-11-15T13:08:19Z</time>
      </trkpt>
      <trkpt lat="45.33639" lon="5.87248">
        <ele>1716.2</ele>
        <time>2011-11-15T13:08:20Z</time>
      </trkpt>
      <trkpt lat="45.33644" lon="5.87251">
        <ele>1715.8</ele>
        <time>2011-11-15T13:08:23Z</time>
      </trkpt>
      <trkpt lat="45.33646" lon="5.87251">
        <ele>1715.8</ele>
        <time>2011-11-15T13:08:24Z</time>
      </trkpt>
      <trkpt lat="45.33653" lon="5.87252">
        <ele>1715</ele>
        <time>2011-11-15T13:08:29Z</time>
      </trkpt>
      <trkpt lat="45.33659" lon="5.87253">
        <ele>1714.6</ele>
        <time>2011-11-15T13:08:32Z</time>
      </trkpt>
      <trkpt lat="45.33662" lon="5.87254">
        <ele>1714.4</ele>
        <time>2011-11-15T13:08:34Z</time>
      </trkpt>
      <trkpt lat="45.33667" lon="5.87258">
        <ele>1713.4</ele>
        <time>2011-11-15T13:08:39Z</time>
      </trkpt>
      <trkpt lat="45.33665" lon="5.87257">
        <ele>1712.4</ele>
        <time>2011-11-15T13:08:45Z</time>
      </trkpt>
      <trkpt lat="45.33665" lon="5.87257">
        <ele>1712.4</ele>
        <time>2011-11-15T13:08:46Z</time>
      </trkpt>
      <trkpt lat="45.33666" lon="5.87257">
        <ele>1712</ele>
        <time>2011-11-15T13:08:49Z</time>
      </trkpt>
      <trkpt lat="45.33672" lon="5.87258">
        <ele>1711.2</ele>
        <time>2011-11-15T13:08:54Z</time>
      </trkpt>
      <trkpt lat="45.33673" lon="5.87258">
        <ele>1711.2</ele>
        <time>2011-11-15T13:08:55Z</time>
      </trkpt>
      <trkpt lat="45.33676" lon="5.87257">
        <ele>1710.8</ele>
        <time>2011-11-15T13:08:57Z</time>
      </trkpt>
      <trkpt lat="45.33678" lon="5.87255">
        <ele>1710.4</ele>
        <time>2011-11-15T13:08:59Z</time>
      </trkpt>
      <trkpt lat="45.33683" lon="5.87255">
        <ele>1709.8</ele>
        <time>2011-11-15T13:09:03Z</time>
      </trkpt>
      <trkpt lat="45.33683" lon="5.87254">
        <ele>1709.6</ele>
        <time>2011-11-15T13:09:04Z</time>
      </trkpt>
      <trkpt lat="45.33693" lon="5.87258">
        <ele>1709</ele>
        <time>2011-11-15T13:09:08Z</time>
      </trkpt>
      <trkpt lat="45.33696" lon="5.8726">
        <ele>1708.8</ele>
        <time>2011-11-15T13:09:09Z</time>
      </trkpt>
      <trkpt lat="45.33706" lon="5.87272">
        <ele>1707.6</ele>
        <time>2011-11-15T13:09:14Z</time>
      </trkpt>
      <trkpt lat="45.33709" lon="5.87274">
        <ele>1707.2</ele>
        <time>2011-11-15T13:09:16Z</time>
      </trkpt>
      <trkpt lat="45.33716" lon="5.87276">
        <ele>1706.6</ele>
        <time>2011-11-15T13:09:19Z</time>
      </trkpt>
      <trkpt lat="45.33722" lon="5.87281">
        <ele>1706</ele>
        <time>2011-11-15T13:09:22Z</time>
      </trkpt>
      <trkpt lat="45.33724" lon="5.87282">
        <ele>1705.8</ele>
        <time>2011-11-15T13:09:23Z</time>
      </trkpt>
      <trkpt lat="45.33733" lon="5.8729">
        <ele>1704.8</ele>
        <time>2011-11-15T13:09:28Z</time>
      </trkpt>
      <trkpt lat="45.33733" lon="5.8729">
        <ele>1703.4</ele>
        <time>2011-11-15T13:09:35Z</time>
      </trkpt>
      <trkpt lat="45.33734" lon="5.87291">
        <ele>1700.8</ele>
        <time>2011-11-15T13:09:54Z</time>
      </trkpt>
      <trkpt lat="45.33735" lon="5.87292">
        <ele>1700.6</ele>
        <time>2011-11-15T13:09:55Z</time>
      </trkpt>
      <trkpt lat="45.33737" lon="5.87294">
        <ele>1700.2</ele>
        <time>2011-11-15T13:09:58Z</time>
      </trkpt>
      <trkpt lat="45.33737" lon="5.87294">
        <ele>1700.2</ele>
        <time>2011-11-15T13:09:59Z</time>
      </trkpt>
      <trkpt lat="45.33739" lon="5.87294">
        <ele>1700</ele>
        <time>2011-11-15T13:10:00Z</time>
      </trkpt>
      <trkpt lat="45.3374" lon="5.87295">
        <ele>1700</ele>
        <time>2011-11-15T13:10:01Z</time>
      </trkpt>
      <trkpt lat="45.33742" lon="5.87295">
        <ele>1699.6</ele>
        <time>2011-11-15T13:10:03Z</time>
      </trkpt>
      <trkpt lat="45.33745" lon="5.87292">
        <ele>1699.2</ele>
        <time>2011-11-15T13:10:06Z</time>
      </trkpt>
      <trkpt lat="45.33745" lon="5.87291">
        <ele>1699</ele>
        <time>2011-11-15T13:10:07Z</time>
      </trkpt>
      <trkpt lat="45.33748" lon="5.87288">
        <ele>1698.6</ele>
        <time>2011-11-15T13:10:10Z</time>
      </trkpt>
      <trkpt lat="45.3375" lon="5.87287">
        <ele>1698.2</ele>
        <time>2011-11-15T13:10:12Z</time>
      </trkpt>
      <trkpt lat="45.33753" lon="5.87288">
        <ele>1697.6</ele>
        <time>2011-11-15T13:10:15Z</time>
      </trkpt>
      <trkpt lat="45.33756" lon="5.87289">
        <ele>1697.2</ele>
        <time>2011-11-15T13:10:17Z</time>
      </trkpt>
      <trkpt lat="45.33757" lon="5.87289">
        <ele>1697</ele>
        <time>2011-11-15T13:10:18Z</time>
      </trkpt>
      <trkpt lat="45.33758" lon="5.87288">
        <ele>1696.6</ele>
        <time>2011-11-15T13:10:20Z</time>
      </trkpt>
      <trkpt lat="45.33764" lon="5.87286">
        <ele>1695.6</ele>
        <time>2011-11-15T13:10:25Z</time>
      </trkpt>
      <trkpt lat="45.33765" lon="5.87286">
        <ele>1695.2</ele>
        <time>2011-11-15T13:10:27Z</time>
      </trkpt>
      <trkpt lat="45.33766" lon="5.87286">
        <ele>1694.6</ele>
        <time>2011-11-15T13:10:30Z</time>
      </trkpt>
      <trkpt lat="45.33772" lon="5.87288">
        <ele>1693.4</ele>
        <time>2011-11-15T13:10:36Z</time>
      </trkpt>
      <trkpt lat="45.33785" lon="5.87292">
        <ele>1692.4</ele>
        <time>2011-11-15T13:10:41Z</time>
      </trkpt>
      <trkpt lat="45.33791" lon="5.87293">
        <ele>1691.6</ele>
        <time>2011-11-15T13:10:45Z</time>
      </trkpt>
      <trkpt lat="45.33791" lon="5.87293">
        <ele>1691.2</ele>
        <time>2011-11-15T13:10:47Z</time>
      </trkpt>
      <trkpt lat="45.33796" lon="5.87295">
        <ele>1689.8</ele>
        <time>2011-11-15T13:10:56Z</time>
      </trkpt>
      <trkpt lat="45.33806" lon="5.87299">
        <ele>1689</ele>
        <time>2011-11-15T13:11:01Z</time>
      </trkpt>
      <trkpt lat="45.33808" lon="5.87301">
        <ele>1688.8</ele>
        <time>2011-11-15T13:11:02Z</time>
      </trkpt>
      <trkpt lat="45.33821" lon="5.87308">
        <ele>1687.8</ele>
        <time>2011-11-15T13:11:07Z</time>
      </trkpt>
      <trkpt lat="45.33826" lon="5.87309">
        <ele>1687.6</ele>
        <time>2011-11-15T13:11:09Z</time>
      </trkpt>
      <trkpt lat="45.33834" lon="5.87315">
        <ele>1687</ele>
        <time>2011-11-15T13:11:12Z</time>
      </trkpt>
      <trkpt lat="45.33836" lon="5.87316">
        <ele>1686.8</ele>
        <time>2011-11-15T13:11:13Z</time>
      </trkpt>
      <trkpt lat="45.33841" lon="5.87317">
        <ele>1686.4</ele>
        <time>2011-11-15T13:11:16Z</time>
      </trkpt>
      <trkpt lat="45.33843" lon="5.87318">
        <ele>1686.2</ele>
        <time>2011-11-15T13:11:17Z</time>
      </trkpt>
      <trkpt lat="45.33853" lon="5.87321">
        <ele>1685.6</ele>
        <time>2011-11-15T13:11:21Z</time>
      </trkpt>
      <trkpt lat="45.33855" lon="5.87322">
        <ele>1685.4</ele>
        <time>2011-11-15T13:11:22Z</time>
      </trkpt>
      <trkpt lat="45.33862" lon="5.87327">
        <ele>1685</ele>
        <time>2011-11-15T13:11:25Z</time>
      </trkpt>
      <trkpt lat="45.33868" lon="5.8733">
        <ele>1684.6</ele>
        <time>2011-11-15T13:11:28Z</time>
      </trkpt>
      <trkpt lat="45.33882" lon="5.87329">
        <ele>1683.6</ele>
        <time>2011-11-15T13:11:34Z</time>
      </trkpt>
      <trkpt lat="45.33894" lon="5.87337">
        <ele>1682.8</ele>
        <time>2011-11-15T13:11:40Z</time>
      </trkpt>
      <trkpt lat="45.33898" lon="5.87343">
        <ele>1682.4</ele>
        <time>2011-11-15T13:11:42Z</time>
      </trkpt>
      <trkpt lat="45.33902" lon="5.87347">
        <ele>1682.2</ele>
        <time>2011-11-15T13:11:44Z</time>
      </trkpt>
      <trkpt lat="45.33909" lon="5.87351">
        <ele>1681.6</ele>
        <time>2011-11-15T13:11:49Z</time>
      </trkpt>
      <trkpt lat="45.33909" lon="5.87352">
        <ele>1681.4</ele>
        <time>2011-11-15T13:11:50Z</time>
      </trkpt>
      <trkpt lat="45.33913" lon="5.87351">
        <ele>1681</ele>
        <time>2011-11-15T13:11:53Z</time>
      </trkpt>
      <trkpt lat="45.33914" lon="5.87351">
        <ele>1680.8</ele>
        <time>2011-11-15T13:11:54Z</time>
      </trkpt>
      <trkpt lat="45.33916" lon="5.87349">
        <ele>1680.6</ele>
        <time>2011-11-15T13:11:56Z</time>
      </trkpt>
      <trkpt lat="45.33923" lon="5.87343">
        <ele>1680.2</ele>
        <time>2011-11-15T13:11:59Z</time>
      </trkpt>
      <trkpt lat="45.33932" lon="5.87332">
        <ele>1679.6</ele>
        <time>2011-11-15T13:12:04Z</time>
      </trkpt>
      <trkpt lat="45.33942" lon="5.87318">
        <ele>1679</ele>
        <time>2011-11-15T13:12:10Z</time>
      </trkpt>
      <trkpt lat="45.33945" lon="5.87313">
        <ele>1678.8</ele>
        <time>2011-11-15T13:12:12Z</time>
      </trkpt>
      <trkpt lat="45.33948" lon="5.87307">
        <ele>1678.4</ele>
        <time>2011-11-15T13:12:14Z</time>
      </trkpt>
      <trkpt lat="45.33954" lon="5.873">
        <ele>1678</ele>
        <time>2011-11-15T13:12:18Z</time>
      </trkpt>
      <trkpt lat="45.33959" lon="5.87297">
        <ele>1677.4</ele>
        <time>2011-11-15T13:12:21Z</time>
      </trkpt>
      <trkpt lat="45.33961" lon="5.87295">
        <ele>1677.4</ele>
        <time>2011-11-15T13:12:22Z</time>
      </trkpt>
      <trkpt lat="45.33965" lon="5.8729">
        <ele>1677</ele>
        <time>2011-11-15T13:12:24Z</time>
      </trkpt>
      <trkpt lat="45.33974" lon="5.87284">
        <ele>1676.2</ele>
        <time>2011-11-15T13:12:29Z</time>
      </trkpt>
      <trkpt lat="45.33977" lon="5.87282">
        <ele>1676.2</ele>
        <time>2011-11-15T13:12:30Z</time>
      </trkpt>
      <trkpt lat="45.33982" lon="5.87277">
        <ele>1675.6</ele>
        <time>2011-11-15T13:12:33Z</time>
      </trkpt>
      <trkpt lat="45.33982" lon="5.87274">
        <ele>1675.4</ele>
        <time>2011-11-15T13:12:34Z</time>
      </trkpt>
      <trkpt lat="45.33986" lon="5.87267">
        <ele>1675</ele>
        <time>2011-11-15T13:12:37Z</time>
      </trkpt>
      <trkpt lat="45.33988" lon="5.87266">
        <ele>1674.8</ele>
        <time>2011-11-15T13:12:38Z</time>
      </trkpt>
      <trkpt lat="45.33991" lon="5.87266">
        <ele>1674.6</ele>
        <time>2011-11-15T13:12:39Z</time>
      </trkpt>
      <trkpt lat="45.33998" lon="5.87265">
        <ele>1674</ele>
        <time>2011-11-15T13:12:43Z</time>
      </trkpt>
      <trkpt lat="45.34005" lon="5.87268">
        <ele>1673.4</ele>
        <time>2011-11-15T13:12:46Z</time>
      </trkpt>
      <trkpt lat="45.34007" lon="5.87268">
        <ele>1673.2</ele>
        <time>2011-11-15T13:12:47Z</time>
      </trkpt>
      <trkpt lat="45.34019" lon="5.87263">
        <ele>1672.2</ele>
        <time>2011-11-15T13:12:53Z</time>
      </trkpt>
      <trkpt lat="45.34024" lon="5.87261">
        <ele>1671.8</ele>
        <time>2011-11-15T13:12:55Z</time>
      </trkpt>
      <trkpt lat="45.34029" lon="5.87257">
        <ele>1671.2</ele>
        <time>2011-11-15T13:12:58Z</time>
      </trkpt>
      <trkpt lat="45.3404" lon="5.87249">
        <ele>1670</ele>
        <time>2011-11-15T13:13:03Z</time>
      </trkpt>
      <trkpt lat="45.34049" lon="5.8724">
        <ele>1669.2</ele>
        <time>2011-11-15T13:13:07Z</time>
      </trkpt>
      <trkpt lat="45.34053" lon="5.87231">
        <ele>1668.6</ele>
        <time>2011-11-15T13:13:10Z</time>
      </trkpt>
      <trkpt lat="45.34055" lon="5.87229">
        <ele>1668.4</ele>
        <time>2011-11-15T13:13:11Z</time>
      </trkpt>
      <trkpt lat="45.34058" lon="5.87225">
        <ele>1668</ele>
        <time>2011-11-15T13:13:13Z</time>
      </trkpt>
      <trkpt lat="45.34065" lon="5.87223">
        <ele>1667.4</ele>
        <time>2011-11-15T13:13:16Z</time>
      </trkpt>
      <trkpt lat="45.34067" lon="5.87222">
        <ele>1667</ele>
        <time>2011-11-15T13:13:17Z</time>
      </trkpt>
      <trkpt lat="45.3407" lon="5.87222">
        <ele>1666.8</ele>
        <time>2011-11-15T13:13:18Z</time>
      </trkpt>
      <trkpt lat="45.34074" lon="5.87221">
        <ele>1666.4</ele>
        <time>2011-11-15T13:13:20Z</time>
      </trkpt>
      <trkpt lat="45.34076" lon="5.87219">
        <ele>1666.2</ele>
        <time>2011-11-15T13:13:21Z</time>
      </trkpt>
      <trkpt lat="45.34082" lon="5.87207">
        <ele>1665.2</ele>
        <time>2011-11-15T13:13:26Z</time>
      </trkpt>
      <trkpt lat="45.34083" lon="5.87204">
        <ele>1665.2</ele>
        <time>2011-11-15T13:13:27Z</time>
      </trkpt>
      <trkpt lat="45.34085" lon="5.87201">
        <ele>1664.8</ele>
        <time>2011-11-15T13:13:29Z</time>
      </trkpt>
      <trkpt lat="45.34086" lon="5.87204">
        <ele>1664.4</ele>
        <time>2011-11-15T13:13:31Z</time>
      </trkpt>
      <trkpt lat="45.34086" lon="5.87217">
        <ele>1663.6</ele>
        <time>2011-11-15T13:13:37Z</time>
      </trkpt>
      <trkpt lat="45.34086" lon="5.8722">
        <ele>1663.4</ele>
        <time>2011-11-15T13:13:38Z</time>
      </trkpt>
      <trkpt lat="45.34085" lon="5.87227">
        <ele>1663</ele>
        <time>2011-11-15T13:13:41Z</time>
      </trkpt>
      <trkpt lat="45.34086" lon="5.8723">
        <ele>1662.8</ele>
        <time>2011-11-15T13:13:42Z</time>
      </trkpt>
      <trkpt lat="45.34085" lon="5.87241">
        <ele>1662.2</ele>
        <time>2011-11-15T13:13:48Z</time>
      </trkpt>
      <trkpt lat="45.34085" lon="5.87246">
        <ele>1662</ele>
        <time>2011-11-15T13:13:51Z</time>
      </trkpt>
      <trkpt lat="45.34085" lon="5.87249">
        <ele>1661.8</ele>
        <time>2011-11-15T13:13:53Z</time>
      </trkpt>
      <trkpt lat="45.34085" lon="5.87257">
        <ele>1661.6</ele>
        <time>2011-11-15T13:13:58Z</time>
      </trkpt>
      <trkpt lat="45.34084" lon="5.87258">
        <ele>1661.4</ele>
        <time>2011-11-15T13:13:59Z</time>
      </trkpt>
      <trkpt lat="45.34084" lon="5.87262">
        <ele>1661.4</ele>
        <time>2011-11-15T13:14:04Z</time>
      </trkpt>
      <trkpt lat="45.34078" lon="5.87268">
        <ele>1662.2</ele>
        <time>2011-11-15T13:14:10Z</time>
      </trkpt>
      <trkpt lat="45.34076" lon="5.87269">
        <ele>1662.4</ele>
        <time>2011-11-15T13:14:11Z</time>
      </trkpt>
      <trkpt lat="45.34064" lon="5.87279">
        <ele>1663.6</ele>
        <time>2011-11-15T13:14:17Z</time>
      </trkpt>
      <trkpt lat="45.34062" lon="5.87281">
        <ele>1663.8</ele>
        <time>2011-11-15T13:14:18Z</time>
      </trkpt>
      <trkpt lat="45.34059" lon="5.87288">
        <ele>1664.4</ele>
        <time>2011-11-15T13:14:21Z</time>
      </trkpt>
      <trkpt lat="45.34057" lon="5.87301">
        <ele>1665.2</ele>
        <time>2011-11-15T13:14:26Z</time>
      </trkpt>
      <trkpt lat="45.34056" lon="5.87306">
        <ele>1665.2</ele>
        <time>2011-11-15T13:14:28Z</time>
      </trkpt>
      <trkpt lat="45.34051" lon="5.87313">
        <ele>1665.4</ele>
        <time>2011-11-15T13:14:32Z</time>
      </trkpt>
      <trkpt lat="45.34049" lon="5.87317">
        <ele>1665.6</ele>
        <time>2011-11-15T13:14:34Z</time>
      </trkpt>
      <trkpt lat="45.34044" lon="5.87324">
        <ele>1666.2</ele>
        <time>2011-11-15T13:14:39Z</time>
      </trkpt>
      <trkpt lat="45.34043" lon="5.87325">
        <ele>1666.4</ele>
        <time>2011-11-15T13:14:40Z</time>
      </trkpt>
      <trkpt lat="45.34039" lon="5.87331">
        <ele>1667</ele>
        <time>2011-11-15T13:14:44Z</time>
      </trkpt>
      <trkpt lat="45.34035" lon="5.87337">
        <ele>1667.8</ele>
        <time>2011-11-15T13:14:48Z</time>
      </trkpt>
      <trkpt lat="45.34033" lon="5.87338">
        <ele>1668.2</ele>
        <time>2011-11-15T13:14:49Z</time>
      </trkpt>
      <trkpt lat="45.34029" lon="5.87343">
        <ele>1669.2</ele>
        <time>2011-11-15T13:14:53Z</time>
      </trkpt>
      <trkpt lat="45.34027" lon="5.87344">
        <ele>1669.4</ele>
        <time>2011-11-15T13:14:54Z</time>
      </trkpt>
      <trkpt lat="45.34025" lon="5.87347">
        <ele>1670</ele>
        <time>2011-11-15T13:14:56Z</time>
      </trkpt>
      <trkpt lat="45.3402" lon="5.87353">
        <ele>1671.6</ele>
        <time>2011-11-15T13:15:01Z</time>
      </trkpt>
      <trkpt lat="45.34015" lon="5.8736">
        <ele>1673.2</ele>
        <time>2011-11-15T13:15:06Z</time>
      </trkpt>
      <trkpt lat="45.3401" lon="5.87367">
        <ele>1674.8</ele>
        <time>2011-11-15T13:15:11Z</time>
      </trkpt>
      <trkpt lat="45.34007" lon="5.87374">
        <ele>1676.6</ele>
        <time>2011-11-15T13:15:17Z</time>
      </trkpt>
      <trkpt lat="45.34012" lon="5.87374">
        <ele>1677.6</ele>
        <time>2011-11-15T13:15:20Z</time>
      </trkpt>
      <trkpt lat="45.34016" lon="5.87373">
        <ele>1678.6</ele>
        <time>2011-11-15T13:15:23Z</time>
      </trkpt>
      <trkpt lat="45.34026" lon="5.87377">
        <ele>1680.6</ele>
        <time>2011-11-15T13:15:30Z</time>
      </trkpt>
      <trkpt lat="45.34031" lon="5.87378">
        <ele>1681.6</ele>
        <time>2011-11-15T13:15:33Z</time>
      </trkpt>
      <trkpt lat="45.34039" lon="5.87382">
        <ele>1683.4</ele>
        <time>2011-11-15T13:15:39Z</time>
      </trkpt>
      <trkpt lat="45.3404" lon="5.87383">
        <ele>1683.6</ele>
        <time>2011-11-15T13:15:40Z</time>
      </trkpt>
      <trkpt lat="45.34043" lon="5.87387">
        <ele>1684.4</ele>
        <time>2011-11-15T13:15:43Z</time>
      </trkpt>
      <trkpt lat="45.34048" lon="5.87388">
        <ele>1685.2</ele>
        <time>2011-11-15T13:15:46Z</time>
      </trkpt>
      <trkpt lat="45.34052" lon="5.87388">
        <ele>1686.2</ele>
        <time>2011-11-15T13:15:49Z</time>
      </trkpt>
      <trkpt lat="45.34055" lon="5.87388">
        <ele>1686.8</ele>
        <time>2011-11-15T13:15:51Z</time>
      </trkpt>
      <trkpt lat="45.34062" lon="5.87386">
        <ele>1688</ele>
        <time>2011-11-15T13:15:55Z</time>
      </trkpt>
      <trkpt lat="45.34066" lon="5.87385">
        <ele>1689</ele>
        <time>2011-11-15T13:15:58Z</time>
      </trkpt>
      <trkpt lat="45.34067" lon="5.87384">
        <ele>1689.4</ele>
        <time>2011-11-15T13:15:59Z</time>
      </trkpt>
      <trkpt lat="45.34068" lon="5.87383">
        <ele>1689.8</ele>
        <time>2011-11-15T13:16:00Z</time>
      </trkpt>
      <trkpt lat="45.34075" lon="5.87381">
        <ele>1691.8</ele>
        <time>2011-11-15T13:16:05Z</time>
      </trkpt>
      <trkpt lat="45.34085" lon="5.87381">
        <ele>1694.2</ele>
        <time>2011-11-15T13:16:12Z</time>
      </trkpt>
      <trkpt lat="45.34086" lon="5.87381">
        <ele>1694.4</ele>
        <time>2011-11-15T13:16:13Z</time>
      </trkpt>
      <trkpt lat="45.34094" lon="5.87379">
        <ele>1696.4</ele>
        <time>2011-11-15T13:16:18Z</time>
      </trkpt>
      <trkpt lat="45.34095" lon="5.8738">
        <ele>1696.8</ele>
        <time>2011-11-15T13:16:19Z</time>
      </trkpt>
      <trkpt lat="45.34099" lon="5.87379">
        <ele>1698</ele>
        <time>2011-11-15T13:16:22Z</time>
      </trkpt>
      <trkpt lat="45.34103" lon="5.87378">
        <ele>1698.8</ele>
        <time>2011-11-15T13:16:25Z</time>
      </trkpt>
      <trkpt lat="45.34107" lon="5.87379">
        <ele>1699.8</ele>
        <time>2011-11-15T13:16:28Z</time>
      </trkpt>
      <trkpt lat="45.34105" lon="5.87383">
        <ele>1700.2</ele>
        <time>2011-11-15T13:16:30Z</time>
      </trkpt>
      <trkpt lat="45.34099" lon="5.87393">
        <ele>1701.8</ele>
        <time>2011-11-15T13:16:35Z</time>
      </trkpt>
      <trkpt lat="45.34096" lon="5.87396">
        <ele>1702.4</ele>
        <time>2011-11-15T13:16:37Z</time>
      </trkpt>
      <trkpt lat="45.34094" lon="5.87399">
        <ele>1703</ele>
        <time>2011-11-15T13:16:39Z</time>
      </trkpt>
      <trkpt lat="45.34089" lon="5.87406">
        <ele>1704.4</ele>
        <time>2011-11-15T13:16:43Z</time>
      </trkpt>
      <trkpt lat="45.34088" lon="5.87408">
        <ele>1704.6</ele>
        <time>2011-11-15T13:16:44Z</time>
      </trkpt>
      <trkpt lat="45.34086" lon="5.87412">
        <ele>1705.4</ele>
        <time>2011-11-15T13:16:46Z</time>
      </trkpt>
      <trkpt lat="45.34084" lon="5.87415">
        <ele>1706</ele>
        <time>2011-11-15T13:16:48Z</time>
      </trkpt>
      <trkpt lat="45.34082" lon="5.87419">
        <ele>1706.6</ele>
        <time>2011-11-15T13:16:50Z</time>
      </trkpt>
      <trkpt lat="45.34078" lon="5.87427">
        <ele>1708.2</ele>
        <time>2011-11-15T13:16:55Z</time>
      </trkpt>
      <trkpt lat="45.34075" lon="5.87432">
        <ele>1709.2</ele>
        <time>2011-11-15T13:16:58Z</time>
      </trkpt>
      <trkpt lat="45.34071" lon="5.87439">
        <ele>1710.6</ele>
        <time>2011-11-15T13:17:02Z</time>
      </trkpt>
      <trkpt lat="45.34066" lon="5.87451">
        <ele>1712.2</ele>
        <time>2011-11-15T13:17:09Z</time>
      </trkpt>
      <trkpt lat="45.34065" lon="5.87454">
        <ele>1712.6</ele>
        <time>2011-11-15T13:17:11Z</time>
      </trkpt>
      <trkpt lat="45.34063" lon="5.87457">
        <ele>1713</ele>
        <time>2011-11-15T13:17:13Z</time>
      </trkpt>
      <trkpt lat="45.34062" lon="5.87457">
        <ele>1713.4</ele>
        <time>2011-11-15T13:17:14Z</time>
      </trkpt>
      <trkpt lat="45.34057" lon="5.87467">
        <ele>1715.2</ele>
        <time>2011-11-15T13:17:21Z</time>
      </trkpt>
      <trkpt lat="45.34054" lon="5.87472">
        <ele>1716</ele>
        <time>2011-11-15T13:17:24Z</time>
      </trkpt>
      <trkpt lat="45.34053" lon="5.87474">
        <ele>1716.4</ele>
        <time>2011-11-15T13:17:25Z</time>
      </trkpt>
      <trkpt lat="45.34052" lon="5.87475">
        <ele>1716.6</ele>
        <time>2011-11-15T13:17:26Z</time>
      </trkpt>
      <trkpt lat="45.34045" lon="5.87482">
        <ele>1718.8</ele>
        <time>2011-11-15T13:17:32Z</time>
      </trkpt>
      <trkpt lat="45.3404" lon="5.8749">
        <ele>1720</ele>
        <time>2011-11-15T13:17:37Z</time>
      </trkpt>
      <trkpt lat="45.3404" lon="5.87491">
        <ele>1720.2</ele>
        <time>2011-11-15T13:17:38Z</time>
      </trkpt>
      <trkpt lat="45.34036" lon="5.87497">
        <ele>1721</ele>
        <time>2011-11-15T13:17:42Z</time>
      </trkpt>
      <trkpt lat="45.34031" lon="5.87505">
        <ele>1722.4</ele>
        <time>2011-11-15T13:17:49Z</time>
      </trkpt>
      <trkpt lat="45.34032" lon="5.87505">
        <ele>1722.6</ele>
        <time>2011-11-15T13:17:50Z</time>
      </trkpt>
      <trkpt lat="45.34037" lon="5.87505">
        <ele>1723.6</ele>
        <time>2011-11-15T13:17:53Z</time>
      </trkpt>
      <trkpt lat="45.34046" lon="5.87506">
        <ele>1726</ele>
        <time>2011-11-15T13:18:00Z</time>
      </trkpt>
      <trkpt lat="45.34055" lon="5.87505">
        <ele>1727.6</ele>
        <time>2011-11-15T13:18:05Z</time>
      </trkpt>
      <trkpt lat="45.34056" lon="5.87504">
        <ele>1728</ele>
        <time>2011-11-15T13:18:06Z</time>
      </trkpt>
      <trkpt lat="45.34064" lon="5.87504">
        <ele>1730.2</ele>
        <time>2011-11-15T13:18:12Z</time>
      </trkpt>
      <trkpt lat="45.34072" lon="5.87503">
        <ele>1733</ele>
        <time>2011-11-15T13:18:19Z</time>
      </trkpt>
      <trkpt lat="45.34074" lon="5.87503">
        <ele>1733.4</ele>
        <time>2011-11-15T13:18:20Z</time>
      </trkpt>
      <trkpt lat="45.34082" lon="5.87503">
        <ele>1735.4</ele>
        <time>2011-11-15T13:18:26Z</time>
      </trkpt>
      <trkpt lat="45.34088" lon="5.87498">
        <ele>1736.8</ele>
        <time>2011-11-15T13:18:31Z</time>
      </trkpt>
      <trkpt lat="45.34092" lon="5.87496">
        <ele>1737.4</ele>
        <time>2011-11-15T13:18:34Z</time>
      </trkpt>
      <trkpt lat="45.34099" lon="5.87493">
        <ele>1738</ele>
        <time>2011-11-15T13:18:38Z</time>
      </trkpt>
      <trkpt lat="45.3411" lon="5.87493">
        <ele>1738.8</ele>
        <time>2011-11-15T13:18:45Z</time>
      </trkpt>
      <trkpt lat="45.34117" lon="5.87489">
        <ele>1740.2</ele>
        <time>2011-11-15T13:18:50Z</time>
      </trkpt>
      <trkpt lat="45.34123" lon="5.87486">
        <ele>1742.2</ele>
        <time>2011-11-15T13:18:56Z</time>
      </trkpt>
      <trkpt lat="45.34128" lon="5.87485">
        <ele>1743.6</ele>
        <time>2011-11-15T13:19:00Z</time>
      </trkpt>
      <trkpt lat="45.3413" lon="5.87485">
        <ele>1743.8</ele>
        <time>2011-11-15T13:19:01Z</time>
      </trkpt>
      <trkpt lat="45.34131" lon="5.87485">
        <ele>1744.2</ele>
        <time>2011-11-15T13:19:02Z</time>
      </trkpt>
      <trkpt lat="45.34134" lon="5.87482">
        <ele>1745.4</ele>
        <time>2011-11-15T13:19:05Z</time>
      </trkpt>
      <trkpt lat="45.34136" lon="5.87482">
        <ele>1745.8</ele>
        <time>2011-11-15T13:19:06Z</time>
      </trkpt>
      <trkpt lat="45.34142" lon="5.87482">
        <ele>1747</ele>
        <time>2011-11-15T13:19:11Z</time>
      </trkpt>
      <trkpt lat="45.34142" lon="5.87481">
        <ele>1747.4</ele>
        <time>2011-11-15T13:19:12Z</time>
      </trkpt>
      <trkpt lat="45.34146" lon="5.87479">
        <ele>1748</ele>
        <time>2011-11-15T13:19:15Z</time>
      </trkpt>
      <trkpt lat="45.34153" lon="5.87476">
        <ele>1749</ele>
        <time>2011-11-15T13:19:20Z</time>
      </trkpt>
      <trkpt lat="45.34154" lon="5.87475">
        <ele>1749.2</ele>
        <time>2011-11-15T13:19:21Z</time>
      </trkpt>
      <trkpt lat="45.34162" lon="5.87471">
        <ele>1749.8</ele>
        <time>2011-11-15T13:19:26Z</time>
      </trkpt>
      <trkpt lat="45.34163" lon="5.8747">
        <ele>1750</ele>
        <time>2011-11-15T13:19:27Z</time>
      </trkpt>
      <trkpt lat="45.34169" lon="5.87466">
        <ele>1750.6</ele>
        <time>2011-11-15T13:19:32Z</time>
      </trkpt>
      <trkpt lat="45.34173" lon="5.87459">
        <ele>1751.6</ele>
        <time>2011-11-15T13:19:40Z</time>
      </trkpt>
      <trkpt lat="45.34177" lon="5.87456">
        <ele>1751.8</ele>
        <time>2011-11-15T13:19:45Z</time>
      </trkpt>
      <trkpt lat="45.34179" lon="5.87455">
        <ele>1751.8</ele>
        <time>2011-11-15T13:19:46Z</time>
      </trkpt>
      <trkpt lat="45.34183" lon="5.87447">
        <ele>1752.4</ele>
        <time>2011-11-15T13:19:52Z</time>
      </trkpt>
      <trkpt lat="45.34187" lon="5.87442">
        <ele>1753.6</ele>
        <time>2011-11-15T13:19:58Z</time>
      </trkpt>
      <trkpt lat="45.34188" lon="5.87442">
        <ele>1754</ele>
        <time>2011-11-15T13:19:59Z</time>
      </trkpt>
      <trkpt lat="45.34194" lon="5.8744">
        <ele>1754.8</ele>
        <time>2011-11-15T13:20:05Z</time>
      </trkpt>
      <trkpt lat="45.34195" lon="5.87439">
        <ele>1755.2</ele>
        <time>2011-11-15T13:20:06Z</time>
      </trkpt>
      <trkpt lat="45.34194" lon="5.87441">
        <ele>1756.2</ele>
        <time>2011-11-15T13:20:09Z</time>
      </trkpt>
      <trkpt lat="45.34194" lon="5.87441">
        <ele>1756.6</ele>
        <time>2011-11-15T13:20:10Z</time>
      </trkpt>
      <trkpt lat="45.34191" lon="5.87446">
        <ele>1758.2</ele>
        <time>2011-11-15T13:20:15Z</time>
      </trkpt>
      <trkpt lat="45.34187" lon="5.87451">
        <ele>1760.4</ele>
        <time>2011-11-15T13:20:20Z</time>
      </trkpt>
      <trkpt lat="45.34187" lon="5.87451">
        <ele>1760.8</ele>
        <time>2011-11-15T13:20:21Z</time>
      </trkpt>
      <trkpt lat="45.34188" lon="5.8745">
        <ele>1761.2</ele>
        <time>2011-11-15T13:20:22Z</time>
      </trkpt>
      <trkpt lat="45.34191" lon="5.87449">
        <ele>1762.4</ele>
        <time>2011-11-15T13:20:25Z</time>
      </trkpt>
      <trkpt lat="45.34192" lon="5.87448">
        <ele>1762.8</ele>
        <time>2011-11-15T13:20:26Z</time>
      </trkpt>
      <trkpt lat="45.34192" lon="5.87448">
        <ele>1763.2</ele>
        <time>2011-11-15T13:20:27Z</time>
      </trkpt>
      <trkpt lat="45.34194" lon="5.87447">
        <ele>1763.8</ele>
        <time>2011-11-15T13:20:29Z</time>
      </trkpt>
      <trkpt lat="45.34199" lon="5.87445">
        <ele>1765.2</ele>
        <time>2011-11-15T13:20:33Z</time>
      </trkpt>
      <trkpt lat="45.34204" lon="5.87436">
        <ele>1767.8</ele>
        <time>2011-11-15T13:20:41Z</time>
      </trkpt>
      <trkpt lat="45.34207" lon="5.87433">
        <ele>1768.4</ele>
        <time>2011-11-15T13:20:44Z</time>
      </trkpt>
      <trkpt lat="45.34211" lon="5.87431">
        <ele>1769</ele>
        <time>2011-11-15T13:20:48Z</time>
      </trkpt>
      <trkpt lat="45.34214" lon="5.87428">
        <ele>1769.6</ele>
        <time>2011-11-15T13:20:52Z</time>
      </trkpt>
      <trkpt lat="45.34219" lon="5.87427">
        <ele>1769.8</ele>
        <time>2011-11-15T13:20:56Z</time>
      </trkpt>
      <trkpt lat="45.34224" lon="5.87425">
        <ele>1769.8</ele>
        <time>2011-11-15T13:21:00Z</time>
      </trkpt>
      <trkpt lat="45.34228" lon="5.87424">
        <ele>1769.6</ele>
        <time>2011-11-15T13:21:03Z</time>
      </trkpt>
      <trkpt lat="45.34226" lon="5.87418">
        <ele>1770.6</ele>
        <time>2011-11-15T13:21:05Z</time>
      </trkpt>
      <trkpt lat="45.34226" lon="5.87415">
        <ele>1771.2</ele>
        <time>2011-11-15T13:21:07Z</time>
      </trkpt>
      <trkpt lat="45.34227" lon="5.87412">
        <ele>1772</ele>
        <time>2011-11-15T13:21:09Z</time>
      </trkpt>
      <trkpt lat="45.34231" lon="5.87412">
        <ele>1772.8</ele>
        <time>2011-11-15T13:21:13Z</time>
      </trkpt>
      <trkpt lat="45.34236" lon="5.87406">
        <ele>1775.6</ele>
        <time>2011-11-15T13:21:19Z</time>
      </trkpt>
      <trkpt lat="45.34237" lon="5.87405">
        <ele>1776</ele>
        <time>2011-11-15T13:21:20Z</time>
      </trkpt>
      <trkpt lat="45.34238" lon="5.87406">
        <ele>1776.4</ele>
        <time>2011-11-15T13:21:21Z</time>
      </trkpt>
      <trkpt lat="45.34235" lon="5.87408">
        <ele>1777.2</ele>
        <time>2011-11-15T13:21:23Z</time>
      </trkpt>
      <trkpt lat="45.34234" lon="5.87414">
        <ele>1778.6</ele>
        <time>2011-11-15T13:21:27Z</time>
      </trkpt>
      <trkpt lat="45.34232" lon="5.87417">
        <ele>1779.8</ele>
        <time>2011-11-15T13:21:30Z</time>
      </trkpt>
      <trkpt lat="45.34232" lon="5.87417">
        <ele>1779.8</ele>
        <time>2011-11-15T13:21:30Z</time>
      </trkpt>
      <trkpt lat="45.34231" lon="5.8742">
        <ele>1780.6</ele>
        <time>2011-11-15T13:21:32Z</time>
      </trkpt>
      <trkpt lat="45.34229" lon="5.87425">
        <ele>1782</ele>
        <time>2011-11-15T13:21:36Z</time>
      </trkpt>
      <trkpt lat="45.34228" lon="5.87427">
        <ele>1782.4</ele>
        <time>2011-11-15T13:21:37Z</time>
      </trkpt>
      <trkpt lat="45.34226" lon="5.87434">
        <ele>1784.4</ele>
        <time>2011-11-15T13:21:42Z</time>
      </trkpt>
      <trkpt lat="45.34223" lon="5.87445">
        <ele>1787.4</ele>
        <time>2011-11-15T13:21:49Z</time>
      </trkpt>
      <trkpt lat="45.34222" lon="5.8745">
        <ele>1788.6</ele>
        <time>2011-11-15T13:21:52Z</time>
      </trkpt>
      <trkpt lat="45.34221" lon="5.87453">
        <ele>1789.4</ele>
        <time>2011-11-15T13:21:54Z</time>
      </trkpt>
      <trkpt lat="45.3422" lon="5.87457">
        <ele>1790.4</ele>
        <time>2011-11-15T13:21:56Z</time>
      </trkpt>
      <trkpt lat="45.34219" lon="5.87466">
        <ele>1792.8</ele>
        <time>2011-11-15T13:22:02Z</time>
      </trkpt>
      <trkpt lat="45.34217" lon="5.87474">
        <ele>1795</ele>
        <time>2011-11-15T13:22:08Z</time>
      </trkpt>
      <trkpt lat="45.34216" lon="5.87475">
        <ele>1795.4</ele>
        <time>2011-11-15T13:22:09Z</time>
      </trkpt>
      <trkpt lat="45.34214" lon="5.87482">
        <ele>1797.6</ele>
        <time>2011-11-15T13:22:14Z</time>
      </trkpt>
      <trkpt lat="45.34213" lon="5.87486">
        <ele>1798.6</ele>
        <time>2011-11-15T13:22:16Z</time>
      </trkpt>
      <trkpt lat="45.34209" lon="5.87494">
        <ele>1801.2</ele>
        <time>2011-11-15T13:22:21Z</time>
      </trkpt>
      <trkpt lat="45.34207" lon="5.87498">
        <ele>1802</ele>
        <time>2011-11-15T13:22:23Z</time>
      </trkpt>
      <trkpt lat="45.34205" lon="5.87504">
        <ele>1803.8</ele>
        <time>2011-11-15T13:22:27Z</time>
      </trkpt>
      <trkpt lat="45.342" lon="5.87514">
        <ele>1806.4</ele>
        <time>2011-11-15T13:22:33Z</time>
      </trkpt>
      <trkpt lat="45.342" lon="5.87515">
        <ele>1806.8</ele>
        <time>2011-11-15T13:22:34Z</time>
      </trkpt>
      <trkpt lat="45.34203" lon="5.87514">
        <ele>1807.8</ele>
        <time>2011-11-15T13:22:37Z</time>
      </trkpt>
      <trkpt lat="45.34204" lon="5.87513">
        <ele>1808.2</ele>
        <time>2011-11-15T13:22:38Z</time>
      </trkpt>
      <trkpt lat="45.34213" lon="5.8751">
        <ele>1809.8</ele>
        <time>2011-11-15T13:22:44Z</time>
      </trkpt>
      <trkpt lat="45.34222" lon="5.87509">
        <ele>1810.8</ele>
        <time>2011-11-15T13:22:50Z</time>
      </trkpt>
      <trkpt lat="45.34223" lon="5.87508">
        <ele>1811</ele>
        <time>2011-11-15T13:22:51Z</time>
      </trkpt>
      <trkpt lat="45.34232" lon="5.87504">
        <ele>1811.2</ele>
        <time>2011-11-15T13:22:59Z</time>
      </trkpt>
      <trkpt lat="45.34237" lon="5.87497">
        <ele>1812.2</ele>
        <time>2011-11-15T13:23:06Z</time>
      </trkpt>
      <trkpt lat="45.34239" lon="5.87496">
        <ele>1812.6</ele>
        <time>2011-11-15T13:23:08Z</time>
      </trkpt>
      <trkpt lat="45.34241" lon="5.87493">
        <ele>1813.2</ele>
        <time>2011-11-15T13:23:11Z</time>
      </trkpt>
      <trkpt lat="45.34241" lon="5.87494">
        <ele>1813.6</ele>
        <time>2011-11-15T13:23:13Z</time>
      </trkpt>
      <trkpt lat="45.34239" lon="5.87498">
        <ele>1814.4</ele>
        <time>2011-11-15T13:23:16Z</time>
      </trkpt>
      <trkpt lat="45.34237" lon="5.87501">
        <ele>1815.2</ele>
        <time>2011-11-15T13:23:19Z</time>
      </trkpt>
      <trkpt lat="45.34232" lon="5.87509">
        <ele>1816.8</ele>
        <time>2011-11-15T13:23:25Z</time>
      </trkpt>
      <trkpt lat="45.34229" lon="5.87518">
        <ele>1818.6</ele>
        <time>2011-11-15T13:23:32Z</time>
      </trkpt>
      <trkpt lat="45.34225" lon="5.87524">
        <ele>1820.2</ele>
        <time>2011-11-15T13:23:38Z</time>
      </trkpt>
      <trkpt lat="45.34222" lon="5.87531">
        <ele>1822.2</ele>
        <time>2011-11-15T13:23:45Z</time>
      </trkpt>
      <trkpt lat="45.34221" lon="5.87532">
        <ele>1822.6</ele>
        <time>2011-11-15T13:23:46Z</time>
      </trkpt>
      <trkpt lat="45.34217" lon="5.8754">
        <ele>1824.2</ele>
        <time>2011-11-15T13:23:53Z</time>
      </trkpt>
      <trkpt lat="45.34215" lon="5.87547">
        <ele>1825.4</ele>
        <time>2011-11-15T13:23:59Z</time>
      </trkpt>
      <trkpt lat="45.34216" lon="5.87547">
        <ele>1826</ele>
        <time>2011-11-15T13:24:01Z</time>
      </trkpt>
      <trkpt lat="45.34218" lon="5.87545">
        <ele>1826.6</ele>
        <time>2011-11-15T13:24:04Z</time>
      </trkpt>
      <trkpt lat="45.3422" lon="5.87543">
        <ele>1827.2</ele>
        <time>2011-11-15T13:24:06Z</time>
      </trkpt>
      <trkpt lat="45.34224" lon="5.87542">
        <ele>1827.8</ele>
        <time>2011-11-15T13:24:09Z</time>
      </trkpt>
      <trkpt lat="45.34227" lon="5.87542">
        <ele>1827.8</ele>
        <time>2011-11-15T13:24:11Z</time>
      </trkpt>
      <trkpt lat="45.34235" lon="5.87539">
        <ele>1829.2</ele>
        <time>2011-11-15T13:24:18Z</time>
      </trkpt>
      <trkpt lat="45.34236" lon="5.87538">
        <ele>1829.4</ele>
        <time>2011-11-15T13:24:19Z</time>
      </trkpt>
      <trkpt lat="45.34243" lon="5.87534">
        <ele>1830.6</ele>
        <time>2011-11-15T13:24:26Z</time>
      </trkpt>
      <trkpt lat="45.34252" lon="5.8753">
        <ele>1832.2</ele>
        <time>2011-11-15T13:24:34Z</time>
      </trkpt>
      <trkpt lat="45.34254" lon="5.8753">
        <ele>1832.4</ele>
        <time>2011-11-15T13:24:35Z</time>
      </trkpt>
      <trkpt lat="45.34259" lon="5.87526">
        <ele>1833.8</ele>
        <time>2011-11-15T13:24:41Z</time>
      </trkpt>
      <trkpt lat="45.34266" lon="5.87522">
        <ele>1836.4</ele>
        <time>2011-11-15T13:24:50Z</time>
      </trkpt>
      <trkpt lat="45.3427" lon="5.87519">
        <ele>1838</ele>
        <time>2011-11-15T13:24:54Z</time>
      </trkpt>
      <trkpt lat="45.34273" lon="5.87517">
        <ele>1839.6</ele>
        <time>2011-11-15T13:24:58Z</time>
      </trkpt>
      <trkpt lat="45.34278" lon="5.87516">
        <ele>1841.8</ele>
        <time>2011-11-15T13:25:04Z</time>
      </trkpt>
      <trkpt lat="45.34284" lon="5.87514">
        <ele>1843.6</ele>
        <time>2011-11-15T13:25:10Z</time>
      </trkpt>
      <trkpt lat="45.34285" lon="5.87514">
        <ele>1844</ele>
        <time>2011-11-15T13:25:11Z</time>
      </trkpt>
      <trkpt lat="45.34287" lon="5.87513">
        <ele>1844.4</ele>
        <time>2011-11-15T13:25:13Z</time>
      </trkpt>
      <trkpt lat="45.34287" lon="5.87517">
        <ele>1845</ele>
        <time>2011-11-15T13:25:16Z</time>
      </trkpt>
      <trkpt lat="45.34283" lon="5.87522">
        <ele>1846.4</ele>
        <time>2011-11-15T13:25:21Z</time>
      </trkpt>
      <trkpt lat="45.34282" lon="5.87524">
        <ele>1846.8</ele>
        <time>2011-11-15T13:25:23Z</time>
      </trkpt>
      <trkpt lat="45.34277" lon="5.87532">
        <ele>1848.6</ele>
        <time>2011-11-15T13:25:30Z</time>
      </trkpt>
      <trkpt lat="45.34275" lon="5.87536">
        <ele>1849.2</ele>
        <time>2011-11-15T13:25:32Z</time>
      </trkpt>
      <trkpt lat="45.3427" lon="5.87547">
        <ele>1851.8</ele>
        <time>2011-11-15T13:25:41Z</time>
      </trkpt>
      <trkpt lat="45.34267" lon="5.87554">
        <ele>1853.4</ele>
        <time>2011-11-15T13:25:47Z</time>
      </trkpt>
      <trkpt lat="45.34266" lon="5.87556">
        <ele>1854</ele>
        <time>2011-11-15T13:25:49Z</time>
      </trkpt>
      <trkpt lat="45.34263" lon="5.87562">
        <ele>1855.2</ele>
        <time>2011-11-15T13:25:54Z</time>
      </trkpt>
      <trkpt lat="45.34263" lon="5.87563">
        <ele>1855.6</ele>
        <time>2011-11-15T13:25:55Z</time>
      </trkpt>
      <trkpt lat="45.34265" lon="5.87564">
        <ele>1856.8</ele>
        <time>2011-11-15T13:25:59Z</time>
      </trkpt>
      <trkpt lat="45.34267" lon="5.87563">
        <ele>1857.6</ele>
        <time>2011-11-15T13:26:01Z</time>
      </trkpt>
      <trkpt lat="45.34271" lon="5.87561">
        <ele>1859.2</ele>
        <time>2011-11-15T13:26:05Z</time>
      </trkpt>
      <trkpt lat="45.34273" lon="5.8756">
        <ele>1859.4</ele>
        <time>2011-11-15T13:26:06Z</time>
      </trkpt>
      <trkpt lat="45.34274" lon="5.87559">
        <ele>1860</ele>
        <time>2011-11-15T13:26:08Z</time>
      </trkpt>
      <trkpt lat="45.34279" lon="5.87557">
        <ele>1862</ele>
        <time>2011-11-15T13:26:13Z</time>
      </trkpt>
      <trkpt lat="45.3428" lon="5.87557">
        <ele>1862.4</ele>
        <time>2011-11-15T13:26:14Z</time>
      </trkpt>
      <trkpt lat="45.34282" lon="5.87556">
        <ele>1862.8</ele>
        <time>2011-11-15T13:26:16Z</time>
      </trkpt>
      <trkpt lat="45.34285" lon="5.87558">
        <ele>1863.8</ele>
        <time>2011-11-15T13:26:20Z</time>
      </trkpt>
      <trkpt lat="45.34289" lon="5.87557">
        <ele>1866</ele>
        <time>2011-11-15T13:26:26Z</time>
      </trkpt>
      <trkpt lat="45.34294" lon="5.87554">
        <ele>1868.2</ele>
        <time>2011-11-15T13:26:32Z</time>
      </trkpt>
      <trkpt lat="45.34296" lon="5.87553">
        <ele>1868.8</ele>
        <time>2011-11-15T13:26:34Z</time>
      </trkpt>
      <trkpt lat="45.34297" lon="5.87554">
        <ele>1869.2</ele>
        <time>2011-11-15T13:26:36Z</time>
      </trkpt>
      <trkpt lat="45.34298" lon="5.87557">
        <ele>1869.6</ele>
        <time>2011-11-15T13:26:38Z</time>
      </trkpt>
      <trkpt lat="45.34296" lon="5.87565">
        <ele>1870.8</ele>
        <time>2011-11-15T13:26:43Z</time>
      </trkpt>
      <trkpt lat="45.34293" lon="5.87571">
        <ele>1871.6</ele>
        <time>2011-11-15T13:26:47Z</time>
      </trkpt>
      <trkpt lat="45.34292" lon="5.87574">
        <ele>1872.2</ele>
        <time>2011-11-15T13:26:49Z</time>
      </trkpt>
      <trkpt lat="45.34288" lon="5.87583">
        <ele>1873.6</ele>
        <time>2011-11-15T13:26:56Z</time>
      </trkpt>
      <trkpt lat="45.34287" lon="5.87588">
        <ele>1874.4</ele>
        <time>2011-11-15T13:27:00Z</time>
      </trkpt>
      <trkpt lat="45.34285" lon="5.87592">
        <ele>1875</ele>
        <time>2011-11-15T13:27:04Z</time>
      </trkpt>
      <trkpt lat="45.34283" lon="5.87601">
        <ele>1876.6</ele>
        <time>2011-11-15T13:27:12Z</time>
      </trkpt>
      <trkpt lat="45.34279" lon="5.87611">
        <ele>1878</ele>
        <time>2011-11-15T13:27:19Z</time>
      </trkpt>
      <trkpt lat="45.34276" lon="5.87619">
        <ele>1879.6</ele>
        <time>2011-11-15T13:27:25Z</time>
      </trkpt>
      <trkpt lat="45.34274" lon="5.87629">
        <ele>1881</ele>
        <time>2011-11-15T13:27:31Z</time>
      </trkpt>
      <trkpt lat="45.34272" lon="5.87636">
        <ele>1882.2</ele>
        <time>2011-11-15T13:27:35Z</time>
      </trkpt>
      <trkpt lat="45.34271" lon="5.87642">
        <ele>1883</ele>
        <time>2011-11-15T13:27:38Z</time>
      </trkpt>
      <trkpt lat="45.34269" lon="5.87645">
        <ele>1884</ele>
        <time>2011-11-15T13:27:41Z</time>
      </trkpt>
      <trkpt lat="45.34266" lon="5.87648">
        <ele>1885</ele>
        <time>2011-11-15T13:27:44Z</time>
      </trkpt>
      <trkpt lat="45.34268" lon="5.8765">
        <ele>1885.8</ele>
        <time>2011-11-15T13:27:47Z</time>
      </trkpt>
      <trkpt lat="45.3427" lon="5.8765">
        <ele>1886.2</ele>
        <time>2011-11-15T13:27:48Z</time>
      </trkpt>
      <trkpt lat="45.34271" lon="5.8765">
        <ele>1886.6</ele>
        <time>2011-11-15T13:27:49Z</time>
      </trkpt>
      <trkpt lat="45.34275" lon="5.87649">
        <ele>1887.2</ele>
        <time>2011-11-15T13:27:51Z</time>
      </trkpt>
      <trkpt lat="45.34278" lon="5.87647">
        <ele>1887.8</ele>
        <time>2011-11-15T13:27:53Z</time>
      </trkpt>
      <trkpt lat="45.3428" lon="5.8765">
        <ele>1888.8</ele>
        <time>2011-11-15T13:27:56Z</time>
      </trkpt>
      <trkpt lat="45.34279" lon="5.87652">
        <ele>1889.2</ele>
        <time>2011-11-15T13:27:57Z</time>
      </trkpt>
      <trkpt lat="45.34276" lon="5.87658">
        <ele>1890.4</ele>
        <time>2011-11-15T13:28:01Z</time>
      </trkpt>
      <trkpt lat="45.34275" lon="5.8766">
        <ele>1890.8</ele>
        <time>2011-11-15T13:28:02Z</time>
      </trkpt>
      <trkpt lat="45.34274" lon="5.87663">
        <ele>1891.6</ele>
        <time>2011-11-15T13:28:04Z</time>
      </trkpt>
      <trkpt lat="45.3427" lon="5.8767">
        <ele>1893.4</ele>
        <time>2011-11-15T13:28:09Z</time>
      </trkpt>
      <trkpt lat="45.34269" lon="5.87672">
        <ele>1894</ele>
        <time>2011-11-15T13:28:11Z</time>
      </trkpt>
      <trkpt lat="45.34266" lon="5.87675">
        <ele>1895.4</ele>
        <time>2011-11-15T13:28:15Z</time>
      </trkpt>
      <trkpt lat="45.34266" lon="5.87677">
        <ele>1896.2</ele>
        <time>2011-11-15T13:28:18Z</time>
      </trkpt>
      <trkpt lat="45.34265" lon="5.87677">
        <ele>1897.4</ele>
        <time>2011-11-15T13:28:22Z</time>
      </trkpt>
      <trkpt lat="45.34264" lon="5.87678">
        <ele>1898</ele>
        <time>2011-11-15T13:28:25Z</time>
      </trkpt>
      <trkpt lat="45.3426" lon="5.87682">
        <ele>1898.8</ele>
        <time>2011-11-15T13:28:28Z</time>
      </trkpt>
      <trkpt lat="45.34252" lon="5.87693">
        <ele>1900.2</ele>
        <time>2011-11-15T13:28:34Z</time>
      </trkpt>
      <trkpt lat="45.3425" lon="5.87696">
        <ele>1900.4</ele>
        <time>2011-11-15T13:28:35Z</time>
      </trkpt>
      <trkpt lat="45.34244" lon="5.87705">
        <ele>1901.2</ele>
        <time>2011-11-15T13:28:39Z</time>
      </trkpt>
      <trkpt lat="45.34239" lon="5.87714">
        <ele>1902.2</ele>
        <time>2011-11-15T13:28:43Z</time>
      </trkpt>
      <trkpt lat="45.34237" lon="5.87717">
        <ele>1902.4</ele>
        <time>2011-11-15T13:28:44Z</time>
      </trkpt>
      <trkpt lat="45.3423" lon="5.87733">
        <ele>1903.2</ele>
        <time>2011-11-15T13:28:49Z</time>
      </trkpt>
      <trkpt lat="45.34229" lon="5.87736">
        <ele>1903.2</ele>
        <time>2011-11-15T13:28:50Z</time>
      </trkpt>
      <trkpt lat="45.34222" lon="5.87753">
        <ele>1904.2</ele>
        <time>2011-11-15T13:28:56Z</time>
      </trkpt>
      <trkpt lat="45.34221" lon="5.87757">
        <ele>1904.8</ele>
        <time>2011-11-15T13:29:00Z</time>
      </trkpt>
      <trkpt lat="45.3422" lon="5.8776">
        <ele>1905.4</ele>
        <time>2011-11-15T13:29:06Z</time>
      </trkpt>
      <trkpt lat="45.3422" lon="5.87761">
        <ele>1905.6</ele>
        <time>2011-11-15T13:29:07Z</time>
      </trkpt>
      <trkpt lat="45.34214" lon="5.8777">
        <ele>1905.8</ele>
        <time>2011-11-15T13:29:12Z</time>
      </trkpt>
      <trkpt lat="45.34209" lon="5.87779">
        <ele>1906</ele>
        <time>2011-11-15T13:29:17Z</time>
      </trkpt>
      <trkpt lat="45.34209" lon="5.8778">
        <ele>1906</ele>
        <time>2011-11-15T13:29:18Z</time>
      </trkpt>
      <trkpt lat="45.34211" lon="5.87782">
        <ele>1906</ele>
        <time>2011-11-15T13:29:21Z</time>
      </trkpt>
      <trkpt lat="45.34209" lon="5.8778">
        <ele>1909</ele>
        <time>2011-11-15T13:30:18Z</time>
      </trkpt>
      <trkpt lat="45.34208" lon="5.87779">
        <ele>1909</ele>
        <time>2011-11-15T13:30:27Z</time>
      </trkpt>
      <trkpt lat="45.34212" lon="5.87771">
        <ele>1909</ele>
        <time>2011-11-15T13:30:30Z</time>
      </trkpt>
      <trkpt lat="45.34214" lon="5.87768">
        <ele>1909</ele>
        <time>2011-11-15T13:30:31Z</time>
      </trkpt>
      <trkpt lat="45.34223" lon="5.87751">
        <ele>1909</ele>
        <time>2011-11-15T13:30:37Z</time>
      </trkpt>
      <trkpt lat="45.3423" lon="5.87733">
        <ele>1908.8</ele>
        <time>2011-11-15T13:30:42Z</time>
      </trkpt>
      <trkpt lat="45.34233" lon="5.87726">
        <ele>1908.8</ele>
        <time>2011-11-15T13:30:44Z</time>
      </trkpt>
      <trkpt lat="45.34238" lon="5.87716">
        <ele>1908.8</ele>
        <time>2011-11-15T13:30:47Z</time>
      </trkpt>
      <trkpt lat="45.34244" lon="5.87704">
        <ele>1908.8</ele>
        <time>2011-11-15T13:30:51Z</time>
      </trkpt>
      <trkpt lat="45.34246" lon="5.87701">
        <ele>1908.8</ele>
        <time>2011-11-15T13:30:52Z</time>
      </trkpt>
      <trkpt lat="45.34256" lon="5.87684">
        <ele>1908.6</ele>
        <time>2011-11-15T13:30:58Z</time>
      </trkpt>
      <trkpt lat="45.34257" lon="5.87682">
        <ele>1908.6</ele>
        <time>2011-11-15T13:30:59Z</time>
      </trkpt>
      <trkpt lat="45.34266" lon="5.87674">
        <ele>1908.6</ele>
        <time>2011-11-15T13:31:04Z</time>
      </trkpt>
      <trkpt lat="45.34266" lon="5.87673">
        <ele>1908.4</ele>
        <time>2011-11-15T13:31:08Z</time>
      </trkpt>
      <trkpt lat="45.34266" lon="5.87675">
        <ele>1908.2</ele>
        <time>2011-11-15T13:31:13Z</time>
      </trkpt>
      <trkpt lat="45.34264" lon="5.8768">
        <ele>1908</ele>
        <time>2011-11-15T13:31:19Z</time>
      </trkpt>
      <trkpt lat="45.34265" lon="5.8768">
        <ele>1908</ele>
        <time>2011-11-15T13:31:20Z</time>
      </trkpt>
      <trkpt lat="45.34265" lon="5.87682">
        <ele>1907.8</ele>
        <time>2011-11-15T13:31:23Z</time>
      </trkpt>
      <trkpt lat="45.34266" lon="5.87687">
        <ele>1907.6</ele>
        <time>2011-11-15T13:31:26Z</time>
      </trkpt>
      <trkpt lat="45.34267" lon="5.87687">
        <ele>1907.6</ele>
        <time>2011-11-15T13:31:27Z</time>
      </trkpt>
      <trkpt lat="45.34271" lon="5.87683">
        <ele>1907.4</ele>
        <time>2011-11-15T13:31:30Z</time>
      </trkpt>
      <trkpt lat="45.34273" lon="5.87681">
        <ele>1907.2</ele>
        <time>2011-11-15T13:31:32Z</time>
      </trkpt>
      <trkpt lat="45.34274" lon="5.87681">
        <ele>1906.8</ele>
        <time>2011-11-15T13:31:37Z</time>
      </trkpt>
      <trkpt lat="45.34276" lon="5.87682">
        <ele>1906.4</ele>
        <time>2011-11-15T13:31:42Z</time>
      </trkpt>
      <trkpt lat="45.34278" lon="5.87681">
        <ele>1906.2</ele>
        <time>2011-11-15T13:31:45Z</time>
      </trkpt>
      <trkpt lat="45.34284" lon="5.87682">
        <ele>1905.4</ele>
        <time>2011-11-15T13:31:52Z</time>
      </trkpt>
      <trkpt lat="45.34289" lon="5.87683">
        <ele>1904.8</ele>
        <time>2011-11-15T13:31:56Z</time>
      </trkpt>
      <trkpt lat="45.34291" lon="5.87684">
        <ele>1904.6</ele>
        <time>2011-11-15T13:31:58Z</time>
      </trkpt>
      <trkpt lat="45.34292" lon="5.87686">
        <ele>1904.2</ele>
        <time>2011-11-15T13:32:01Z</time>
      </trkpt>
      <trkpt lat="45.34292" lon="5.87686">
        <ele>1904</ele>
        <time>2011-11-15T13:32:02Z</time>
      </trkpt>
      <trkpt lat="45.34291" lon="5.87687">
        <ele>1903.8</ele>
        <time>2011-11-15T13:32:03Z</time>
      </trkpt>
      <trkpt lat="45.3429" lon="5.87687">
        <ele>1903.8</ele>
        <time>2011-11-15T13:32:04Z</time>
      </trkpt>
      <trkpt lat="45.34288" lon="5.87691">
        <ele>1903.4</ele>
        <time>2011-11-15T13:32:06Z</time>
      </trkpt>
      <trkpt lat="45.3429" lon="5.8769">
        <ele>1902.4</ele>
        <time>2011-11-15T13:32:13Z</time>
      </trkpt>
      <trkpt lat="45.34294" lon="5.87688">
        <ele>1901.4</ele>
        <time>2011-11-15T13:32:19Z</time>
      </trkpt>
      <trkpt lat="45.34294" lon="5.87689">
        <ele>1899.6</ele>
        <time>2011-11-15T13:32:29Z</time>
      </trkpt>
      <trkpt lat="45.34295" lon="5.87688">
        <ele>1899.2</ele>
        <time>2011-11-15T13:32:32Z</time>
      </trkpt>
      <trkpt lat="45.343" lon="5.87687">
        <ele>1897.8</ele>
        <time>2011-11-15T13:32:39Z</time>
      </trkpt>
      <trkpt lat="45.34301" lon="5.87688">
        <ele>1897.6</ele>
        <time>2011-11-15T13:32:40Z</time>
      </trkpt>
      <trkpt lat="45.34306" lon="5.87685">
        <ele>1896.8</ele>
        <time>2011-11-15T13:32:44Z</time>
      </trkpt>
      <trkpt lat="45.34312" lon="5.8768">
        <ele>1896.2</ele>
        <time>2011-11-15T13:32:47Z</time>
      </trkpt>
      <trkpt lat="45.34316" lon="5.87677">
        <ele>1895.6</ele>
        <time>2011-11-15T13:32:50Z</time>
      </trkpt>
      <trkpt lat="45.34316" lon="5.87676">
        <ele>1895.4</ele>
        <time>2011-11-15T13:32:51Z</time>
      </trkpt>
      <trkpt lat="45.34318" lon="5.87676">
        <ele>1894.6</ele>
        <time>2011-11-15T13:32:54Z</time>
      </trkpt>
      <trkpt lat="45.34322" lon="5.87672">
        <ele>1893.8</ele>
        <time>2011-11-15T13:32:58Z</time>
      </trkpt>
      <trkpt lat="45.34326" lon="5.87664">
        <ele>1892.6</ele>
        <time>2011-11-15T13:33:03Z</time>
      </trkpt>
      <trkpt lat="45.34328" lon="5.87662">
        <ele>1892.2</ele>
        <time>2011-11-15T13:33:05Z</time>
      </trkpt>
      <trkpt lat="45.3433" lon="5.87661">
        <ele>1891.8</ele>
        <time>2011-11-15T13:33:07Z</time>
      </trkpt>
      <trkpt lat="45.34331" lon="5.87661">
        <ele>1891.6</ele>
        <time>2011-11-15T13:33:08Z</time>
      </trkpt>
      <trkpt lat="45.34336" lon="5.87659">
        <ele>1890.8</ele>
        <time>2011-11-15T13:33:12Z</time>
      </trkpt>
      <trkpt lat="45.34344" lon="5.87654">
        <ele>1890</ele>
        <time>2011-11-15T13:33:16Z</time>
      </trkpt>
      <trkpt lat="45.34345" lon="5.8765">
        <ele>1889.6</ele>
        <time>2011-11-15T13:33:18Z</time>
      </trkpt>
      <trkpt lat="45.34349" lon="5.87645">
        <ele>1889</ele>
        <time>2011-11-15T13:33:21Z</time>
      </trkpt>
      <trkpt lat="45.34356" lon="5.87643">
        <ele>1887.8</ele>
        <time>2011-11-15T13:33:27Z</time>
      </trkpt>
      <trkpt lat="45.34357" lon="5.87644">
        <ele>1887.6</ele>
        <time>2011-11-15T13:33:28Z</time>
      </trkpt>
      <trkpt lat="45.34362" lon="5.87648">
        <ele>1886.8</ele>
        <time>2011-11-15T13:33:32Z</time>
      </trkpt>
      <trkpt lat="45.34368" lon="5.87645">
        <ele>1886</ele>
        <time>2011-11-15T13:33:36Z</time>
      </trkpt>
      <trkpt lat="45.3437" lon="5.87644">
        <ele>1885</ele>
        <time>2011-11-15T13:33:40Z</time>
      </trkpt>
      <trkpt lat="45.34372" lon="5.87641">
        <ele>1881.6</ele>
        <time>2011-11-15T13:33:59Z</time>
      </trkpt>
      <trkpt lat="45.34372" lon="5.8764">
        <ele>1880.8</ele>
        <time>2011-11-15T13:34:03Z</time>
      </trkpt>
      <trkpt lat="45.34376" lon="5.87643">
        <ele>1879.4</ele>
        <time>2011-11-15T13:34:10Z</time>
      </trkpt>
      <trkpt lat="45.34379" lon="5.87644">
        <ele>1879.2</ele>
        <time>2011-11-15T13:34:11Z</time>
      </trkpt>
      <trkpt lat="45.34381" lon="5.87645">
        <ele>1879</ele>
        <time>2011-11-15T13:34:12Z</time>
      </trkpt>
      <trkpt lat="45.34384" lon="5.87651">
        <ele>1878.4</ele>
        <time>2011-11-15T13:34:15Z</time>
      </trkpt>
      <trkpt lat="45.34385" lon="5.87654">
        <ele>1877.2</ele>
        <time>2011-11-15T13:34:20Z</time>
      </trkpt>
      <trkpt lat="45.34381" lon="5.87658">
        <ele>1874.8</ele>
        <time>2011-11-15T13:34:34Z</time>
      </trkpt>
      <trkpt lat="45.3438" lon="5.87658">
        <ele>1874.8</ele>
        <time>2011-11-15T13:34:35Z</time>
      </trkpt>
      <trkpt lat="45.34379" lon="5.87657">
        <ele>1874</ele>
        <time>2011-11-15T13:34:39Z</time>
      </trkpt>
      <trkpt lat="45.34378" lon="5.87656">
        <ele>1873.2</ele>
        <time>2011-11-15T13:34:45Z</time>
      </trkpt>
      <trkpt lat="45.34379" lon="5.87655">
        <ele>1872.4</ele>
        <time>2011-11-15T13:34:50Z</time>
      </trkpt>
      <trkpt lat="45.34382" lon="5.87655">
        <ele>1865.8</ele>
        <time>2011-11-15T13:35:52Z</time>
      </trkpt>
      <trkpt lat="45.34383" lon="5.87654">
        <ele>1865.6</ele>
        <time>2011-11-15T13:35:55Z</time>
      </trkpt>
      <trkpt lat="45.34385" lon="5.87653">
        <ele>1865.4</ele>
        <time>2011-11-15T13:35:57Z</time>
      </trkpt>
      <trkpt lat="45.34383" lon="5.87654">
        <ele>1865</ele>
        <time>2011-11-15T13:36:00Z</time>
      </trkpt>
      <trkpt lat="45.34382" lon="5.87655">
        <ele>1865</ele>
        <time>2011-11-15T13:36:01Z</time>
      </trkpt>
      <trkpt lat="45.34381" lon="5.87655">
        <ele>1864.8</ele>
        <time>2011-11-15T13:36:02Z</time>
      </trkpt>
      <trkpt lat="45.34381" lon="5.87656">
        <ele>1864.8</ele>
        <time>2011-11-15T13:36:03Z</time>
      </trkpt>
      <trkpt lat="45.34381" lon="5.87656">
        <ele>1864.6</ele>
        <time>2011-11-15T13:36:05Z</time>
      </trkpt>
      <trkpt lat="45.34382" lon="5.87658">
        <ele>1864.4</ele>
        <time>2011-11-15T13:36:06Z</time>
      </trkpt>
      <trkpt lat="45.34384" lon="5.87662">
        <ele>1863.8</ele>
        <time>2011-11-15T13:36:11Z</time>
      </trkpt>
      <trkpt lat="45.34384" lon="5.87663">
        <ele>1863.6</ele>
        <time>2011-11-15T13:36:12Z</time>
      </trkpt>
      <trkpt lat="45.34385" lon="5.87666">
        <ele>1863</ele>
        <time>2011-11-15T13:36:17Z</time>
      </trkpt>
      <trkpt lat="45.34385" lon="5.87671">
        <ele>1862.4</ele>
        <time>2011-11-15T13:36:21Z</time>
      </trkpt>
      <trkpt lat="45.34386" lon="5.87675">
        <ele>1861.6</ele>
        <time>2011-11-15T13:36:26Z</time>
      </trkpt>
      <trkpt lat="45.34387" lon="5.87676">
        <ele>1861.2</ele>
        <time>2011-11-15T13:36:29Z</time>
      </trkpt>
      <trkpt lat="45.34387" lon="5.87677">
        <ele>1861</ele>
        <time>2011-11-15T13:36:31Z</time>
      </trkpt>
      <trkpt lat="45.34392" lon="5.8768">
        <ele>1859.2</ele>
        <time>2011-11-15T13:36:43Z</time>
      </trkpt>
      <trkpt lat="45.34394" lon="5.87682">
        <ele>1858.8</ele>
        <time>2011-11-15T13:36:45Z</time>
      </trkpt>
      <trkpt lat="45.34392" lon="5.87684">
        <ele>1858.4</ele>
        <time>2011-11-15T13:36:48Z</time>
      </trkpt>
      <trkpt lat="45.34389" lon="5.87689">
        <ele>1857.4</ele>
        <time>2011-11-15T13:36:53Z</time>
      </trkpt>
      <trkpt lat="45.34388" lon="5.87691">
        <ele>1857.4</ele>
        <time>2011-11-15T13:36:54Z</time>
      </trkpt>
      <trkpt lat="45.34385" lon="5.87696">
        <ele>1856.6</ele>
        <time>2011-11-15T13:36:58Z</time>
      </trkpt>
      <trkpt lat="45.34386" lon="5.877">
        <ele>1855.8</ele>
        <time>2011-11-15T13:37:02Z</time>
      </trkpt>
      <trkpt lat="45.34386" lon="5.87705">
        <ele>1854.4</ele>
        <time>2011-11-15T13:37:10Z</time>
      </trkpt>
      <trkpt lat="45.34386" lon="5.87706">
        <ele>1854.2</ele>
        <time>2011-11-15T13:37:11Z</time>
      </trkpt>
      <trkpt lat="45.34387" lon="5.87711">
        <ele>1853.6</ele>
        <time>2011-11-15T13:37:14Z</time>
      </trkpt>
      <trkpt lat="45.34387" lon="5.87713">
        <ele>1853.4</ele>
        <time>2011-11-15T13:37:15Z</time>
      </trkpt>
      <trkpt lat="45.34387" lon="5.87715">
        <ele>1853.2</ele>
        <time>2011-11-15T13:37:16Z</time>
      </trkpt>
      <trkpt lat="45.34386" lon="5.87725">
        <ele>1851.8</ele>
        <time>2011-11-15T13:37:23Z</time>
      </trkpt>
      <trkpt lat="45.34383" lon="5.87735">
        <ele>1850.8</ele>
        <time>2011-11-15T13:37:28Z</time>
      </trkpt>
      <trkpt lat="45.34382" lon="5.87738">
        <ele>1850.6</ele>
        <time>2011-11-15T13:37:29Z</time>
      </trkpt>
      <trkpt lat="45.34376" lon="5.87753">
        <ele>1849.2</ele>
        <time>2011-11-15T13:37:35Z</time>
      </trkpt>
      <trkpt lat="45.34375" lon="5.87757">
        <ele>1848.4</ele>
        <time>2011-11-15T13:37:39Z</time>
      </trkpt>
      <trkpt lat="45.34374" lon="5.87759">
        <ele>1847.8</ele>
        <time>2011-11-15T13:37:42Z</time>
      </trkpt>
      <trkpt lat="45.34374" lon="5.87761">
        <ele>1847.4</ele>
        <time>2011-11-15T13:37:43Z</time>
      </trkpt>
      <trkpt lat="45.34375" lon="5.87768">
        <ele>1846.8</ele>
        <time>2011-11-15T13:37:46Z</time>
      </trkpt>
      <trkpt lat="45.34375" lon="5.87769">
        <ele>1846.2</ele>
        <time>2011-11-15T13:37:48Z</time>
      </trkpt>
      <trkpt lat="45.34375" lon="5.87772">
        <ele>1845.6</ele>
        <time>2011-11-15T13:37:51Z</time>
      </trkpt>
      <trkpt lat="45.34376" lon="5.87775">
        <ele>1845</ele>
        <time>2011-11-15T13:37:53Z</time>
      </trkpt>
      <trkpt lat="45.3438" lon="5.87779">
        <ele>1843.6</ele>
        <time>2011-11-15T13:37:58Z</time>
      </trkpt>
      <trkpt lat="45.34382" lon="5.8778">
        <ele>1843.4</ele>
        <time>2011-11-15T13:37:59Z</time>
      </trkpt>
      <trkpt lat="45.34387" lon="5.87783">
        <ele>1842.2</ele>
        <time>2011-11-15T13:38:03Z</time>
      </trkpt>
      <trkpt lat="45.34389" lon="5.87783">
        <ele>1842</ele>
        <time>2011-11-15T13:38:04Z</time>
      </trkpt>
      <trkpt lat="45.344" lon="5.87786">
        <ele>1840</ele>
        <time>2011-11-15T13:38:10Z</time>
      </trkpt>
      <trkpt lat="45.34401" lon="5.87787">
        <ele>1839.6</ele>
        <time>2011-11-15T13:38:11Z</time>
      </trkpt>
      <trkpt lat="45.34405" lon="5.87785">
        <ele>1838.2</ele>
        <time>2011-11-15T13:38:16Z</time>
      </trkpt>
      <trkpt lat="45.34409" lon="5.87787">
        <ele>1837.2</ele>
        <time>2011-11-15T13:38:19Z</time>
      </trkpt>
      <trkpt lat="45.34411" lon="5.87788">
        <ele>1836.8</ele>
        <time>2011-11-15T13:38:20Z</time>
      </trkpt>
      <trkpt lat="45.34414" lon="5.87793">
        <ele>1836.2</ele>
        <time>2011-11-15T13:38:22Z</time>
      </trkpt>
      <trkpt lat="45.34417" lon="5.87797">
        <ele>1835.6</ele>
        <time>2011-11-15T13:38:24Z</time>
      </trkpt>
      <trkpt lat="45.34427" lon="5.87802">
        <ele>1834</ele>
        <time>2011-11-15T13:38:28Z</time>
      </trkpt>
      <trkpt lat="45.34433" lon="5.87803">
        <ele>1833.4</ele>
        <time>2011-11-15T13:38:30Z</time>
      </trkpt>
      <trkpt lat="45.34438" lon="5.87806">
        <ele>1832.6</ele>
        <time>2011-11-15T13:38:32Z</time>
      </trkpt>
      <trkpt lat="45.34449" lon="5.87815">
        <ele>1830.8</ele>
        <time>2011-11-15T13:38:37Z</time>
      </trkpt>
      <trkpt lat="45.34451" lon="5.87817">
        <ele>1830.4</ele>
        <time>2011-11-15T13:38:38Z</time>
      </trkpt>
      <trkpt lat="45.34455" lon="5.87826">
        <ele>1829.2</ele>
        <time>2011-11-15T13:38:41Z</time>
      </trkpt>
      <trkpt lat="45.34457" lon="5.87832">
        <ele>1828.4</ele>
        <time>2011-11-15T13:38:43Z</time>
      </trkpt>
      <trkpt lat="45.34461" lon="5.87838">
        <ele>1827.6</ele>
        <time>2011-11-15T13:38:45Z</time>
      </trkpt>
      <trkpt lat="45.34474" lon="5.87858">
        <ele>1825.4</ele>
        <time>2011-11-15T13:38:51Z</time>
      </trkpt>
      <trkpt lat="45.34487" lon="5.8787">
        <ele>1823.4</ele>
        <time>2011-11-15T13:38:56Z</time>
      </trkpt>
      <trkpt lat="45.34491" lon="5.87871">
        <ele>1823</ele>
        <time>2011-11-15T13:38:57Z</time>
      </trkpt>
      <trkpt lat="45.34504" lon="5.87874">
        <ele>1821.6</ele>
        <time>2011-11-15T13:39:01Z</time>
      </trkpt>
      <trkpt lat="45.3451" lon="5.87876">
        <ele>1820.8</ele>
        <time>2011-11-15T13:39:03Z</time>
      </trkpt>
      <trkpt lat="45.34521" lon="5.87875">
        <ele>1819.6</ele>
        <time>2011-11-15T13:39:06Z</time>
      </trkpt>
      <trkpt lat="45.3453" lon="5.87874">
        <ele>1818.2</ele>
        <time>2011-11-15T13:39:10Z</time>
      </trkpt>
      <trkpt lat="45.34536" lon="5.87874">
        <ele>1817.6</ele>
        <time>2011-11-15T13:39:12Z</time>
      </trkpt>
      <trkpt lat="45.3455" lon="5.8788">
        <ele>1815.8</ele>
        <time>2011-11-15T13:39:18Z</time>
      </trkpt>
      <trkpt lat="45.34557" lon="5.87888">
        <ele>1814.8</ele>
        <time>2011-11-15T13:39:22Z</time>
      </trkpt>
      <trkpt lat="45.34564" lon="5.87897">
        <ele>1813.4</ele>
        <time>2011-11-15T13:39:27Z</time>
      </trkpt>
      <trkpt lat="45.34571" lon="5.87908">
        <ele>1812</ele>
        <time>2011-11-15T13:39:32Z</time>
      </trkpt>
      <trkpt lat="45.34577" lon="5.87917">
        <ele>1810.8</ele>
        <time>2011-11-15T13:39:36Z</time>
      </trkpt>
      <trkpt lat="45.3458" lon="5.87921">
        <ele>1810.4</ele>
        <time>2011-11-15T13:39:38Z</time>
      </trkpt>
      <trkpt lat="45.34586" lon="5.87926">
        <ele>1809.4</ele>
        <time>2011-11-15T13:39:41Z</time>
      </trkpt>
      <trkpt lat="45.34589" lon="5.87932">
        <ele>1808.8</ele>
        <time>2011-11-15T13:39:43Z</time>
      </trkpt>
      <trkpt lat="45.34591" lon="5.87935">
        <ele>1808.4</ele>
        <time>2011-11-15T13:39:44Z</time>
      </trkpt>
      <trkpt lat="45.346" lon="5.87945">
        <ele>1807.2</ele>
        <time>2011-11-15T13:39:48Z</time>
      </trkpt>
      <trkpt lat="45.34607" lon="5.87953">
        <ele>1806.2</ele>
        <time>2011-11-15T13:39:51Z</time>
      </trkpt>
      <trkpt lat="45.34615" lon="5.87957">
        <ele>1805.2</ele>
        <time>2011-11-15T13:39:54Z</time>
      </trkpt>
      <trkpt lat="45.34627" lon="5.87958">
        <ele>1804</ele>
        <time>2011-11-15T13:39:58Z</time>
      </trkpt>
      <trkpt lat="45.34629" lon="5.8796">
        <ele>1803.6</ele>
        <time>2011-11-15T13:39:59Z</time>
      </trkpt>
      <trkpt lat="45.3464" lon="5.87968">
        <ele>1802.4</ele>
        <time>2011-11-15T13:40:03Z</time>
      </trkpt>
      <trkpt lat="45.34644" lon="5.87971">
        <ele>1801.6</ele>
        <time>2011-11-15T13:40:05Z</time>
      </trkpt>
      <trkpt lat="45.3465" lon="5.87973">
        <ele>1800.8</ele>
        <time>2011-11-15T13:40:08Z</time>
      </trkpt>
      <trkpt lat="45.3466" lon="5.8798">
        <ele>1799</ele>
        <time>2011-11-15T13:40:13Z</time>
      </trkpt>
      <trkpt lat="45.34664" lon="5.87989">
        <ele>1797.6</ele>
        <time>2011-11-15T13:40:17Z</time>
      </trkpt>
      <trkpt lat="45.34662" lon="5.87989">
        <ele>1797</ele>
        <time>2011-11-15T13:40:19Z</time>
      </trkpt>
      <trkpt lat="45.3466" lon="5.87988">
        <ele>1796.2</ele>
        <time>2011-11-15T13:40:22Z</time>
      </trkpt>
      <trkpt lat="45.34659" lon="5.87989">
        <ele>1794.6</ele>
        <time>2011-11-15T13:40:28Z</time>
      </trkpt>
      <trkpt lat="45.3466" lon="5.87986">
        <ele>1793.8</ele>
        <time>2011-11-15T13:40:31Z</time>
      </trkpt>
      <trkpt lat="45.34661" lon="5.87987">
        <ele>1793.2</ele>
        <time>2011-11-15T13:40:33Z</time>
      </trkpt>
      <trkpt lat="45.34663" lon="5.87989">
        <ele>1792.8</ele>
        <time>2011-11-15T13:40:34Z</time>
      </trkpt>
      <trkpt lat="45.34671" lon="5.87997">
        <ele>1791.6</ele>
        <time>2011-11-15T13:40:38Z</time>
      </trkpt>
      <trkpt lat="45.3468" lon="5.88002">
        <ele>1790.8</ele>
        <time>2011-11-15T13:40:41Z</time>
      </trkpt>
      <trkpt lat="45.34685" lon="5.88005">
        <ele>1790.2</ele>
        <time>2011-11-15T13:40:43Z</time>
      </trkpt>
      <trkpt lat="45.34695" lon="5.88007">
        <ele>1789.2</ele>
        <time>2011-11-15T13:40:46Z</time>
      </trkpt>
      <trkpt lat="45.34695" lon="5.88007">
        <ele>1789</ele>
        <time>2011-11-15T13:40:47Z</time>
      </trkpt>
      <trkpt lat="45.34699" lon="5.8801">
        <ele>1788.4</ele>
        <time>2011-11-15T13:40:49Z</time>
      </trkpt>
      <trkpt lat="45.34705" lon="5.88015">
        <ele>1787.4</ele>
        <time>2011-11-15T13:40:52Z</time>
      </trkpt>
      <trkpt lat="45.34713" lon="5.88023">
        <ele>1786.4</ele>
        <time>2011-11-15T13:40:55Z</time>
      </trkpt>
      <trkpt lat="45.34719" lon="5.88028">
        <ele>1785.6</ele>
        <time>2011-11-15T13:40:57Z</time>
      </trkpt>
      <trkpt lat="45.34729" lon="5.88037">
        <ele>1784.2</ele>
        <time>2011-11-15T13:41:01Z</time>
      </trkpt>
      <trkpt lat="45.34735" lon="5.88041">
        <ele>1783.6</ele>
        <time>2011-11-15T13:41:03Z</time>
      </trkpt>
      <trkpt lat="45.34747" lon="5.88047">
        <ele>1782.2</ele>
        <time>2011-11-15T13:41:07Z</time>
      </trkpt>
      <trkpt lat="45.3475" lon="5.88047">
        <ele>1781.8</ele>
        <time>2011-11-15T13:41:08Z</time>
      </trkpt>
      <trkpt lat="45.34761" lon="5.88049">
        <ele>1780.4</ele>
        <time>2011-11-15T13:41:12Z</time>
      </trkpt>
      <trkpt lat="45.34766" lon="5.88049">
        <ele>1779.6</ele>
        <time>2011-11-15T13:41:14Z</time>
      </trkpt>
      <trkpt lat="45.34776" lon="5.88046">
        <ele>1778.2</ele>
        <time>2011-11-15T13:41:18Z</time>
      </trkpt>
      <trkpt lat="45.34785" lon="5.88045">
        <ele>1777</ele>
        <time>2011-11-15T13:41:21Z</time>
      </trkpt>
      <trkpt lat="45.34791" lon="5.88043">
        <ele>1776</ele>
        <time>2011-11-15T13:41:23Z</time>
      </trkpt>
      <trkpt lat="45.34803" lon="5.88042">
        <ele>1774.4</ele>
        <time>2011-11-15T13:41:27Z</time>
      </trkpt>
      <trkpt lat="45.34816" lon="5.8804">
        <ele>1772.6</ele>
        <time>2011-11-15T13:41:31Z</time>
      </trkpt>
      <trkpt lat="45.34823" lon="5.8804">
        <ele>1771.4</ele>
        <time>2011-11-15T13:41:34Z</time>
      </trkpt>
      <trkpt lat="45.34828" lon="5.88042">
        <ele>1770.4</ele>
        <time>2011-11-15T13:41:36Z</time>
      </trkpt>
      <trkpt lat="45.34838" lon="5.8804">
        <ele>1768.8</ele>
        <time>2011-11-15T13:41:40Z</time>
      </trkpt>
      <trkpt lat="45.3484" lon="5.88042">
        <ele>1768.4</ele>
        <time>2011-11-15T13:41:41Z</time>
      </trkpt>
      <trkpt lat="45.34844" lon="5.88045">
        <ele>1767.6</ele>
        <time>2011-11-15T13:41:43Z</time>
      </trkpt>
      <trkpt lat="45.34855" lon="5.88049">
        <ele>1766</ele>
        <time>2011-11-15T13:41:47Z</time>
      </trkpt>
      <trkpt lat="45.34858" lon="5.8805">
        <ele>1765.6</ele>
        <time>2011-11-15T13:41:48Z</time>
      </trkpt>
      <trkpt lat="45.34872" lon="5.88055">
        <ele>1763.6</ele>
        <time>2011-11-15T13:41:53Z</time>
      </trkpt>
      <trkpt lat="45.34878" lon="5.88057">
        <ele>1763</ele>
        <time>2011-11-15T13:41:55Z</time>
      </trkpt>
      <trkpt lat="45.34882" lon="5.88061">
        <ele>1762.2</ele>
        <time>2011-11-15T13:41:57Z</time>
      </trkpt>
      <trkpt lat="45.3489" lon="5.88071">
        <ele>1760.4</ele>
        <time>2011-11-15T13:42:02Z</time>
      </trkpt>
      <trkpt lat="45.34893" lon="5.88076">
        <ele>1759.2</ele>
        <time>2011-11-15T13:42:05Z</time>
      </trkpt>
      <trkpt lat="45.34897" lon="5.8808">
        <ele>1758.8</ele>
        <time>2011-11-15T13:42:06Z</time>
      </trkpt>
      <trkpt lat="45.34897" lon="5.8808">
        <ele>1758.6</ele>
        <time>2011-11-15T13:42:07Z</time>
      </trkpt>
      <trkpt lat="45.34906" lon="5.88087">
        <ele>1757</ele>
        <time>2011-11-15T13:42:11Z</time>
      </trkpt>
      <trkpt lat="45.34908" lon="5.88089">
        <ele>1756.8</ele>
        <time>2011-11-15T13:42:12Z</time>
      </trkpt>
      <trkpt lat="45.34913" lon="5.88091">
        <ele>1755.6</ele>
        <time>2011-11-15T13:42:15Z</time>
      </trkpt>
      <trkpt lat="45.34924" lon="5.88087">
        <ele>1753.8</ele>
        <time>2011-11-15T13:42:20Z</time>
      </trkpt>
      <trkpt lat="45.34926" lon="5.88088">
        <ele>1753.4</ele>
        <time>2011-11-15T13:42:21Z</time>
      </trkpt>
      <trkpt lat="45.34936" lon="5.8809">
        <ele>1752</ele>
        <time>2011-11-15T13:42:25Z</time>
      </trkpt>
      <trkpt lat="45.34942" lon="5.88092">
        <ele>1751</ele>
        <time>2011-11-15T13:42:28Z</time>
      </trkpt>
      <trkpt lat="45.34944" lon="5.8809">
        <ele>1750.6</ele>
        <time>2011-11-15T13:42:29Z</time>
      </trkpt>
      <trkpt lat="45.34951" lon="5.88085">
        <ele>1749.8</ele>
        <time>2011-11-15T13:42:32Z</time>
      </trkpt>
      <trkpt lat="45.34955" lon="5.88084">
        <ele>1749</ele>
        <time>2011-11-15T13:42:34Z</time>
      </trkpt>
      <trkpt lat="45.34961" lon="5.88084">
        <ele>1748</ele>
        <time>2011-11-15T13:42:37Z</time>
      </trkpt>
      <trkpt lat="45.34964" lon="5.88084">
        <ele>1747.8</ele>
        <time>2011-11-15T13:42:38Z</time>
      </trkpt>
      <trkpt lat="45.3497" lon="5.88084">
        <ele>1746.8</ele>
        <time>2011-11-15T13:42:41Z</time>
      </trkpt>
      <trkpt lat="45.34971" lon="5.88084">
        <ele>1746.6</ele>
        <time>2011-11-15T13:42:42Z</time>
      </trkpt>
      <trkpt lat="45.34971" lon="5.88084">
        <ele>1745.2</ele>
        <time>2011-11-15T13:42:47Z</time>
      </trkpt>
      <trkpt lat="45.34974" lon="5.88083">
        <ele>1743.6</ele>
        <time>2011-11-15T13:42:53Z</time>
      </trkpt>
      <trkpt lat="45.34977" lon="5.88086">
        <ele>1742.8</ele>
        <time>2011-11-15T13:42:56Z</time>
      </trkpt>
      <trkpt lat="45.34978" lon="5.88086">
        <ele>1742.6</ele>
        <time>2011-11-15T13:42:57Z</time>
      </trkpt>
      <trkpt lat="45.34979" lon="5.88087">
        <ele>1742.4</ele>
        <time>2011-11-15T13:42:58Z</time>
      </trkpt>
      <trkpt lat="45.34982" lon="5.88087">
        <ele>1742</ele>
        <time>2011-11-15T13:43:00Z</time>
      </trkpt>
      <trkpt lat="45.34987" lon="5.88089">
        <ele>1741.4</ele>
        <time>2011-11-15T13:43:03Z</time>
      </trkpt>
      <trkpt lat="45.34995" lon="5.88089">
        <ele>1740.2</ele>
        <time>2011-11-15T13:43:09Z</time>
      </trkpt>
      <trkpt lat="45.34996" lon="5.8809">
        <ele>1740</ele>
        <time>2011-11-15T13:43:10Z</time>
      </trkpt>
      <trkpt lat="45.35002" lon="5.88094">
        <ele>1739.4</ele>
        <time>2011-11-15T13:43:14Z</time>
      </trkpt>
      <trkpt lat="45.35004" lon="5.88095">
        <ele>1739.2</ele>
        <time>2011-11-15T13:43:15Z</time>
      </trkpt>
      <trkpt lat="45.35006" lon="5.88097">
        <ele>1739.2</ele>
        <time>2011-11-15T13:43:16Z</time>
      </trkpt>
      <trkpt lat="45.35012" lon="5.88102">
        <ele>1738.6</ele>
        <time>2011-11-15T13:43:19Z</time>
      </trkpt>
      <trkpt lat="45.35019" lon="5.88102">
        <ele>1738.2</ele>
        <time>2011-11-15T13:43:23Z</time>
      </trkpt>
      <trkpt lat="45.3502" lon="5.88102">
        <ele>1738</ele>
        <time>2011-11-15T13:43:24Z</time>
      </trkpt>
      <trkpt lat="45.35026" lon="5.88104">
        <ele>1737.6</ele>
        <time>2011-11-15T13:43:27Z</time>
      </trkpt>
      <trkpt lat="45.35029" lon="5.8811">
        <ele>1737</ele>
        <time>2011-11-15T13:43:31Z</time>
      </trkpt>
      <trkpt lat="45.35029" lon="5.88112">
        <ele>1736.8</ele>
        <time>2011-11-15T13:43:32Z</time>
      </trkpt>
      <trkpt lat="45.35029" lon="5.88119">
        <ele>1736.4</ele>
        <time>2011-11-15T13:43:34Z</time>
      </trkpt>
      <trkpt lat="45.35031" lon="5.88124">
        <ele>1736.2</ele>
        <time>2011-11-15T13:43:36Z</time>
      </trkpt>
      <trkpt lat="45.35034" lon="5.88128">
        <ele>1735.8</ele>
        <time>2011-11-15T13:43:39Z</time>
      </trkpt>
      <trkpt lat="45.35035" lon="5.88128">
        <ele>1735.6</ele>
        <time>2011-11-15T13:43:41Z</time>
      </trkpt>
      <trkpt lat="45.35037" lon="5.88127">
        <ele>1735.4</ele>
        <time>2011-11-15T13:43:42Z</time>
      </trkpt>
      <trkpt lat="45.35042" lon="5.8813">
        <ele>1734.8</ele>
        <time>2011-11-15T13:43:47Z</time>
      </trkpt>
      <trkpt lat="45.35043" lon="5.8813">
        <ele>1734.8</ele>
        <time>2011-11-15T13:43:48Z</time>
      </trkpt>
      <trkpt lat="45.35047" lon="5.88133">
        <ele>1734.4</ele>
        <time>2011-11-15T13:43:52Z</time>
      </trkpt>
      <trkpt lat="45.35049" lon="5.88134">
        <ele>1734.2</ele>
        <time>2011-11-15T13:43:54Z</time>
      </trkpt>
      <trkpt lat="45.35052" lon="5.88139">
        <ele>1734</ele>
        <time>2011-11-15T13:43:57Z</time>
      </trkpt>
      <trkpt lat="45.35053" lon="5.8814">
        <ele>1734</ele>
        <time>2011-11-15T13:43:58Z</time>
      </trkpt>
      <trkpt lat="45.35057" lon="5.88151">
        <ele>1733.6</ele>
        <time>2011-11-15T13:44:03Z</time>
      </trkpt>
      <trkpt lat="45.35065" lon="5.88157">
        <ele>1733.4</ele>
        <time>2011-11-15T13:44:06Z</time>
      </trkpt>
      <trkpt lat="45.35065" lon="5.88157">
        <ele>1733.2</ele>
        <time>2011-11-15T13:44:07Z</time>
      </trkpt>
      <trkpt lat="45.35066" lon="5.88158">
        <ele>1733.2</ele>
        <time>2011-11-15T13:44:08Z</time>
      </trkpt>
      <trkpt lat="45.3507" lon="5.88166">
        <ele>1733</ele>
        <time>2011-11-15T13:44:11Z</time>
      </trkpt>
      <trkpt lat="45.35073" lon="5.88169">
        <ele>1732.8</ele>
        <time>2011-11-15T13:44:13Z</time>
      </trkpt>
      <trkpt lat="45.35076" lon="5.88171">
        <ele>1732.6</ele>
        <time>2011-11-15T13:44:15Z</time>
      </trkpt>
      <trkpt lat="45.35077" lon="5.88172">
        <ele>1732.4</ele>
        <time>2011-11-15T13:44:18Z</time>
      </trkpt>
      <trkpt lat="45.35077" lon="5.88174">
        <ele>1732.2</ele>
        <time>2011-11-15T13:44:19Z</time>
      </trkpt>
      <trkpt lat="45.35078" lon="5.8818">
        <ele>1731.6</ele>
        <time>2011-11-15T13:44:25Z</time>
      </trkpt>
      <trkpt lat="45.35078" lon="5.88178">
        <ele>1731.2</ele>
        <time>2011-11-15T13:44:31Z</time>
      </trkpt>
      <trkpt lat="45.35078" lon="5.88178">
        <ele>1731.2</ele>
        <time>2011-11-15T13:44:31Z</time>
      </trkpt>
      <trkpt lat="45.35078" lon="5.88171">
        <ele>1731</ele>
        <time>2011-11-15T13:44:34Z</time>
      </trkpt>
      <trkpt lat="45.35079" lon="5.88168">
        <ele>1730.8</ele>
        <time>2011-11-15T13:44:35Z</time>
      </trkpt>
      <trkpt lat="45.3508" lon="5.88166">
        <ele>1730.8</ele>
        <time>2011-11-15T13:44:36Z</time>
      </trkpt>
      <trkpt lat="45.35086" lon="5.88159">
        <ele>1730.2</ele>
        <time>2011-11-15T13:44:41Z</time>
      </trkpt>
      <trkpt lat="45.35092" lon="5.88141">
        <ele>1729.8</ele>
        <time>2011-11-15T13:44:46Z</time>
      </trkpt>
      <trkpt lat="45.35095" lon="5.88131">
        <ele>1729.6</ele>
        <time>2011-11-15T13:44:50Z</time>
      </trkpt>
      <trkpt lat="45.35097" lon="5.88129">
        <ele>1729.4</ele>
        <time>2011-11-15T13:44:51Z</time>
      </trkpt>
      <trkpt lat="45.35099" lon="5.88129">
        <ele>1729.4</ele>
        <time>2011-11-15T13:44:52Z</time>
      </trkpt>
      <trkpt lat="45.35104" lon="5.88129">
        <ele>1729.2</ele>
        <time>2011-11-15T13:44:54Z</time>
      </trkpt>
      <trkpt lat="45.35117" lon="5.88123">
        <ele>1728.8</ele>
        <time>2011-11-15T13:45:00Z</time>
      </trkpt>
      <trkpt lat="45.3512" lon="5.88123">
        <ele>1728.8</ele>
        <time>2011-11-15T13:45:01Z</time>
      </trkpt>
      <trkpt lat="45.35122" lon="5.88123">
        <ele>1728.8</ele>
        <time>2011-11-15T13:45:02Z</time>
      </trkpt>
      <trkpt lat="45.3513" lon="5.8813">
        <ele>1728.6</ele>
        <time>2011-11-15T13:45:06Z</time>
      </trkpt>
      <trkpt lat="45.35138" lon="5.88136">
        <ele>1728.6</ele>
        <time>2011-11-15T13:45:11Z</time>
      </trkpt>
      <trkpt lat="45.3514" lon="5.88138">
        <ele>1728.6</ele>
        <time>2011-11-15T13:45:12Z</time>
      </trkpt>
      <trkpt lat="45.35144" lon="5.88146">
        <ele>1728.6</ele>
        <time>2011-11-15T13:45:15Z</time>
      </trkpt>
      <trkpt lat="45.35147" lon="5.88147">
        <ele>1728.4</ele>
        <time>2011-11-15T13:45:17Z</time>
      </trkpt>
      <trkpt lat="45.35152" lon="5.88148">
        <ele>1728.4</ele>
        <time>2011-11-15T13:45:19Z</time>
      </trkpt>
      <trkpt lat="45.35158" lon="5.88152">
        <ele>1728.4</ele>
        <time>2011-11-15T13:45:22Z</time>
      </trkpt>
      <trkpt lat="45.35164" lon="5.88155">
        <ele>1728.2</ele>
        <time>2011-11-15T13:45:25Z</time>
      </trkpt>
      <trkpt lat="45.35169" lon="5.88157">
        <ele>1728.2</ele>
        <time>2011-11-15T13:45:26Z</time>
      </trkpt>
      <trkpt lat="45.35169" lon="5.88157">
        <ele>1728</ele>
        <time>2011-11-15T13:45:27Z</time>
      </trkpt>
      <trkpt lat="45.35176" lon="5.88154">
        <ele>1728</ele>
        <time>2011-11-15T13:45:30Z</time>
      </trkpt>
      <trkpt lat="45.35178" lon="5.88154">
        <ele>1728</ele>
        <time>2011-11-15T13:45:31Z</time>
      </trkpt>
      <trkpt lat="45.35188" lon="5.88152">
        <ele>1727.4</ele>
        <time>2011-11-15T13:45:36Z</time>
      </trkpt>
      <trkpt lat="45.35191" lon="5.88152">
        <ele>1727.4</ele>
        <time>2011-11-15T13:45:37Z</time>
      </trkpt>
      <trkpt lat="45.35201" lon="5.88157">
        <ele>1727</ele>
        <time>2011-11-15T13:45:42Z</time>
      </trkpt>
      <trkpt lat="45.35206" lon="5.88159">
        <ele>1727</ele>
        <time>2011-11-15T13:45:44Z</time>
      </trkpt>
      <trkpt lat="45.35212" lon="5.88159">
        <ele>1726.8</ele>
        <time>2011-11-15T13:45:46Z</time>
      </trkpt>
      <trkpt lat="45.35212" lon="5.88159">
        <ele>1726.6</ele>
        <time>2011-11-15T13:45:47Z</time>
      </trkpt>
      <trkpt lat="45.35221" lon="5.88161">
        <ele>1726.4</ele>
        <time>2011-11-15T13:45:51Z</time>
      </trkpt>
      <trkpt lat="45.35223" lon="5.88161">
        <ele>1726.4</ele>
        <time>2011-11-15T13:45:52Z</time>
      </trkpt>
      <trkpt lat="45.35228" lon="5.88157">
        <ele>1726.2</ele>
        <time>2011-11-15T13:45:55Z</time>
      </trkpt>
      <trkpt lat="45.3523" lon="5.88156">
        <ele>1726</ele>
        <time>2011-11-15T13:45:56Z</time>
      </trkpt>
      <trkpt lat="45.35235" lon="5.88159">
        <ele>1725.6</ele>
        <time>2011-11-15T13:46:01Z</time>
      </trkpt>
      <trkpt lat="45.35236" lon="5.8816">
        <ele>1725.6</ele>
        <time>2011-11-15T13:46:02Z</time>
      </trkpt>
      <trkpt lat="45.3524" lon="5.88163">
        <ele>1725.4</ele>
        <time>2011-11-15T13:46:04Z</time>
      </trkpt>
      <trkpt lat="45.35242" lon="5.88163">
        <ele>1725.4</ele>
        <time>2011-11-15T13:46:05Z</time>
      </trkpt>
      <trkpt lat="45.35243" lon="5.88161">
        <ele>1725.2</ele>
        <time>2011-11-15T13:46:06Z</time>
      </trkpt>
      <trkpt lat="45.35249" lon="5.88157">
        <ele>1724.6</ele>
        <time>2011-11-15T13:46:11Z</time>
      </trkpt>
      <trkpt lat="45.35251" lon="5.88156">
        <ele>1724.4</ele>
        <time>2011-11-15T13:46:13Z</time>
      </trkpt>
      <trkpt lat="45.35254" lon="5.88154">
        <ele>1724.2</ele>
        <time>2011-11-15T13:46:15Z</time>
      </trkpt>
      <trkpt lat="45.35258" lon="5.88153">
        <ele>1723.8</ele>
        <time>2011-11-15T13:46:18Z</time>
      </trkpt>
      <trkpt lat="45.35261" lon="5.88153">
        <ele>1723.6</ele>
        <time>2011-11-15T13:46:20Z</time>
      </trkpt>
      <trkpt lat="45.35266" lon="5.8816">
        <ele>1723.2</ele>
        <time>2011-11-15T13:46:23Z</time>
      </trkpt>
      <trkpt lat="45.35267" lon="5.88162">
        <ele>1723.2</ele>
        <time>2011-11-15T13:46:24Z</time>
      </trkpt>
      <trkpt lat="45.35271" lon="5.88164">
        <ele>1722.8</ele>
        <time>2011-11-15T13:46:26Z</time>
      </trkpt>
      <trkpt lat="45.35274" lon="5.88164">
        <ele>1722.6</ele>
        <time>2011-11-15T13:46:29Z</time>
      </trkpt>
      <trkpt lat="45.35276" lon="5.88166">
        <ele>1722.4</ele>
        <time>2011-11-15T13:46:30Z</time>
      </trkpt>
      <trkpt lat="45.35282" lon="5.88178">
        <ele>1721.8</ele>
        <time>2011-11-15T13:46:35Z</time>
      </trkpt>
      <trkpt lat="45.35284" lon="5.88185">
        <ele>1721.4</ele>
        <time>2011-11-15T13:46:37Z</time>
      </trkpt>
      <trkpt lat="45.35288" lon="5.88194">
        <ele>1721</ele>
        <time>2011-11-15T13:46:40Z</time>
      </trkpt>
      <trkpt lat="45.35299" lon="5.88203">
        <ele>1720.6</ele>
        <time>2011-11-15T13:46:44Z</time>
      </trkpt>
      <trkpt lat="45.35302" lon="5.88205">
        <ele>1720.4</ele>
        <time>2011-11-15T13:46:45Z</time>
      </trkpt>
      <trkpt lat="45.35312" lon="5.88209">
        <ele>1719.8</ele>
        <time>2011-11-15T13:46:50Z</time>
      </trkpt>
      <trkpt lat="45.35317" lon="5.88214">
        <ele>1719.6</ele>
        <time>2011-11-15T13:46:53Z</time>
      </trkpt>
      <trkpt lat="45.35319" lon="5.88215">
        <ele>1719.4</ele>
        <time>2011-11-15T13:46:54Z</time>
      </trkpt>
      <trkpt lat="45.35325" lon="5.88214">
        <ele>1719</ele>
        <time>2011-11-15T13:46:58Z</time>
      </trkpt>
      <trkpt lat="45.35328" lon="5.88227">
        <ele>1718.6</ele>
        <time>2011-11-15T13:47:03Z</time>
      </trkpt>
      <trkpt lat="45.35328" lon="5.88231">
        <ele>1718.4</ele>
        <time>2011-11-15T13:47:05Z</time>
      </trkpt>
      <trkpt lat="45.3533" lon="5.88235">
        <ele>1718.2</ele>
        <time>2011-11-15T13:47:07Z</time>
      </trkpt>
      <trkpt lat="45.35335" lon="5.88244">
        <ele>1717.8</ele>
        <time>2011-11-15T13:47:11Z</time>
      </trkpt>
      <trkpt lat="45.35337" lon="5.88246">
        <ele>1717.8</ele>
        <time>2011-11-15T13:47:12Z</time>
      </trkpt>
      <trkpt lat="45.35339" lon="5.88248">
        <ele>1717.6</ele>
        <time>2011-11-15T13:47:13Z</time>
      </trkpt>
      <trkpt lat="45.35343" lon="5.88251">
        <ele>1717.6</ele>
        <time>2011-11-15T13:47:15Z</time>
      </trkpt>
      <trkpt lat="45.3535" lon="5.88259">
        <ele>1717.2</ele>
        <time>2011-11-15T13:47:20Z</time>
      </trkpt>
      <trkpt lat="45.35355" lon="5.88265">
        <ele>1716.8</ele>
        <time>2011-11-15T13:47:25Z</time>
      </trkpt>
      <trkpt lat="45.35358" lon="5.88267">
        <ele>1716.6</ele>
        <time>2011-11-15T13:47:26Z</time>
      </trkpt>
      <trkpt lat="45.35364" lon="5.88268">
        <ele>1716.2</ele>
        <time>2011-11-15T13:47:30Z</time>
      </trkpt>
      <trkpt lat="45.35369" lon="5.88271">
        <ele>1715.8</ele>
        <time>2011-11-15T13:47:34Z</time>
      </trkpt>
      <trkpt lat="45.35371" lon="5.88273">
        <ele>1715.8</ele>
        <time>2011-11-15T13:47:35Z</time>
      </trkpt>
      <trkpt lat="45.35374" lon="5.88274">
        <ele>1715.6</ele>
        <time>2011-11-15T13:47:37Z</time>
      </trkpt>
      <trkpt lat="45.35379" lon="5.88272">
        <ele>1715.4</ele>
        <time>2011-11-15T13:47:38Z</time>
      </trkpt>
      <trkpt lat="45.35389" lon="5.88266">
        <ele>1714.8</ele>
        <time>2011-11-15T13:47:43Z</time>
      </trkpt>
      <trkpt lat="45.35406" lon="5.88263">
        <ele>1714</ele>
        <time>2011-11-15T13:47:48Z</time>
      </trkpt>
      <trkpt lat="45.35406" lon="5.88263">
        <ele>1713.8</ele>
        <time>2011-11-15T13:47:49Z</time>
      </trkpt>
      <trkpt lat="45.35417" lon="5.88269">
        <ele>1713.2</ele>
        <time>2011-11-15T13:47:53Z</time>
      </trkpt>
      <trkpt lat="45.35425" lon="5.88275">
        <ele>1712.6</ele>
        <time>2011-11-15T13:47:57Z</time>
      </trkpt>
      <trkpt lat="45.35429" lon="5.88279">
        <ele>1712.6</ele>
        <time>2011-11-15T13:47:58Z</time>
      </trkpt>
      <trkpt lat="45.35439" lon="5.88287">
        <ele>1711.8</ele>
        <time>2011-11-15T13:48:03Z</time>
      </trkpt>
      <trkpt lat="45.35441" lon="5.88289">
        <ele>1711.8</ele>
        <time>2011-11-15T13:48:04Z</time>
      </trkpt>
      <trkpt lat="45.35443" lon="5.88292">
        <ele>1711.4</ele>
        <time>2011-11-15T13:48:06Z</time>
      </trkpt>
      <trkpt lat="45.35443" lon="5.88292">
        <ele>1711.4</ele>
        <time>2011-11-15T13:48:07Z</time>
      </trkpt>
      <trkpt lat="45.35453" lon="5.88299">
        <ele>1710.6</ele>
        <time>2011-11-15T13:48:12Z</time>
      </trkpt>
      <trkpt lat="45.35455" lon="5.88298">
        <ele>1710.4</ele>
        <time>2011-11-15T13:48:13Z</time>
      </trkpt>
      <trkpt lat="45.35461" lon="5.88299">
        <ele>1709.8</ele>
        <time>2011-11-15T13:48:16Z</time>
      </trkpt>
      <trkpt lat="45.35467" lon="5.8831">
        <ele>1709</ele>
        <time>2011-11-15T13:48:21Z</time>
      </trkpt>
      <trkpt lat="45.35476" lon="5.88316">
        <ele>1708</ele>
        <time>2011-11-15T13:48:25Z</time>
      </trkpt>
      <trkpt lat="45.35479" lon="5.88319">
        <ele>1707.8</ele>
        <time>2011-11-15T13:48:26Z</time>
      </trkpt>
      <trkpt lat="45.35488" lon="5.8833">
        <ele>1707.2</ele>
        <time>2011-11-15T13:48:30Z</time>
      </trkpt>
      <trkpt lat="45.3549" lon="5.88332">
        <ele>1707</ele>
        <time>2011-11-15T13:48:31Z</time>
      </trkpt>
      <trkpt lat="45.35507" lon="5.88345">
        <ele>1705.6</ele>
        <time>2011-11-15T13:48:37Z</time>
      </trkpt>
      <trkpt lat="45.35521" lon="5.88357">
        <ele>1704.4</ele>
        <time>2011-11-15T13:48:43Z</time>
      </trkpt>
      <trkpt lat="45.35524" lon="5.88359">
        <ele>1704.2</ele>
        <time>2011-11-15T13:48:44Z</time>
      </trkpt>
      <trkpt lat="45.35535" lon="5.8837">
        <ele>1703.2</ele>
        <time>2011-11-15T13:48:49Z</time>
      </trkpt>
      <trkpt lat="45.35539" lon="5.88373">
        <ele>1702.8</ele>
        <time>2011-11-15T13:48:51Z</time>
      </trkpt>
      <trkpt lat="45.35545" lon="5.88378">
        <ele>1702</ele>
        <time>2011-11-15T13:48:55Z</time>
      </trkpt>
      <trkpt lat="45.35556" lon="5.88383">
        <ele>1701.4</ele>
        <time>2011-11-15T13:48:58Z</time>
      </trkpt>
      <trkpt lat="45.35559" lon="5.88388">
        <ele>1701</ele>
        <time>2011-11-15T13:49:00Z</time>
      </trkpt>
      <trkpt lat="45.35566" lon="5.88396">
        <ele>1700.2</ele>
        <time>2011-11-15T13:49:04Z</time>
      </trkpt>
      <trkpt lat="45.35568" lon="5.88396">
        <ele>1700</ele>
        <time>2011-11-15T13:49:05Z</time>
      </trkpt>
      <trkpt lat="45.3557" lon="5.88397">
        <ele>1699.8</ele>
        <time>2011-11-15T13:49:06Z</time>
      </trkpt>
      <trkpt lat="45.35572" lon="5.88398">
        <ele>1699.6</ele>
        <time>2011-11-15T13:49:07Z</time>
      </trkpt>
      <trkpt lat="45.35575" lon="5.88403">
        <ele>1699.2</ele>
        <time>2011-11-15T13:49:09Z</time>
      </trkpt>
      <trkpt lat="45.35577" lon="5.88417">
        <ele>1698.4</ele>
        <time>2011-11-15T13:49:14Z</time>
      </trkpt>
      <trkpt lat="45.35578" lon="5.88419">
        <ele>1698.2</ele>
        <time>2011-11-15T13:49:15Z</time>
      </trkpt>
      <trkpt lat="45.3558" lon="5.88432">
        <ele>1697.6</ele>
        <time>2011-11-15T13:49:19Z</time>
      </trkpt>
      <trkpt lat="45.35581" lon="5.88444">
        <ele>1697</ele>
        <time>2011-11-15T13:49:23Z</time>
      </trkpt>
      <trkpt lat="45.35581" lon="5.88447">
        <ele>1696.8</ele>
        <time>2011-11-15T13:49:24Z</time>
      </trkpt>
      <trkpt lat="45.35584" lon="5.88457">
        <ele>1696.4</ele>
        <time>2011-11-15T13:49:27Z</time>
      </trkpt>
      <trkpt lat="45.35591" lon="5.8847">
        <ele>1695.8</ele>
        <time>2011-11-15T13:49:32Z</time>
      </trkpt>
      <trkpt lat="45.35592" lon="5.88472">
        <ele>1695.8</ele>
        <time>2011-11-15T13:49:33Z</time>
      </trkpt>
      <trkpt lat="45.35599" lon="5.88482">
        <ele>1695.2</ele>
        <time>2011-11-15T13:49:38Z</time>
      </trkpt>
      <trkpt lat="45.35603" lon="5.88491">
        <ele>1694.8</ele>
        <time>2011-11-15T13:49:42Z</time>
      </trkpt>
      <trkpt lat="45.35606" lon="5.88495">
        <ele>1694.8</ele>
        <time>2011-11-15T13:49:44Z</time>
      </trkpt>
      <trkpt lat="45.35611" lon="5.88505">
        <ele>1694.4</ele>
        <time>2011-11-15T13:49:49Z</time>
      </trkpt>
      <trkpt lat="45.35615" lon="5.88511">
        <ele>1694.2</ele>
        <time>2011-11-15T13:49:52Z</time>
      </trkpt>
      <trkpt lat="45.35619" lon="5.88515">
        <ele>1694.2</ele>
        <time>2011-11-15T13:49:54Z</time>
      </trkpt>
      <trkpt lat="45.35629" lon="5.88525">
        <ele>1694</ele>
        <time>2011-11-15T13:49:59Z</time>
      </trkpt>
      <trkpt lat="45.3563" lon="5.88528">
        <ele>1694</ele>
        <time>2011-11-15T13:50:00Z</time>
      </trkpt>
      <trkpt lat="45.35642" lon="5.88539">
        <ele>1693.8</ele>
        <time>2011-11-15T13:50:05Z</time>
      </trkpt>
      <trkpt lat="45.35646" lon="5.88545">
        <ele>1693.6</ele>
        <time>2011-11-15T13:50:08Z</time>
      </trkpt>
      <trkpt lat="45.3565" lon="5.88548">
        <ele>1693.6</ele>
        <time>2011-11-15T13:50:10Z</time>
      </trkpt>
      <trkpt lat="45.35651" lon="5.8855">
        <ele>1693.4</ele>
        <time>2011-11-15T13:50:11Z</time>
      </trkpt>
      <trkpt lat="45.35653" lon="5.88552">
        <ele>1693.4</ele>
        <time>2011-11-15T13:50:13Z</time>
      </trkpt>
      <trkpt lat="45.35654" lon="5.88553">
        <ele>1693.2</ele>
        <time>2011-11-15T13:50:15Z</time>
      </trkpt>
      <trkpt lat="45.35656" lon="5.88561">
        <ele>1693</ele>
        <time>2011-11-15T13:50:20Z</time>
      </trkpt>
      <trkpt lat="45.35657" lon="5.88567">
        <ele>1693</ele>
        <time>2011-11-15T13:50:22Z</time>
      </trkpt>
      <trkpt lat="45.35657" lon="5.88575">
        <ele>1692.8</ele>
        <time>2011-11-15T13:50:25Z</time>
      </trkpt>
      <trkpt lat="45.35662" lon="5.88582">
        <ele>1692.8</ele>
        <time>2011-11-15T13:50:29Z</time>
      </trkpt>
      <trkpt lat="45.35664" lon="5.88582">
        <ele>1692.8</ele>
        <time>2011-11-15T13:50:30Z</time>
      </trkpt>
      <trkpt lat="45.35668" lon="5.88583">
        <ele>1692.8</ele>
        <time>2011-11-15T13:50:32Z</time>
      </trkpt>
      <trkpt lat="45.35673" lon="5.88583">
        <ele>1692.6</ele>
        <time>2011-11-15T13:50:34Z</time>
      </trkpt>
      <trkpt lat="45.35684" lon="5.88586">
        <ele>1692.6</ele>
        <time>2011-11-15T13:50:39Z</time>
      </trkpt>
      <trkpt lat="45.35686" lon="5.88588">
        <ele>1692.6</ele>
        <time>2011-11-15T13:50:40Z</time>
      </trkpt>
      <trkpt lat="45.35693" lon="5.88599">
        <ele>1692.6</ele>
        <time>2011-11-15T13:50:45Z</time>
      </trkpt>
      <trkpt lat="45.35698" lon="5.88607">
        <ele>1692.6</ele>
        <time>2011-11-15T13:50:49Z</time>
      </trkpt>
      <trkpt lat="45.357" lon="5.88608">
        <ele>1692.6</ele>
        <time>2011-11-15T13:50:50Z</time>
      </trkpt>
      <trkpt lat="45.35702" lon="5.8861">
        <ele>1692.6</ele>
        <time>2011-11-15T13:50:52Z</time>
      </trkpt>
      <trkpt lat="45.35704" lon="5.88613">
        <ele>1692.6</ele>
        <time>2011-11-15T13:50:55Z</time>
      </trkpt>
      <trkpt lat="45.3571" lon="5.88624">
        <ele>1693</ele>
        <time>2011-11-15T13:51:01Z</time>
      </trkpt>
      <trkpt lat="45.3571" lon="5.88626">
        <ele>1693.2</ele>
        <time>2011-11-15T13:51:02Z</time>
      </trkpt>
      <trkpt lat="45.35707" lon="5.88636">
        <ele>1693.2</ele>
        <time>2011-11-15T13:51:07Z</time>
      </trkpt>
      <trkpt lat="45.35701" lon="5.88646">
        <ele>1693.4</ele>
        <time>2011-11-15T13:51:12Z</time>
      </trkpt>
      <trkpt lat="45.35701" lon="5.88649">
        <ele>1693.6</ele>
        <time>2011-11-15T13:51:13Z</time>
      </trkpt>
      <trkpt lat="45.35704" lon="5.88665">
        <ele>1694.2</ele>
        <time>2011-11-15T13:51:18Z</time>
      </trkpt>
      <trkpt lat="45.35705" lon="5.88675">
        <ele>1694.8</ele>
        <time>2011-11-15T13:51:21Z</time>
      </trkpt>
      <trkpt lat="45.35706" lon="5.88685">
        <ele>1695.2</ele>
        <time>2011-11-15T13:51:24Z</time>
      </trkpt>
      <trkpt lat="45.35707" lon="5.88701">
        <ele>1696.2</ele>
        <time>2011-11-15T13:51:29Z</time>
      </trkpt>
      <trkpt lat="45.35705" lon="5.8872">
        <ele>1697.2</ele>
        <time>2011-11-15T13:51:35Z</time>
      </trkpt>
      <trkpt lat="45.35705" lon="5.88727">
        <ele>1697.6</ele>
        <time>2011-11-15T13:51:37Z</time>
      </trkpt>
      <trkpt lat="45.35703" lon="5.88735">
        <ele>1697.8</ele>
        <time>2011-11-15T13:51:39Z</time>
      </trkpt>
      <trkpt lat="45.357" lon="5.88753">
        <ele>1698.6</ele>
        <time>2011-11-15T13:51:44Z</time>
      </trkpt>
      <trkpt lat="45.357" lon="5.88757">
        <ele>1698.8</ele>
        <time>2011-11-15T13:51:45Z</time>
      </trkpt>
      <trkpt lat="45.35698" lon="5.88775">
        <ele>1699.8</ele>
        <time>2011-11-15T13:51:51Z</time>
      </trkpt>
      <trkpt lat="45.35697" lon="5.88782">
        <ele>1700</ele>
        <time>2011-11-15T13:51:52Z</time>
      </trkpt>
      <trkpt lat="45.35695" lon="5.88794">
        <ele>1701</ele>
        <time>2011-11-15T13:51:57Z</time>
      </trkpt>
      <trkpt lat="45.35693" lon="5.88807">
        <ele>1701.6</ele>
        <time>2011-11-15T13:52:00Z</time>
      </trkpt>
      <trkpt lat="45.35693" lon="5.88816">
        <ele>1702.2</ele>
        <time>2011-11-15T13:52:03Z</time>
      </trkpt>
      <trkpt lat="45.35698" lon="5.88829">
        <ele>1703</ele>
        <time>2011-11-15T13:52:08Z</time>
      </trkpt>
      <trkpt lat="45.35699" lon="5.88832">
        <ele>1703.2</ele>
        <time>2011-11-15T13:52:09Z</time>
      </trkpt>
      <trkpt lat="45.35703" lon="5.88844">
        <ele>1704</ele>
        <time>2011-11-15T13:52:13Z</time>
      </trkpt>
      <trkpt lat="45.35707" lon="5.88856">
        <ele>1704.8</ele>
        <time>2011-11-15T13:52:17Z</time>
      </trkpt>
      <trkpt lat="45.35708" lon="5.88859">
        <ele>1704.8</ele>
        <time>2011-11-15T13:52:18Z</time>
      </trkpt>
      <trkpt lat="45.35711" lon="5.8888">
        <ele>1706</ele>
        <time>2011-11-15T13:52:24Z</time>
      </trkpt>
      <trkpt lat="45.35712" lon="5.88883">
        <ele>1706.2</ele>
        <time>2011-11-15T13:52:25Z</time>
      </trkpt>
      <trkpt lat="45.35718" lon="5.88898">
        <ele>1707</ele>
        <time>2011-11-15T13:52:30Z</time>
      </trkpt>
      <trkpt lat="45.35721" lon="5.88903">
        <ele>1707.6</ele>
        <time>2011-11-15T13:52:33Z</time>
      </trkpt>
      <trkpt lat="45.35725" lon="5.88914">
        <ele>1708</ele>
        <time>2011-11-15T13:52:36Z</time>
      </trkpt>
      <trkpt lat="45.35731" lon="5.88931">
        <ele>1709.2</ele>
        <time>2011-11-15T13:52:42Z</time>
      </trkpt>
      <trkpt lat="45.35734" lon="5.88949">
        <ele>1710</ele>
        <time>2011-11-15T13:52:47Z</time>
      </trkpt>
      <trkpt lat="45.35734" lon="5.8896">
        <ele>1710.6</ele>
        <time>2011-11-15T13:52:50Z</time>
      </trkpt>
      <trkpt lat="45.35735" lon="5.88963">
        <ele>1710.8</ele>
        <time>2011-11-15T13:52:51Z</time>
      </trkpt>
      <trkpt lat="45.35735" lon="5.8898">
        <ele>1711.8</ele>
        <time>2011-11-15T13:52:57Z</time>
      </trkpt>
      <trkpt lat="45.35735" lon="5.88987">
        <ele>1712</ele>
        <time>2011-11-15T13:52:58Z</time>
      </trkpt>
      <trkpt lat="45.3574" lon="5.89001">
        <ele>1712.6</ele>
        <time>2011-11-15T13:53:02Z</time>
      </trkpt>
      <trkpt lat="45.35742" lon="5.89011">
        <ele>1713</ele>
        <time>2011-11-15T13:53:05Z</time>
      </trkpt>
      <trkpt lat="45.35744" lon="5.89018">
        <ele>1713.4</ele>
        <time>2011-11-15T13:53:07Z</time>
      </trkpt>
      <trkpt lat="45.35749" lon="5.89032">
        <ele>1714</ele>
        <time>2011-11-15T13:53:12Z</time>
      </trkpt>
      <trkpt lat="45.3575" lon="5.89035">
        <ele>1714.2</ele>
        <time>2011-11-15T13:53:13Z</time>
      </trkpt>
      <trkpt lat="45.35754" lon="5.89046">
        <ele>1715.2</ele>
        <time>2011-11-15T13:53:17Z</time>
      </trkpt>
      <trkpt lat="45.35755" lon="5.8906">
        <ele>1716</ele>
        <time>2011-11-15T13:53:21Z</time>
      </trkpt>
      <trkpt lat="45.35755" lon="5.8907">
        <ele>1716.4</ele>
        <time>2011-11-15T13:53:24Z</time>
      </trkpt>
      <trkpt lat="45.35758" lon="5.89085">
        <ele>1717.2</ele>
        <time>2011-11-15T13:53:29Z</time>
      </trkpt>
      <trkpt lat="45.35759" lon="5.89088">
        <ele>1717.4</ele>
        <time>2011-11-15T13:53:30Z</time>
      </trkpt>
      <trkpt lat="45.35765" lon="5.89103">
        <ele>1718.4</ele>
        <time>2011-11-15T13:53:36Z</time>
      </trkpt>
      <trkpt lat="45.35767" lon="5.8911">
        <ele>1718.8</ele>
        <time>2011-11-15T13:53:39Z</time>
      </trkpt>
      <trkpt lat="45.35769" lon="5.89121">
        <ele>1719.8</ele>
        <time>2011-11-15T13:53:43Z</time>
      </trkpt>
      <trkpt lat="45.35774" lon="5.89134">
        <ele>1720.8</ele>
        <time>2011-11-15T13:53:48Z</time>
      </trkpt>
      <trkpt lat="45.35778" lon="5.8915">
        <ele>1722.4</ele>
        <time>2011-11-15T13:53:54Z</time>
      </trkpt>
      <trkpt lat="45.35779" lon="5.8916">
        <ele>1723.6</ele>
        <time>2011-11-15T13:53:59Z</time>
      </trkpt>
      <trkpt lat="45.35779" lon="5.89163">
        <ele>1724.2</ele>
        <time>2011-11-15T13:54:01Z</time>
      </trkpt>
      <trkpt lat="45.35776" lon="5.8917">
        <ele>1725.4</ele>
        <time>2011-11-15T13:54:06Z</time>
      </trkpt>
      <trkpt lat="45.35777" lon="5.89172">
        <ele>1725.8</ele>
        <time>2011-11-15T13:54:08Z</time>
      </trkpt>
      <trkpt lat="45.3578" lon="5.89183">
        <ele>1727.4</ele>
        <time>2011-11-15T13:54:15Z</time>
      </trkpt>
      <trkpt lat="45.35781" lon="5.89186">
        <ele>1727.6</ele>
        <time>2011-11-15T13:54:16Z</time>
      </trkpt>
      <trkpt lat="45.35784" lon="5.892">
        <ele>1728.8</ele>
        <time>2011-11-15T13:54:21Z</time>
      </trkpt>
      <trkpt lat="45.35786" lon="5.89209">
        <ele>1729.4</ele>
        <time>2011-11-15T13:54:24Z</time>
      </trkpt>
      <trkpt lat="45.35788" lon="5.89218">
        <ele>1730.2</ele>
        <time>2011-11-15T13:54:27Z</time>
      </trkpt>
      <trkpt lat="45.35789" lon="5.89236">
        <ele>1731.6</ele>
        <time>2011-11-15T13:54:33Z</time>
      </trkpt>
      <trkpt lat="45.35791" lon="5.8925">
        <ele>1733</ele>
        <time>2011-11-15T13:54:38Z</time>
      </trkpt>
      <trkpt lat="45.35793" lon="5.89263">
        <ele>1734.2</ele>
        <time>2011-11-15T13:54:43Z</time>
      </trkpt>
      <trkpt lat="45.35796" lon="5.89275">
        <ele>1735.2</ele>
        <time>2011-11-15T13:54:48Z</time>
      </trkpt>
      <trkpt lat="45.35796" lon="5.89277">
        <ele>1735.2</ele>
        <time>2011-11-15T13:54:49Z</time>
      </trkpt>
      <trkpt lat="45.35798" lon="5.89281">
        <ele>1736</ele>
        <time>2011-11-15T13:54:52Z</time>
      </trkpt>
      <trkpt lat="45.35799" lon="5.89286">
        <ele>1736.6</ele>
        <time>2011-11-15T13:54:55Z</time>
      </trkpt>
      <trkpt lat="45.35799" lon="5.89288">
        <ele>1736.6</ele>
        <time>2011-11-15T13:54:56Z</time>
      </trkpt>
      <trkpt lat="45.358" lon="5.89301">
        <ele>1738</ele>
        <time>2011-11-15T13:55:04Z</time>
      </trkpt>
      <trkpt lat="45.358" lon="5.89302">
        <ele>1738.2</ele>
        <time>2011-11-15T13:55:05Z</time>
      </trkpt>
      <trkpt lat="45.358" lon="5.89308">
        <ele>1739.2</ele>
        <time>2011-11-15T13:55:10Z</time>
      </trkpt>
      <trkpt lat="45.35802" lon="5.89314">
        <ele>1740.2</ele>
        <time>2011-11-15T13:55:15Z</time>
      </trkpt>
      <trkpt lat="45.35803" lon="5.89319">
        <ele>1740.8</ele>
        <time>2011-11-15T13:55:18Z</time>
      </trkpt>
      <trkpt lat="45.35805" lon="5.89329">
        <ele>1742</ele>
        <time>2011-11-15T13:55:24Z</time>
      </trkpt>
      <trkpt lat="45.35806" lon="5.8934">
        <ele>1743.4</ele>
        <time>2011-11-15T13:55:30Z</time>
      </trkpt>
      <trkpt lat="45.35805" lon="5.89352">
        <ele>1745</ele>
        <time>2011-11-15T13:55:37Z</time>
      </trkpt>
      <trkpt lat="45.35805" lon="5.89362">
        <ele>1746.4</ele>
        <time>2011-11-15T13:55:44Z</time>
      </trkpt>
      <trkpt lat="45.35805" lon="5.89363">
        <ele>1746.8</ele>
        <time>2011-11-15T13:55:45Z</time>
      </trkpt>
      <trkpt lat="45.35805" lon="5.89366">
        <ele>1747.2</ele>
        <time>2011-11-15T13:55:47Z</time>
      </trkpt>
      <trkpt lat="45.35806" lon="5.89369">
        <ele>1747.6</ele>
        <time>2011-11-15T13:55:49Z</time>
      </trkpt>
      <trkpt lat="45.35807" lon="5.89382">
        <ele>1750</ele>
        <time>2011-11-15T13:55:58Z</time>
      </trkpt>
      <trkpt lat="45.35807" lon="5.89392">
        <ele>1751.6</ele>
        <time>2011-11-15T13:56:04Z</time>
      </trkpt>
      <trkpt lat="45.35808" lon="5.89394">
        <ele>1752</ele>
        <time>2011-11-15T13:56:05Z</time>
      </trkpt>
      <trkpt lat="45.35809" lon="5.89405">
        <ele>1754.2</ele>
        <time>2011-11-15T13:56:12Z</time>
      </trkpt>
      <trkpt lat="45.35807" lon="5.89417">
        <ele>1756.6</ele>
        <time>2011-11-15T13:56:20Z</time>
      </trkpt>
      <trkpt lat="45.35807" lon="5.89421">
        <ele>1757.2</ele>
        <time>2011-11-15T13:56:22Z</time>
      </trkpt>
      <trkpt lat="45.35805" lon="5.89431">
        <ele>1759.4</ele>
        <time>2011-11-15T13:56:29Z</time>
      </trkpt>
      <trkpt lat="45.35804" lon="5.89439">
        <ele>1761.4</ele>
        <time>2011-11-15T13:56:34Z</time>
      </trkpt>
      <trkpt lat="45.35805" lon="5.89443">
        <ele>1762.6</ele>
        <time>2011-11-15T13:56:37Z</time>
      </trkpt>
      <trkpt lat="45.35805" lon="5.89456">
        <ele>1765.2</ele>
        <time>2011-11-15T13:56:44Z</time>
      </trkpt>
      <trkpt lat="45.35805" lon="5.89458">
        <ele>1765.6</ele>
        <time>2011-11-15T13:56:45Z</time>
      </trkpt>
      <trkpt lat="45.35803" lon="5.89469">
        <ele>1768</ele>
        <time>2011-11-15T13:56:53Z</time>
      </trkpt>
      <trkpt lat="45.35801" lon="5.89477">
        <ele>1770.2</ele>
        <time>2011-11-15T13:57:01Z</time>
      </trkpt>
      <trkpt lat="45.35801" lon="5.89478">
        <ele>1770.6</ele>
        <time>2011-11-15T13:57:02Z</time>
      </trkpt>
      <trkpt lat="45.35802" lon="5.89483">
        <ele>1771.4</ele>
        <time>2011-11-15T13:57:06Z</time>
      </trkpt>
      <trkpt lat="45.35804" lon="5.8949">
        <ele>1773.2</ele>
        <time>2011-11-15T13:57:12Z</time>
      </trkpt>
      <trkpt lat="45.35804" lon="5.89491">
        <ele>1773.6</ele>
        <time>2011-11-15T13:57:13Z</time>
      </trkpt>
      <trkpt lat="45.35803" lon="5.89492">
        <ele>1774</ele>
        <time>2011-11-15T13:57:15Z</time>
      </trkpt>
      <trkpt lat="45.35801" lon="5.89494">
        <ele>1774.6</ele>
        <time>2011-11-15T13:57:17Z</time>
      </trkpt>
      <trkpt lat="45.358" lon="5.89501">
        <ele>1776.8</ele>
        <time>2011-11-15T13:57:25Z</time>
      </trkpt>
      <trkpt lat="45.35801" lon="5.89509">
        <ele>1778.8</ele>
        <time>2011-11-15T13:57:32Z</time>
      </trkpt>
      <trkpt lat="45.35803" lon="5.89514">
        <ele>1779.8</ele>
        <time>2011-11-15T13:57:36Z</time>
      </trkpt>
      <trkpt lat="45.35802" lon="5.89516">
        <ele>1780.4</ele>
        <time>2011-11-15T13:57:38Z</time>
      </trkpt>
      <trkpt lat="45.35802" lon="5.89517">
        <ele>1780.6</ele>
        <time>2011-11-15T13:57:39Z</time>
      </trkpt>
      <trkpt lat="45.35797" lon="5.89516">
        <ele>1781.8</ele>
        <time>2011-11-15T13:57:44Z</time>
      </trkpt>
      <trkpt lat="45.35796" lon="5.89516">
        <ele>1782.2</ele>
        <time>2011-11-15T13:57:45Z</time>
      </trkpt>
      <trkpt lat="45.35792" lon="5.89515">
        <ele>1783.4</ele>
        <time>2011-11-15T13:57:50Z</time>
      </trkpt>
      <trkpt lat="45.35791" lon="5.89516">
        <ele>1783.6</ele>
        <time>2011-11-15T13:57:51Z</time>
      </trkpt>
      <trkpt lat="45.35793" lon="5.89522">
        <ele>1785.6</ele>
        <time>2011-11-15T13:57:57Z</time>
      </trkpt>
      <trkpt lat="45.35794" lon="5.89523">
        <ele>1785.8</ele>
        <time>2011-11-15T13:57:58Z</time>
      </trkpt>
      <trkpt lat="45.35796" lon="5.89529">
        <ele>1787</ele>
        <time>2011-11-15T13:58:02Z</time>
      </trkpt>
      <trkpt lat="45.35796" lon="5.89532">
        <ele>1787.6</ele>
        <time>2011-11-15T13:58:04Z</time>
      </trkpt>
      <trkpt lat="45.35798" lon="5.89541">
        <ele>1789.8</ele>
        <time>2011-11-15T13:58:11Z</time>
      </trkpt>
      <trkpt lat="45.358" lon="5.89549">
        <ele>1791</ele>
        <time>2011-11-15T13:58:16Z</time>
      </trkpt>
      <trkpt lat="45.35802" lon="5.89553">
        <ele>1791.6</ele>
        <time>2011-11-15T13:58:19Z</time>
      </trkpt>
      <trkpt lat="45.35805" lon="5.89562">
        <ele>1793</ele>
        <time>2011-11-15T13:58:25Z</time>
      </trkpt>
      <trkpt lat="45.35807" lon="5.89565">
        <ele>1794</ele>
        <time>2011-11-15T13:58:28Z</time>
      </trkpt>
      <trkpt lat="45.35809" lon="5.8957">
        <ele>1795.2</ele>
        <time>2011-11-15T13:58:32Z</time>
      </trkpt>
      <trkpt lat="45.3581" lon="5.89571">
        <ele>1795.8</ele>
        <time>2011-11-15T13:58:33Z</time>
      </trkpt>
      <trkpt lat="45.35811" lon="5.89572">
        <ele>1796.2</ele>
        <time>2011-11-15T13:58:34Z</time>
      </trkpt>
      <trkpt lat="45.35813" lon="5.89577">
        <ele>1797.8</ele>
        <time>2011-11-15T13:58:39Z</time>
      </trkpt>
      <trkpt lat="45.35814" lon="5.8958">
        <ele>1798.8</ele>
        <time>2011-11-15T13:58:42Z</time>
      </trkpt>
      <trkpt lat="45.35814" lon="5.89583">
        <ele>1799.2</ele>
        <time>2011-11-15T13:58:44Z</time>
      </trkpt>
      <trkpt lat="45.35813" lon="5.89584">
        <ele>1799.6</ele>
        <time>2011-11-15T13:58:46Z</time>
      </trkpt>
      <trkpt lat="45.35813" lon="5.89588">
        <ele>1800.4</ele>
        <time>2011-11-15T13:58:49Z</time>
      </trkpt>
      <trkpt lat="45.35813" lon="5.89595">
        <ele>1802.2</ele>
        <time>2011-11-15T13:58:55Z</time>
      </trkpt>
      <trkpt lat="45.35812" lon="5.89596">
        <ele>1802.6</ele>
        <time>2011-11-15T13:58:56Z</time>
      </trkpt>
      <trkpt lat="45.35811" lon="5.89602">
        <ele>1804.8</ele>
        <time>2011-11-15T13:59:03Z</time>
      </trkpt>
      <trkpt lat="45.35813" lon="5.89606">
        <ele>1807</ele>
        <time>2011-11-15T13:59:09Z</time>
      </trkpt>
      <trkpt lat="45.35816" lon="5.89614">
        <ele>1809.4</ele>
        <time>2011-11-15T13:59:15Z</time>
      </trkpt>
      <trkpt lat="45.35816" lon="5.89617">
        <ele>1811</ele>
        <time>2011-11-15T13:59:18Z</time>
      </trkpt>
      <trkpt lat="45.35817" lon="5.89618">
        <ele>1811.4</ele>
        <time>2011-11-15T13:59:19Z</time>
      </trkpt>
      <trkpt lat="45.35819" lon="5.89621">
        <ele>1812.8</ele>
        <time>2011-11-15T13:59:22Z</time>
      </trkpt>
      <trkpt lat="45.35821" lon="5.8963">
        <ele>1815.8</ele>
        <time>2011-11-15T13:59:29Z</time>
      </trkpt>
      <trkpt lat="45.35822" lon="5.89633">
        <ele>1817.4</ele>
        <time>2011-11-15T13:59:33Z</time>
      </trkpt>
      <trkpt lat="45.35823" lon="5.89635">
        <ele>1817.8</ele>
        <time>2011-11-15T13:59:34Z</time>
      </trkpt>
      <trkpt lat="45.35823" lon="5.89636">
        <ele>1818.2</ele>
        <time>2011-11-15T13:59:35Z</time>
      </trkpt>
      <trkpt lat="45.35823" lon="5.89641">
        <ele>1819.4</ele>
        <time>2011-11-15T13:59:39Z</time>
      </trkpt>
      <trkpt lat="45.35824" lon="5.89644">
        <ele>1820.6</ele>
        <time>2011-11-15T13:59:42Z</time>
      </trkpt>
      <trkpt lat="45.35826" lon="5.89649">
        <ele>1821.6</ele>
        <time>2011-11-15T13:59:46Z</time>
      </trkpt>
      <trkpt lat="45.35825" lon="5.89653">
        <ele>1822.2</ele>
        <time>2011-11-15T13:59:49Z</time>
      </trkpt>
      <trkpt lat="45.35824" lon="5.89654">
        <ele>1822.6</ele>
        <time>2011-11-15T13:59:51Z</time>
      </trkpt>
      <trkpt lat="45.35824" lon="5.89656">
        <ele>1822.8</ele>
        <time>2011-11-15T13:59:52Z</time>
      </trkpt>
      <trkpt lat="45.35829" lon="5.89663">
        <ele>1823.6</ele>
        <time>2011-11-15T13:59:58Z</time>
      </trkpt>
      <trkpt lat="45.3583" lon="5.89664">
        <ele>1823.8</ele>
        <time>2011-11-15T13:59:59Z</time>
      </trkpt>
      <trkpt lat="45.35833" lon="5.8967">
        <ele>1824.6</ele>
        <time>2011-11-15T14:00:04Z</time>
      </trkpt>
      <trkpt lat="45.35834" lon="5.89673">
        <ele>1825</ele>
        <time>2011-11-15T14:00:06Z</time>
      </trkpt>
      <trkpt lat="45.35833" lon="5.89675">
        <ele>1825.4</ele>
        <time>2011-11-15T14:00:10Z</time>
      </trkpt>
      <trkpt lat="45.35837" lon="5.8968">
        <ele>1826.2</ele>
        <time>2011-11-15T14:00:14Z</time>
      </trkpt>
      <trkpt lat="45.35838" lon="5.89681">
        <ele>1826.6</ele>
        <time>2011-11-15T14:00:16Z</time>
      </trkpt>
      <trkpt lat="45.35837" lon="5.89683">
        <ele>1826.8</ele>
        <time>2011-11-15T14:00:17Z</time>
      </trkpt>
      <trkpt lat="45.35837" lon="5.89684">
        <ele>1827</ele>
        <time>2011-11-15T14:00:18Z</time>
      </trkpt>
      <trkpt lat="45.35836" lon="5.89686">
        <ele>1827.6</ele>
        <time>2011-11-15T14:00:22Z</time>
      </trkpt>
      <trkpt lat="45.35834" lon="5.89689">
        <ele>1828.8</ele>
        <time>2011-11-15T14:00:28Z</time>
      </trkpt>
      <trkpt lat="45.3583" lon="5.89689">
        <ele>1829.6</ele>
        <time>2011-11-15T14:00:33Z</time>
      </trkpt>
      <trkpt lat="45.35823" lon="5.89687">
        <ele>1830.2</ele>
        <time>2011-11-15T14:00:35Z</time>
      </trkpt>
      <trkpt lat="45.35821" lon="5.89687">
        <ele>1830.4</ele>
        <time>2011-11-15T14:00:36Z</time>
      </trkpt>
      <trkpt lat="45.3582" lon="5.89687">
        <ele>1830.8</ele>
        <time>2011-11-15T14:00:37Z</time>
      </trkpt>
      <trkpt lat="45.35813" lon="5.89687">
        <ele>1832.6</ele>
        <time>2011-11-15T14:00:43Z</time>
      </trkpt>
      <trkpt lat="45.35813" lon="5.89686">
        <ele>1834.6</ele>
        <time>2011-11-15T14:00:49Z</time>
      </trkpt>
      <trkpt lat="45.35815" lon="5.89685">
        <ele>1835.2</ele>
        <time>2011-11-15T14:00:51Z</time>
      </trkpt>
      <trkpt lat="45.35818" lon="5.89687">
        <ele>1836.2</ele>
        <time>2011-11-15T14:00:55Z</time>
      </trkpt>
      <trkpt lat="45.35816" lon="5.89686">
        <ele>1839.8</ele>
        <time>2011-11-15T14:01:16Z</time>
      </trkpt>
      <trkpt lat="45.35816" lon="5.89688">
        <ele>1840.2</ele>
        <time>2011-11-15T14:01:19Z</time>
      </trkpt>
      <trkpt lat="45.35814" lon="5.89689">
        <ele>1840.4</ele>
        <time>2011-11-15T14:01:21Z</time>
      </trkpt>
      <trkpt lat="45.35811" lon="5.89692">
        <ele>1840.8</ele>
        <time>2011-11-15T14:01:27Z</time>
      </trkpt>
      <trkpt lat="45.3581" lon="5.89693">
        <ele>1840.8</ele>
        <time>2011-11-15T14:01:28Z</time>
      </trkpt>
      <trkpt lat="45.35812" lon="5.897">
        <ele>1840.6</ele>
        <time>2011-11-15T14:01:31Z</time>
      </trkpt>
      <trkpt lat="45.35812" lon="5.8971">
        <ele>1840.4</ele>
        <time>2011-11-15T14:01:35Z</time>
      </trkpt>
      <trkpt lat="45.35813" lon="5.89713">
        <ele>1840.4</ele>
        <time>2011-11-15T14:01:36Z</time>
      </trkpt>
      <trkpt lat="45.35812" lon="5.89719">
        <ele>1840</ele>
        <time>2011-11-15T14:01:39Z</time>
      </trkpt>
      <trkpt lat="45.35812" lon="5.89723">
        <ele>1839.8</ele>
        <time>2011-11-15T14:01:41Z</time>
      </trkpt>
      <trkpt lat="45.35811" lon="5.89726">
        <ele>1839.8</ele>
        <time>2011-11-15T14:01:42Z</time>
      </trkpt>
      <trkpt lat="45.35809" lon="5.89729">
        <ele>1839.4</ele>
        <time>2011-11-15T14:01:45Z</time>
      </trkpt>
      <trkpt lat="45.35809" lon="5.89733">
        <ele>1839.2</ele>
        <time>2011-11-15T14:01:47Z</time>
      </trkpt>
      <trkpt lat="45.3581" lon="5.89738">
        <ele>1838.8</ele>
        <time>2011-11-15T14:01:49Z</time>
      </trkpt>
      <trkpt lat="45.35812" lon="5.89738">
        <ele>1838.2</ele>
        <time>2011-11-15T14:01:53Z</time>
      </trkpt>
      <trkpt lat="45.3582" lon="5.89731">
        <ele>1837.4</ele>
        <time>2011-11-15T14:01:58Z</time>
      </trkpt>
      <trkpt lat="45.35827" lon="5.89735">
        <ele>1836.8</ele>
        <time>2011-11-15T14:02:02Z</time>
      </trkpt>
      <trkpt lat="45.35828" lon="5.89743">
        <ele>1835.8</ele>
        <time>2011-11-15T14:02:06Z</time>
      </trkpt>
      <trkpt lat="45.35826" lon="5.89751">
        <ele>1835</ele>
        <time>2011-11-15T14:02:09Z</time>
      </trkpt>
      <trkpt lat="45.35824" lon="5.8975">
        <ele>1834.8</ele>
        <time>2011-11-15T14:02:10Z</time>
      </trkpt>
      <trkpt lat="45.35813" lon="5.89745">
        <ele>1833.4</ele>
        <time>2011-11-15T14:02:14Z</time>
      </trkpt>
      <trkpt lat="45.35808" lon="5.8975">
        <ele>1833</ele>
        <time>2011-11-15T14:02:16Z</time>
      </trkpt>
      <trkpt lat="45.35806" lon="5.89757">
        <ele>1832.4</ele>
        <time>2011-11-15T14:02:18Z</time>
      </trkpt>
      <trkpt lat="45.358" lon="5.89767">
        <ele>1831.2</ele>
        <time>2011-11-15T14:02:22Z</time>
      </trkpt>
      <trkpt lat="45.35796" lon="5.89771">
        <ele>1830.4</ele>
        <time>2011-11-15T14:02:25Z</time>
      </trkpt>
      <trkpt lat="45.35794" lon="5.89773">
        <ele>1829.8</ele>
        <time>2011-11-15T14:02:27Z</time>
      </trkpt>
      <trkpt lat="45.35794" lon="5.89773">
        <ele>1829.8</ele>
        <time>2011-11-15T14:02:27Z</time>
      </trkpt>
      <trkpt lat="45.35789" lon="5.89786">
        <ele>1828.6</ele>
        <time>2011-11-15T14:02:32Z</time>
      </trkpt>
      <trkpt lat="45.35783" lon="5.89792">
        <ele>1828</ele>
        <time>2011-11-15T14:02:35Z</time>
      </trkpt>
      <trkpt lat="45.35781" lon="5.89794">
        <ele>1827.8</ele>
        <time>2011-11-15T14:02:36Z</time>
      </trkpt>
      <trkpt lat="45.35779" lon="5.89795">
        <ele>1827.6</ele>
        <time>2011-11-15T14:02:37Z</time>
      </trkpt>
      <trkpt lat="45.3577" lon="5.89799">
        <ele>1827</ele>
        <time>2011-11-15T14:02:41Z</time>
      </trkpt>
      <trkpt lat="45.35765" lon="5.89799">
        <ele>1826.6</ele>
        <time>2011-11-15T14:02:44Z</time>
      </trkpt>
      <trkpt lat="45.35761" lon="5.89797">
        <ele>1826.6</ele>
        <time>2011-11-15T14:02:46Z</time>
      </trkpt>
      <trkpt lat="45.35748" lon="5.89788">
        <ele>1826</ele>
        <time>2011-11-15T14:02:51Z</time>
      </trkpt>
      <trkpt lat="45.35745" lon="5.89785">
        <ele>1826</ele>
        <time>2011-11-15T14:02:52Z</time>
      </trkpt>
      <trkpt lat="45.35733" lon="5.89773">
        <ele>1825.6</ele>
        <time>2011-11-15T14:02:57Z</time>
      </trkpt>
      <trkpt lat="45.35733" lon="5.89768">
        <ele>1825.4</ele>
        <time>2011-11-15T14:02:58Z</time>
      </trkpt>
      <trkpt lat="45.35733" lon="5.89751">
        <ele>1824.8</ele>
        <time>2011-11-15T14:03:03Z</time>
      </trkpt>
      <trkpt lat="45.35734" lon="5.89745">
        <ele>1824.6</ele>
        <time>2011-11-15T14:03:05Z</time>
      </trkpt>
      <trkpt lat="45.35735" lon="5.89733">
        <ele>1824.2</ele>
        <time>2011-11-15T14:03:08Z</time>
      </trkpt>
      <trkpt lat="45.35738" lon="5.89721">
        <ele>1823.6</ele>
        <time>2011-11-15T14:03:12Z</time>
      </trkpt>
      <trkpt lat="45.35738" lon="5.89717">
        <ele>1823.4</ele>
        <time>2011-11-15T14:03:13Z</time>
      </trkpt>
      <trkpt lat="45.35741" lon="5.89703">
        <ele>1822.8</ele>
        <time>2011-11-15T14:03:17Z</time>
      </trkpt>
      <trkpt lat="45.35744" lon="5.89693">
        <ele>1822.4</ele>
        <time>2011-11-15T14:03:20Z</time>
      </trkpt>
      <trkpt lat="45.35745" lon="5.8969">
        <ele>1822.2</ele>
        <time>2011-11-15T14:03:21Z</time>
      </trkpt>
      <trkpt lat="45.35744" lon="5.89672">
        <ele>1821.4</ele>
        <time>2011-11-15T14:03:26Z</time>
      </trkpt>
      <trkpt lat="45.35743" lon="5.89664">
        <ele>1821.2</ele>
        <time>2011-11-15T14:03:28Z</time>
      </trkpt>
      <trkpt lat="45.35743" lon="5.89648">
        <ele>1820.4</ele>
        <time>2011-11-15T14:03:32Z</time>
      </trkpt>
      <trkpt lat="45.35741" lon="5.89638">
        <ele>1819.8</ele>
        <time>2011-11-15T14:03:35Z</time>
      </trkpt>
      <trkpt lat="45.3574" lon="5.89631">
        <ele>1819.4</ele>
        <time>2011-11-15T14:03:37Z</time>
      </trkpt>
      <trkpt lat="45.35736" lon="5.89614">
        <ele>1818.4</ele>
        <time>2011-11-15T14:03:42Z</time>
      </trkpt>
      <trkpt lat="45.35736" lon="5.89611">
        <ele>1818.2</ele>
        <time>2011-11-15T14:03:43Z</time>
      </trkpt>
      <trkpt lat="45.35731" lon="5.89603">
        <ele>1817.6</ele>
        <time>2011-11-15T14:03:46Z</time>
      </trkpt>
      <trkpt lat="45.3573" lon="5.896">
        <ele>1817.4</ele>
        <time>2011-11-15T14:03:47Z</time>
      </trkpt>
      <trkpt lat="45.35723" lon="5.8959">
        <ele>1816.6</ele>
        <time>2011-11-15T14:03:51Z</time>
      </trkpt>
      <trkpt lat="45.35713" lon="5.89571">
        <ele>1815</ele>
        <time>2011-11-15T14:03:58Z</time>
      </trkpt>
      <trkpt lat="45.35712" lon="5.89569">
        <ele>1814.8</ele>
        <time>2011-11-15T14:03:59Z</time>
      </trkpt>
      <trkpt lat="45.35705" lon="5.89562">
        <ele>1813.8</ele>
        <time>2011-11-15T14:04:03Z</time>
      </trkpt>
      <trkpt lat="45.35702" lon="5.89556">
        <ele>1813.4</ele>
        <time>2011-11-15T14:04:05Z</time>
      </trkpt>
      <trkpt lat="45.357" lon="5.89549">
        <ele>1813</ele>
        <time>2011-11-15T14:04:07Z</time>
      </trkpt>
      <trkpt lat="45.35698" lon="5.89537">
        <ele>1811.6</ele>
        <time>2011-11-15T14:04:12Z</time>
      </trkpt>
      <trkpt lat="45.357" lon="5.89543">
        <ele>1810.6</ele>
        <time>2011-11-15T14:04:16Z</time>
      </trkpt>
      <trkpt lat="45.357" lon="5.89551">
        <ele>1810</ele>
        <time>2011-11-15T14:04:18Z</time>
      </trkpt>
      <trkpt lat="45.35702" lon="5.89562">
        <ele>1809.6</ele>
        <time>2011-11-15T14:04:20Z</time>
      </trkpt>
      <trkpt lat="45.35705" lon="5.89573">
        <ele>1808.2</ele>
        <time>2011-11-15T14:04:25Z</time>
      </trkpt>
      <trkpt lat="45.35702" lon="5.89571">
        <ele>1807.8</ele>
        <time>2011-11-15T14:04:27Z</time>
      </trkpt>
      <trkpt lat="45.357" lon="5.89569">
        <ele>1807.4</ele>
        <time>2011-11-15T14:04:28Z</time>
      </trkpt>
      <trkpt lat="45.35692" lon="5.8956">
        <ele>1805.8</ele>
        <time>2011-11-15T14:04:34Z</time>
      </trkpt>
      <trkpt lat="45.35689" lon="5.89553">
        <ele>1804.6</ele>
        <time>2011-11-15T14:04:38Z</time>
      </trkpt>
      <trkpt lat="45.35687" lon="5.89553">
        <ele>1804.4</ele>
        <time>2011-11-15T14:04:39Z</time>
      </trkpt>
      <trkpt lat="45.35675" lon="5.89552">
        <ele>1802.6</ele>
        <time>2011-11-15T14:04:46Z</time>
      </trkpt>
      <trkpt lat="45.35673" lon="5.89554">
        <ele>1802</ele>
        <time>2011-11-15T14:04:48Z</time>
      </trkpt>
      <trkpt lat="45.35677" lon="5.89556">
        <ele>1801.4</ele>
        <time>2011-11-15T14:04:50Z</time>
      </trkpt>
      <trkpt lat="45.35686" lon="5.89559">
        <ele>1800</ele>
        <time>2011-11-15T14:04:54Z</time>
      </trkpt>
      <trkpt lat="45.35687" lon="5.89561">
        <ele>1799.6</ele>
        <time>2011-11-15T14:04:55Z</time>
      </trkpt>
      <trkpt lat="45.35688" lon="5.89561">
        <ele>1799.2</ele>
        <time>2011-11-15T14:04:56Z</time>
      </trkpt>
      <trkpt lat="45.35692" lon="5.89568">
        <ele>1798</ele>
        <time>2011-11-15T14:04:59Z</time>
      </trkpt>
      <trkpt lat="45.35693" lon="5.89573">
        <ele>1797.2</ele>
        <time>2011-11-15T14:05:01Z</time>
      </trkpt>
      <trkpt lat="45.35693" lon="5.89577">
        <ele>1796.4</ele>
        <time>2011-11-15T14:05:03Z</time>
      </trkpt>
      <trkpt lat="45.3569" lon="5.89577">
        <ele>1795.6</ele>
        <time>2011-11-15T14:05:05Z</time>
      </trkpt>
      <trkpt lat="45.35688" lon="5.89576">
        <ele>1795.2</ele>
        <time>2011-11-15T14:05:06Z</time>
      </trkpt>
      <trkpt lat="45.35687" lon="5.89575">
        <ele>1794.8</ele>
        <time>2011-11-15T14:05:07Z</time>
      </trkpt>
      <trkpt lat="45.35679" lon="5.89573">
        <ele>1792.6</ele>
        <time>2011-11-15T14:05:12Z</time>
      </trkpt>
      <trkpt lat="45.35678" lon="5.89573">
        <ele>1792.2</ele>
        <time>2011-11-15T14:05:13Z</time>
      </trkpt>
      <trkpt lat="45.35673" lon="5.8957">
        <ele>1791</ele>
        <time>2011-11-15T14:05:16Z</time>
      </trkpt>
      <trkpt lat="45.35668" lon="5.89566">
        <ele>1788.8</ele>
        <time>2011-11-15T14:05:21Z</time>
      </trkpt>
      <trkpt lat="45.35666" lon="5.89566">
        <ele>1788.6</ele>
        <time>2011-11-15T14:05:22Z</time>
      </trkpt>
      <trkpt lat="45.35661" lon="5.89565">
        <ele>1787.2</ele>
        <time>2011-11-15T14:05:25Z</time>
      </trkpt>
      <trkpt lat="45.35655" lon="5.89563">
        <ele>1786</ele>
        <time>2011-11-15T14:05:28Z</time>
      </trkpt>
      <trkpt lat="45.35648" lon="5.89562">
        <ele>1784</ele>
        <time>2011-11-15T14:05:33Z</time>
      </trkpt>
      <trkpt lat="45.35648" lon="5.89568">
        <ele>1782.8</ele>
        <time>2011-11-15T14:05:36Z</time>
      </trkpt>
      <trkpt lat="45.35652" lon="5.89569">
        <ele>1782</ele>
        <time>2011-11-15T14:05:38Z</time>
      </trkpt>
      <trkpt lat="45.35655" lon="5.89575">
        <ele>1781.2</ele>
        <time>2011-11-15T14:05:40Z</time>
      </trkpt>
      <trkpt lat="45.35657" lon="5.89579">
        <ele>1780</ele>
        <time>2011-11-15T14:05:43Z</time>
      </trkpt>
      <trkpt lat="45.35658" lon="5.89583">
        <ele>1778.8</ele>
        <time>2011-11-15T14:05:46Z</time>
      </trkpt>
      <trkpt lat="45.35659" lon="5.89584">
        <ele>1777.8</ele>
        <time>2011-11-15T14:05:48Z</time>
      </trkpt>
      <trkpt lat="45.35656" lon="5.89586">
        <ele>1776.8</ele>
        <time>2011-11-15T14:05:50Z</time>
      </trkpt>
      <trkpt lat="45.35649" lon="5.89583">
        <ele>1774.8</ele>
        <time>2011-11-15T14:05:54Z</time>
      </trkpt>
      <trkpt lat="45.35647" lon="5.89583">
        <ele>1774.4</ele>
        <time>2011-11-15T14:05:55Z</time>
      </trkpt>
      <trkpt lat="45.35638" lon="5.89582">
        <ele>1772</ele>
        <time>2011-11-15T14:06:00Z</time>
      </trkpt>
      <trkpt lat="45.35629" lon="5.89582">
        <ele>1769</ele>
        <time>2011-11-15T14:06:06Z</time>
      </trkpt>
      <trkpt lat="45.3563" lon="5.8959">
        <ele>1767.2</ele>
        <time>2011-11-15T14:06:10Z</time>
      </trkpt>
      <trkpt lat="45.35632" lon="5.89591">
        <ele>1766.8</ele>
        <time>2011-11-15T14:06:11Z</time>
      </trkpt>
      <trkpt lat="45.35634" lon="5.8959">
        <ele>1766.2</ele>
        <time>2011-11-15T14:06:12Z</time>
      </trkpt>
      <trkpt lat="45.35637" lon="5.8959">
        <ele>1765</ele>
        <time>2011-11-15T14:06:14Z</time>
      </trkpt>
      <trkpt lat="45.35642" lon="5.89601">
        <ele>1762.6</ele>
        <time>2011-11-15T14:06:19Z</time>
      </trkpt>
      <trkpt lat="45.35646" lon="5.8961">
        <ele>1761</ele>
        <time>2011-11-15T14:06:22Z</time>
      </trkpt>
      <trkpt lat="45.35649" lon="5.89615">
        <ele>1759.8</ele>
        <time>2011-11-15T14:06:24Z</time>
      </trkpt>
      <trkpt lat="45.35651" lon="5.89624">
        <ele>1757.6</ele>
        <time>2011-11-15T14:06:28Z</time>
      </trkpt>
      <trkpt lat="45.35652" lon="5.89628">
        <ele>1756.6</ele>
        <time>2011-11-15T14:06:30Z</time>
      </trkpt>
      <trkpt lat="45.35653" lon="5.89631">
        <ele>1756</ele>
        <time>2011-11-15T14:06:31Z</time>
      </trkpt>
      <trkpt lat="45.35652" lon="5.89633">
        <ele>1755.4</ele>
        <time>2011-11-15T14:06:32Z</time>
      </trkpt>
      <trkpt lat="45.35645" lon="5.89634">
        <ele>1753.2</ele>
        <time>2011-11-15T14:06:36Z</time>
      </trkpt>
      <trkpt lat="45.35641" lon="5.89634">
        <ele>1752.2</ele>
        <time>2011-11-15T14:06:38Z</time>
      </trkpt>
      <trkpt lat="45.3564" lon="5.89634">
        <ele>1751.6</ele>
        <time>2011-11-15T14:06:39Z</time>
      </trkpt>
      <trkpt lat="45.3564" lon="5.89636">
        <ele>1751</ele>
        <time>2011-11-15T14:06:40Z</time>
      </trkpt>
      <trkpt lat="45.35642" lon="5.8964">
        <ele>1749.4</ele>
        <time>2011-11-15T14:06:43Z</time>
      </trkpt>
      <trkpt lat="45.35642" lon="5.89642">
        <ele>1748.2</ele>
        <time>2011-11-15T14:06:45Z</time>
      </trkpt>
      <trkpt lat="45.35643" lon="5.89644">
        <ele>1747.8</ele>
        <time>2011-11-15T14:06:46Z</time>
      </trkpt>
      <trkpt lat="45.35645" lon="5.89648">
        <ele>1746.2</ele>
        <time>2011-11-15T14:06:49Z</time>
      </trkpt>
      <trkpt lat="45.35645" lon="5.89649">
        <ele>1745.6</ele>
        <time>2011-11-15T14:06:50Z</time>
      </trkpt>
      <trkpt lat="45.35647" lon="5.89655">
        <ele>1744</ele>
        <time>2011-11-15T14:06:53Z</time>
      </trkpt>
      <trkpt lat="45.35647" lon="5.8966">
        <ele>1743</ele>
        <time>2011-11-15T14:06:55Z</time>
      </trkpt>
      <trkpt lat="45.35642" lon="5.89659">
        <ele>1741.4</ele>
        <time>2011-11-15T14:06:58Z</time>
      </trkpt>
      <trkpt lat="45.3564" lon="5.89657">
        <ele>1740.8</ele>
        <time>2011-11-15T14:06:59Z</time>
      </trkpt>
      <trkpt lat="45.35636" lon="5.89659">
        <ele>1738.8</ele>
        <time>2011-11-15T14:07:03Z</time>
      </trkpt>
      <trkpt lat="45.35631" lon="5.8966">
        <ele>1736.8</ele>
        <time>2011-11-15T14:07:07Z</time>
      </trkpt>
      <trkpt lat="45.35626" lon="5.89659">
        <ele>1734.8</ele>
        <time>2011-11-15T14:07:11Z</time>
      </trkpt>
      <trkpt lat="45.35624" lon="5.89655">
        <ele>1733.8</ele>
        <time>2011-11-15T14:07:13Z</time>
      </trkpt>
      <trkpt lat="45.35621" lon="5.89652">
        <ele>1733</ele>
        <time>2011-11-15T14:07:15Z</time>
      </trkpt>
      <trkpt lat="45.35612" lon="5.89649">
        <ele>1730.4</ele>
        <time>2011-11-15T14:07:20Z</time>
      </trkpt>
      <trkpt lat="45.35608" lon="5.89653">
        <ele>1727.8</ele>
        <time>2011-11-15T14:07:25Z</time>
      </trkpt>
      <trkpt lat="45.35612" lon="5.89661">
        <ele>1725.8</ele>
        <time>2011-11-15T14:07:29Z</time>
      </trkpt>
      <trkpt lat="45.35614" lon="5.89673">
        <ele>1722.8</ele>
        <time>2011-11-15T14:07:35Z</time>
      </trkpt>
      <trkpt lat="45.35614" lon="5.89677">
        <ele>1721.8</ele>
        <time>2011-11-15T14:07:37Z</time>
      </trkpt>
      <trkpt lat="45.35613" lon="5.89682">
        <ele>1720.2</ele>
        <time>2011-11-15T14:07:40Z</time>
      </trkpt>
      <trkpt lat="45.35613" lon="5.89686">
        <ele>1718.2</ele>
        <time>2011-11-15T14:07:44Z</time>
      </trkpt>
      <trkpt lat="45.35613" lon="5.89686">
        <ele>1717.8</ele>
        <time>2011-11-15T14:07:45Z</time>
      </trkpt>
      <trkpt lat="45.35614" lon="5.89688">
        <ele>1716.8</ele>
        <time>2011-11-15T14:07:47Z</time>
      </trkpt>
      <trkpt lat="45.35614" lon="5.89693">
        <ele>1714.6</ele>
        <time>2011-11-15T14:07:51Z</time>
      </trkpt>
      <trkpt lat="45.35614" lon="5.89695">
        <ele>1714</ele>
        <time>2011-11-15T14:07:52Z</time>
      </trkpt>
      <trkpt lat="45.3561" lon="5.89695">
        <ele>1713</ele>
        <time>2011-11-15T14:07:54Z</time>
      </trkpt>
      <trkpt lat="45.3561" lon="5.89696">
        <ele>1712.4</ele>
        <time>2011-11-15T14:07:55Z</time>
      </trkpt>
      <trkpt lat="45.3561" lon="5.89701">
        <ele>1710.8</ele>
        <time>2011-11-15T14:07:58Z</time>
      </trkpt>
      <trkpt lat="45.35612" lon="5.8971">
        <ele>1708.4</ele>
        <time>2011-11-15T14:08:03Z</time>
      </trkpt>
      <trkpt lat="45.35614" lon="5.89717">
        <ele>1706.8</ele>
        <time>2011-11-15T14:08:06Z</time>
      </trkpt>
      <trkpt lat="45.35611" lon="5.89718">
        <ele>1705.8</ele>
        <time>2011-11-15T14:08:08Z</time>
      </trkpt>
      <trkpt lat="45.3561" lon="5.89723">
        <ele>1703.8</ele>
        <time>2011-11-15T14:08:12Z</time>
      </trkpt>
      <trkpt lat="45.3561" lon="5.89727">
        <ele>1702.2</ele>
        <time>2011-11-15T14:08:15Z</time>
      </trkpt>
      <trkpt lat="45.3561" lon="5.89729">
        <ele>1701.8</ele>
        <time>2011-11-15T14:08:16Z</time>
      </trkpt>
      <trkpt lat="45.35611" lon="5.8973">
        <ele>1701.2</ele>
        <time>2011-11-15T14:08:17Z</time>
      </trkpt>
      <trkpt lat="45.35613" lon="5.89742">
        <ele>1698.2</ele>
        <time>2011-11-15T14:08:23Z</time>
      </trkpt>
      <trkpt lat="45.35613" lon="5.89745">
        <ele>1697.6</ele>
        <time>2011-11-15T14:08:24Z</time>
      </trkpt>
      <trkpt lat="45.35616" lon="5.89752">
        <ele>1696</ele>
        <time>2011-11-15T14:08:27Z</time>
      </trkpt>
      <trkpt lat="45.35618" lon="5.89756">
        <ele>1695</ele>
        <time>2011-11-15T14:08:29Z</time>
      </trkpt>
      <trkpt lat="45.35618" lon="5.89767">
        <ele>1692.8</ele>
        <time>2011-11-15T14:08:33Z</time>
      </trkpt>
      <trkpt lat="45.35617" lon="5.8978">
        <ele>1690.4</ele>
        <time>2011-11-15T14:08:38Z</time>
      </trkpt>
      <trkpt lat="45.35617" lon="5.89791">
        <ele>1688.4</ele>
        <time>2011-11-15T14:08:42Z</time>
      </trkpt>
      <trkpt lat="45.35617" lon="5.89794">
        <ele>1688</ele>
        <time>2011-11-15T14:08:43Z</time>
      </trkpt>
      <trkpt lat="45.35617" lon="5.89801">
        <ele>1686.6</ele>
        <time>2011-11-15T14:08:46Z</time>
      </trkpt>
      <trkpt lat="45.35617" lon="5.89803">
        <ele>1686.2</ele>
        <time>2011-11-15T14:08:47Z</time>
      </trkpt>
      <trkpt lat="45.35622" lon="5.89817">
        <ele>1683.2</ele>
        <time>2011-11-15T14:08:53Z</time>
      </trkpt>
      <trkpt lat="45.35623" lon="5.89819">
        <ele>1682.8</ele>
        <time>2011-11-15T14:08:54Z</time>
      </trkpt>
      <trkpt lat="45.35626" lon="5.8983">
        <ele>1680.4</ele>
        <time>2011-11-15T14:08:59Z</time>
      </trkpt>
      <trkpt lat="45.35633" lon="5.8984">
        <ele>1678.8</ele>
        <time>2011-11-15T14:09:02Z</time>
      </trkpt>
      <trkpt lat="45.35635" lon="5.89844">
        <ele>1678.4</ele>
        <time>2011-11-15T14:09:03Z</time>
      </trkpt>
      <trkpt lat="45.35633" lon="5.8985">
        <ele>1677.4</ele>
        <time>2011-11-15T14:09:05Z</time>
      </trkpt>
      <trkpt lat="45.35632" lon="5.89849">
        <ele>1676.8</ele>
        <time>2011-11-15T14:09:06Z</time>
      </trkpt>
      <trkpt lat="45.35623" lon="5.89843">
        <ele>1674.8</ele>
        <time>2011-11-15T14:09:10Z</time>
      </trkpt>
      <trkpt lat="45.3562" lon="5.89842">
        <ele>1673.8</ele>
        <time>2011-11-15T14:09:12Z</time>
      </trkpt>
      <trkpt lat="45.35621" lon="5.89846">
        <ele>1672.6</ele>
        <time>2011-11-15T14:09:14Z</time>
      </trkpt>
      <trkpt lat="45.35625" lon="5.89859">
        <ele>1670.6</ele>
        <time>2011-11-15T14:09:18Z</time>
      </trkpt>
      <trkpt lat="45.35626" lon="5.89863">
        <ele>1670.2</ele>
        <time>2011-11-15T14:09:19Z</time>
      </trkpt>
      <trkpt lat="45.35627" lon="5.89871">
        <ele>1669.2</ele>
        <time>2011-11-15T14:09:21Z</time>
      </trkpt>
      <trkpt lat="45.35631" lon="5.8988">
        <ele>1667.6</ele>
        <time>2011-11-15T14:09:24Z</time>
      </trkpt>
      <trkpt lat="45.35634" lon="5.8989">
        <ele>1666.2</ele>
        <time>2011-11-15T14:09:27Z</time>
      </trkpt>
      <trkpt lat="45.35636" lon="5.89896">
        <ele>1665.4</ele>
        <time>2011-11-15T14:09:29Z</time>
      </trkpt>
      <trkpt lat="45.35637" lon="5.89899">
        <ele>1664.8</ele>
        <time>2011-11-15T14:09:30Z</time>
      </trkpt>
      <trkpt lat="45.35642" lon="5.89912">
        <ele>1663</ele>
        <time>2011-11-15T14:09:34Z</time>
      </trkpt>
      <trkpt lat="45.35641" lon="5.89915">
        <ele>1662.4</ele>
        <time>2011-11-15T14:09:35Z</time>
      </trkpt>
      <trkpt lat="45.3564" lon="5.89918">
        <ele>1662</ele>
        <time>2011-11-15T14:09:36Z</time>
      </trkpt>
      <trkpt lat="45.35637" lon="5.89928">
        <ele>1660.6</ele>
        <time>2011-11-15T14:09:39Z</time>
      </trkpt>
      <trkpt lat="45.35631" lon="5.89932">
        <ele>1659</ele>
        <time>2011-11-15T14:09:42Z</time>
      </trkpt>
      <trkpt lat="45.3563" lon="5.89933">
        <ele>1658.4</ele>
        <time>2011-11-15T14:09:43Z</time>
      </trkpt>
      <trkpt lat="45.35633" lon="5.89943">
        <ele>1656.6</ele>
        <time>2011-11-15T14:09:47Z</time>
      </trkpt>
      <trkpt lat="45.35631" lon="5.89952">
        <ele>1654.6</ele>
        <time>2011-11-15T14:09:51Z</time>
      </trkpt>
      <trkpt lat="45.35629" lon="5.89952">
        <ele>1654</ele>
        <time>2011-11-15T14:09:52Z</time>
      </trkpt>
      <trkpt lat="45.35625" lon="5.89953">
        <ele>1652.4</ele>
        <time>2011-11-15T14:09:55Z</time>
      </trkpt>
      <trkpt lat="45.35626" lon="5.89961">
        <ele>1650.4</ele>
        <time>2011-11-15T14:09:59Z</time>
      </trkpt>
      <trkpt lat="45.35623" lon="5.89969">
        <ele>1648.2</ele>
        <time>2011-11-15T14:10:03Z</time>
      </trkpt>
      <trkpt lat="45.35617" lon="5.89973">
        <ele>1646</ele>
        <time>2011-11-15T14:10:07Z</time>
      </trkpt>
      <trkpt lat="45.35617" lon="5.89978">
        <ele>1644.8</ele>
        <time>2011-11-15T14:10:09Z</time>
      </trkpt>
      <trkpt lat="45.35616" lon="5.89985">
        <ele>1643.2</ele>
        <time>2011-11-15T14:10:12Z</time>
      </trkpt>
      <trkpt lat="45.35616" lon="5.89988">
        <ele>1642.8</ele>
        <time>2011-11-15T14:10:13Z</time>
      </trkpt>
      <trkpt lat="45.35616" lon="5.89995">
        <ele>1641.6</ele>
        <time>2011-11-15T14:10:15Z</time>
      </trkpt>
      <trkpt lat="45.35616" lon="5.90001">
        <ele>1640.6</ele>
        <time>2011-11-15T14:10:17Z</time>
      </trkpt>
      <trkpt lat="45.35619" lon="5.9001">
        <ele>1638.8</ele>
        <time>2011-11-15T14:10:20Z</time>
      </trkpt>
      <trkpt lat="45.3562" lon="5.90014">
        <ele>1638.2</ele>
        <time>2011-11-15T14:10:21Z</time>
      </trkpt>
      <trkpt lat="45.3562" lon="5.90017">
        <ele>1637.8</ele>
        <time>2011-11-15T14:10:22Z</time>
      </trkpt>
      <trkpt lat="45.3562" lon="5.9002">
        <ele>1637.2</ele>
        <time>2011-11-15T14:10:23Z</time>
      </trkpt>
      <trkpt lat="45.3562" lon="5.9003">
        <ele>1635.4</ele>
        <time>2011-11-15T14:10:26Z</time>
      </trkpt>
      <trkpt lat="45.35623" lon="5.90041">
        <ele>1633.6</ele>
        <time>2011-11-15T14:10:29Z</time>
      </trkpt>
      <trkpt lat="45.35625" lon="5.90048">
        <ele>1632.4</ele>
        <time>2011-11-15T14:10:31Z</time>
      </trkpt>
      <trkpt lat="45.35634" lon="5.90062">
        <ele>1629.4</ele>
        <time>2011-11-15T14:10:36Z</time>
      </trkpt>
      <trkpt lat="45.35641" lon="5.90072">
        <ele>1627.2</ele>
        <time>2011-11-15T14:10:40Z</time>
      </trkpt>
      <trkpt lat="45.35646" lon="5.90084">
        <ele>1624.8</ele>
        <time>2011-11-15T14:10:44Z</time>
      </trkpt>
      <trkpt lat="45.35648" lon="5.90087">
        <ele>1624.2</ele>
        <time>2011-11-15T14:10:45Z</time>
      </trkpt>
      <trkpt lat="45.35655" lon="5.90098">
        <ele>1621.8</ele>
        <time>2011-11-15T14:10:49Z</time>
      </trkpt>
      <trkpt lat="45.35658" lon="5.90104">
        <ele>1620.6</ele>
        <time>2011-11-15T14:10:51Z</time>
      </trkpt>
      <trkpt lat="45.35662" lon="5.90111">
        <ele>1619.6</ele>
        <time>2011-11-15T14:10:53Z</time>
      </trkpt>
      <trkpt lat="45.35668" lon="5.90122">
        <ele>1617.4</ele>
        <time>2011-11-15T14:10:57Z</time>
      </trkpt>
      <trkpt lat="45.3567" lon="5.90125">
        <ele>1616.8</ele>
        <time>2011-11-15T14:10:58Z</time>
      </trkpt>
      <trkpt lat="45.35677" lon="5.90138">
        <ele>1614.6</ele>
        <time>2011-11-15T14:11:02Z</time>
      </trkpt>
      <trkpt lat="45.35678" lon="5.90141">
        <ele>1614.2</ele>
        <time>2011-11-15T14:11:03Z</time>
      </trkpt>
      <trkpt lat="45.35681" lon="5.90148">
        <ele>1612.4</ele>
        <time>2011-11-15T14:11:06Z</time>
      </trkpt>
      <trkpt lat="45.35684" lon="5.90154">
        <ele>1611.2</ele>
        <time>2011-11-15T14:11:08Z</time>
      </trkpt>
      <trkpt lat="45.35683" lon="5.90159">
        <ele>1610</ele>
        <time>2011-11-15T14:11:10Z</time>
      </trkpt>
      <trkpt lat="45.35678" lon="5.90161">
        <ele>1608.8</ele>
        <time>2011-11-15T14:11:12Z</time>
      </trkpt>
      <trkpt lat="45.35672" lon="5.90161">
        <ele>1607.4</ele>
        <time>2011-11-15T14:11:14Z</time>
      </trkpt>
      <trkpt lat="45.35663" lon="5.90163">
        <ele>1605</ele>
        <time>2011-11-15T14:11:18Z</time>
      </trkpt>
      <trkpt lat="45.35654" lon="5.90165">
        <ele>1602.6</ele>
        <time>2011-11-15T14:11:22Z</time>
      </trkpt>
      <trkpt lat="45.35652" lon="5.90166">
        <ele>1601.8</ele>
        <time>2011-11-15T14:11:23Z</time>
      </trkpt>
      <trkpt lat="45.35645" lon="5.90167">
        <ele>1600</ele>
        <time>2011-11-15T14:11:26Z</time>
      </trkpt>
      <trkpt lat="45.35641" lon="5.90165">
        <ele>1598.6</ele>
        <time>2011-11-15T14:11:28Z</time>
      </trkpt>
      <trkpt lat="45.35636" lon="5.90164">
        <ele>1597.2</ele>
        <time>2011-11-15T14:11:30Z</time>
      </trkpt>
      <trkpt lat="45.35627" lon="5.90166">
        <ele>1595.2</ele>
        <time>2011-11-15T14:11:33Z</time>
      </trkpt>
      <trkpt lat="45.35617" lon="5.90173">
        <ele>1592.8</ele>
        <time>2011-11-15T14:11:37Z</time>
      </trkpt>
      <trkpt lat="45.35614" lon="5.90174">
        <ele>1592.2</ele>
        <time>2011-11-15T14:11:38Z</time>
      </trkpt>
      <trkpt lat="45.35612" lon="5.90175">
        <ele>1591.4</ele>
        <time>2011-11-15T14:11:39Z</time>
      </trkpt>
      <trkpt lat="45.35601" lon="5.90176">
        <ele>1588.8</ele>
        <time>2011-11-15T14:11:43Z</time>
      </trkpt>
      <trkpt lat="45.35598" lon="5.90175">
        <ele>1587.4</ele>
        <time>2011-11-15T14:11:45Z</time>
      </trkpt>
      <trkpt lat="45.3559" lon="5.90173">
        <ele>1584.4</ele>
        <time>2011-11-15T14:11:49Z</time>
      </trkpt>
      <trkpt lat="45.35578" lon="5.90171">
        <ele>1580.6</ele>
        <time>2011-11-15T14:11:54Z</time>
      </trkpt>
      <trkpt lat="45.35575" lon="5.90171">
        <ele>1579.8</ele>
        <time>2011-11-15T14:11:55Z</time>
      </trkpt>
      <trkpt lat="45.35567" lon="5.9017">
        <ele>1577.6</ele>
        <time>2011-11-15T14:11:58Z</time>
      </trkpt>
      <trkpt lat="45.35565" lon="5.9017">
        <ele>1576.8</ele>
        <time>2011-11-15T14:11:59Z</time>
      </trkpt>
      <trkpt lat="45.35557" lon="5.9017">
        <ele>1574.6</ele>
        <time>2011-11-15T14:12:02Z</time>
      </trkpt>
      <trkpt lat="45.35549" lon="5.90169">
        <ele>1572.2</ele>
        <time>2011-11-15T14:12:05Z</time>
      </trkpt>
      <trkpt lat="45.35538" lon="5.90169">
        <ele>1569.2</ele>
        <time>2011-11-15T14:12:09Z</time>
      </trkpt>
      <trkpt lat="45.35535" lon="5.90168">
        <ele>1568.4</ele>
        <time>2011-11-15T14:12:10Z</time>
      </trkpt>
      <trkpt lat="45.3552" lon="5.90167">
        <ele>1564.6</ele>
        <time>2011-11-15T14:12:15Z</time>
      </trkpt>
      <trkpt lat="45.35507" lon="5.90167">
        <ele>1561.6</ele>
        <time>2011-11-15T14:12:19Z</time>
      </trkpt>
      <trkpt lat="45.35501" lon="5.90166">
        <ele>1560</ele>
        <time>2011-11-15T14:12:21Z</time>
      </trkpt>
      <trkpt lat="45.35494" lon="5.9017">
        <ele>1557.8</ele>
        <time>2011-11-15T14:12:24Z</time>
      </trkpt>
      <trkpt lat="45.35492" lon="5.90173">
        <ele>1557</ele>
        <time>2011-11-15T14:12:25Z</time>
      </trkpt>
      <trkpt lat="45.35489" lon="5.90183">
        <ele>1554.8</ele>
        <time>2011-11-15T14:12:28Z</time>
      </trkpt>
      <trkpt lat="45.35486" lon="5.90191">
        <ele>1553.2</ele>
        <time>2011-11-15T14:12:30Z</time>
      </trkpt>
      <trkpt lat="45.3548" lon="5.90206">
        <ele>1550.2</ele>
        <time>2011-11-15T14:12:34Z</time>
      </trkpt>
      <trkpt lat="45.35479" lon="5.90211">
        <ele>1549.4</ele>
        <time>2011-11-15T14:12:35Z</time>
      </trkpt>
      <trkpt lat="45.35476" lon="5.90234">
        <ele>1546</ele>
        <time>2011-11-15T14:12:40Z</time>
      </trkpt>
      <trkpt lat="45.35474" lon="5.90251">
        <ele>1543.2</ele>
        <time>2011-11-15T14:12:44Z</time>
      </trkpt>
      <trkpt lat="45.35474" lon="5.90259">
        <ele>1542</ele>
        <time>2011-11-15T14:12:46Z</time>
      </trkpt>
      <trkpt lat="45.35474" lon="5.90271">
        <ele>1540</ele>
        <time>2011-11-15T14:12:49Z</time>
      </trkpt>
      <trkpt lat="45.35473" lon="5.90286">
        <ele>1537.4</ele>
        <time>2011-11-15T14:12:53Z</time>
      </trkpt>
      <trkpt lat="45.35472" lon="5.90289">
        <ele>1536.8</ele>
        <time>2011-11-15T14:12:54Z</time>
      </trkpt>
      <trkpt lat="45.35471" lon="5.90291">
        <ele>1536</ele>
        <time>2011-11-15T14:12:55Z</time>
      </trkpt>
      <trkpt lat="45.35462" lon="5.90293">
        <ele>1534</ele>
        <time>2011-11-15T14:12:58Z</time>
      </trkpt>
      <trkpt lat="45.35456" lon="5.90292">
        <ele>1532.8</ele>
        <time>2011-11-15T14:13:00Z</time>
      </trkpt>
      <trkpt lat="45.3545" lon="5.90287">
        <ele>1531.4</ele>
        <time>2011-11-15T14:13:02Z</time>
      </trkpt>
      <trkpt lat="45.35447" lon="5.90284">
        <ele>1530.8</ele>
        <time>2011-11-15T14:13:03Z</time>
      </trkpt>
      <trkpt lat="45.35442" lon="5.90275">
        <ele>1528.8</ele>
        <time>2011-11-15T14:13:06Z</time>
      </trkpt>
      <trkpt lat="45.3544" lon="5.90271">
        <ele>1528.2</ele>
        <time>2011-11-15T14:13:07Z</time>
      </trkpt>
      <trkpt lat="45.35428" lon="5.90255">
        <ele>1525</ele>
        <time>2011-11-15T14:13:12Z</time>
      </trkpt>
      <trkpt lat="45.3542" lon="5.90235">
        <ele>1522</ele>
        <time>2011-11-15T14:13:17Z</time>
      </trkpt>
      <trkpt lat="45.35419" lon="5.9023">
        <ele>1521.4</ele>
        <time>2011-11-15T14:13:18Z</time>
      </trkpt>
      <trkpt lat="45.35419" lon="5.90213">
        <ele>1518.6</ele>
        <time>2011-11-15T14:13:22Z</time>
      </trkpt>
      <trkpt lat="45.35418" lon="5.90201">
        <ele>1516.6</ele>
        <time>2011-11-15T14:13:25Z</time>
      </trkpt>
      <trkpt lat="45.35418" lon="5.90193">
        <ele>1515.4</ele>
        <time>2011-11-15T14:13:27Z</time>
      </trkpt>
      <trkpt lat="45.35412" lon="5.90177">
        <ele>1512.8</ele>
        <time>2011-11-15T14:13:31Z</time>
      </trkpt>
      <trkpt lat="45.35403" lon="5.90152">
        <ele>1509.4</ele>
        <time>2011-11-15T14:13:37Z</time>
      </trkpt>
      <trkpt lat="45.35396" lon="5.9013">
        <ele>1506.8</ele>
        <time>2011-11-15T14:13:42Z</time>
      </trkpt>
      <trkpt lat="45.35396" lon="5.90125">
        <ele>1506.2</ele>
        <time>2011-11-15T14:13:43Z</time>
      </trkpt>
      <trkpt lat="45.35392" lon="5.90103">
        <ele>1503.6</ele>
        <time>2011-11-15T14:13:48Z</time>
      </trkpt>
      <trkpt lat="45.35391" lon="5.90099">
        <ele>1503.2</ele>
        <time>2011-11-15T14:13:49Z</time>
      </trkpt>
      <trkpt lat="45.35383" lon="5.90089">
        <ele>1501</ele>
        <time>2011-11-15T14:13:53Z</time>
      </trkpt>
      <trkpt lat="45.35377" lon="5.90082">
        <ele>1499.4</ele>
        <time>2011-11-15T14:13:56Z</time>
      </trkpt>
      <trkpt lat="45.35372" lon="5.90076">
        <ele>1498.4</ele>
        <time>2011-11-15T14:13:58Z</time>
      </trkpt>
      <trkpt lat="45.35363" lon="5.90064">
        <ele>1496</ele>
        <time>2011-11-15T14:14:02Z</time>
      </trkpt>
      <trkpt lat="45.35351" lon="5.90047">
        <ele>1493.2</ele>
        <time>2011-11-15T14:14:07Z</time>
      </trkpt>
      <trkpt lat="45.35348" lon="5.90043">
        <ele>1492.6</ele>
        <time>2011-11-15T14:14:08Z</time>
      </trkpt>
      <trkpt lat="45.35341" lon="5.90029">
        <ele>1490.2</ele>
        <time>2011-11-15T14:14:12Z</time>
      </trkpt>
      <trkpt lat="45.35335" lon="5.90022">
        <ele>1488.6</ele>
        <time>2011-11-15T14:14:15Z</time>
      </trkpt>
      <trkpt lat="45.3533" lon="5.90014">
        <ele>1486.6</ele>
        <time>2011-11-15T14:14:18Z</time>
      </trkpt>
      <trkpt lat="45.35323" lon="5.90002">
        <ele>1484.2</ele>
        <time>2011-11-15T14:14:22Z</time>
      </trkpt>
      <trkpt lat="45.35319" lon="5.89996">
        <ele>1483</ele>
        <time>2011-11-15T14:14:24Z</time>
      </trkpt>
      <trkpt lat="45.35309" lon="5.89982">
        <ele>1480</ele>
        <time>2011-11-15T14:14:29Z</time>
      </trkpt>
      <trkpt lat="45.35301" lon="5.89968">
        <ele>1477</ele>
        <time>2011-11-15T14:14:34Z</time>
      </trkpt>
      <trkpt lat="45.35296" lon="5.89962">
        <ele>1475.6</ele>
        <time>2011-11-15T14:14:36Z</time>
      </trkpt>
      <trkpt lat="45.3529" lon="5.89957">
        <ele>1474.4</ele>
        <time>2011-11-15T14:14:38Z</time>
      </trkpt>
      <trkpt lat="45.35281" lon="5.89943">
        <ele>1471.2</ele>
        <time>2011-11-15T14:14:43Z</time>
      </trkpt>
      <trkpt lat="45.3528" lon="5.8994">
        <ele>1470.6</ele>
        <time>2011-11-15T14:14:44Z</time>
      </trkpt>
      <trkpt lat="45.35271" lon="5.89921">
        <ele>1467.6</ele>
        <time>2011-11-15T14:14:49Z</time>
      </trkpt>
      <trkpt lat="45.3526" lon="5.89903">
        <ele>1463.8</ele>
        <time>2011-11-15T14:14:55Z</time>
      </trkpt>
      <trkpt lat="45.35259" lon="5.899">
        <ele>1463.2</ele>
        <time>2011-11-15T14:14:56Z</time>
      </trkpt>
      <trkpt lat="45.35251" lon="5.89889">
        <ele>1460.6</ele>
        <time>2011-11-15T14:15:00Z</time>
      </trkpt>
      <trkpt lat="45.35244" lon="5.89883">
        <ele>1458.6</ele>
        <time>2011-11-15T14:15:03Z</time>
      </trkpt>
      <trkpt lat="45.35237" lon="5.89877">
        <ele>1456.8</ele>
        <time>2011-11-15T14:15:06Z</time>
      </trkpt>
      <trkpt lat="45.35228" lon="5.89869">
        <ele>1454.2</ele>
        <time>2011-11-15T14:15:10Z</time>
      </trkpt>
      <trkpt lat="45.35217" lon="5.89856">
        <ele>1450.8</ele>
        <time>2011-11-15T14:15:15Z</time>
      </trkpt>
      <trkpt lat="45.35213" lon="5.8985">
        <ele>1449.6</ele>
        <time>2011-11-15T14:15:17Z</time>
      </trkpt>
      <trkpt lat="45.35204" lon="5.89836">
        <ele>1447</ele>
        <time>2011-11-15T14:15:21Z</time>
      </trkpt>
      <trkpt lat="45.352" lon="5.8983">
        <ele>1445.6</ele>
        <time>2011-11-15T14:15:23Z</time>
      </trkpt>
      <trkpt lat="45.3519" lon="5.89818">
        <ele>1442.8</ele>
        <time>2011-11-15T14:15:27Z</time>
      </trkpt>
      <trkpt lat="45.35186" lon="5.89813">
        <ele>1441.4</ele>
        <time>2011-11-15T14:15:29Z</time>
      </trkpt>
      <trkpt lat="45.35182" lon="5.89809">
        <ele>1440</ele>
        <time>2011-11-15T14:15:31Z</time>
      </trkpt>
      <trkpt lat="45.35172" lon="5.89795">
        <ele>1435.8</ele>
        <time>2011-11-15T14:15:37Z</time>
      </trkpt>
      <trkpt lat="45.3516" lon="5.89782">
        <ele>1432</ele>
        <time>2011-11-15T14:15:43Z</time>
      </trkpt>
      <trkpt lat="45.35155" lon="5.89779">
        <ele>1430.6</ele>
        <time>2011-11-15T14:15:45Z</time>
      </trkpt>
      <trkpt lat="45.35155" lon="5.89779">
        <ele>1430.6</ele>
        <time>2011-11-15T14:15:45Z</time>
      </trkpt>
      <trkpt lat="45.35148" lon="5.89773">
        <ele>1428</ele>
        <time>2011-11-15T14:15:49Z</time>
      </trkpt>
      <trkpt lat="45.35136" lon="5.89771">
        <ele>1424.8</ele>
        <time>2011-11-15T14:15:54Z</time>
      </trkpt>
      <trkpt lat="45.35134" lon="5.89771">
        <ele>1424</ele>
        <time>2011-11-15T14:15:55Z</time>
      </trkpt>
      <trkpt lat="45.35123" lon="5.89772">
        <ele>1420.8</ele>
        <time>2011-11-15T14:16:00Z</time>
      </trkpt>
      <trkpt lat="45.35116" lon="5.89772">
        <ele>1418.8</ele>
        <time>2011-11-15T14:16:03Z</time>
      </trkpt>
      <trkpt lat="45.35106" lon="5.89768">
        <ele>1415.2</ele>
        <time>2011-11-15T14:16:08Z</time>
      </trkpt>
      <trkpt lat="45.35098" lon="5.8976">
        <ele>1412.4</ele>
        <time>2011-11-15T14:16:12Z</time>
      </trkpt>
      <trkpt lat="45.35096" lon="5.89759">
        <ele>1411.8</ele>
        <time>2011-11-15T14:16:13Z</time>
      </trkpt>
      <trkpt lat="45.35081" lon="5.89751">
        <ele>1407.6</ele>
        <time>2011-11-15T14:16:19Z</time>
      </trkpt>
      <trkpt lat="45.35066" lon="5.89743">
        <ele>1403.2</ele>
        <time>2011-11-15T14:16:25Z</time>
      </trkpt>
      <trkpt lat="45.35063" lon="5.89742">
        <ele>1402.6</ele>
        <time>2011-11-15T14:16:26Z</time>
      </trkpt>
      <trkpt lat="45.35049" lon="5.89737">
        <ele>1399</ele>
        <time>2011-11-15T14:16:31Z</time>
      </trkpt>
      <trkpt lat="45.35043" lon="5.89735">
        <ele>1397.6</ele>
        <time>2011-11-15T14:16:33Z</time>
      </trkpt>
      <trkpt lat="45.35036" lon="5.8973">
        <ele>1395.6</ele>
        <time>2011-11-15T14:16:36Z</time>
      </trkpt>
      <trkpt lat="45.35026" lon="5.89722">
        <ele>1393</ele>
        <time>2011-11-15T14:16:40Z</time>
      </trkpt>
      <trkpt lat="45.35024" lon="5.8972">
        <ele>1392.4</ele>
        <time>2011-11-15T14:16:41Z</time>
      </trkpt>
      <trkpt lat="45.35015" lon="5.8971">
        <ele>1389</ele>
        <time>2011-11-15T14:16:46Z</time>
      </trkpt>
      <trkpt lat="45.3501" lon="5.89708">
        <ele>1387.6</ele>
        <time>2011-11-15T14:16:48Z</time>
      </trkpt>
      <trkpt lat="45.35003" lon="5.89706">
        <ele>1385.8</ele>
        <time>2011-11-15T14:16:51Z</time>
      </trkpt>
      <trkpt lat="45.34999" lon="5.89704">
        <ele>1383.6</ele>
        <time>2011-11-15T14:16:54Z</time>
      </trkpt>
      <trkpt lat="45.34998" lon="5.89701">
        <ele>1382.4</ele>
        <time>2011-11-15T14:16:56Z</time>
      </trkpt>
      <trkpt lat="45.34992" lon="5.89697">
        <ele>1380.4</ele>
        <time>2011-11-15T14:16:59Z</time>
      </trkpt>
      <trkpt lat="45.34989" lon="5.89695">
        <ele>1379.8</ele>
        <time>2011-11-15T14:17:00Z</time>
      </trkpt>
      <trkpt lat="45.34987" lon="5.89693">
        <ele>1379</ele>
        <time>2011-11-15T14:17:01Z</time>
      </trkpt>
      <trkpt lat="45.34976" lon="5.89681">
        <ele>1376.6</ele>
        <time>2011-11-15T14:17:05Z</time>
      </trkpt>
      <trkpt lat="45.34971" lon="5.89674">
        <ele>1375.2</ele>
        <time>2011-11-15T14:17:07Z</time>
      </trkpt>
      <trkpt lat="45.34961" lon="5.89661">
        <ele>1372.8</ele>
        <time>2011-11-15T14:17:11Z</time>
      </trkpt>
      <trkpt lat="45.34958" lon="5.89657">
        <ele>1372.2</ele>
        <time>2011-11-15T14:17:12Z</time>
      </trkpt>
      <trkpt lat="45.34946" lon="5.89641">
        <ele>1369</ele>
        <time>2011-11-15T14:17:17Z</time>
      </trkpt>
      <trkpt lat="45.34941" lon="5.89635">
        <ele>1367.8</ele>
        <time>2011-11-15T14:17:19Z</time>
      </trkpt>
      <trkpt lat="45.34931" lon="5.89623">
        <ele>1365.4</ele>
        <time>2011-11-15T14:17:23Z</time>
      </trkpt>
      <trkpt lat="45.34924" lon="5.89612">
        <ele>1363.8</ele>
        <time>2011-11-15T14:17:26Z</time>
      </trkpt>
      <trkpt lat="45.34918" lon="5.89604">
        <ele>1362.2</ele>
        <time>2011-11-15T14:17:29Z</time>
      </trkpt>
      <trkpt lat="45.34915" lon="5.89597">
        <ele>1361.2</ele>
        <time>2011-11-15T14:17:32Z</time>
      </trkpt>
      <trkpt lat="45.34676" lon="5.89374">
        <ele>1358.8</ele>
        <time>2011-11-15T14:19:37Z</time>
      </trkpt>
      <trkpt lat="45.3466" lon="5.89365">
        <ele>1354.4</ele>
        <time>2011-11-15T14:19:43Z</time>
      </trkpt>
      <trkpt lat="45.34657" lon="5.89363">
        <ele>1353.6</ele>
        <time>2011-11-15T14:19:44Z</time>
      </trkpt>
      <trkpt lat="45.34645" lon="5.89352">
        <ele>1349.8</ele>
        <time>2011-11-15T14:19:49Z</time>
      </trkpt>
      <trkpt lat="45.34639" lon="5.8935">
        <ele>1348.4</ele>
        <time>2011-11-15T14:19:51Z</time>
      </trkpt>
      <trkpt lat="45.34628" lon="5.89345">
        <ele>1345.4</ele>
        <time>2011-11-15T14:19:55Z</time>
      </trkpt>
      <trkpt lat="45.3462" lon="5.89341">
        <ele>1343.4</ele>
        <time>2011-11-15T14:19:58Z</time>
      </trkpt>
      <trkpt lat="45.34614" lon="5.89338">
        <ele>1342.2</ele>
        <time>2011-11-15T14:20:00Z</time>
      </trkpt>
      <trkpt lat="45.34601" lon="5.8933">
        <ele>1339</ele>
        <time>2011-11-15T14:20:05Z</time>
      </trkpt>
      <trkpt lat="45.34598" lon="5.89329">
        <ele>1338.6</ele>
        <time>2011-11-15T14:20:06Z</time>
      </trkpt>
      <trkpt lat="45.34581" lon="5.89327">
        <ele>1335</ele>
        <time>2011-11-15T14:20:12Z</time>
      </trkpt>
      <trkpt lat="45.34566" lon="5.89327">
        <ele>1332.4</ele>
        <time>2011-11-15T14:20:17Z</time>
      </trkpt>
      <trkpt lat="45.34563" lon="5.89326">
        <ele>1331.8</ele>
        <time>2011-11-15T14:20:18Z</time>
      </trkpt>
      <trkpt lat="45.34554" lon="5.89321">
        <ele>1329.8</ele>
        <time>2011-11-15T14:20:22Z</time>
      </trkpt>
      <trkpt lat="45.34545" lon="5.89321">
        <ele>1328</ele>
        <time>2011-11-15T14:20:26Z</time>
      </trkpt>
      <trkpt lat="45.34539" lon="5.89322">
        <ele>1327</ele>
        <time>2011-11-15T14:20:28Z</time>
      </trkpt>
      <trkpt lat="45.34525" lon="5.89324">
        <ele>1324.8</ele>
        <time>2011-11-15T14:20:33Z</time>
      </trkpt>
      <trkpt lat="45.34512" lon="5.89324">
        <ele>1323.2</ele>
        <time>2011-11-15T14:20:37Z</time>
      </trkpt>
      <trkpt lat="45.34505" lon="5.89324">
        <ele>1322.4</ele>
        <time>2011-11-15T14:20:39Z</time>
      </trkpt>
      <trkpt lat="45.34499" lon="5.89326">
        <ele>1321.6</ele>
        <time>2011-11-15T14:20:41Z</time>
      </trkpt>
      <trkpt lat="45.34485" lon="5.89332">
        <ele>1319.6</ele>
        <time>2011-11-15T14:20:46Z</time>
      </trkpt>
      <trkpt lat="45.34482" lon="5.89334">
        <ele>1319.2</ele>
        <time>2011-11-15T14:20:47Z</time>
      </trkpt>
      <trkpt lat="45.34468" lon="5.89341">
        <ele>1317.4</ele>
        <time>2011-11-15T14:20:52Z</time>
      </trkpt>
      <trkpt lat="45.34455" lon="5.89347">
        <ele>1315.6</ele>
        <time>2011-11-15T14:20:57Z</time>
      </trkpt>
      <trkpt lat="45.34449" lon="5.89348">
        <ele>1315</ele>
        <time>2011-11-15T14:20:59Z</time>
      </trkpt>
      <trkpt lat="45.34441" lon="5.89351">
        <ele>1313.8</ele>
        <time>2011-11-15T14:21:02Z</time>
      </trkpt>
      <trkpt lat="45.34429" lon="5.89356">
        <ele>1312.4</ele>
        <time>2011-11-15T14:21:06Z</time>
      </trkpt>
      <trkpt lat="45.34424" lon="5.8936">
        <ele>1311.8</ele>
        <time>2011-11-15T14:21:08Z</time>
      </trkpt>
      <trkpt lat="45.3441" lon="5.89364">
        <ele>1310.4</ele>
        <time>2011-11-15T14:21:13Z</time>
      </trkpt>
      <trkpt lat="45.34407" lon="5.89364">
        <ele>1310</ele>
        <time>2011-11-15T14:21:14Z</time>
      </trkpt>
      <trkpt lat="45.34391" lon="5.89358">
        <ele>1308.6</ele>
        <time>2011-11-15T14:21:19Z</time>
      </trkpt>
      <trkpt lat="45.34377" lon="5.89353">
        <ele>1307.4</ele>
        <time>2011-11-15T14:21:24Z</time>
      </trkpt>
      <trkpt lat="45.34372" lon="5.8935">
        <ele>1306.8</ele>
        <time>2011-11-15T14:21:26Z</time>
      </trkpt>
      <trkpt lat="45.34364" lon="5.89345">
        <ele>1306</ele>
        <time>2011-11-15T14:21:29Z</time>
      </trkpt>
      <trkpt lat="45.34355" lon="5.89333">
        <ele>1305</ele>
        <time>2011-11-15T14:21:33Z</time>
      </trkpt>
      <trkpt lat="45.34354" lon="5.89329">
        <ele>1304.6</ele>
        <time>2011-11-15T14:21:34Z</time>
      </trkpt>
      <trkpt lat="45.34352" lon="5.89313">
        <ele>1303.6</ele>
        <time>2011-11-15T14:21:38Z</time>
      </trkpt>
      <trkpt lat="45.34353" lon="5.89309">
        <ele>1303.4</ele>
        <time>2011-11-15T14:21:39Z</time>
      </trkpt>
      <trkpt lat="45.34358" lon="5.89293">
        <ele>1302.4</ele>
        <time>2011-11-15T14:21:43Z</time>
      </trkpt>
      <trkpt lat="45.34361" lon="5.89285">
        <ele>1302</ele>
        <time>2011-11-15T14:21:45Z</time>
      </trkpt>
      <trkpt lat="45.34366" lon="5.89269">
        <ele>1301.2</ele>
        <time>2011-11-15T14:21:49Z</time>
      </trkpt>
      <trkpt lat="45.34368" lon="5.89258">
        <ele>1300.4</ele>
        <time>2011-11-15T14:21:52Z</time>
      </trkpt>
      <trkpt lat="45.34367" lon="5.89249">
        <ele>1300</ele>
        <time>2011-11-15T14:21:54Z</time>
      </trkpt>
      <trkpt lat="45.34361" lon="5.89232">
        <ele>1299.2</ele>
        <time>2011-11-15T14:21:58Z</time>
      </trkpt>
      <trkpt lat="45.34359" lon="5.89229">
        <ele>1298.8</ele>
        <time>2011-11-15T14:21:59Z</time>
      </trkpt>
      <trkpt lat="45.34348" lon="5.89219">
        <ele>1298</ele>
        <time>2011-11-15T14:22:03Z</time>
      </trkpt>
      <trkpt lat="45.34345" lon="5.89217">
        <ele>1297.8</ele>
        <time>2011-11-15T14:22:04Z</time>
      </trkpt>
      <trkpt lat="45.34334" lon="5.89213">
        <ele>1297</ele>
        <time>2011-11-15T14:22:08Z</time>
      </trkpt>
      <trkpt lat="45.34326" lon="5.89211">
        <ele>1296.4</ele>
        <time>2011-11-15T14:22:11Z</time>
      </trkpt>
      <trkpt lat="45.34317" lon="5.89209">
        <ele>1295.8</ele>
        <time>2011-11-15T14:22:14Z</time>
      </trkpt>
      <trkpt lat="45.34306" lon="5.89209">
        <ele>1295.2</ele>
        <time>2011-11-15T14:22:18Z</time>
      </trkpt>
      <trkpt lat="45.34303" lon="5.89209">
        <ele>1295</ele>
        <time>2011-11-15T14:22:19Z</time>
      </trkpt>
      <trkpt lat="45.34289" lon="5.89212">
        <ele>1294.2</ele>
        <time>2011-11-15T14:22:24Z</time>
      </trkpt>
      <trkpt lat="45.34286" lon="5.89212">
        <ele>1294</ele>
        <time>2011-11-15T14:22:25Z</time>
      </trkpt>
      <trkpt lat="45.34278" lon="5.89216">
        <ele>1293.6</ele>
        <time>2011-11-15T14:22:28Z</time>
      </trkpt>
      <trkpt lat="45.34268" lon="5.89223">
        <ele>1293</ele>
        <time>2011-11-15T14:22:32Z</time>
      </trkpt>
      <trkpt lat="45.34263" lon="5.89227">
        <ele>1292.6</ele>
        <time>2011-11-15T14:22:34Z</time>
      </trkpt>
      <trkpt lat="45.34251" lon="5.89239">
        <ele>1292</ele>
        <time>2011-11-15T14:22:39Z</time>
      </trkpt>
      <trkpt lat="45.34246" lon="5.89243">
        <ele>1291.8</ele>
        <time>2011-11-15T14:22:41Z</time>
      </trkpt>
      <trkpt lat="45.34237" lon="5.89253">
        <ele>1291.2</ele>
        <time>2011-11-15T14:22:45Z</time>
      </trkpt>
      <trkpt lat="45.34234" lon="5.89255">
        <ele>1291</ele>
        <time>2011-11-15T14:22:46Z</time>
      </trkpt>
      <trkpt lat="45.34218" lon="5.89267">
        <ele>1290.4</ele>
        <time>2011-11-15T14:22:52Z</time>
      </trkpt>
      <trkpt lat="45.34199" lon="5.89275">
        <ele>1290</ele>
        <time>2011-11-15T14:22:58Z</time>
      </trkpt>
      <trkpt lat="45.34184" lon="5.89271">
        <ele>1289.4</ele>
        <time>2011-11-15T14:23:03Z</time>
      </trkpt>
      <trkpt lat="45.34181" lon="5.89269">
        <ele>1289.4</ele>
        <time>2011-11-15T14:23:04Z</time>
      </trkpt>
      <trkpt lat="45.34171" lon="5.8926">
        <ele>1289</ele>
        <time>2011-11-15T14:23:08Z</time>
      </trkpt>
      <trkpt lat="45.34167" lon="5.89254">
        <ele>1288.8</ele>
        <time>2011-11-15T14:23:10Z</time>
      </trkpt>
      <trkpt lat="45.34161" lon="5.89243">
        <ele>1288.8</ele>
        <time>2011-11-15T14:23:13Z</time>
      </trkpt>
      <trkpt lat="45.34157" lon="5.89232">
        <ele>1288.6</ele>
        <time>2011-11-15T14:23:16Z</time>
      </trkpt>
      <trkpt lat="45.3415" lon="5.89217">
        <ele>1288.2</ele>
        <time>2011-11-15T14:23:20Z</time>
      </trkpt>
      <trkpt lat="45.34147" lon="5.89209">
        <ele>1288.2</ele>
        <time>2011-11-15T14:23:22Z</time>
      </trkpt>
      <trkpt lat="45.34141" lon="5.89199">
        <ele>1288</ele>
        <time>2011-11-15T14:23:25Z</time>
      </trkpt>
      <trkpt lat="45.34135" lon="5.89189">
        <ele>1287.8</ele>
        <time>2011-11-15T14:23:28Z</time>
      </trkpt>
      <trkpt lat="45.34127" lon="5.89181">
        <ele>1287.6</ele>
        <time>2011-11-15T14:23:31Z</time>
      </trkpt>
      <trkpt lat="45.34118" lon="5.89174">
        <ele>1287.4</ele>
        <time>2011-11-15T14:23:34Z</time>
      </trkpt>
      <trkpt lat="45.34112" lon="5.8917">
        <ele>1287.2</ele>
        <time>2011-11-15T14:23:36Z</time>
      </trkpt>
      <trkpt lat="45.34098" lon="5.89167">
        <ele>1287</ele>
        <time>2011-11-15T14:23:41Z</time>
      </trkpt>
      <trkpt lat="45.34085" lon="5.89175">
        <ele>1286.6</ele>
        <time>2011-11-15T14:23:46Z</time>
      </trkpt>
      <trkpt lat="45.3408" lon="5.89176">
        <ele>1286.4</ele>
        <time>2011-11-15T14:23:48Z</time>
      </trkpt>
      <trkpt lat="45.34071" lon="5.89178">
        <ele>1286</ele>
        <time>2011-11-15T14:23:51Z</time>
      </trkpt>
      <trkpt lat="45.3406" lon="5.89185">
        <ele>1285.6</ele>
        <time>2011-11-15T14:23:55Z</time>
      </trkpt>
      <trkpt lat="45.34049" lon="5.892">
        <ele>1285.4</ele>
        <time>2011-11-15T14:24:00Z</time>
      </trkpt>
      <trkpt lat="45.34047" lon="5.89203">
        <ele>1285.2</ele>
        <time>2011-11-15T14:24:01Z</time>
      </trkpt>
      <trkpt lat="45.34037" lon="5.89216">
        <ele>1285</ele>
        <time>2011-11-15T14:24:05Z</time>
      </trkpt>
      <trkpt lat="45.34032" lon="5.89222">
        <ele>1285</ele>
        <time>2011-11-15T14:24:07Z</time>
      </trkpt>
      <trkpt lat="45.34025" lon="5.89228">
        <ele>1284.8</ele>
        <time>2011-11-15T14:24:10Z</time>
      </trkpt>
      <trkpt lat="45.34016" lon="5.89238">
        <ele>1284.6</ele>
        <time>2011-11-15T14:24:14Z</time>
      </trkpt>
      <trkpt lat="45.34011" lon="5.89243">
        <ele>1284.4</ele>
        <time>2011-11-15T14:24:16Z</time>
      </trkpt>
      <trkpt lat="45.33998" lon="5.89253">
        <ele>1284</ele>
        <time>2011-11-15T14:24:21Z</time>
      </trkpt>
      <trkpt lat="45.33995" lon="5.89255">
        <ele>1284</ele>
        <time>2011-11-15T14:24:22Z</time>
      </trkpt>
      <trkpt lat="45.3398" lon="5.89259">
        <ele>1283.6</ele>
        <time>2011-11-15T14:24:27Z</time>
      </trkpt>
      <trkpt lat="45.3397" lon="5.89258">
        <ele>1283.4</ele>
        <time>2011-11-15T14:24:30Z</time>
      </trkpt>
      <trkpt lat="45.3396" lon="5.89256">
        <ele>1283</ele>
        <time>2011-11-15T14:24:33Z</time>
      </trkpt>
      <trkpt lat="45.33951" lon="5.89252">
        <ele>1282.8</ele>
        <time>2011-11-15T14:24:36Z</time>
      </trkpt>
      <trkpt lat="45.33941" lon="5.89248">
        <ele>1282.8</ele>
        <time>2011-11-15T14:24:39Z</time>
      </trkpt>
      <trkpt lat="45.33936" lon="5.89246">
        <ele>1282.6</ele>
        <time>2011-11-15T14:24:41Z</time>
      </trkpt>
      <trkpt lat="45.33923" lon="5.89242">
        <ele>1282.4</ele>
        <time>2011-11-15T14:24:45Z</time>
      </trkpt>
      <trkpt lat="45.33915" lon="5.89239">
        <ele>1282.4</ele>
        <time>2011-11-15T14:24:48Z</time>
      </trkpt>
      <trkpt lat="45.33905" lon="5.89237">
        <ele>1282.2</ele>
        <time>2011-11-15T14:24:51Z</time>
      </trkpt>
      <trkpt lat="45.33893" lon="5.89232">
        <ele>1282</ele>
        <time>2011-11-15T14:24:55Z</time>
      </trkpt>
      <trkpt lat="45.33887" lon="5.89229">
        <ele>1281.8</ele>
        <time>2011-11-15T14:24:57Z</time>
      </trkpt>
      <trkpt lat="45.33878" lon="5.89224">
        <ele>1281.6</ele>
        <time>2011-11-15T14:25:00Z</time>
      </trkpt>
      <trkpt lat="45.33868" lon="5.89219">
        <ele>1281.2</ele>
        <time>2011-11-15T14:25:03Z</time>
      </trkpt>
      <trkpt lat="45.33859" lon="5.89213">
        <ele>1280.8</ele>
        <time>2011-11-15T14:25:06Z</time>
      </trkpt>
      <trkpt lat="45.33851" lon="5.89211">
        <ele>1280.6</ele>
        <time>2011-11-15T14:25:08Z</time>
      </trkpt>
      <trkpt lat="45.33842" lon="5.89208">
        <ele>1280.2</ele>
        <time>2011-11-15T14:25:11Z</time>
      </trkpt>
      <trkpt lat="45.33832" lon="5.89206">
        <ele>1280</ele>
        <time>2011-11-15T14:25:14Z</time>
      </trkpt>
      <trkpt lat="45.33829" lon="5.89204">
        <ele>1279.8</ele>
        <time>2011-11-15T14:25:15Z</time>
      </trkpt>
      <trkpt lat="45.33814" lon="5.89197">
        <ele>1279.2</ele>
        <time>2011-11-15T14:25:20Z</time>
      </trkpt>
      <trkpt lat="45.33808" lon="5.89194">
        <ele>1278.8</ele>
        <time>2011-11-15T14:25:22Z</time>
      </trkpt>
      <trkpt lat="45.33796" lon="5.89188">
        <ele>1278.4</ele>
        <time>2011-11-15T14:25:26Z</time>
      </trkpt>
      <trkpt lat="45.33793" lon="5.89187">
        <ele>1278.2</ele>
        <time>2011-11-15T14:25:27Z</time>
      </trkpt>
      <trkpt lat="45.3378" lon="5.89181">
        <ele>1277.8</ele>
        <time>2011-11-15T14:25:31Z</time>
      </trkpt>
      <trkpt lat="45.33777" lon="5.89179">
        <ele>1277.6</ele>
        <time>2011-11-15T14:25:32Z</time>
      </trkpt>
      <trkpt lat="45.33766" lon="5.89172">
        <ele>1277.2</ele>
        <time>2011-11-15T14:25:36Z</time>
      </trkpt>
      <trkpt lat="45.3376" lon="5.89169">
        <ele>1277</ele>
        <time>2011-11-15T14:25:38Z</time>
      </trkpt>
      <trkpt lat="45.3375" lon="5.89167">
        <ele>1276.6</ele>
        <time>2011-11-15T14:25:41Z</time>
      </trkpt>
      <trkpt lat="45.33742" lon="5.89164">
        <ele>1276.4</ele>
        <time>2011-11-15T14:25:44Z</time>
      </trkpt>
      <trkpt lat="45.33734" lon="5.89162">
        <ele>1276.2</ele>
        <time>2011-11-15T14:25:46Z</time>
      </trkpt>
      <trkpt lat="45.33723" lon="5.89156">
        <ele>1276</ele>
        <time>2011-11-15T14:25:50Z</time>
      </trkpt>
      <trkpt lat="45.33716" lon="5.89154">
        <ele>1275.8</ele>
        <time>2011-11-15T14:25:52Z</time>
      </trkpt>
      <trkpt lat="45.33703" lon="5.8915">
        <ele>1275.6</ele>
        <time>2011-11-15T14:25:56Z</time>
      </trkpt>
      <trkpt lat="45.33696" lon="5.89146">
        <ele>1275.4</ele>
        <time>2011-11-15T14:25:58Z</time>
      </trkpt>
      <trkpt lat="45.33685" lon="5.89138">
        <ele>1275</ele>
        <time>2011-11-15T14:26:02Z</time>
      </trkpt>
      <trkpt lat="45.33682" lon="5.89137">
        <ele>1275</ele>
        <time>2011-11-15T14:26:03Z</time>
      </trkpt>
      <trkpt lat="45.33667" lon="5.89127">
        <ele>1274.6</ele>
        <time>2011-11-15T14:26:08Z</time>
      </trkpt>
      <trkpt lat="45.33661" lon="5.89124">
        <ele>1274.4</ele>
        <time>2011-11-15T14:26:10Z</time>
      </trkpt>
      <trkpt lat="45.33651" lon="5.89116">
        <ele>1274.2</ele>
        <time>2011-11-15T14:26:14Z</time>
      </trkpt>
      <trkpt lat="45.33634" lon="5.89109">
        <ele>1273.8</ele>
        <time>2011-11-15T14:26:19Z</time>
      </trkpt>
      <trkpt lat="45.33631" lon="5.89109">
        <ele>1273.8</ele>
        <time>2011-11-15T14:26:20Z</time>
      </trkpt>
      <trkpt lat="45.33611" lon="5.89105">
        <ele>1273.2</ele>
        <time>2011-11-15T14:26:26Z</time>
      </trkpt>
      <trkpt lat="45.33593" lon="5.89102">
        <ele>1272.6</ele>
        <time>2011-11-15T14:26:32Z</time>
      </trkpt>
      <trkpt lat="45.33574" lon="5.89095">
        <ele>1272</ele>
        <time>2011-11-15T14:26:38Z</time>
      </trkpt>
      <trkpt lat="45.33559" lon="5.89088">
        <ele>1271.6</ele>
        <time>2011-11-15T14:26:43Z</time>
      </trkpt>
      <trkpt lat="45.33556" lon="5.89086">
        <ele>1271.6</ele>
        <time>2011-11-15T14:26:44Z</time>
      </trkpt>
      <trkpt lat="45.33546" lon="5.89079">
        <ele>1271</ele>
        <time>2011-11-15T14:26:48Z</time>
      </trkpt>
      <trkpt lat="45.33537" lon="5.89074">
        <ele>1270.8</ele>
        <time>2011-11-15T14:26:51Z</time>
      </trkpt>
      <trkpt lat="45.33531" lon="5.89071">
        <ele>1270.6</ele>
        <time>2011-11-15T14:26:53Z</time>
      </trkpt>
      <trkpt lat="45.33518" lon="5.89063">
        <ele>1270</ele>
        <time>2011-11-15T14:26:58Z</time>
      </trkpt>
      <trkpt lat="45.33516" lon="5.89061">
        <ele>1269.8</ele>
        <time>2011-11-15T14:26:59Z</time>
      </trkpt>
      <trkpt lat="45.33501" lon="5.89056">
        <ele>1269.4</ele>
        <time>2011-11-15T14:27:04Z</time>
      </trkpt>
      <trkpt lat="45.33485" lon="5.89046">
        <ele>1268.8</ele>
        <time>2011-11-15T14:27:09Z</time>
      </trkpt>
      <trkpt lat="45.33482" lon="5.89044">
        <ele>1268.8</ele>
        <time>2011-11-15T14:27:10Z</time>
      </trkpt>
      <trkpt lat="45.33471" lon="5.89036">
        <ele>1268.4</ele>
        <time>2011-11-15T14:27:14Z</time>
      </trkpt>
      <trkpt lat="45.33466" lon="5.89031">
        <ele>1268</ele>
        <time>2011-11-15T14:27:16Z</time>
      </trkpt>
      <trkpt lat="45.33457" lon="5.89026">
        <ele>1267.8</ele>
        <time>2011-11-15T14:27:19Z</time>
      </trkpt>
      <trkpt lat="45.33449" lon="5.8902">
        <ele>1267.4</ele>
        <time>2011-11-15T14:27:22Z</time>
      </trkpt>
      <trkpt lat="45.33444" lon="5.89016">
        <ele>1267.2</ele>
        <time>2011-11-15T14:27:24Z</time>
      </trkpt>
      <trkpt lat="45.33434" lon="5.89006">
        <ele>1266.8</ele>
        <time>2011-11-15T14:27:28Z</time>
      </trkpt>
      <trkpt lat="45.33431" lon="5.89003">
        <ele>1266.6</ele>
        <time>2011-11-15T14:27:29Z</time>
      </trkpt>
      <trkpt lat="45.33417" lon="5.88992">
        <ele>1265.8</ele>
        <time>2011-11-15T14:27:34Z</time>
      </trkpt>
      <trkpt lat="45.33405" lon="5.88984">
        <ele>1265.4</ele>
        <time>2011-11-15T14:27:38Z</time>
      </trkpt>
      <trkpt lat="45.33399" lon="5.88982">
        <ele>1265</ele>
        <time>2011-11-15T14:27:40Z</time>
      </trkpt>
      <trkpt lat="45.33389" lon="5.88979">
        <ele>1264.6</ele>
        <time>2011-11-15T14:27:43Z</time>
      </trkpt>
      <trkpt lat="45.3338" lon="5.88974">
        <ele>1264.2</ele>
        <time>2011-11-15T14:27:46Z</time>
      </trkpt>
      <trkpt lat="45.33371" lon="5.8897">
        <ele>1263.8</ele>
        <time>2011-11-15T14:27:49Z</time>
      </trkpt>
      <trkpt lat="45.33362" lon="5.88965">
        <ele>1263.4</ele>
        <time>2011-11-15T14:27:52Z</time>
      </trkpt>
      <trkpt lat="45.33354" lon="5.88961">
        <ele>1263.2</ele>
        <time>2011-11-15T14:27:55Z</time>
      </trkpt>
      <trkpt lat="45.33344" lon="5.88956">
        <ele>1262.8</ele>
        <time>2011-11-15T14:27:58Z</time>
      </trkpt>
      <trkpt lat="45.33338" lon="5.88953">
        <ele>1262.6</ele>
        <time>2011-11-15T14:28:00Z</time>
      </trkpt>
      <trkpt lat="45.33326" lon="5.88947">
        <ele>1262.2</ele>
        <time>2011-11-15T14:28:04Z</time>
      </trkpt>
      <trkpt lat="45.33318" lon="5.88941">
        <ele>1262</ele>
        <time>2011-11-15T14:28:07Z</time>
      </trkpt>
      <trkpt lat="45.33308" lon="5.88932">
        <ele>1261.4</ele>
        <time>2011-11-15T14:28:11Z</time>
      </trkpt>
      <trkpt lat="45.33305" lon="5.8893">
        <ele>1261.4</ele>
        <time>2011-11-15T14:28:12Z</time>
      </trkpt>
      <trkpt lat="45.33289" lon="5.88925">
        <ele>1260.8</ele>
        <time>2011-11-15T14:28:17Z</time>
      </trkpt>
      <trkpt lat="45.33273" lon="5.8893">
        <ele>1260.2</ele>
        <time>2011-11-15T14:28:22Z</time>
      </trkpt>
      <trkpt lat="45.3327" lon="5.88932">
        <ele>1260</ele>
        <time>2011-11-15T14:28:23Z</time>
      </trkpt>
      <trkpt lat="45.33256" lon="5.88943">
        <ele>1259.4</ele>
        <time>2011-11-15T14:28:28Z</time>
      </trkpt>
      <trkpt lat="45.33253" lon="5.88944">
        <ele>1259.2</ele>
        <time>2011-11-15T14:28:29Z</time>
      </trkpt>
      <trkpt lat="45.33241" lon="5.88946">
        <ele>1258.4</ele>
        <time>2011-11-15T14:28:33Z</time>
      </trkpt>
      <trkpt lat="45.33235" lon="5.88947">
        <ele>1258.2</ele>
        <time>2011-11-15T14:28:35Z</time>
      </trkpt>
      <trkpt lat="45.33226" lon="5.88946">
        <ele>1257.6</ele>
        <time>2011-11-15T14:28:38Z</time>
      </trkpt>
      <trkpt lat="45.33214" lon="5.88945">
        <ele>1257</ele>
        <time>2011-11-15T14:28:42Z</time>
      </trkpt>
      <trkpt lat="45.33198" lon="5.88945">
        <ele>1256.4</ele>
        <time>2011-11-15T14:28:47Z</time>
      </trkpt>
      <trkpt lat="45.33194" lon="5.88944">
        <ele>1256.2</ele>
        <time>2011-11-15T14:28:48Z</time>
      </trkpt>
      <trkpt lat="45.33181" lon="5.88944">
        <ele>1255.6</ele>
        <time>2011-11-15T14:28:52Z</time>
      </trkpt>
      <trkpt lat="45.33175" lon="5.88942">
        <ele>1255.4</ele>
        <time>2011-11-15T14:28:54Z</time>
      </trkpt>
      <trkpt lat="45.33168" lon="5.88941">
        <ele>1255.2</ele>
        <time>2011-11-15T14:28:56Z</time>
      </trkpt>
      <trkpt lat="45.33155" lon="5.88935">
        <ele>1254.6</ele>
        <time>2011-11-15T14:29:00Z</time>
      </trkpt>
      <trkpt lat="45.33146" lon="5.88929">
        <ele>1254.2</ele>
        <time>2011-11-15T14:29:03Z</time>
      </trkpt>
      <trkpt lat="45.33136" lon="5.88924">
        <ele>1254</ele>
        <time>2011-11-15T14:29:06Z</time>
      </trkpt>
      <trkpt lat="45.33124" lon="5.88914">
        <ele>1253.6</ele>
        <time>2011-11-15T14:29:10Z</time>
      </trkpt>
      <trkpt lat="45.33117" lon="5.88909">
        <ele>1253.2</ele>
        <time>2011-11-15T14:29:12Z</time>
      </trkpt>
      <trkpt lat="45.33107" lon="5.88901">
        <ele>1252.8</ele>
        <time>2011-11-15T14:29:15Z</time>
      </trkpt>
      <trkpt lat="45.33101" lon="5.88896">
        <ele>1252.4</ele>
        <time>2011-11-15T14:29:17Z</time>
      </trkpt>
      <trkpt lat="45.33091" lon="5.88883">
        <ele>1251.8</ele>
        <time>2011-11-15T14:29:21Z</time>
      </trkpt>
      <trkpt lat="45.33086" lon="5.88877">
        <ele>1251.6</ele>
        <time>2011-11-15T14:29:23Z</time>
      </trkpt>
      <trkpt lat="45.33079" lon="5.88866">
        <ele>1251</ele>
        <time>2011-11-15T14:29:26Z</time>
      </trkpt>
      <trkpt lat="45.33073" lon="5.88854">
        <ele>1250.6</ele>
        <time>2011-11-15T14:29:29Z</time>
      </trkpt>
      <trkpt lat="45.3307" lon="5.88847">
        <ele>1250.4</ele>
        <time>2011-11-15T14:29:31Z</time>
      </trkpt>
      <trkpt lat="45.33066" lon="5.8883">
        <ele>1249.8</ele>
        <time>2011-11-15T14:29:35Z</time>
      </trkpt>
      <trkpt lat="45.33065" lon="5.88825">
        <ele>1249.8</ele>
        <time>2011-11-15T14:29:36Z</time>
      </trkpt>
      <trkpt lat="45.33062" lon="5.88804">
        <ele>1249.2</ele>
        <time>2011-11-15T14:29:41Z</time>
      </trkpt>
      <trkpt lat="45.33061" lon="5.88799">
        <ele>1249</ele>
        <time>2011-11-15T14:29:42Z</time>
      </trkpt>
      <trkpt lat="45.3306" lon="5.88775">
        <ele>1248.6</ele>
        <time>2011-11-15T14:29:47Z</time>
      </trkpt>
      <trkpt lat="45.33061" lon="5.88749">
        <ele>1247.8</ele>
        <time>2011-11-15T14:29:53Z</time>
      </trkpt>
      <trkpt lat="45.33062" lon="5.88743">
        <ele>1247.8</ele>
        <time>2011-11-15T14:29:54Z</time>
      </trkpt>
      <trkpt lat="45.33061" lon="5.88719">
        <ele>1247.2</ele>
        <time>2011-11-15T14:29:59Z</time>
      </trkpt>
      <trkpt lat="45.33054" lon="5.88694">
        <ele>1246.6</ele>
        <time>2011-11-15T14:30:05Z</time>
      </trkpt>
      <trkpt lat="45.33042" lon="5.88672">
        <ele>1245.8</ele>
        <time>2011-11-15T14:30:11Z</time>
      </trkpt>
      <trkpt lat="45.33042" lon="5.88668">
        <ele>1245.6</ele>
        <time>2011-11-15T14:30:12Z</time>
      </trkpt>
      <trkpt lat="45.33043" lon="5.88648">
        <ele>1245</ele>
        <time>2011-11-15T14:30:16Z</time>
      </trkpt>
      <trkpt lat="45.33044" lon="5.88643">
        <ele>1244.8</ele>
        <time>2011-11-15T14:30:17Z</time>
      </trkpt>
      <trkpt lat="45.33048" lon="5.88625">
        <ele>1244.4</ele>
        <time>2011-11-15T14:30:21Z</time>
      </trkpt>
      <trkpt lat="45.33048" lon="5.88616">
        <ele>1244</ele>
        <time>2011-11-15T14:30:23Z</time>
      </trkpt>
      <trkpt lat="45.33046" lon="5.88609">
        <ele>1243.8</ele>
        <time>2011-11-15T14:30:25Z</time>
      </trkpt>
      <trkpt lat="45.33039" lon="5.88604">
        <ele>1243.4</ele>
        <time>2011-11-15T14:30:28Z</time>
      </trkpt>
      <trkpt lat="45.33036" lon="5.88605">
        <ele>1243.2</ele>
        <time>2011-11-15T14:30:29Z</time>
      </trkpt>
      <trkpt lat="45.33034" lon="5.88605">
        <ele>1243</ele>
        <time>2011-11-15T14:30:30Z</time>
      </trkpt>
      <trkpt lat="45.33021" lon="5.88609">
        <ele>1242.4</ele>
        <time>2011-11-15T14:30:34Z</time>
      </trkpt>
      <trkpt lat="45.33015" lon="5.88612">
        <ele>1242</ele>
        <time>2011-11-15T14:30:36Z</time>
      </trkpt>
      <trkpt lat="45.33006" lon="5.88614">
        <ele>1241.6</ele>
        <time>2011-11-15T14:30:39Z</time>
      </trkpt>
      <trkpt lat="45.32995" lon="5.88614">
        <ele>1241</ele>
        <time>2011-11-15T14:30:42Z</time>
      </trkpt>
      <trkpt lat="45.32985" lon="5.88609">
        <ele>1240.6</ele>
        <time>2011-11-15T14:30:45Z</time>
      </trkpt>
      <trkpt lat="45.32976" lon="5.88599">
        <ele>1240</ele>
        <time>2011-11-15T14:30:48Z</time>
      </trkpt>
      <trkpt lat="45.32972" lon="5.88593">
        <ele>1239.6</ele>
        <time>2011-11-15T14:30:50Z</time>
      </trkpt>
      <trkpt lat="45.32963" lon="5.88583">
        <ele>1238.8</ele>
        <time>2011-11-15T14:30:54Z</time>
      </trkpt>
      <trkpt lat="45.32961" lon="5.88581">
        <ele>1238.6</ele>
        <time>2011-11-15T14:30:55Z</time>
      </trkpt>
      <trkpt lat="45.32953" lon="5.88572">
        <ele>1238</ele>
        <time>2011-11-15T14:30:58Z</time>
      </trkpt>
      <trkpt lat="45.32947" lon="5.8856">
        <ele>1237.4</ele>
        <time>2011-11-15T14:31:01Z</time>
      </trkpt>
      <trkpt lat="45.32947" lon="5.8856">
        <ele>1237.4</ele>
        <time>2011-11-15T14:31:01Z</time>
      </trkpt>
      <trkpt lat="45.32948" lon="5.88556">
        <ele>1237.2</ele>
        <time>2011-11-15T14:31:02Z</time>
      </trkpt>
      <trkpt lat="45.32958" lon="5.88544">
        <ele>1236.2</ele>
        <time>2011-11-15T14:31:06Z</time>
      </trkpt>
      <trkpt lat="45.3296" lon="5.88541">
        <ele>1236</ele>
        <time>2011-11-15T14:31:07Z</time>
      </trkpt>
      <trkpt lat="45.32962" lon="5.88538">
        <ele>1235.8</ele>
        <time>2011-11-15T14:31:08Z</time>
      </trkpt>
      <trkpt lat="45.32964" lon="5.88531">
        <ele>1235.4</ele>
        <time>2011-11-15T14:31:10Z</time>
      </trkpt>
      <trkpt lat="45.32966" lon="5.88514">
        <ele>1234.6</ele>
        <time>2011-11-15T14:31:14Z</time>
      </trkpt>
      <trkpt lat="45.32965" lon="5.8851">
        <ele>1234.6</ele>
        <time>2011-11-15T14:31:15Z</time>
      </trkpt>
      <trkpt lat="45.32958" lon="5.885">
        <ele>1234</ele>
        <time>2011-11-15T14:31:18Z</time>
      </trkpt>
      <trkpt lat="45.32954" lon="5.88498">
        <ele>1234</ele>
        <time>2011-11-15T14:31:19Z</time>
      </trkpt>
      <trkpt lat="45.32951" lon="5.88497">
        <ele>1233.8</ele>
        <time>2011-11-15T14:31:20Z</time>
      </trkpt>
      <trkpt lat="45.3294" lon="5.8849">
        <ele>1233.2</ele>
        <time>2011-11-15T14:31:24Z</time>
      </trkpt>
      <trkpt lat="45.32937" lon="5.88481">
        <ele>1233</ele>
        <time>2011-11-15T14:31:26Z</time>
      </trkpt>
      <trkpt lat="45.32934" lon="5.88474">
        <ele>1232.6</ele>
        <time>2011-11-15T14:31:28Z</time>
      </trkpt>
      <trkpt lat="45.32931" lon="5.88456">
        <ele>1232</ele>
        <time>2011-11-15T14:31:32Z</time>
      </trkpt>
      <trkpt lat="45.3293" lon="5.88452">
        <ele>1232</ele>
        <time>2011-11-15T14:31:33Z</time>
      </trkpt>
      <trkpt lat="45.32928" lon="5.88432">
        <ele>1231.4</ele>
        <time>2011-11-15T14:31:37Z</time>
      </trkpt>
      <trkpt lat="45.32926" lon="5.88428">
        <ele>1231.2</ele>
        <time>2011-11-15T14:31:38Z</time>
      </trkpt>
      <trkpt lat="45.32919" lon="5.88417">
        <ele>1230.6</ele>
        <time>2011-11-15T14:31:41Z</time>
      </trkpt>
      <trkpt lat="45.32914" lon="5.88406">
        <ele>1230.2</ele>
        <time>2011-11-15T14:31:44Z</time>
      </trkpt>
      <trkpt lat="45.32911" lon="5.88403">
        <ele>1230</ele>
        <time>2011-11-15T14:31:45Z</time>
      </trkpt>
      <trkpt lat="45.32897" lon="5.88389">
        <ele>1229.2</ele>
        <time>2011-11-15T14:31:50Z</time>
      </trkpt>
      <trkpt lat="45.32892" lon="5.88383">
        <ele>1228.8</ele>
        <time>2011-11-15T14:31:52Z</time>
      </trkpt>
      <trkpt lat="45.32883" lon="5.88372">
        <ele>1228</ele>
        <time>2011-11-15T14:31:56Z</time>
      </trkpt>
      <trkpt lat="45.32878" lon="5.88369">
        <ele>1227.8</ele>
        <time>2011-11-15T14:31:58Z</time>
      </trkpt>
      <trkpt lat="45.32866" lon="5.88369">
        <ele>1227</ele>
        <time>2011-11-15T14:32:03Z</time>
      </trkpt>
      <trkpt lat="45.32863" lon="5.88372">
        <ele>1227</ele>
        <time>2011-11-15T14:32:04Z</time>
      </trkpt>
      <trkpt lat="45.32859" lon="5.88382">
        <ele>1226.8</ele>
        <time>2011-11-15T14:32:07Z</time>
      </trkpt>
      <trkpt lat="45.32859" lon="5.88397">
        <ele>1227</ele>
        <time>2011-11-15T14:32:10Z</time>
      </trkpt>
      <trkpt lat="45.32859" lon="5.88407">
        <ele>1227.4</ele>
        <time>2011-11-15T14:32:12Z</time>
      </trkpt>
      <trkpt lat="45.32856" lon="5.88426">
        <ele>1228.4</ele>
        <time>2011-11-15T14:32:16Z</time>
      </trkpt>
      <trkpt lat="45.32855" lon="5.8843">
        <ele>1228.6</ele>
        <time>2011-11-15T14:32:17Z</time>
      </trkpt>
      <trkpt lat="45.32841" lon="5.88446">
        <ele>1228</ele>
        <time>2011-11-15T14:32:22Z</time>
      </trkpt>
      <trkpt lat="45.32824" lon="5.88453">
        <ele>1227.8</ele>
        <time>2011-11-15T14:32:27Z</time>
      </trkpt>
      <trkpt lat="45.32821" lon="5.88454">
        <ele>1227.6</ele>
        <time>2011-11-15T14:32:28Z</time>
      </trkpt>
      <trkpt lat="45.32811" lon="5.88452">
        <ele>1227.2</ele>
        <time>2011-11-15T14:32:31Z</time>
      </trkpt>
      <trkpt lat="45.32801" lon="5.88447">
        <ele>1226.8</ele>
        <time>2011-11-15T14:32:34Z</time>
      </trkpt>
      <trkpt lat="45.32794" lon="5.88442">
        <ele>1226.6</ele>
        <time>2011-11-15T14:32:36Z</time>
      </trkpt>
      <trkpt lat="45.32785" lon="5.88434">
        <ele>1226</ele>
        <time>2011-11-15T14:32:39Z</time>
      </trkpt>
      <trkpt lat="45.32775" lon="5.88428">
        <ele>1225.6</ele>
        <time>2011-11-15T14:32:42Z</time>
      </trkpt>
      <trkpt lat="45.32765" lon="5.88425">
        <ele>1225</ele>
        <time>2011-11-15T14:32:45Z</time>
      </trkpt>
      <trkpt lat="45.32762" lon="5.88424">
        <ele>1225</ele>
        <time>2011-11-15T14:32:46Z</time>
      </trkpt>
      <trkpt lat="45.3275" lon="5.88418">
        <ele>1224.2</ele>
        <time>2011-11-15T14:32:50Z</time>
      </trkpt>
      <trkpt lat="45.32748" lon="5.88417">
        <ele>1224</ele>
        <time>2011-11-15T14:32:51Z</time>
      </trkpt>
      <trkpt lat="45.32735" lon="5.88412">
        <ele>1223.4</ele>
        <time>2011-11-15T14:32:55Z</time>
      </trkpt>
      <trkpt lat="45.32729" lon="5.88408">
        <ele>1223</ele>
        <time>2011-11-15T14:32:57Z</time>
      </trkpt>
      <trkpt lat="45.32721" lon="5.88399">
        <ele>1222.6</ele>
        <time>2011-11-15T14:33:00Z</time>
      </trkpt>
      <trkpt lat="45.32715" lon="5.88389">
        <ele>1222</ele>
        <time>2011-11-15T14:33:03Z</time>
      </trkpt>
      <trkpt lat="45.32707" lon="5.88375">
        <ele>1221.6</ele>
        <time>2011-11-15T14:33:07Z</time>
      </trkpt>
      <trkpt lat="45.32703" lon="5.88365">
        <ele>1221.2</ele>
        <time>2011-11-15T14:33:10Z</time>
      </trkpt>
      <trkpt lat="45.32701" lon="5.88359">
        <ele>1221</ele>
        <time>2011-11-15T14:33:12Z</time>
      </trkpt>
      <trkpt lat="45.32697" lon="5.88343">
        <ele>1220.6</ele>
        <time>2011-11-15T14:33:17Z</time>
      </trkpt>
      <trkpt lat="45.32696" lon="5.88339">
        <ele>1220.6</ele>
        <time>2011-11-15T14:33:18Z</time>
      </trkpt>
      <trkpt lat="45.32691" lon="5.88327">
        <ele>1220.6</ele>
        <time>2011-11-15T14:33:22Z</time>
      </trkpt>
      <trkpt lat="45.32687" lon="5.88316">
        <ele>1220.4</ele>
        <time>2011-11-15T14:33:26Z</time>
      </trkpt>
      <trkpt lat="45.32683" lon="5.88314">
        <ele>1220.4</ele>
        <time>2011-11-15T14:33:28Z</time>
      </trkpt>
      <trkpt lat="45.32676" lon="5.88324">
        <ele>1220.4</ele>
        <time>2011-11-15T14:33:32Z</time>
      </trkpt>
      <trkpt lat="45.32671" lon="5.88333">
        <ele>1220.4</ele>
        <time>2011-11-15T14:33:34Z</time>
      </trkpt>
      <trkpt lat="45.32669" lon="5.88343">
        <ele>1220.4</ele>
        <time>2011-11-15T14:33:37Z</time>
      </trkpt>
      <trkpt lat="45.32668" lon="5.8836">
        <ele>1220.8</ele>
        <time>2011-11-15T14:33:41Z</time>
      </trkpt>
      <trkpt lat="45.32666" lon="5.88365">
        <ele>1220.8</ele>
        <time>2011-11-15T14:33:42Z</time>
      </trkpt>
      <trkpt lat="45.32656" lon="5.88384">
        <ele>1220.6</ele>
        <time>2011-11-15T14:33:47Z</time>
      </trkpt>
      <trkpt lat="45.32642" lon="5.88386">
        <ele>1220.4</ele>
        <time>2011-11-15T14:33:51Z</time>
      </trkpt>
      <trkpt lat="45.32635" lon="5.88384">
        <ele>1220.2</ele>
        <time>2011-11-15T14:33:53Z</time>
      </trkpt>
      <trkpt lat="45.32626" lon="5.8838">
        <ele>1220</ele>
        <time>2011-11-15T14:33:56Z</time>
      </trkpt>
      <trkpt lat="45.32616" lon="5.88378">
        <ele>1219.6</ele>
        <time>2011-11-15T14:33:59Z</time>
      </trkpt>
      <trkpt lat="45.32609" lon="5.88377">
        <ele>1219.4</ele>
        <time>2011-11-15T14:34:01Z</time>
      </trkpt>
      <trkpt lat="45.32598" lon="5.8838">
        <ele>1219</ele>
        <time>2011-11-15T14:34:05Z</time>
      </trkpt>
      <trkpt lat="45.32581" lon="5.88391">
        <ele>1218.2</ele>
        <time>2011-11-15T14:34:11Z</time>
      </trkpt>
      <trkpt lat="45.32576" lon="5.88394">
        <ele>1218</ele>
        <time>2011-11-15T14:34:13Z</time>
      </trkpt>
      <trkpt lat="45.32565" lon="5.88407">
        <ele>1217.8</ele>
        <time>2011-11-15T14:34:18Z</time>
      </trkpt>
      <trkpt lat="45.32558" lon="5.88425">
        <ele>1217.6</ele>
        <time>2011-11-15T14:34:22Z</time>
      </trkpt>
      <trkpt lat="45.32556" lon="5.88434">
        <ele>1217.6</ele>
        <time>2011-11-15T14:34:24Z</time>
      </trkpt>
      <trkpt lat="45.32551" lon="5.88447">
        <ele>1217.6</ele>
        <time>2011-11-15T14:34:27Z</time>
      </trkpt>
      <trkpt lat="45.32548" lon="5.8846">
        <ele>1218.2</ele>
        <time>2011-11-15T14:34:30Z</time>
      </trkpt>
      <trkpt lat="45.32547" lon="5.88464">
        <ele>1218.4</ele>
        <time>2011-11-15T14:34:31Z</time>
      </trkpt>
      <trkpt lat="45.32539" lon="5.88487">
        <ele>1219.6</ele>
        <time>2011-11-15T14:34:36Z</time>
      </trkpt>
      <trkpt lat="45.3253" lon="5.88508">
        <ele>1219.8</ele>
        <time>2011-11-15T14:34:41Z</time>
      </trkpt>
      <trkpt lat="45.32528" lon="5.88512">
        <ele>1219.8</ele>
        <time>2011-11-15T14:34:42Z</time>
      </trkpt>
      <trkpt lat="45.32519" lon="5.88527">
        <ele>1219.4</ele>
        <time>2011-11-15T14:34:46Z</time>
      </trkpt>
      <trkpt lat="45.32515" lon="5.88535">
        <ele>1219.2</ele>
        <time>2011-11-15T14:34:48Z</time>
      </trkpt>
      <trkpt lat="45.32509" lon="5.88546">
        <ele>1219.2</ele>
        <time>2011-11-15T14:34:51Z</time>
      </trkpt>
      <trkpt lat="45.32504" lon="5.88558">
        <ele>1219.2</ele>
        <time>2011-11-15T14:34:54Z</time>
      </trkpt>
      <trkpt lat="45.32501" lon="5.88566">
        <ele>1219</ele>
        <time>2011-11-15T14:34:56Z</time>
      </trkpt>
      <trkpt lat="45.32493" lon="5.88582">
        <ele>1218.8</ele>
        <time>2011-11-15T14:35:00Z</time>
      </trkpt>
      <trkpt lat="45.32481" lon="5.88601">
        <ele>1218.2</ele>
        <time>2011-11-15T14:35:05Z</time>
      </trkpt>
      <trkpt lat="45.32479" lon="5.88604">
        <ele>1218</ele>
        <time>2011-11-15T14:35:06Z</time>
      </trkpt>
      <trkpt lat="45.3247" lon="5.88615">
        <ele>1217.4</ele>
        <time>2011-11-15T14:35:10Z</time>
      </trkpt>
      <trkpt lat="45.32465" lon="5.8862">
        <ele>1217</ele>
        <time>2011-11-15T14:35:12Z</time>
      </trkpt>
      <trkpt lat="45.32456" lon="5.88628">
        <ele>1216.6</ele>
        <time>2011-11-15T14:35:15Z</time>
      </trkpt>
      <trkpt lat="45.32447" lon="5.88632">
        <ele>1216</ele>
        <time>2011-11-15T14:35:18Z</time>
      </trkpt>
      <trkpt lat="45.32441" lon="5.88631">
        <ele>1215.6</ele>
        <time>2011-11-15T14:35:20Z</time>
      </trkpt>
      <trkpt lat="45.32428" lon="5.88624">
        <ele>1215</ele>
        <time>2011-11-15T14:35:24Z</time>
      </trkpt>
      <trkpt lat="45.32425" lon="5.88622">
        <ele>1214.8</ele>
        <time>2011-11-15T14:35:25Z</time>
      </trkpt>
      <trkpt lat="45.32409" lon="5.88613">
        <ele>1213.6</ele>
        <time>2011-11-15T14:35:30Z</time>
      </trkpt>
      <trkpt lat="45.32391" lon="5.886">
        <ele>1212.4</ele>
        <time>2011-11-15T14:35:36Z</time>
      </trkpt>
      <trkpt lat="45.32374" lon="5.88588">
        <ele>1211.2</ele>
        <time>2011-11-15T14:35:41Z</time>
      </trkpt>
      <trkpt lat="45.32374" lon="5.88588">
        <ele>1211.2</ele>
        <time>2011-11-15T14:35:41Z</time>
      </trkpt>
      <trkpt lat="45.32356" lon="5.88573">
        <ele>1210</ele>
        <time>2011-11-15T14:35:47Z</time>
      </trkpt>
      <trkpt lat="45.32336" lon="5.88561">
        <ele>1208.8</ele>
        <time>2011-11-15T14:35:53Z</time>
      </trkpt>
      <trkpt lat="45.32319" lon="5.88556">
        <ele>1207.8</ele>
        <time>2011-11-15T14:35:58Z</time>
      </trkpt>
      <trkpt lat="45.32305" lon="5.88553">
        <ele>1206.8</ele>
        <time>2011-11-15T14:36:02Z</time>
      </trkpt>
      <trkpt lat="45.32298" lon="5.88551">
        <ele>1206.4</ele>
        <time>2011-11-15T14:36:04Z</time>
      </trkpt>
      <trkpt lat="45.32291" lon="5.8855">
        <ele>1206</ele>
        <time>2011-11-15T14:36:06Z</time>
      </trkpt>
      <trkpt lat="45.32278" lon="5.88545">
        <ele>1205.2</ele>
        <time>2011-11-15T14:36:10Z</time>
      </trkpt>
      <trkpt lat="45.32275" lon="5.88543">
        <ele>1205</ele>
        <time>2011-11-15T14:36:11Z</time>
      </trkpt>
      <trkpt lat="45.32264" lon="5.88529">
        <ele>1204</ele>
        <time>2011-11-15T14:36:15Z</time>
      </trkpt>
      <trkpt lat="45.3226" lon="5.88521">
        <ele>1203.6</ele>
        <time>2011-11-15T14:36:17Z</time>
      </trkpt>
      <trkpt lat="45.32254" lon="5.88504">
        <ele>1202.6</ele>
        <time>2011-11-15T14:36:21Z</time>
      </trkpt>
      <trkpt lat="45.32252" lon="5.88495">
        <ele>1202.2</ele>
        <time>2011-11-15T14:36:23Z</time>
      </trkpt>
      <trkpt lat="45.32249" lon="5.8848">
        <ele>1201.6</ele>
        <time>2011-11-15T14:36:26Z</time>
      </trkpt>
      <trkpt lat="45.32247" lon="5.88466">
        <ele>1201</ele>
        <time>2011-11-15T14:36:29Z</time>
      </trkpt>
      <trkpt lat="45.32245" lon="5.88454">
        <ele>1200.4</ele>
        <time>2011-11-15T14:36:32Z</time>
      </trkpt>
      <trkpt lat="45.32244" lon="5.88444">
        <ele>1200</ele>
        <time>2011-11-15T14:36:34Z</time>
      </trkpt>
      <trkpt lat="45.32242" lon="5.88424">
        <ele>1199</ele>
        <time>2011-11-15T14:36:38Z</time>
      </trkpt>
      <trkpt lat="45.32241" lon="5.88419">
        <ele>1198.8</ele>
        <time>2011-11-15T14:36:39Z</time>
      </trkpt>
      <trkpt lat="45.32243" lon="5.88398">
        <ele>1197.8</ele>
        <time>2011-11-15T14:36:43Z</time>
      </trkpt>
      <trkpt lat="45.32246" lon="5.88372">
        <ele>1196.4</ele>
        <time>2011-11-15T14:36:48Z</time>
      </trkpt>
      <trkpt lat="45.32252" lon="5.88347">
        <ele>1195.2</ele>
        <time>2011-11-15T14:36:53Z</time>
      </trkpt>
      <trkpt lat="45.3226" lon="5.88325">
        <ele>1193.8</ele>
        <time>2011-11-15T14:36:58Z</time>
      </trkpt>
      <trkpt lat="45.32261" lon="5.8832">
        <ele>1193.6</ele>
        <time>2011-11-15T14:36:59Z</time>
      </trkpt>
      <trkpt lat="45.32263" lon="5.88302">
        <ele>1192.6</ele>
        <time>2011-11-15T14:37:03Z</time>
      </trkpt>
      <trkpt lat="45.32263" lon="5.88291">
        <ele>1192.2</ele>
        <time>2011-11-15T14:37:05Z</time>
      </trkpt>
      <trkpt lat="45.32263" lon="5.88274">
        <ele>1191.4</ele>
        <time>2011-11-15T14:37:08Z</time>
      </trkpt>
      <trkpt lat="45.32266" lon="5.88262">
        <ele>1190.8</ele>
        <time>2011-11-15T14:37:11Z</time>
      </trkpt>
      <trkpt lat="45.32267" lon="5.88257">
        <ele>1190.4</ele>
        <time>2011-11-15T14:37:12Z</time>
      </trkpt>
      <trkpt lat="45.32269" lon="5.88236">
        <ele>1189.4</ele>
        <time>2011-11-15T14:37:16Z</time>
      </trkpt>
      <trkpt lat="45.3227" lon="5.88231">
        <ele>1189.2</ele>
        <time>2011-11-15T14:37:17Z</time>
      </trkpt>
      <trkpt lat="45.32269" lon="5.88207">
        <ele>1188</ele>
        <time>2011-11-15T14:37:22Z</time>
      </trkpt>
      <trkpt lat="45.32268" lon="5.88202">
        <ele>1187.6</ele>
        <time>2011-11-15T14:37:23Z</time>
      </trkpt>
      <trkpt lat="45.32261" lon="5.88184">
        <ele>1186.6</ele>
        <time>2011-11-15T14:37:27Z</time>
      </trkpt>
      <trkpt lat="45.32251" lon="5.88164">
        <ele>1185</ele>
        <time>2011-11-15T14:37:32Z</time>
      </trkpt>
      <trkpt lat="45.32248" lon="5.8816">
        <ele>1184.8</ele>
        <time>2011-11-15T14:37:33Z</time>
      </trkpt>
      <trkpt lat="45.32238" lon="5.88145">
        <ele>1183.6</ele>
        <time>2011-11-15T14:37:37Z</time>
      </trkpt>
      <trkpt lat="45.32235" lon="5.88142">
        <ele>1183.4</ele>
        <time>2011-11-15T14:37:38Z</time>
      </trkpt>
      <trkpt lat="45.32226" lon="5.88133">
        <ele>1182.6</ele>
        <time>2011-11-15T14:37:41Z</time>
      </trkpt>
      <trkpt lat="45.3222" lon="5.88129">
        <ele>1182.2</ele>
        <time>2011-11-15T14:37:43Z</time>
      </trkpt>
      <trkpt lat="45.32214" lon="5.88127">
        <ele>1181.6</ele>
        <time>2011-11-15T14:37:45Z</time>
      </trkpt>
      <trkpt lat="45.32204" lon="5.8813">
        <ele>1180.2</ele>
        <time>2011-11-15T14:37:50Z</time>
      </trkpt>
      <trkpt lat="45.32202" lon="5.88131">
        <ele>1180</ele>
        <time>2011-11-15T14:37:51Z</time>
      </trkpt>
      <trkpt lat="45.32192" lon="5.88136">
        <ele>1178.8</ele>
        <time>2011-11-15T14:37:55Z</time>
      </trkpt>
      <trkpt lat="45.32183" lon="5.8814">
        <ele>1177.8</ele>
        <time>2011-11-15T14:37:59Z</time>
      </trkpt>
      <trkpt lat="45.32177" lon="5.8814">
        <ele>1177.2</ele>
        <time>2011-11-15T14:38:01Z</time>
      </trkpt>
      <trkpt lat="45.32172" lon="5.8814">
        <ele>1175.8</ele>
        <time>2011-11-15T14:38:05Z</time>
      </trkpt>
      <trkpt lat="45.32174" lon="5.8814">
        <ele>1165.6</ele>
        <time>2011-11-15T14:38:43Z</time>
      </trkpt>
      <trkpt lat="45.3217" lon="5.88139">
        <ele>1164.8</ele>
        <time>2011-11-15T14:38:46Z</time>
      </trkpt>
      <trkpt lat="45.32166" lon="5.88138">
        <ele>1164.4</ele>
        <time>2011-11-15T14:38:48Z</time>
      </trkpt>
      <trkpt lat="45.32163" lon="5.88137">
        <ele>1164</ele>
        <time>2011-11-15T14:38:50Z</time>
      </trkpt>
      <trkpt lat="45.32161" lon="5.88137">
        <ele>1163.8</ele>
        <time>2011-11-15T14:38:51Z</time>
      </trkpt>
      <trkpt lat="45.32158" lon="5.88139">
        <ele>1163.6</ele>
        <time>2011-11-15T14:38:52Z</time>
      </trkpt>
      <trkpt lat="45.3215" lon="5.88142">
        <ele>1162.8</ele>
        <time>2011-11-15T14:38:55Z</time>
      </trkpt>
      <trkpt lat="45.32147" lon="5.88143">
        <ele>1162.6</ele>
        <time>2011-11-15T14:38:56Z</time>
      </trkpt>
      <trkpt lat="45.32145" lon="5.88145">
        <ele>1162.2</ele>
        <time>2011-11-15T14:38:57Z</time>
      </trkpt>
      <trkpt lat="45.32131" lon="5.88153">
        <ele>1160.6</ele>
        <time>2011-11-15T14:39:03Z</time>
      </trkpt>
      <trkpt lat="45.3213" lon="5.88155">
        <ele>1160.4</ele>
        <time>2011-11-15T14:39:04Z</time>
      </trkpt>
      <trkpt lat="45.32125" lon="5.88163">
        <ele>1159</ele>
        <time>2011-11-15T14:39:08Z</time>
      </trkpt>
      <trkpt lat="45.32118" lon="5.88174">
        <ele>1157.4</ele>
        <time>2011-11-15T14:39:13Z</time>
      </trkpt>
      <trkpt lat="45.32118" lon="5.88185">
        <ele>1156.4</ele>
        <time>2011-11-15T14:39:16Z</time>
      </trkpt>
      <trkpt lat="45.32117" lon="5.88191">
        <ele>1155.8</ele>
        <time>2011-11-15T14:39:18Z</time>
      </trkpt>
      <trkpt lat="45.32115" lon="5.88202">
        <ele>1154.8</ele>
        <time>2011-11-15T14:39:21Z</time>
      </trkpt>
      <trkpt lat="45.3211" lon="5.88208">
        <ele>1153.8</ele>
        <time>2011-11-15T14:39:23Z</time>
      </trkpt>
      <trkpt lat="45.321" lon="5.88219">
        <ele>1152.4</ele>
        <time>2011-11-15T14:39:27Z</time>
      </trkpt>
      <trkpt lat="45.32098" lon="5.88222">
        <ele>1152</ele>
        <time>2011-11-15T14:39:28Z</time>
      </trkpt>
      <trkpt lat="45.3209" lon="5.88235">
        <ele>1150.6</ele>
        <time>2011-11-15T14:39:32Z</time>
      </trkpt>
      <trkpt lat="45.32087" lon="5.8824">
        <ele>1149.6</ele>
        <time>2011-11-15T14:39:34Z</time>
      </trkpt>
      <trkpt lat="45.32081" lon="5.8825">
        <ele>1148.6</ele>
        <time>2011-11-15T14:39:37Z</time>
      </trkpt>
      <trkpt lat="45.32077" lon="5.88263">
        <ele>1147.2</ele>
        <time>2011-11-15T14:39:41Z</time>
      </trkpt>
      <trkpt lat="45.32075" lon="5.88268">
        <ele>1146.2</ele>
        <time>2011-11-15T14:39:43Z</time>
      </trkpt>
      <trkpt lat="45.32063" lon="5.88271">
        <ele>1143.8</ele>
        <time>2011-11-15T14:39:48Z</time>
      </trkpt>
      <trkpt lat="45.3206" lon="5.88268">
        <ele>1143.4</ele>
        <time>2011-11-15T14:39:49Z</time>
      </trkpt>
      <trkpt lat="45.32051" lon="5.88257">
        <ele>1141</ele>
        <time>2011-11-15T14:39:53Z</time>
      </trkpt>
      <trkpt lat="45.32044" lon="5.88252">
        <ele>1139.2</ele>
        <time>2011-11-15T14:39:56Z</time>
      </trkpt>
      <trkpt lat="45.32042" lon="5.8825">
        <ele>1138.6</ele>
        <time>2011-11-15T14:39:57Z</time>
      </trkpt>
      <trkpt lat="45.32038" lon="5.88249">
        <ele>1138</ele>
        <time>2011-11-15T14:39:58Z</time>
      </trkpt>
      <trkpt lat="45.32028" lon="5.88259">
        <ele>1135.8</ele>
        <time>2011-11-15T14:40:02Z</time>
      </trkpt>
      <trkpt lat="45.32018" lon="5.8828">
        <ele>1133</ele>
        <time>2011-11-15T14:40:07Z</time>
      </trkpt>
      <trkpt lat="45.32015" lon="5.88284">
        <ele>1132.4</ele>
        <time>2011-11-15T14:40:08Z</time>
      </trkpt>
      <trkpt lat="45.32002" lon="5.883">
        <ele>1129.8</ele>
        <time>2011-11-15T14:40:13Z</time>
      </trkpt>
      <trkpt lat="45.31998" lon="5.88302">
        <ele>1129.2</ele>
        <time>2011-11-15T14:40:14Z</time>
      </trkpt>
      <trkpt lat="45.31989" lon="5.88304">
        <ele>1127.6</ele>
        <time>2011-11-15T14:40:17Z</time>
      </trkpt>
      <trkpt lat="45.31979" lon="5.88303">
        <ele>1126</ele>
        <time>2011-11-15T14:40:20Z</time>
      </trkpt>
      <trkpt lat="45.31972" lon="5.88304">
        <ele>1125</ele>
        <time>2011-11-15T14:40:22Z</time>
      </trkpt>
      <trkpt lat="45.31961" lon="5.88313">
        <ele>1122.6</ele>
        <time>2011-11-15T14:40:27Z</time>
      </trkpt>
      <trkpt lat="45.31951" lon="5.88327">
        <ele>1120.2</ele>
        <time>2011-11-15T14:40:32Z</time>
      </trkpt>
      <trkpt lat="45.31947" lon="5.88332">
        <ele>1118.8</ele>
        <time>2011-11-15T14:40:35Z</time>
      </trkpt>
      <trkpt lat="45.31943" lon="5.88339">
        <ele>1118</ele>
        <time>2011-11-15T14:40:37Z</time>
      </trkpt>
      <trkpt lat="45.31936" lon="5.8835">
        <ele>1116.2</ele>
        <time>2011-11-15T14:40:41Z</time>
      </trkpt>
      <trkpt lat="45.31934" lon="5.88353">
        <ele>1115.8</ele>
        <time>2011-11-15T14:40:42Z</time>
      </trkpt>
      <trkpt lat="45.31924" lon="5.88366">
        <ele>1113.8</ele>
        <time>2011-11-15T14:40:47Z</time>
      </trkpt>
      <trkpt lat="45.31919" lon="5.8837">
        <ele>1112.8</ele>
        <time>2011-11-15T14:40:49Z</time>
      </trkpt>
      <trkpt lat="45.31908" lon="5.8838">
        <ele>1111</ele>
        <time>2011-11-15T14:40:53Z</time>
      </trkpt>
      <trkpt lat="45.31904" lon="5.88385">
        <ele>1110</ele>
        <time>2011-11-15T14:40:55Z</time>
      </trkpt>
      <trkpt lat="45.319" lon="5.88393">
        <ele>1108.8</ele>
        <time>2011-11-15T14:40:58Z</time>
      </trkpt>
      <trkpt lat="45.31898" lon="5.88395">
        <ele>1108.2</ele>
        <time>2011-11-15T14:40:59Z</time>
      </trkpt>
      <trkpt lat="45.3189" lon="5.88405">
        <ele>1106.6</ele>
        <time>2011-11-15T14:41:02Z</time>
      </trkpt>
      <trkpt lat="45.31889" lon="5.88407">
        <ele>1106.2</ele>
        <time>2011-11-15T14:41:03Z</time>
      </trkpt>
      <trkpt lat="45.31885" lon="5.88411">
        <ele>1105</ele>
        <time>2011-11-15T14:41:05Z</time>
      </trkpt>
      <trkpt lat="45.31879" lon="5.88419">
        <ele>1103.2</ele>
        <time>2011-11-15T14:41:08Z</time>
      </trkpt>
      <trkpt lat="45.31875" lon="5.88424">
        <ele>1102.2</ele>
        <time>2011-11-15T14:41:10Z</time>
      </trkpt>
      <trkpt lat="45.31867" lon="5.88431">
        <ele>1100.4</ele>
        <time>2011-11-15T14:41:13Z</time>
      </trkpt>
      <trkpt lat="45.31858" lon="5.88437">
        <ele>1098.4</ele>
        <time>2011-11-15T14:41:16Z</time>
      </trkpt>
      <trkpt lat="45.31852" lon="5.88438">
        <ele>1097.4</ele>
        <time>2011-11-15T14:41:18Z</time>
      </trkpt>
      <trkpt lat="45.31841" lon="5.88443">
        <ele>1094.2</ele>
        <time>2011-11-15T14:41:23Z</time>
      </trkpt>
      <trkpt lat="45.3184" lon="5.88446">
        <ele>1093.6</ele>
        <time>2011-11-15T14:41:24Z</time>
      </trkpt>
      <trkpt lat="45.31834" lon="5.88456">
        <ele>1091.8</ele>
        <time>2011-11-15T14:41:27Z</time>
      </trkpt>
      <trkpt lat="45.31833" lon="5.88459">
        <ele>1091.2</ele>
        <time>2011-11-15T14:41:28Z</time>
      </trkpt>
      <trkpt lat="45.3183" lon="5.88467">
        <ele>1090</ele>
        <time>2011-11-15T14:41:30Z</time>
      </trkpt>
      <trkpt lat="45.31827" lon="5.88476">
        <ele>1088.8</ele>
        <time>2011-11-15T14:41:32Z</time>
      </trkpt>
      <trkpt lat="45.31819" lon="5.88484">
        <ele>1086.2</ele>
        <time>2011-11-15T14:41:36Z</time>
      </trkpt>
      <trkpt lat="45.31817" lon="5.88486">
        <ele>1085.6</ele>
        <time>2011-11-15T14:41:37Z</time>
      </trkpt>
      <trkpt lat="45.31811" lon="5.88493">
        <ele>1083.8</ele>
        <time>2011-11-15T14:41:40Z</time>
      </trkpt>
      <trkpt lat="45.31804" lon="5.88503">
        <ele>1081.8</ele>
        <time>2011-11-15T14:41:43Z</time>
      </trkpt>
      <trkpt lat="45.31799" lon="5.88511">
        <ele>1080.4</ele>
        <time>2011-11-15T14:41:45Z</time>
      </trkpt>
      <trkpt lat="45.31788" lon="5.88519">
        <ele>1077.8</ele>
        <time>2011-11-15T14:41:49Z</time>
      </trkpt>
      <trkpt lat="45.31771" lon="5.88533">
        <ele>1074.2</ele>
        <time>2011-11-15T14:41:55Z</time>
      </trkpt>
      <trkpt lat="45.31761" lon="5.88546">
        <ele>1071.2</ele>
        <time>2011-11-15T14:42:00Z</time>
      </trkpt>
      <trkpt lat="45.31757" lon="5.88551">
        <ele>1070</ele>
        <time>2011-11-15T14:42:02Z</time>
      </trkpt>
      <trkpt lat="45.31752" lon="5.88566">
        <ele>1067.6</ele>
        <time>2011-11-15T14:42:06Z</time>
      </trkpt>
      <trkpt lat="45.31751" lon="5.88575">
        <ele>1066.4</ele>
        <time>2011-11-15T14:42:08Z</time>
      </trkpt>
      <trkpt lat="45.31749" lon="5.88584">
        <ele>1064.4</ele>
        <time>2011-11-15T14:42:11Z</time>
      </trkpt>
      <trkpt lat="45.31741" lon="5.88598">
        <ele>1061.2</ele>
        <time>2011-11-15T14:42:16Z</time>
      </trkpt>
      <trkpt lat="45.31739" lon="5.88599">
        <ele>1060.6</ele>
        <time>2011-11-15T14:42:17Z</time>
      </trkpt>
      <trkpt lat="45.31729" lon="5.88603">
        <ele>1058</ele>
        <time>2011-11-15T14:42:21Z</time>
      </trkpt>
      <trkpt lat="45.31721" lon="5.88605">
        <ele>1056</ele>
        <time>2011-11-15T14:42:24Z</time>
      </trkpt>
      <trkpt lat="45.31719" lon="5.88606">
        <ele>1055.4</ele>
        <time>2011-11-15T14:42:25Z</time>
      </trkpt>
      <trkpt lat="45.31714" lon="5.88609">
        <ele>1054.2</ele>
        <time>2011-11-15T14:42:27Z</time>
      </trkpt>
      <trkpt lat="45.31702" lon="5.88613">
        <ele>1051.6</ele>
        <time>2011-11-15T14:42:31Z</time>
      </trkpt>
      <trkpt lat="45.3169" lon="5.88622">
        <ele>1048.4</ele>
        <time>2011-11-15T14:42:36Z</time>
      </trkpt>
      <trkpt lat="45.31685" lon="5.88624">
        <ele>1047</ele>
        <time>2011-11-15T14:42:38Z</time>
      </trkpt>
      <trkpt lat="45.31675" lon="5.88631">
        <ele>1044.2</ele>
        <time>2011-11-15T14:42:42Z</time>
      </trkpt>
      <trkpt lat="45.31668" lon="5.88637">
        <ele>1042.4</ele>
        <time>2011-11-15T14:42:45Z</time>
      </trkpt>
      <trkpt lat="45.31663" lon="5.88644">
        <ele>1041</ele>
        <time>2011-11-15T14:42:47Z</time>
      </trkpt>
      <trkpt lat="45.31652" lon="5.88658">
        <ele>1038.4</ele>
        <time>2011-11-15T14:42:51Z</time>
      </trkpt>
      <trkpt lat="45.31647" lon="5.88665">
        <ele>1037.4</ele>
        <time>2011-11-15T14:42:53Z</time>
      </trkpt>
      <trkpt lat="45.31638" lon="5.88678">
        <ele>1035</ele>
        <time>2011-11-15T14:42:57Z</time>
      </trkpt>
      <trkpt lat="45.31625" lon="5.88684">
        <ele>1032.6</ele>
        <time>2011-11-15T14:43:01Z</time>
      </trkpt>
      <trkpt lat="45.31619" lon="5.8868">
        <ele>1031.4</ele>
        <time>2011-11-15T14:43:03Z</time>
      </trkpt>
      <trkpt lat="45.31609" lon="5.88675">
        <ele>1029.6</ele>
        <time>2011-11-15T14:43:06Z</time>
      </trkpt>
      <trkpt lat="45.316" lon="5.8867">
        <ele>1028</ele>
        <time>2011-11-15T14:43:09Z</time>
      </trkpt>
      <trkpt lat="45.31591" lon="5.88668">
        <ele>1026.4</ele>
        <time>2011-11-15T14:43:12Z</time>
      </trkpt>
      <trkpt lat="45.31582" lon="5.88667">
        <ele>1024.8</ele>
        <time>2011-11-15T14:43:15Z</time>
      </trkpt>
      <trkpt lat="45.31576" lon="5.88667">
        <ele>1023.8</ele>
        <time>2011-11-15T14:43:17Z</time>
      </trkpt>
      <trkpt lat="45.31564" lon="5.88666">
        <ele>1021.6</ele>
        <time>2011-11-15T14:43:21Z</time>
      </trkpt>
      <trkpt lat="45.31561" lon="5.88667">
        <ele>1021.2</ele>
        <time>2011-11-15T14:43:22Z</time>
      </trkpt>
      <trkpt lat="45.31546" lon="5.8867">
        <ele>1018.8</ele>
        <time>2011-11-15T14:43:27Z</time>
      </trkpt>
      <trkpt lat="45.31543" lon="5.8867">
        <ele>1018.4</ele>
        <time>2011-11-15T14:43:28Z</time>
      </trkpt>
      <trkpt lat="45.31524" lon="5.88669">
        <ele>1015.8</ele>
        <time>2011-11-15T14:43:34Z</time>
      </trkpt>
      <trkpt lat="45.31506" lon="5.88665">
        <ele>1013.2</ele>
        <time>2011-11-15T14:43:40Z</time>
      </trkpt>
      <trkpt lat="45.31487" lon="5.88659">
        <ele>1010.8</ele>
        <time>2011-11-15T14:43:46Z</time>
      </trkpt>
      <trkpt lat="45.31468" lon="5.88654">
        <ele>1008.4</ele>
        <time>2011-11-15T14:43:52Z</time>
      </trkpt>
      <trkpt lat="45.31453" lon="5.88649">
        <ele>1006.6</ele>
        <time>2011-11-15T14:43:57Z</time>
      </trkpt>
      <trkpt lat="45.3145" lon="5.88648">
        <ele>1006.2</ele>
        <time>2011-11-15T14:43:58Z</time>
      </trkpt>
      <trkpt lat="45.3144" lon="5.88639">
        <ele>1004.6</ele>
        <time>2011-11-15T14:44:03Z</time>
      </trkpt>
      <trkpt lat="45.31438" lon="5.88635">
        <ele>1004</ele>
        <time>2011-11-15T14:44:05Z</time>
      </trkpt>
    </trkseg>
  </trk>
</gpx>